GFSNGP_prec_pwat_000.txt.gz
Precipitable_Water
0.44 0.48 0.48 0.45 0.41 0.44 0.44 0.44 0.34 0.36 0.43 0.50 0.52 0.47 0.47 0.50 0.53 0.56 0.58 0.62 0.64 0.63 0.64 0.66 0.67 0.68 0.67 0.66 0.63 0.63 0.62 0.63 0.64 0.64 0.62 0.62 0.61 0.54 0.43 0.38 0.34 0.34 0.33 0.33
0.45 0.54 0.50 0.47 0.52 0.53 0.53 0.52 0.48 0.52 0.50 0.58 0.53 0.50 0.50 0.52 0.53 0.53 0.57 0.62 0.65 0.67 0.68 0.67 0.68 0.67 0.66 0.64 0.63 0.63 0.62 0.63 0.63 0.62 0.62 0.61 0.58 0.43 0.36 0.35 0.33 0.33 0.34 0.33
0.41 0.54 0.51 0.43 0.49 0.52 0.55 0.59 0.57 0.48 0.54 0.52 0.49 0.51 0.54 0.56 0.55 0.50 0.52 0.57 0.62 0.66 0.70 0.72 0.71 0.70 0.66 0.64 0.62 0.63 0.63 0.63 0.62 0.62 0.61 0.57 0.43 0.37 0.35 0.32 0.32 0.34 0.33 0.30
0.45 0.50 0.33 0.46 0.65 0.64 0.60 0.63 0.66 0.59 0.52 0.52 0.52 0.57 0.60 0.64 0.62 0.61 0.59 0.57 0.57 0.63 0.68 0.69 0.69 0.67 0.64 0.64 0.63 0.63 0.63 0.62 0.62 0.59 0.53 0.42 0.37 0.33 0.31 0.31 0.32 0.31 0.29 0.27
0.38 0.37 0.42 0.44 0.52 0.56 0.53 0.53 0.63 0.56 0.55 0.55 0.58 0.59 0.58 0.65 0.67 0.67 0.67 0.69 0.70 0.67 0.67 0.68 0.67 0.66 0.64 0.64 0.64 0.63 0.62 0.60 0.55 0.50 0.40 0.35 0.32 0.30 0.30 0.30 0.30 0.28 0.27 0.25
0.41 0.33 0.28 0.38 0.48 0.55 0.57 0.41 0.57 0.57 0.55 0.56 0.56 0.45 0.52 0.66 0.70 0.71 0.71 0.71 0.71 0.72 0.70 0.68 0.67 0.67 0.65 0.64 0.61 0.57 0.54 0.52 0.43 0.37 0.35 0.32 0.30 0.29 0.29 0.29 0.27 0.26 0.26 0.25
0.38 0.35 0.38 0.48 0.49 0.55 0.35 0.36 0.50 0.54 0.56 0.56 0.52 0.56 0.63 0.68 0.68 0.69 0.68 0.68 0.70 0.70 0.69 0.68 0.67 0.64 0.57 0.54 0.52 0.51 0.44 0.38 0.36 0.35 0.32 0.30 0.29 0.28 0.27 0.26 0.25 0.26 0.25 0.23
0.40 0.35 0.30 0.57 0.48 0.40 0.47 0.50 0.54 0.54 0.57 0.57 0.60 0.62 0.62 0.63 0.62 0.64 0.64 0.66 0.66 0.63 0.59 0.55 0.55 0.54 0.51 0.49 0.43 0.39 0.37 0.36 0.35 0.32 0.31 0.30 0.26 0.25 0.25 0.25 0.26 0.24 0.22 0.21
0.43 0.41 0.56 0.59 0.56 0.59 0.56 0.53 0.55 0.56 0.58 0.59 0.58 0.59 0.61 0.60 0.62 0.60 0.58 0.56 0.55 0.52 0.52 0.52 0.51 0.46 0.40 0.38 0.37 0.37 0.36 0.34 0.32 0.31 0.29 0.26 0.24 0.24 0.26 0.26 0.24 0.22 0.20 0.19
0.50 0.53 0.56 0.59 0.62 0.62 0.62 0.61 0.61 0.61 0.60 0.60 0.57 0.59 0.59 0.58 0.57 0.55 0.55 0.53 0.53 0.51 0.46 0.40 0.38 0.36 0.36 0.37 0.38 0.36 0.33 0.32 0.30 0.26 0.24 0.24 0.26 0.27 0.26 0.24 0.22 0.21 0.19 0.18
0.52 0.56 0.58 0.60 0.61 0.62 0.63 0.66 0.65 0.66 0.66 0.64 0.62 0.59 0.58 0.57 0.55 0.54 0.52 0.49 0.44 0.40 0.36 0.33 0.33 0.35 0.38 0.37 0.35 0.33 0.32 0.29 0.25 0.24 0.24 0.26 0.27 0.26 0.25 0.23 0.22 0.20 0.19 0.18
0.47 0.58 0.57 0.57 0.63 0.65 0.61 0.63 0.65 0.64 0.65 0.66 0.62 0.59 0.58 0.56 0.56 0.51 0.47 0.43 0.39 0.34 0.31 0.32 0.34 0.36 0.36 0.35 0.34 0.32 0.27 0.24 0.24 0.25 0.27 0.27 0.26 0.25 0.23 0.21 0.20 0.20 0.19 0.19
0.60 0.65 0.62 0.61 0.64 0.65 0.63 0.65 0.67 0.65 0.63 0.60 0.57 0.58 0.59 0.57 0.54 0.49 0.42 0.35 0.32 0.32 0.34 0.35 0.35 0.35 0.34 0.34 0.30 0.27 0.24 0.24 0.26 0.27 0.27 0.26 0.24 0.21 0.18 0.18 0.18 0.17 0.17 0.18
0.67 0.65 0.60 0.62 0.60 0.67 0.69 0.70 0.69 0.64 0.63 0.61 0.60 0.61 0.59 0.54 0.49 0.40 0.35 0.34 0.35 0.35 0.34 0.34 0.34 0.33 0.33 0.29 0.27 0.25 0.25 0.27 0.28 0.28 0.27 0.24 0.21 0.19 0.18 0.16 0.15 0.14 0.16 0.17
0.64 0.66 0.66 0.67 0.65 0.63 0.67 0.64 0.58 0.56 0.56 0.56 0.57 0.55 0.51 0.43 0.37 0.35 0.35 0.35 0.34 0.33 0.33 0.32 0.32 0.30 0.28 0.27 0.26 0.26 0.27 0.28 0.29 0.27 0.25 0.22 0.20 0.18 0.17 0.16 0.14 0.14 0.14 0.14
0.64 0.62 0.58 0.55 0.58 0.59 0.58 0.56 0.54 0.54 0.54 0.53 0.49 0.45 0.41 0.38 0.35 0.33 0.33 0.33 0.32 0.31 0.30 0.31 0.28 0.28 0.28 0.27 0.27 0.28 0.29 0.29 0.28 0.25 0.21 0.20 0.19 0.17 0.16 0.14 0.13 0.13 0.12 0.12
0.49 0.49 0.52 0.54 0.55 0.55 0.56 0.55 0.52 0.50 0.50 0.49 0.47 0.43 0.37 0.32 0.31 0.31 0.32 0.34 0.32 0.30 0.30 0.28 0.28 0.28 0.28 0.28 0.29 0.29 0.29 0.27 0.25 0.21 0.20 0.19 0.17 0.16 0.14 0.13 0.12 0.11 0.12 0.13
0.56 0.56 0.56 0.57 0.55 0.53 0.52 0.53 0.53 0.51 0.47 0.44 0.40 0.34 0.31 0.31 0.31 0.32 0.32 0.30 0.30 0.30 0.29 0.29 0.29 0.29 0.29 0.30 0.30 0.29 0.27 0.23 0.20 0.19 0.19 0.17 0.16 0.14 0.13 0.12 0.11 0.12 0.12 0.14
0.57 0.55 0.56 0.56 0.57 0.56 0.54 0.51 0.48 0.46 0.43 0.39 0.34 0.33 0.34 0.34 0.33 0.32 0.31 0.30 0.29 0.29 0.29 0.30 0.30 0.30 0.29 0.30 0.30 0.27 0.23 0.20 0.19 0.18 0.17 0.15 0.14 0.12 0.11 0.11 0.12 0.13 0.14 0.14
0.59 0.58 0.59 0.59 0.59 0.56 0.51 0.49 0.48 0.45 0.40 0.36 0.35 0.34 0.33 0.33 0.31 0.30 0.30 0.30 0.30 0.29 0.30 0.31 0.30 0.29 0.30 0.29 0.27 0.23 0.20 0.18 0.17 0.16 0.15 0.13 0.11 0.11 0.11 0.12 0.13 0.14 0.14 0.14
0.60 0.59 0.59 0.59 0.57 0.55 0.53 0.51 0.45 0.37 0.35 0.36 0.34 0.32 0.30 0.30 0.30 0.30 0.30 0.29 0.31 0.31 0.31 0.30 0.30 0.29 0.27 0.26 0.23 0.20 0.18 0.16 0.15 0.14 0.12 0.11 0.11 0.11 0.12 0.13 0.13 0.14 0.14 0.15
0.60 0.59 0.58 0.57 0.54 0.51 0.49 0.44 0.38 0.35 0.34 0.34 0.32 0.31 0.30 0.28 0.29 0.31 0.31 0.30 0.31 0.31 0.30 0.30 0.28 0.26 0.25 0.24 0.20 0.17 0.17 0.16 0.14 0.12 0.11 0.11 0.12 0.12 0.13 0.13 0.14 0.14 0.15 0.15
0.56 0.56 0.55 0.52 0.50 0.48 0.43 0.38 0.34 0.33 0.32 0.31 0.30 0.29 0.28 0.30 0.31 0.30 0.29 0.32 0.32 0.31 0.28 0.26 0.25 0.24 0.23 0.19 0.17 0.17 0.15 0.13 0.11 0.11 0.12 0.12 0.13 0.13 0.14 0.14 0.15 0.15 0.15 0.15
0.52 0.51 0.48 0.48 0.46 0.40 0.32 0.31 0.33 0.32 0.31 0.30 0.30 0.31 0.32 0.32 0.32 0.33 0.33 0.32 0.30 0.26 0.23 0.23 0.22 0.21 0.20 0.18 0.17 0.15 0.13 0.12 0.11 0.12 0.13 0.14 0.14 0.15 0.15 0.15 0.15 0.15 0.15 0.17
0.48 0.48 0.46 0.42 0.36 0.31 0.31 0.32 0.31 0.31 0.30 0.31 0.32 0.33 0.34 0.34 0.33 0.31 0.29 0.27 0.25 0.22 0.20 0.20 0.20 0.19 0.17 0.16 0.14 0.13 0.12 0.12 0.13 0.14 0.14 0.14 0.15 0.15 0.16 0.16 0.16 0.16 0.17 0.17
0.47 0.45 0.41 0.36 0.33 0.33 0.33 0.32 0.31 0.31 0.31 0.31 0.32 0.33 0.34 0.32 0.30 0.27 0.25 0.23 0.21 0.20 0.19 0.18 0.18 0.17 0.16 0.14 0.12 0.12 0.13 0.14 0.14 0.14 0.15 0.16 0.16 0.16 0.16 0.16 0.16 0.16 0.17 0.17
0.44 0.42 0.39 0.36 0.35 0.35 0.34 0.33 0.32 0.31 0.33 0.33 0.33 0.32 0.30 0.28 0.26 0.24 0.22 0.21 0.20 0.19 0.18 0.18 0.16 0.15 0.13 0.12 0.13 0.14 0.14 0.15 0.15 0.15 0.16 0.16 0.16 0.15 0.15 0.15 0.16 0.17 0.18 0.18

GFSNGP_prec_pwat_003.txt.gz
Precipitable_Water
0.42 0.45 0.45 0.37 0.35 0.31 0.27 0.25 0.25 0.29 0.37 0.42 0.56 0.56 0.59 0.62 0.63 0.62 0.61 0.64 0.65 0.66 0.67 0.67 0.65 0.63 0.63 0.63 0.64 0.65 0.64 0.63 0.63 0.64 0.64 0.65 0.64 0.64 0.60 0.57 0.48 0.37 0.34 0.35
0.40 0.47 0.45 0.35 0.38 0.41 0.35 0.33 0.36 0.41 0.39 0.50 0.56 0.60 0.57 0.55 0.58 0.59 0.60 0.63 0.66 0.69 0.69 0.68 0.67 0.65 0.65 0.66 0.66 0.65 0.64 0.62 0.63 0.63 0.64 0.64 0.64 0.61 0.58 0.48 0.38 0.34 0.33 0.32
0.36 0.50 0.43 0.32 0.37 0.40 0.41 0.45 0.45 0.39 0.45 0.57 0.55 0.52 0.49 0.50 0.54 0.56 0.61 0.64 0.67 0.69 0.70 0.68 0.67 0.67 0.66 0.67 0.65 0.63 0.62 0.62 0.62 0.63 0.65 0.64 0.62 0.57 0.47 0.36 0.33 0.32 0.31 0.30
0.41 0.47 0.31 0.49 0.60 0.55 0.48 0.52 0.56 0.56 0.60 0.64 0.58 0.61 0.61 0.62 0.55 0.55 0.59 0.64 0.68 0.71 0.72 0.73 0.73 0.72 0.71 0.68 0.66 0.64 0.62 0.62 0.64 0.64 0.64 0.62 0.53 0.44 0.34 0.32 0.31 0.30 0.29 0.30
0.41 0.39 0.44 0.50 0.61 0.59 0.54 0.54 0.64 0.63 0.64 0.64 0.63 0.63 0.62 0.68 0.67 0.65 0.65 0.65 0.65 0.69 0.71 0.72 0.72 0.71 0.69 0.66 0.64 0.63 0.62 0.62 0.64 0.63 0.56 0.49 0.37 0.31 0.31 0.31 0.29 0.28 0.28 0.27
0.43 0.34 0.29 0.42 0.60 0.69 0.68 0.46 0.67 0.66 0.63 0.59 0.56 0.47 0.56 0.66 0.69 0.69 0.72 0.72 0.72 0.73 0.71 0.71 0.69 0.69 0.67 0.64 0.62 0.60 0.62 0.61 0.57 0.52 0.44 0.34 0.32 0.32 0.30 0.28 0.27 0.27 0.26 0.26
0.38 0.36 0.39 0.50 0.53 0.60 0.42 0.40 0.61 0.66 0.64 0.58 0.53 0.59 0.64 0.67 0.68 0.71 0.73 0.73 0.73 0.73 0.72 0.71 0.70 0.68 0.65 0.63 0.60 0.59 0.56 0.53 0.46 0.37 0.34 0.33 0.32 0.30 0.27 0.26 0.26 0.26 0.26 0.25
0.37 0.34 0.30 0.57 0.51 0.44 0.48 0.52 0.55 0.60 0.61 0.60 0.63 0.65 0.65 0.66 0.66 0.67 0.68 0.69 0.70 0.69 0.69 0.69 0.68 0.64 0.58 0.54 0.53 0.51 0.44 0.37 0.35 0.34 0.33 0.31 0.29 0.27 0.26 0.26 0.26 0.25 0.24 0.23
0.40 0.40 0.55 0.59 0.55 0.57 0.57 0.54 0.56 0.59 0.60 0.62 0.62 0.63 0.66 0.65 0.65 0.64 0.65 0.66 0.67 0.66 0.63 0.60 0.56 0.54 0.51 0.48 0.41 0.37 0.35 0.35 0.34 0.33 0.32 0.29 0.26 0.26 0.26 0.26 0.25 0.24 0.22 0.20
0.46 0.50 0.56 0.59 0.62 0.59 0.60 0.58 0.61 0.64 0.65 0.64 0.60 0.62 0.62 0.62 0.62 0.62 0.62 0.59 0.57 0.54 0.51 0.49 0.48 0.43 0.39 0.37 0.36 0.36 0.35 0.33 0.33 0.31 0.27 0.26 0.27 0.27 0.27 0.25 0.24 0.22 0.19 0.18
0.51 0.56 0.58 0.61 0.63 0.61 0.63 0.65 0.64 0.65 0.64 0.63 0.63 0.62 0.62 0.59 0.56 0.54 0.54 0.53 0.51 0.47 0.41 0.38 0.37 0.35 0.35 0.37 0.37 0.34 0.33 0.32 0.29 0.26 0.26 0.27 0.28 0.27 0.26 0.25 0.23 0.20 0.19 0.19
0.47 0.59 0.58 0.58 0.64 0.64 0.62 0.63 0.65 0.63 0.65 0.67 0.67 0.61 0.57 0.55 0.55 0.54 0.52 0.49 0.45 0.41 0.37 0.33 0.33 0.35 0.37 0.36 0.34 0.33 0.30 0.27 0.26 0.26 0.28 0.28 0.27 0.26 0.25 0.22 0.21 0.20 0.20 0.19
0.59 0.66 0.65 0.65 0.66 0.66 0.63 0.64 0.64 0.65 0.67 0.63 0.62 0.60 0.58 0.57 0.56 0.55 0.51 0.46 0.39 0.34 0.33 0.34 0.35 0.35 0.34 0.34 0.33 0.29 0.26 0.26 0.27 0.29 0.28 0.27 0.25 0.22 0.18 0.18 0.18 0.18 0.17 0.17
0.66 0.65 0.60 0.63 0.60 0.66 0.65 0.66 0.66 0.67 0.65 0.61 0.59 0.58 0.56 0.56 0.56 0.51 0.44 0.39 0.35 0.33 0.34 0.35 0.33 0.33 0.33 0.32 0.29 0.26 0.26 0.29 0.29 0.29 0.27 0.25 0.22 0.19 0.18 0.16 0.15 0.14 0.15 0.15
0.63 0.68 0.64 0.66 0.66 0.64 0.66 0.66 0.65 0.63 0.59 0.58 0.59 0.56 0.56 0.52 0.47 0.41 0.37 0.35 0.35 0.35 0.34 0.32 0.32 0.32 0.30 0.28 0.27 0.27 0.28 0.29 0.30 0.28 0.25 0.23 0.20 0.18 0.17 0.15 0.14 0.13 0.12 0.12
0.64 0.67 0.64 0.64 0.64 0.64 0.61 0.61 0.58 0.55 0.55 0.54 0.55 0.54 0.49 0.43 0.38 0.35 0.36 0.35 0.33 0.30 0.31 0.32 0.30 0.28 0.29 0.29 0.28 0.29 0.29 0.29 0.29 0.25 0.21 0.19 0.18 0.16 0.15 0.14 0.12 0.11 0.11 0.12
0.62 0.60 0.61 0.57 0.56 0.57 0.58 0.58 0.56 0.56 0.54 0.52 0.50 0.48 0.43 0.37 0.32 0.32 0.32 0.32 0.31 0.32 0.31 0.30 0.28 0.30 0.30 0.29 0.29 0.29 0.29 0.28 0.25 0.21 0.19 0.18 0.16 0.16 0.14 0.12 0.10 0.11 0.12 0.13
0.58 0.57 0.57 0.57 0.57 0.57 0.57 0.56 0.54 0.52 0.51 0.50 0.45 0.39 0.32 0.29 0.29 0.30 0.30 0.32 0.31 0.30 0.29 0.30 0.31 0.29 0.29 0.30 0.30 0.29 0.28 0.23 0.20 0.19 0.18 0.16 0.16 0.14 0.11 0.11 0.11 0.11 0.12 0.13
0.57 0.56 0.56 0.57 0.58 0.58 0.56 0.53 0.53 0.52 0.48 0.43 0.36 0.31 0.31 0.32 0.31 0.31 0.31 0.30 0.29 0.28 0.30 0.31 0.30 0.30 0.29 0.31 0.31 0.28 0.23 0.20 0.18 0.17 0.16 0.15 0.13 0.11 0.10 0.11 0.11 0.12 0.13 0.13
0.56 0.57 0.56 0.56 0.58 0.57 0.55 0.54 0.52 0.48 0.44 0.39 0.35 0.33 0.31 0.31 0.31 0.31 0.30 0.29 0.30 0.30 0.31 0.31 0.30 0.29 0.30 0.30 0.27 0.23 0.20 0.18 0.17 0.16 0.14 0.13 0.11 0.10 0.11 0.12 0.12 0.13 0.14 0.14
0.57 0.59 0.58 0.57 0.57 0.58 0.57 0.55 0.51 0.46 0.43 0.36 0.32 0.31 0.31 0.31 0.31 0.31 0.29 0.29 0.31 0.32 0.31 0.31 0.30 0.30 0.28 0.26 0.23 0.20 0.18 0.17 0.16 0.14 0.12 0.11 0.10 0.11 0.12 0.13 0.13 0.14 0.14 0.15
0.59 0.60 0.60 0.59 0.57 0.56 0.55 0.54 0.49 0.42 0.36 0.33 0.33 0.32 0.30 0.30 0.29 0.29 0.31 0.31 0.33 0.32 0.31 0.30 0.29 0.27 0.26 0.23 0.20 0.18 0.17 0.15 0.14 0.12 0.11 0.11 0.12 0.12 0.13 0.14 0.14 0.15 0.15 0.15
0.57 0.58 0.59 0.58 0.57 0.54 0.53 0.50 0.44 0.37 0.33 0.32 0.31 0.31 0.30 0.29 0.29 0.30 0.30 0.33 0.32 0.31 0.29 0.27 0.26 0.25 0.23 0.19 0.18 0.17 0.15 0.14 0.12 0.11 0.12 0.13 0.14 0.14 0.14 0.15 0.15 0.15 0.15 0.15
0.55 0.55 0.55 0.55 0.53 0.50 0.46 0.43 0.38 0.34 0.33 0.32 0.31 0.31 0.30 0.30 0.32 0.34 0.34 0.33 0.31 0.27 0.26 0.25 0.23 0.22 0.20 0.18 0.16 0.15 0.14 0.12 0.12 0.13 0.14 0.14 0.14 0.15 0.15 0.15 0.15 0.15 0.15 0.16
0.52 0.51 0.51 0.48 0.45 0.43 0.39 0.34 0.31 0.31 0.31 0.30 0.30 0.31 0.33 0.34 0.33 0.33 0.31 0.29 0.27 0.24 0.22 0.21 0.21 0.20 0.18 0.16 0.15 0.14 0.12 0.13 0.14 0.14 0.14 0.14 0.15 0.15 0.15 0.15 0.14 0.14 0.16 0.17
0.49 0.49 0.47 0.46 0.43 0.38 0.33 0.31 0.30 0.30 0.30 0.30 0.31 0.33 0.34 0.35 0.33 0.29 0.27 0.25 0.23 0.22 0.20 0.19 0.19 0.18 0.16 0.14 0.13 0.13 0.13 0.14 0.14 0.14 0.15 0.15 0.15 0.15 0.14 0.14 0.14 0.15 0.17 0.17
0.49 0.48 0.46 0.42 0.38 0.34 0.33 0.32 0.31 0.31 0.32 0.32 0.32 0.33 0.32 0.30 0.28 0.26 0.24 0.22 0.21 0.20 0.19 0.18 0.16 0.15 0.14 0.13 0.13 0.14 0.14 0.14 0.15 0.15 0.15 0.15 0.15 0.15 0.15 0.15 0.15 0.17 0.18 0.19

GFSNGP_prec_pwat_006.txt.gz
Precipitable_Water
0.42 0.44 0.43 0.40 0.38 0.35 0.30 0.29 0.24 0.20 0.25 0.31 0.38 0.49 0.60 0.60 0.65 0.67 0.68 0.71 0.73 0.75 0.76 0.76 0.73 0.69 0.66 0.64 0.62 0.62 0.61 0.60 0.61 0.63 0.64 0.64 0.64 0.64 0.64 0.63 0.63 0.60 0.50 0.40
0.40 0.46 0.44 0.38 0.39 0.38 0.34 0.33 0.32 0.31 0.30 0.41 0.52 0.59 0.63 0.63 0.63 0.64 0.67 0.71 0.73 0.75 0.73 0.71 0.69 0.66 0.63 0.60 0.59 0.60 0.60 0.62 0.63 0.64 0.64 0.63 0.63 0.63 0.63 0.63 0.60 0.49 0.38 0.32
0.35 0.46 0.43 0.30 0.35 0.37 0.37 0.39 0.35 0.31 0.38 0.49 0.58 0.63 0.65 0.63 0.62 0.64 0.68 0.70 0.71 0.72 0.71 0.70 0.67 0.64 0.61 0.60 0.62 0.62 0.63 0.64 0.63 0.63 0.63 0.62 0.63 0.62 0.62 0.56 0.47 0.36 0.31 0.30
0.38 0.44 0.31 0.49 0.57 0.51 0.40 0.43 0.46 0.43 0.51 0.57 0.60 0.66 0.65 0.62 0.61 0.64 0.68 0.71 0.72 0.72 0.71 0.70 0.69 0.67 0.65 0.64 0.64 0.64 0.63 0.63 0.64 0.64 0.63 0.62 0.62 0.59 0.52 0.44 0.34 0.30 0.28 0.26
0.37 0.39 0.44 0.47 0.57 0.48 0.42 0.41 0.52 0.50 0.53 0.58 0.63 0.65 0.59 0.62 0.63 0.64 0.69 0.73 0.75 0.77 0.76 0.73 0.70 0.68 0.66 0.65 0.66 0.65 0.65 0.64 0.63 0.62 0.62 0.60 0.55 0.49 0.39 0.31 0.30 0.27 0.27 0.29
0.43 0.35 0.28 0.46 0.66 0.72 0.65 0.44 0.62 0.61 0.58 0.60 0.63 0.51 0.56 0.65 0.65 0.64 0.67 0.71 0.71 0.72 0.71 0.70 0.69 0.70 0.70 0.68 0.67 0.64 0.63 0.62 0.62 0.61 0.56 0.51 0.43 0.33 0.31 0.30 0.26 0.28 0.28 0.27
0.38 0.35 0.39 0.50 0.60 0.68 0.40 0.43 0.61 0.64 0.62 0.62 0.59 0.62 0.65 0.68 0.69 0.71 0.72 0.73 0.75 0.75 0.73 0.72 0.71 0.70 0.67 0.65 0.63 0.63 0.62 0.60 0.56 0.52 0.45 0.36 0.33 0.31 0.28 0.28 0.28 0.28 0.26 0.25
0.37 0.33 0.29 0.54 0.55 0.45 0.49 0.53 0.60 0.67 0.66 0.63 0.62 0.61 0.65 0.67 0.68 0.71 0.73 0.74 0.75 0.74 0.72 0.72 0.72 0.72 0.68 0.64 0.63 0.59 0.54 0.51 0.44 0.37 0.34 0.33 0.31 0.28 0.28 0.28 0.27 0.25 0.24 0.22
0.40 0.39 0.54 0.57 0.54 0.58 0.55 0.53 0.54 0.61 0.67 0.66 0.60 0.62 0.66 0.67 0.69 0.70 0.71 0.71 0.71 0.71 0.70 0.70 0.69 0.67 0.62 0.55 0.52 0.48 0.40 0.36 0.35 0.34 0.32 0.31 0.28 0.28 0.28 0.27 0.25 0.23 0.22 0.21
0.46 0.49 0.54 0.59 0.61 0.58 0.59 0.57 0.61 0.63 0.64 0.63 0.61 0.64 0.66 0.69 0.68 0.67 0.67 0.68 0.69 0.69 0.66 0.63 0.61 0.54 0.49 0.43 0.39 0.36 0.35 0.35 0.33 0.33 0.29 0.28 0.28 0.28 0.27 0.25 0.23 0.22 0.21 0.20
0.50 0.54 0.57 0.60 0.63 0.60 0.60 0.62 0.62 0.66 0.66 0.65 0.65 0.64 0.64 0.63 0.64 0.65 0.66 0.65 0.63 0.58 0.52 0.47 0.45 0.41 0.39 0.36 0.36 0.36 0.34 0.32 0.31 0.28 0.27 0.28 0.28 0.28 0.27 0.25 0.24 0.22 0.20 0.19
0.46 0.59 0.57 0.58 0.65 0.64 0.63 0.63 0.65 0.64 0.64 0.67 0.67 0.65 0.65 0.63 0.61 0.58 0.56 0.55 0.54 0.50 0.46 0.41 0.38 0.34 0.35 0.37 0.36 0.33 0.31 0.29 0.28 0.27 0.28 0.29 0.28 0.26 0.25 0.23 0.22 0.21 0.20 0.19
0.60 0.66 0.64 0.66 0.67 0.67 0.64 0.65 0.65 0.66 0.67 0.68 0.71 0.69 0.61 0.56 0.56 0.56 0.55 0.52 0.48 0.44 0.38 0.34 0.35 0.36 0.36 0.34 0.32 0.31 0.27 0.27 0.28 0.28 0.29 0.28 0.26 0.23 0.19 0.19 0.19 0.18 0.18 0.16
0.67 0.66 0.62 0.66 0.63 0.69 0.67 0.66 0.67 0.67 0.68 0.66 0.62 0.60 0.57 0.55 0.54 0.52 0.51 0.48 0.42 0.37 0.35 0.35 0.35 0.33 0.32 0.31 0.30 0.28 0.29 0.29 0.29 0.30 0.29 0.26 0.23 0.20 0.19 0.17 0.15 0.14 0.13 0.13
0.64 0.66 0.66 0.67 0.68 0.67 0.67 0.66 0.63 0.63 0.62 0.60 0.59 0.57 0.56 0.53 0.52 0.49 0.44 0.39 0.35 0.35 0.35 0.33 0.31 0.30 0.32 0.30 0.28 0.29 0.29 0.30 0.30 0.29 0.26 0.23 0.21 0.19 0.17 0.16 0.14 0.12 0.11 0.12
0.64 0.65 0.66 0.64 0.64 0.65 0.65 0.61 0.60 0.63 0.61 0.58 0.56 0.55 0.55 0.51 0.45 0.41 0.37 0.35 0.33 0.31 0.30 0.30 0.31 0.31 0.30 0.30 0.30 0.29 0.29 0.30 0.30 0.26 0.22 0.20 0.19 0.17 0.16 0.14 0.12 0.10 0.11 0.11
0.62 0.60 0.63 0.61 0.63 0.65 0.64 0.61 0.60 0.58 0.56 0.55 0.55 0.54 0.50 0.46 0.39 0.33 0.33 0.33 0.31 0.31 0.32 0.32 0.30 0.30 0.31 0.30 0.29 0.29 0.29 0.28 0.25 0.21 0.19 0.18 0.16 0.16 0.14 0.12 0.10 0.10 0.11 0.13
0.68 0.69 0.68 0.65 0.60 0.57 0.58 0.58 0.57 0.56 0.54 0.54 0.54 0.49 0.41 0.34 0.29 0.30 0.30 0.31 0.31 0.31 0.31 0.30 0.30 0.31 0.30 0.30 0.30 0.30 0.28 0.24 0.20 0.19 0.18 0.16 0.16 0.14 0.12 0.11 0.11 0.11 0.12 0.13
0.58 0.57 0.58 0.58 0.59 0.60 0.59 0.58 0.57 0.56 0.54 0.51 0.44 0.39 0.33 0.30 0.31 0.31 0.31 0.30 0.30 0.29 0.29 0.31 0.32 0.30 0.30 0.31 0.31 0.28 0.23 0.20 0.18 0.17 0.16 0.15 0.13 0.11 0.11 0.11 0.12 0.13 0.13 0.14
0.57 0.58 0.58 0.58 0.59 0.59 0.57 0.56 0.54 0.52 0.50 0.46 0.41 0.33 0.31 0.32 0.31 0.30 0.31 0.29 0.29 0.29 0.32 0.32 0.31 0.30 0.30 0.31 0.28 0.24 0.20 0.18 0.17 0.16 0.14 0.13 0.11 0.11 0.12 0.13 0.13 0.14 0.14 0.14
0.57 0.57 0.57 0.58 0.59 0.59 0.58 0.57 0.54 0.51 0.48 0.42 0.35 0.32 0.30 0.31 0.32 0.31 0.29 0.28 0.31 0.33 0.33 0.32 0.30 0.31 0.30 0.27 0.24 0.20 0.18 0.17 0.15 0.13 0.12 0.11 0.11 0.12 0.13 0.14 0.14 0.14 0.14 0.14
0.58 0.58 0.58 0.60 0.60 0.58 0.58 0.58 0.54 0.51 0.45 0.38 0.34 0.32 0.31 0.30 0.30 0.30 0.31 0.30 0.33 0.34 0.32 0.31 0.30 0.29 0.27 0.23 0.20 0.18 0.17 0.15 0.13 0.12 0.12 0.12 0.13 0.13 0.14 0.14 0.14 0.14 0.15 0.15
0.59 0.60 0.60 0.61 0.60 0.59 0.59 0.56 0.52 0.47 0.39 0.35 0.32 0.31 0.31 0.31 0.31 0.30 0.29 0.34 0.34 0.32 0.31 0.29 0.28 0.26 0.23 0.20 0.18 0.17 0.15 0.13 0.12 0.12 0.13 0.14 0.14 0.14 0.14 0.14 0.14 0.14 0.13 0.14
0.57 0.58 0.58 0.58 0.57 0.55 0.53 0.51 0.48 0.44 0.37 0.34 0.33 0.32 0.32 0.31 0.31 0.33 0.36 0.34 0.33 0.30 0.28 0.26 0.24 0.23 0.20 0.18 0.17 0.15 0.13 0.13 0.13 0.14 0.14 0.14 0.14 0.15 0.14 0.14 0.13 0.13 0.14 0.16
0.54 0.54 0.54 0.53 0.52 0.50 0.48 0.47 0.42 0.36 0.32 0.31 0.32 0.32 0.32 0.33 0.33 0.35 0.34 0.32 0.29 0.25 0.24 0.23 0.22 0.21 0.18 0.16 0.14 0.13 0.13 0.14 0.14 0.14 0.14 0.14 0.14 0.14 0.15 0.14 0.14 0.14 0.16 0.17
0.51 0.51 0.52 0.52 0.50 0.48 0.44 0.39 0.32 0.30 0.30 0.30 0.31 0.32 0.33 0.35 0.35 0.33 0.30 0.27 0.25 0.23 0.21 0.20 0.19 0.18 0.16 0.14 0.13 0.14 0.14 0.14 0.13 0.14 0.14 0.14 0.14 0.14 0.15 0.15 0.15 0.15 0.16 0.18
0.50 0.50 0.50 0.48 0.46 0.43 0.38 0.33 0.30 0.30 0.31 0.31 0.31 0.33 0.33 0.32 0.31 0.29 0.27 0.24 0.23 0.21 0.20 0.18 0.17 0.15 0.14 0.14 0.14 0.14 0.14 0.14 0.14 0.15 0.15 0.14 0.15 0.15 0.15 0.15 0.16 0.17 0.18 0.21

GFSNGP_prec_pwat_009.txt.gz
Precipitable_Water
0.42 0.44 0.43 0.40 0.37 0.37 0.33 0.32 0.26 0.23 0.25 0.27 0.33 0.35 0.42 0.47 0.56 0.59 0.59 0.62 0.64 0.68 0.74 0.82 0.88 0.94 0.94 0.92 0.87 0.79 0.70 0.67 0.64 0.62 0.62 0.61 0.61 0.64 0.64 0.64 0.64 0.64 0.63 0.58
0.39 0.46 0.46 0.40 0.41 0.37 0.36 0.35 0.33 0.33 0.30 0.39 0.43 0.45 0.48 0.65 0.64 0.62 0.64 0.72 0.74 0.76 0.82 0.84 0.87 0.89 0.87 0.83 0.76 0.71 0.66 0.63 0.61 0.62 0.60 0.61 0.63 0.63 0.63 0.64 0.64 0.63 0.56 0.47
0.33 0.44 0.45 0.37 0.40 0.40 0.39 0.40 0.38 0.34 0.40 0.50 0.52 0.59 0.64 0.67 0.67 0.65 0.71 0.75 0.76 0.81 0.85 0.85 0.83 0.81 0.75 0.70 0.67 0.64 0.61 0.60 0.60 0.60 0.61 0.62 0.62 0.63 0.64 0.63 0.62 0.52 0.44 0.33
0.37 0.42 0.30 0.49 0.60 0.53 0.44 0.41 0.44 0.44 0.47 0.53 0.58 0.66 0.69 0.71 0.68 0.70 0.74 0.76 0.78 0.79 0.77 0.76 0.73 0.71 0.68 0.65 0.61 0.60 0.59 0.60 0.61 0.61 0.62 0.63 0.64 0.63 0.63 0.59 0.50 0.40 0.30 0.27
0.36 0.37 0.45 0.47 0.54 0.52 0.43 0.43 0.52 0.51 0.56 0.59 0.63 0.66 0.62 0.68 0.70 0.72 0.76 0.79 0.80 0.80 0.76 0.73 0.71 0.68 0.65 0.62 0.62 0.62 0.61 0.62 0.63 0.64 0.64 0.64 0.62 0.61 0.53 0.45 0.33 0.29 0.27 0.29
0.41 0.34 0.32 0.45 0.63 0.66 0.63 0.42 0.58 0.59 0.55 0.57 0.61 0.50 0.56 0.67 0.72 0.74 0.77 0.79 0.78 0.77 0.75 0.72 0.69 0.68 0.65 0.63 0.63 0.64 0.65 0.66 0.66 0.64 0.63 0.61 0.56 0.49 0.37 0.31 0.28 0.28 0.30 0.29
0.39 0.36 0.42 0.55 0.63 0.70 0.40 0.43 0.59 0.63 0.61 0.62 0.60 0.64 0.65 0.68 0.68 0.73 0.76 0.78 0.79 0.75 0.71 0.68 0.67 0.67 0.66 0.67 0.67 0.67 0.65 0.64 0.63 0.61 0.57 0.51 0.39 0.32 0.30 0.28 0.29 0.29 0.27 0.25
0.37 0.33 0.30 0.58 0.58 0.47 0.53 0.60 0.61 0.66 0.66 0.67 0.69 0.70 0.69 0.70 0.71 0.72 0.73 0.75 0.77 0.75 0.72 0.71 0.70 0.69 0.68 0.67 0.66 0.66 0.64 0.61 0.56 0.49 0.38 0.33 0.31 0.29 0.29 0.30 0.28 0.26 0.24 0.22
0.39 0.37 0.52 0.60 0.56 0.59 0.58 0.55 0.59 0.65 0.71 0.69 0.64 0.63 0.68 0.68 0.70 0.72 0.73 0.73 0.74 0.73 0.70 0.69 0.70 0.71 0.69 0.67 0.64 0.59 0.53 0.45 0.37 0.34 0.33 0.32 0.28 0.29 0.29 0.28 0.25 0.23 0.22 0.22
0.46 0.49 0.52 0.58 0.62 0.60 0.60 0.58 0.61 0.66 0.70 0.67 0.60 0.63 0.66 0.69 0.69 0.69 0.69 0.69 0.69 0.69 0.68 0.67 0.68 0.68 0.64 0.56 0.48 0.43 0.38 0.35 0.35 0.32 0.30 0.29 0.30 0.30 0.28 0.25 0.23 0.22 0.21 0.20
0.48 0.54 0.56 0.58 0.62 0.60 0.61 0.62 0.64 0.67 0.67 0.65 0.65 0.65 0.66 0.67 0.67 0.67 0.67 0.68 0.70 0.69 0.67 0.65 0.61 0.55 0.48 0.43 0.38 0.36 0.36 0.34 0.31 0.29 0.28 0.29 0.30 0.29 0.27 0.25 0.24 0.22 0.21 0.20
0.44 0.57 0.57 0.57 0.64 0.63 0.62 0.62 0.64 0.64 0.65 0.68 0.68 0.66 0.67 0.64 0.65 0.65 0.65 0.65 0.64 0.63 0.58 0.52 0.48 0.43 0.37 0.36 0.37 0.35 0.31 0.30 0.27 0.28 0.30 0.30 0.28 0.26 0.25 0.23 0.22 0.21 0.20 0.19
0.57 0.65 0.64 0.65 0.67 0.66 0.63 0.63 0.64 0.65 0.66 0.66 0.69 0.71 0.67 0.64 0.61 0.60 0.57 0.59 0.56 0.51 0.48 0.44 0.37 0.35 0.37 0.35 0.32 0.30 0.28 0.27 0.30 0.30 0.29 0.28 0.26 0.23 0.19 0.19 0.20 0.18 0.17 0.15
0.67 0.66 0.62 0.65 0.63 0.67 0.66 0.66 0.67 0.66 0.67 0.67 0.68 0.69 0.67 0.60 0.58 0.57 0.53 0.52 0.50 0.45 0.39 0.36 0.35 0.35 0.33 0.31 0.31 0.30 0.30 0.31 0.30 0.29 0.28 0.26 0.22 0.20 0.19 0.17 0.15 0.13 0.12 0.13
0.64 0.66 0.66 0.69 0.70 0.69 0.69 0.67 0.64 0.63 0.64 0.62 0.61 0.59 0.56 0.54 0.52 0.51 0.49 0.45 0.40 0.36 0.35 0.35 0.33 0.31 0.31 0.31 0.29 0.30 0.30 0.30 0.30 0.29 0.26 0.23 0.21 0.19 0.17 0.16 0.13 0.11 0.11 0.11
0.64 0.65 0.65 0.64 0.65 0.67 0.67 0.65 0.63 0.62 0.59 0.59 0.58 0.56 0.54 0.52 0.50 0.44 0.40 0.38 0.36 0.34 0.33 0.32 0.31 0.31 0.30 0.30 0.30 0.30 0.30 0.31 0.30 0.24 0.21 0.20 0.18 0.17 0.16 0.13 0.11 0.10 0.10 0.11
0.62 0.60 0.62 0.62 0.65 0.65 0.64 0.65 0.62 0.61 0.65 0.58 0.54 0.53 0.52 0.47 0.43 0.40 0.37 0.35 0.35 0.32 0.32 0.31 0.31 0.30 0.30 0.31 0.30 0.30 0.30 0.28 0.24 0.21 0.19 0.18 0.16 0.15 0.13 0.11 0.10 0.11 0.11 0.13
0.70 0.72 0.70 0.70 0.67 0.66 0.67 0.62 0.60 0.58 0.55 0.54 0.54 0.53 0.48 0.41 0.35 0.33 0.33 0.32 0.32 0.31 0.31 0.31 0.30 0.31 0.31 0.31 0.31 0.31 0.28 0.23 0.20 0.18 0.18 0.16 0.15 0.13 0.11 0.11 0.11 0.12 0.13 0.14
0.64 0.69 0.70 0.69 0.66 0.62 0.59 0.58 0.57 0.58 0.58 0.56 0.53 0.45 0.40 0.36 0.33 0.32 0.32 0.31 0.30 0.30 0.30 0.31 0.32 0.31 0.32 0.33 0.31 0.27 0.23 0.20 0.18 0.17 0.16 0.14 0.12 0.11 0.12 0.12 0.13 0.13 0.13 0.14
0.58 0.59 0.60 0.60 0.61 0.60 0.58 0.57 0.57 0.56 0.55 0.53 0.46 0.40 0.34 0.33 0.33 0.31 0.31 0.30 0.30 0.29 0.32 0.32 0.31 0.31 0.32 0.32 0.28 0.23 0.20 0.18 0.17 0.15 0.13 0.12 0.11 0.12 0.13 0.13 0.13 0.14 0.14 0.14
0.57 0.57 0.58 0.59 0.60 0.61 0.59 0.58 0.56 0.54 0.52 0.47 0.41 0.35 0.32 0.32 0.31 0.31 0.30 0.29 0.30 0.32 0.32 0.32 0.32 0.32 0.31 0.27 0.23 0.20 0.19 0.17 0.15 0.13 0.12 0.12 0.12 0.13 0.13 0.13 0.14 0.14 0.13 0.13
0.58 0.57 0.57 0.58 0.58 0.59 0.58 0.57 0.56 0.55 0.51 0.46 0.40 0.34 0.32 0.30 0.30 0.31 0.31 0.30 0.32 0.34 0.33 0.32 0.32 0.30 0.27 0.23 0.20 0.19 0.17 0.15 0.13 0.12 0.13 0.13 0.13 0.13 0.13 0.14 0.14 0.13 0.13 0.13
0.61 0.61 0.60 0.60 0.59 0.59 0.58 0.57 0.56 0.53 0.48 0.42 0.36 0.34 0.31 0.31 0.32 0.30 0.29 0.33 0.34 0.34 0.32 0.31 0.30 0.27 0.23 0.20 0.19 0.17 0.15 0.13 0.12 0.13 0.13 0.13 0.13 0.14 0.14 0.14 0.14 0.13 0.13 0.14
0.57 0.59 0.60 0.61 0.60 0.56 0.54 0.54 0.53 0.49 0.45 0.40 0.36 0.34 0.33 0.31 0.31 0.33 0.34 0.35 0.35 0.32 0.29 0.27 0.26 0.24 0.21 0.19 0.16 0.14 0.13 0.13 0.13 0.13 0.13 0.14 0.14 0.14 0.14 0.14 0.14 0.14 0.14 0.15
0.55 0.58 0.58 0.56 0.53 0.52 0.52 0.54 0.48 0.45 0.41 0.35 0.33 0.32 0.32 0.33 0.32 0.33 0.35 0.35 0.32 0.28 0.26 0.25 0.23 0.21 0.18 0.16 0.14 0.13 0.13 0.13 0.13 0.14 0.14 0.14 0.14 0.14 0.14 0.14 0.14 0.14 0.16 0.17
0.53 0.52 0.53 0.53 0.51 0.51 0.53 0.48 0.44 0.40 0.33 0.30 0.30 0.31 0.33 0.34 0.34 0.35 0.33 0.30 0.27 0.25 0.23 0.21 0.20 0.18 0.16 0.14 0.14 0.14 0.14 0.13 0.13 0.14 0.14 0.14 0.14 0.14 0.14 0.15 0.15 0.16 0.17 0.19
0.53 0.52 0.51 0.48 0.51 0.55 0.49 0.45 0.38 0.32 0.31 0.30 0.30 0.32 0.33 0.34 0.33 0.31 0.30 0.27 0.24 0.23 0.21 0.19 0.18 0.16 0.14 0.14 0.14 0.14 0.14 0.14 0.14 0.14 0.15 0.14 0.14 0.15 0.15 0.15 0.16 0.17 0.18 0.21

GFSNGP_prec_pwat_012.txt.gz
Precipitable_Water
0.39 0.42 0.44 0.43 0.42 0.42 0.35 0.33 0.27 0.23 0.29 0.31 0.38 0.37 0.36 0.38 0.39 0.44 0.53 0.61 0.59 0.59 0.66 0.75 0.78 0.84 0.93 0.98 1.00 1.01 0.94 0.84 0.74 0.67 0.65 0.63 0.62 0.63 0.63 0.63 0.65 0.67 0.64 0.63
0.39 0.45 0.46 0.42 0.46 0.42 0.40 0.38 0.35 0.35 0.34 0.43 0.49 0.49 0.46 0.47 0.55 0.57 0.59 0.60 0.61 0.62 0.69 0.74 0.82 0.87 0.93 0.98 1.01 0.95 0.89 0.77 0.68 0.71 0.66 0.64 0.63 0.63 0.64 0.64 0.67 0.64 0.64 0.62
0.33 0.43 0.43 0.37 0.45 0.44 0.44 0.43 0.41 0.34 0.40 0.50 0.53 0.57 0.60 0.62 0.61 0.60 0.59 0.62 0.61 0.64 0.69 0.80 0.88 0.94 0.96 0.97 0.94 0.88 0.80 0.71 0.74 0.67 0.63 0.62 0.62 0.63 0.64 0.65 0.65 0.64 0.59 0.48
0.36 0.40 0.28 0.48 0.59 0.56 0.48 0.49 0.51 0.48 0.50 0.55 0.57 0.63 0.66 0.67 0.65 0.63 0.69 0.70 0.70 0.73 0.79 0.85 0.91 0.93 0.95 0.91 0.87 0.79 0.75 0.69 0.64 0.61 0.60 0.62 0.63 0.63 0.66 0.65 0.64 0.54 0.45 0.39
0.35 0.35 0.42 0.49 0.55 0.55 0.50 0.47 0.56 0.54 0.56 0.59 0.64 0.67 0.64 0.72 0.75 0.80 0.84 0.85 0.87 0.89 0.89 0.89 0.89 0.88 0.85 0.79 0.74 0.68 0.63 0.61 0.61 0.62 0.62 0.63 0.65 0.66 0.66 0.60 0.48 0.43 0.32 0.30
0.41 0.34 0.31 0.49 0.58 0.68 0.64 0.41 0.59 0.61 0.59 0.60 0.63 0.51 0.60 0.72 0.76 0.78 0.82 0.82 0.81 0.80 0.80 0.77 0.74 0.72 0.69 0.65 0.63 0.61 0.62 0.63 0.64 0.65 0.67 0.67 0.67 0.62 0.52 0.46 0.34 0.29 0.30 0.30
0.38 0.36 0.44 0.58 0.61 0.69 0.41 0.43 0.58 0.62 0.61 0.60 0.57 0.62 0.67 0.71 0.75 0.79 0.81 0.81 0.78 0.76 0.72 0.70 0.70 0.68 0.65 0.64 0.63 0.64 0.66 0.68 0.68 0.67 0.65 0.62 0.55 0.48 0.35 0.29 0.30 0.30 0.29 0.27
0.37 0.32 0.31 0.59 0.58 0.47 0.54 0.60 0.61 0.68 0.71 0.66 0.67 0.66 0.67 0.71 0.73 0.76 0.76 0.76 0.74 0.71 0.69 0.67 0.67 0.66 0.65 0.66 0.69 0.69 0.68 0.66 0.64 0.62 0.55 0.46 0.35 0.30 0.30 0.30 0.29 0.27 0.26 0.24
0.40 0.38 0.51 0.58 0.57 0.62 0.62 0.59 0.63 0.66 0.71 0.72 0.71 0.68 0.70 0.70 0.72 0.74 0.75 0.75 0.76 0.75 0.72 0.70 0.69 0.70 0.70 0.70 0.69 0.68 0.65 0.59 0.51 0.43 0.35 0.33 0.30 0.29 0.30 0.29 0.27 0.25 0.24 0.22
0.46 0.50 0.54 0.57 0.62 0.62 0.61 0.60 0.63 0.73 0.73 0.69 0.62 0.67 0.69 0.70 0.70 0.71 0.73 0.73 0.73 0.72 0.70 0.69 0.70 0.69 0.69 0.67 0.63 0.55 0.48 0.41 0.36 0.34 0.32 0.29 0.30 0.30 0.29 0.28 0.25 0.24 0.22 0.21
0.47 0.53 0.57 0.58 0.61 0.63 0.62 0.64 0.66 0.72 0.70 0.64 0.65 0.65 0.68 0.68 0.69 0.69 0.70 0.71 0.71 0.71 0.70 0.69 0.69 0.66 0.62 0.55 0.48 0.42 0.38 0.36 0.34 0.29 0.28 0.29 0.31 0.31 0.28 0.26 0.24 0.22 0.20 0.19
0.42 0.55 0.57 0.57 0.63 0.65 0.62 0.62 0.65 0.65 0.65 0.68 0.70 0.67 0.68 0.67 0.67 0.69 0.70 0.71 0.71 0.70 0.68 0.65 0.61 0.54 0.48 0.43 0.39 0.37 0.34 0.31 0.27 0.29 0.30 0.31 0.30 0.27 0.26 0.23 0.22 0.21 0.20 0.18
0.54 0.62 0.64 0.65 0.66 0.68 0.64 0.64 0.65 0.65 0.67 0.66 0.69 0.70 0.71 0.67 0.67 0.68 0.67 0.65 0.64 0.64 0.60 0.53 0.49 0.44 0.37 0.37 0.36 0.33 0.28 0.28 0.30 0.31 0.31 0.29 0.27 0.23 0.20 0.20 0.20 0.18 0.16 0.15
0.65 0.64 0.61 0.65 0.63 0.68 0.67 0.66 0.67 0.66 0.67 0.69 0.70 0.71 0.70 0.67 0.63 0.61 0.60 0.60 0.55 0.51 0.49 0.44 0.38 0.36 0.36 0.34 0.31 0.29 0.30 0.31 0.31 0.31 0.29 0.26 0.23 0.21 0.19 0.17 0.15 0.13 0.13 0.13
0.65 0.68 0.66 0.69 0.70 0.68 0.69 0.67 0.65 0.64 0.65 0.66 0.67 0.64 0.64 0.60 0.58 0.55 0.52 0.50 0.47 0.43 0.38 0.36 0.35 0.33 0.32 0.31 0.29 0.29 0.30 0.31 0.30 0.29 0.26 0.23 0.21 0.18 0.17 0.16 0.13 0.11 0.11 0.12
0.64 0.66 0.65 0.64 0.65 0.67 0.68 0.67 0.65 0.64 0.65 0.64 0.61 0.57 0.56 0.53 0.50 0.49 0.46 0.42 0.38 0.35 0.35 0.34 0.33 0.31 0.30 0.29 0.29 0.31 0.32 0.31 0.29 0.25 0.22 0.20 0.18 0.17 0.15 0.13 0.11 0.11 0.11 0.12
0.60 0.59 0.62 0.62 0.63 0.65 0.66 0.66 0.65 0.63 0.58 0.58 0.59 0.54 0.51 0.50 0.47 0.42 0.41 0.39 0.37 0.34 0.34 0.33 0.31 0.30 0.30 0.30 0.31 0.30 0.30 0.29 0.25 0.22 0.19 0.18 0.16 0.15 0.13 0.11 0.11 0.12 0.12 0.13
0.69 0.70 0.70 0.69 0.65 0.65 0.66 0.66 0.68 0.61 0.61 0.57 0.53 0.52 0.50 0.46 0.40 0.38 0.36 0.35 0.34 0.33 0.32 0.32 0.30 0.30 0.31 0.31 0.31 0.31 0.28 0.24 0.21 0.19 0.18 0.16 0.15 0.13 0.12 0.12 0.12 0.12 0.13 0.14
0.68 0.71 0.73 0.72 0.71 0.69 0.68 0.67 0.60 0.59 0.56 0.55 0.53 0.50 0.46 0.41 0.37 0.35 0.34 0.33 0.31 0.30 0.30 0.30 0.31 0.31 0.32 0.33 0.32 0.28 0.23 0.20 0.19 0.18 0.16 0.14 0.12 0.12 0.13 0.13 0.13 0.13 0.13 0.13
0.62 0.68 0.71 0.71 0.71 0.66 0.62 0.60 0.56 0.54 0.54 0.54 0.53 0.47 0.40 0.37 0.35 0.33 0.32 0.31 0.32 0.31 0.32 0.32 0.31 0.32 0.34 0.33 0.28 0.23 0.20 0.19 0.17 0.15 0.13 0.12 0.12 0.13 0.13 0.13 0.13 0.13 0.13 0.13
0.58 0.59 0.60 0.62 0.61 0.61 0.60 0.58 0.56 0.55 0.56 0.54 0.47 0.41 0.37 0.35 0.33 0.32 0.30 0.30 0.31 0.33 0.32 0.32 0.32 0.33 0.32 0.28 0.23 0.21 0.19 0.17 0.15 0.13 0.12 0.13 0.13 0.12 0.13 0.13 0.13 0.13 0.13 0.12
0.59 0.58 0.58 0.59 0.60 0.59 0.59 0.58 0.56 0.55 0.54 0.50 0.46 0.42 0.36 0.32 0.32 0.31 0.32 0.32 0.33 0.33 0.32 0.33 0.33 0.31 0.28 0.24 0.21 0.19 0.17 0.15 0.13 0.13 0.13 0.13 0.12 0.13 0.13 0.13 0.13 0.14 0.14 0.13
0.62 0.61 0.60 0.59 0.59 0.58 0.58 0.57 0.56 0.55 0.53 0.50 0.45 0.39 0.34 0.33 0.32 0.31 0.30 0.33 0.33 0.32 0.33 0.34 0.32 0.28 0.24 0.21 0.19 0.17 0.15 0.14 0.14 0.13 0.13 0.13 0.13 0.14 0.13 0.14 0.14 0.14 0.14 0.14
0.58 0.60 0.60 0.62 0.61 0.58 0.55 0.55 0.55 0.54 0.50 0.46 0.42 0.37 0.34 0.31 0.32 0.34 0.33 0.33 0.33 0.34 0.33 0.31 0.29 0.25 0.21 0.20 0.18 0.15 0.14 0.14 0.14 0.13 0.14 0.14 0.14 0.14 0.14 0.14 0.14 0.15 0.15 0.16
0.53 0.56 0.58 0.58 0.57 0.56 0.55 0.54 0.52 0.52 0.46 0.43 0.39 0.35 0.34 0.33 0.32 0.32 0.34 0.34 0.35 0.32 0.29 0.28 0.26 0.22 0.20 0.18 0.15 0.15 0.15 0.14 0.14 0.14 0.14 0.14 0.14 0.14 0.14 0.14 0.15 0.15 0.16 0.17
0.53 0.54 0.55 0.56 0.56 0.54 0.52 0.51 0.52 0.49 0.44 0.39 0.34 0.32 0.31 0.33 0.33 0.34 0.33 0.32 0.30 0.28 0.25 0.24 0.21 0.20 0.17 0.15 0.16 0.15 0.15 0.14 0.14 0.14 0.15 0.15 0.15 0.14 0.15 0.15 0.15 0.16 0.17 0.19
0.53 0.55 0.54 0.53 0.52 0.50 0.49 0.53 0.51 0.44 0.40 0.35 0.31 0.31 0.32 0.33 0.34 0.32 0.30 0.29 0.27 0.25 0.23 0.21 0.19 0.17 0.16 0.16 0.15 0.15 0.15 0.15 0.15 0.15 0.15 0.15 0.15 0.15 0.15 0.15 0.16 0.17 0.19 0.21

GFSNGP_prec_pwat_015.txt.gz
Precipitable_Water
0.37 0.40 0.43 0.43 0.43 0.44 0.40 0.40 0.32 0.28 0.34 0.36 0.42 0.45 0.50 0.49 0.46 0.41 0.45 0.52 0.57 0.61 0.72 0.77 0.84 0.86 0.87 0.88 0.88 0.92 0.95 0.94 0.92 0.93 0.87 0.84 0.75 0.69 0.62 0.62 0.63 0.65 0.65 0.66
0.37 0.43 0.44 0.41 0.46 0.47 0.45 0.44 0.42 0.41 0.39 0.52 0.53 0.53 0.50 0.50 0.49 0.47 0.49 0.53 0.58 0.66 0.72 0.76 0.76 0.75 0.82 0.86 0.89 0.95 0.94 0.93 0.96 0.84 0.82 0.74 0.67 0.62 0.67 0.65 0.65 0.65 0.66 0.65
0.33 0.41 0.41 0.37 0.45 0.48 0.47 0.50 0.48 0.40 0.50 0.55 0.53 0.54 0.55 0.56 0.59 0.58 0.59 0.59 0.62 0.67 0.67 0.65 0.72 0.77 0.79 0.85 0.91 0.96 0.93 0.92 0.87 0.79 0.69 0.63 0.67 0.70 0.65 0.63 0.64 0.65 0.65 0.65
0.37 0.39 0.28 0.46 0.58 0.59 0.52 0.53 0.56 0.56 0.56 0.57 0.58 0.61 0.62 0.64 0.62 0.61 0.62 0.65 0.66 0.64 0.61 0.70 0.78 0.85 0.88 0.88 0.87 0.88 0.88 0.85 0.76 0.75 0.69 0.74 0.69 0.64 0.62 0.63 0.64 0.66 0.65 0.54
0.35 0.34 0.38 0.49 0.54 0.53 0.49 0.48 0.56 0.59 0.63 0.61 0.64 0.67 0.64 0.68 0.68 0.67 0.70 0.67 0.64 0.65 0.71 0.78 0.87 0.93 0.92 0.92 0.92 0.89 0.83 0.74 0.76 0.78 0.68 0.63 0.60 0.62 0.63 0.66 0.67 0.59 0.48 0.42
0.41 0.32 0.29 0.48 0.58 0.63 0.63 0.41 0.58 0.59 0.62 0.61 0.64 0.54 0.61 0.77 0.81 0.76 0.72 0.70 0.67 0.70 0.76 0.84 0.88 0.90 0.89 0.88 0.87 0.83 0.81 0.73 0.64 0.61 0.61 0.62 0.64 0.66 0.68 0.63 0.50 0.44 0.35 0.31
0.39 0.35 0.42 0.55 0.60 0.63 0.39 0.41 0.62 0.65 0.62 0.62 0.59 0.63 0.69 0.76 0.80 0.85 0.86 0.87 0.88 0.88 0.89 0.89 0.87 0.87 0.79 0.72 0.66 0.64 0.63 0.60 0.62 0.64 0.65 0.67 0.67 0.63 0.52 0.44 0.34 0.31 0.30 0.28
0.37 0.33 0.32 0.56 0.56 0.46 0.55 0.61 0.62 0.65 0.69 0.63 0.65 0.67 0.69 0.75 0.76 0.78 0.76 0.74 0.74 0.72 0.70 0.69 0.69 0.69 0.65 0.62 0.61 0.62 0.63 0.64 0.65 0.67 0.66 0.62 0.52 0.43 0.34 0.32 0.30 0.28 0.27 0.26
0.41 0.41 0.54 0.59 0.57 0.62 0.63 0.59 0.62 0.68 0.73 0.73 0.70 0.70 0.71 0.75 0.75 0.76 0.74 0.73 0.71 0.70 0.68 0.66 0.66 0.64 0.62 0.62 0.65 0.66 0.68 0.67 0.66 0.60 0.50 0.42 0.34 0.32 0.30 0.29 0.28 0.27 0.26 0.25
0.47 0.51 0.55 0.59 0.62 0.63 0.64 0.61 0.65 0.70 0.72 0.71 0.65 0.67 0.68 0.72 0.73 0.73 0.74 0.72 0.72 0.70 0.68 0.66 0.66 0.66 0.68 0.69 0.70 0.69 0.64 0.55 0.48 0.40 0.35 0.32 0.31 0.29 0.29 0.29 0.27 0.25 0.24 0.22
0.47 0.53 0.56 0.60 0.61 0.62 0.62 0.65 0.67 0.76 0.73 0.66 0.66 0.67 0.70 0.71 0.69 0.71 0.72 0.71 0.71 0.70 0.68 0.68 0.68 0.69 0.70 0.69 0.65 0.55 0.47 0.40 0.36 0.33 0.29 0.28 0.30 0.31 0.30 0.28 0.25 0.22 0.21 0.20
0.43 0.56 0.55 0.57 0.63 0.65 0.62 0.62 0.66 0.66 0.64 0.68 0.71 0.70 0.69 0.68 0.69 0.69 0.70 0.71 0.71 0.71 0.70 0.69 0.68 0.68 0.64 0.57 0.50 0.41 0.36 0.34 0.30 0.27 0.29 0.31 0.31 0.29 0.28 0.24 0.23 0.22 0.21 0.19
0.55 0.61 0.61 0.64 0.67 0.67 0.64 0.64 0.65 0.65 0.66 0.66 0.68 0.69 0.72 0.70 0.67 0.68 0.68 0.69 0.69 0.68 0.68 0.68 0.63 0.55 0.50 0.42 0.38 0.36 0.32 0.28 0.28 0.30 0.30 0.30 0.28 0.24 0.21 0.22 0.22 0.20 0.17 0.15
0.65 0.63 0.59 0.64 0.63 0.68 0.68 0.66 0.67 0.67 0.67 0.67 0.69 0.70 0.70 0.71 0.69 0.68 0.67 0.66 0.66 0.66 0.60 0.54 0.48 0.41 0.38 0.37 0.34 0.31 0.29 0.30 0.30 0.31 0.30 0.28 0.24 0.22 0.20 0.18 0.16 0.14 0.13 0.13
0.63 0.65 0.65 0.68 0.71 0.70 0.69 0.67 0.65 0.65 0.67 0.67 0.68 0.67 0.66 0.65 0.66 0.64 0.64 0.61 0.55 0.51 0.46 0.39 0.37 0.36 0.36 0.34 0.30 0.29 0.30 0.31 0.32 0.30 0.27 0.24 0.22 0.20 0.18 0.16 0.13 0.11 0.12 0.13
0.66 0.66 0.66 0.66 0.66 0.69 0.68 0.66 0.67 0.65 0.67 0.65 0.64 0.64 0.62 0.63 0.58 0.54 0.52 0.50 0.44 0.38 0.37 0.36 0.35 0.34 0.32 0.30 0.30 0.31 0.33 0.32 0.30 0.25 0.23 0.21 0.19 0.17 0.15 0.13 0.11 0.12 0.12 0.12
0.62 0.60 0.62 0.63 0.64 0.66 0.67 0.67 0.67 0.67 0.64 0.63 0.60 0.59 0.56 0.53 0.51 0.49 0.44 0.41 0.40 0.37 0.36 0.35 0.32 0.31 0.30 0.30 0.30 0.31 0.31 0.29 0.25 0.23 0.20 0.19 0.16 0.15 0.13 0.12 0.12 0.12 0.12 0.14
0.71 0.70 0.70 0.68 0.67 0.65 0.66 0.67 0.68 0.67 0.64 0.60 0.59 0.54 0.51 0.50 0.46 0.41 0.39 0.38 0.36 0.35 0.34 0.32 0.31 0.30 0.30 0.31 0.32 0.32 0.28 0.25 0.22 0.20 0.19 0.16 0.14 0.14 0.13 0.13 0.13 0.12 0.13 0.14
0.67 0.71 0.73 0.73 0.72 0.69 0.68 0.68 0.68 0.65 0.59 0.57 0.52 0.52 0.50 0.46 0.42 0.39 0.37 0.35 0.33 0.31 0.31 0.32 0.31 0.31 0.31 0.33 0.33 0.29 0.25 0.21 0.20 0.18 0.16 0.14 0.14 0.13 0.13 0.13 0.13 0.13 0.14 0.13
0.65 0.70 0.75 0.74 0.74 0.71 0.70 0.71 0.69 0.57 0.59 0.55 0.54 0.50 0.48 0.43 0.39 0.36 0.35 0.32 0.31 0.32 0.33 0.32 0.32 0.32 0.34 0.33 0.29 0.25 0.22 0.20 0.18 0.16 0.14 0.14 0.14 0.13 0.13 0.13 0.14 0.13 0.13 0.13
0.60 0.64 0.68 0.71 0.74 0.72 0.67 0.65 0.59 0.56 0.55 0.53 0.53 0.49 0.44 0.39 0.37 0.34 0.32 0.30 0.32 0.33 0.33 0.32 0.31 0.33 0.34 0.29 0.25 0.22 0.20 0.18 0.17 0.15 0.14 0.14 0.13 0.13 0.13 0.14 0.13 0.13 0.13 0.13
0.61 0.61 0.61 0.62 0.64 0.64 0.64 0.62 0.58 0.55 0.54 0.56 0.53 0.47 0.41 0.38 0.35 0.33 0.33 0.32 0.33 0.34 0.32 0.31 0.33 0.34 0.30 0.26 0.23 0.21 0.19 0.17 0.15 0.14 0.14 0.13 0.13 0.13 0.13 0.13 0.13 0.14 0.14 0.14
0.63 0.63 0.61 0.60 0.60 0.61 0.62 0.58 0.55 0.55 0.55 0.54 0.50 0.46 0.42 0.37 0.34 0.31 0.30 0.34 0.34 0.33 0.32 0.33 0.35 0.31 0.26 0.23 0.21 0.19 0.17 0.15 0.14 0.14 0.13 0.13 0.13 0.14 0.13 0.14 0.14 0.14 0.14 0.14
0.59 0.62 0.62 0.62 0.62 0.60 0.57 0.56 0.56 0.56 0.55 0.53 0.50 0.46 0.40 0.35 0.33 0.35 0.35 0.34 0.33 0.33 0.34 0.35 0.32 0.28 0.24 0.21 0.19 0.17 0.15 0.15 0.14 0.14 0.14 0.15 0.15 0.15 0.15 0.14 0.14 0.15 0.15 0.15
0.54 0.56 0.56 0.56 0.57 0.57 0.58 0.57 0.56 0.54 0.51 0.49 0.48 0.44 0.40 0.36 0.32 0.33 0.33 0.33 0.34 0.33 0.32 0.31 0.29 0.25 0.22 0.20 0.17 0.16 0.15 0.15 0.14 0.15 0.15 0.15 0.15 0.15 0.15 0.15 0.15 0.15 0.16 0.17
0.52 0.53 0.55 0.55 0.55 0.56 0.56 0.55 0.52 0.51 0.50 0.51 0.45 0.41 0.37 0.34 0.33 0.33 0.34 0.34 0.32 0.30 0.28 0.27 0.25 0.23 0.20 0.17 0.17 0.16 0.15 0.15 0.15 0.15 0.15 0.15 0.15 0.15 0.15 0.15 0.15 0.16 0.17 0.18
0.51 0.52 0.53 0.54 0.56 0.55 0.53 0.51 0.49 0.48 0.55 0.48 0.40 0.37 0.34 0.33 0.33 0.33 0.33 0.30 0.29 0.27 0.27 0.25 0.23 0.20 0.18 0.17 0.16 0.16 0.15 0.15 0.15 0.15 0.15 0.15 0.15 0.15 0.16 0.16 0.17 0.17 0.18 0.20

GFSNGP_prec_pwat_018.txt.gz
Precipitable_Water
0.36 0.36 0.38 0.39 0.40 0.43 0.41 0.42 0.34 0.35 0.39 0.46 0.54 0.55 0.57 0.60 0.59 0.57 0.57 0.56 0.54 0.54 0.57 0.68 0.81 0.96 0.98 0.99 0.90 0.89 0.88 0.89 0.90 0.87 0.92 0.92 0.82 0.82 0.82 0.73 0.71 0.67 0.63 0.63
0.34 0.41 0.42 0.40 0.44 0.44 0.46 0.47 0.45 0.47 0.45 0.61 0.61 0.58 0.56 0.56 0.55 0.52 0.52 0.53 0.55 0.56 0.63 0.69 0.85 0.86 0.95 0.90 0.91 0.92 0.87 0.84 0.83 0.83 0.86 0.80 0.83 0.80 0.76 0.73 0.68 0.62 0.65 0.71
0.33 0.40 0.40 0.36 0.44 0.48 0.50 0.52 0.50 0.41 0.52 0.64 0.56 0.55 0.54 0.58 0.59 0.53 0.55 0.56 0.56 0.60 0.65 0.72 0.77 0.85 0.84 0.86 0.88 0.85 0.84 0.82 0.81 0.85 0.84 0.88 0.84 0.82 0.72 0.66 0.67 0.70 0.68 0.66
0.37 0.39 0.27 0.45 0.57 0.57 0.51 0.53 0.57 0.54 0.61 0.65 0.65 0.66 0.62 0.63 0.60 0.59 0.60 0.60 0.62 0.63 0.68 0.73 0.77 0.79 0.81 0.84 0.85 0.86 0.88 0.87 0.94 0.92 0.91 0.82 0.75 0.69 0.69 0.72 0.68 0.65 0.65 0.66
0.35 0.34 0.38 0.47 0.56 0.51 0.48 0.47 0.59 0.56 0.62 0.63 0.69 0.71 0.65 0.65 0.67 0.66 0.67 0.65 0.65 0.68 0.68 0.70 0.71 0.77 0.80 0.82 0.86 0.86 0.88 0.90 0.91 0.86 0.80 0.78 0.79 0.74 0.67 0.64 0.64 0.68 0.68 0.56
0.39 0.32 0.28 0.46 0.56 0.63 0.60 0.40 0.58 0.61 0.60 0.59 0.64 0.53 0.61 0.72 0.67 0.65 0.65 0.65 0.65 0.66 0.70 0.75 0.81 0.85 0.83 0.84 0.86 0.87 0.89 0.88 0.86 0.84 0.75 0.68 0.63 0.61 0.64 0.68 0.68 0.58 0.45 0.37
0.38 0.36 0.39 0.51 0.57 0.62 0.40 0.41 0.58 0.60 0.64 0.61 0.58 0.64 0.72 0.79 0.81 0.74 0.68 0.69 0.75 0.75 0.77 0.82 0.86 0.87 0.85 0.87 0.87 0.90 0.88 0.81 0.74 0.68 0.62 0.63 0.65 0.67 0.67 0.55 0.44 0.35 0.31 0.29
0.39 0.33 0.29 0.57 0.56 0.45 0.53 0.60 0.61 0.63 0.66 0.64 0.70 0.70 0.75 0.78 0.76 0.81 0.82 0.82 0.83 0.83 0.83 0.86 0.88 0.83 0.76 0.73 0.70 0.66 0.64 0.62 0.62 0.63 0.66 0.67 0.64 0.52 0.41 0.34 0.31 0.29 0.27 0.27
0.40 0.40 0.52 0.59 0.58 0.63 0.63 0.60 0.59 0.63 0.70 0.70 0.67 0.68 0.73 0.72 0.73 0.70 0.69 0.70 0.72 0.73 0.73 0.73 0.73 0.69 0.64 0.63 0.61 0.60 0.61 0.62 0.64 0.66 0.60 0.49 0.39 0.33 0.31 0.29 0.27 0.27 0.27 0.26
0.45 0.52 0.55 0.58 0.63 0.63 0.63 0.60 0.63 0.68 0.72 0.71 0.67 0.68 0.71 0.70 0.69 0.69 0.70 0.68 0.67 0.67 0.66 0.63 0.62 0.61 0.63 0.65 0.65 0.65 0.66 0.64 0.55 0.46 0.38 0.33 0.32 0.30 0.27 0.28 0.27 0.26 0.24 0.22
0.48 0.52 0.56 0.58 0.60 0.62 0.61 0.64 0.68 0.71 0.73 0.71 0.68 0.67 0.70 0.71 0.69 0.69 0.69 0.69 0.70 0.66 0.64 0.63 0.64 0.65 0.67 0.67 0.68 0.64 0.54 0.45 0.38 0.33 0.31 0.29 0.28 0.29 0.29 0.29 0.26 0.22 0.21 0.20
0.44 0.56 0.55 0.54 0.61 0.65 0.61 0.62 0.66 0.69 0.68 0.65 0.68 0.68 0.71 0.68 0.68 0.67 0.69 0.68 0.67 0.67 0.67 0.67 0.68 0.68 0.67 0.65 0.58 0.48 0.38 0.34 0.32 0.29 0.28 0.29 0.29 0.29 0.29 0.26 0.24 0.23 0.21 0.19
0.53 0.59 0.60 0.61 0.64 0.67 0.64 0.64 0.66 0.65 0.66 0.66 0.69 0.67 0.67 0.69 0.69 0.68 0.67 0.68 0.70 0.71 0.68 0.67 0.67 0.66 0.60 0.52 0.42 0.36 0.33 0.29 0.28 0.29 0.29 0.29 0.28 0.24 0.22 0.22 0.23 0.22 0.18 0.16
0.65 0.63 0.57 0.61 0.59 0.68 0.67 0.66 0.67 0.67 0.68 0.68 0.67 0.69 0.69 0.68 0.69 0.68 0.67 0.69 0.68 0.68 0.67 0.66 0.60 0.52 0.42 0.38 0.36 0.31 0.29 0.29 0.29 0.30 0.30 0.27 0.24 0.22 0.20 0.18 0.16 0.13 0.14 0.15
0.63 0.66 0.65 0.66 0.65 0.67 0.70 0.68 0.65 0.65 0.67 0.67 0.69 0.67 0.67 0.67 0.68 0.69 0.69 0.67 0.66 0.64 0.58 0.51 0.41 0.37 0.37 0.34 0.31 0.29 0.29 0.30 0.31 0.30 0.26 0.24 0.22 0.20 0.18 0.16 0.13 0.13 0.13 0.14
0.67 0.65 0.64 0.63 0.64 0.67 0.68 0.68 0.65 0.65 0.67 0.69 0.67 0.66 0.64 0.65 0.65 0.65 0.64 0.60 0.54 0.46 0.40 0.38 0.36 0.35 0.33 0.31 0.30 0.30 0.31 0.32 0.29 0.25 0.23 0.21 0.19 0.17 0.15 0.13 0.13 0.13 0.13 0.13
0.64 0.61 0.62 0.62 0.63 0.65 0.66 0.68 0.68 0.72 0.69 0.66 0.64 0.65 0.64 0.61 0.57 0.55 0.52 0.47 0.42 0.39 0.37 0.36 0.34 0.32 0.31 0.31 0.30 0.31 0.32 0.29 0.26 0.23 0.21 0.19 0.17 0.15 0.14 0.14 0.13 0.13 0.13 0.14
0.72 0.73 0.73 0.69 0.67 0.66 0.66 0.67 0.69 0.68 0.68 0.66 0.64 0.62 0.59 0.54 0.51 0.48 0.44 0.40 0.38 0.36 0.35 0.34 0.32 0.31 0.31 0.31 0.31 0.31 0.29 0.25 0.22 0.20 0.19 0.17 0.16 0.15 0.14 0.14 0.13 0.13 0.13 0.14
0.71 0.68 0.70 0.72 0.73 0.72 0.69 0.68 0.67 0.72 0.67 0.65 0.60 0.56 0.53 0.52 0.48 0.43 0.39 0.37 0.35 0.33 0.32 0.33 0.32 0.32 0.31 0.32 0.32 0.29 0.25 0.22 0.21 0.19 0.18 0.16 0.15 0.14 0.14 0.13 0.13 0.13 0.13 0.13
0.67 0.69 0.70 0.77 0.78 0.75 0.71 0.69 0.71 0.70 0.65 0.59 0.56 0.54 0.52 0.49 0.46 0.40 0.37 0.34 0.34 0.33 0.33 0.32 0.33 0.32 0.32 0.33 0.30 0.26 0.23 0.21 0.20 0.18 0.15 0.15 0.14 0.14 0.13 0.13 0.13 0.13 0.13 0.13
0.68 0.66 0.68 0.75 0.77 0.75 0.71 0.77 0.72 0.66 0.59 0.58 0.53 0.52 0.51 0.47 0.41 0.38 0.34 0.32 0.33 0.35 0.33 0.34 0.34 0.32 0.33 0.31 0.27 0.25 0.22 0.20 0.18 0.16 0.15 0.14 0.13 0.13 0.13 0.13 0.13 0.13 0.13 0.14
0.65 0.65 0.66 0.68 0.71 0.75 0.74 0.70 0.65 0.62 0.58 0.55 0.54 0.54 0.50 0.43 0.40 0.38 0.36 0.33 0.34 0.34 0.33 0.33 0.32 0.33 0.32 0.28 0.26 0.23 0.21 0.19 0.16 0.15 0.14 0.13 0.13 0.13 0.13 0.13 0.13 0.14 0.14 0.14
0.67 0.65 0.64 0.64 0.63 0.64 0.65 0.65 0.63 0.58 0.56 0.54 0.56 0.53 0.48 0.44 0.41 0.36 0.32 0.35 0.34 0.33 0.33 0.32 0.34 0.32 0.29 0.26 0.24 0.21 0.19 0.17 0.15 0.14 0.14 0.13 0.14 0.14 0.14 0.14 0.14 0.14 0.14 0.14
0.57 0.62 0.63 0.64 0.64 0.63 0.60 0.61 0.60 0.58 0.55 0.55 0.55 0.51 0.48 0.43 0.39 0.38 0.36 0.35 0.34 0.34 0.34 0.35 0.32 0.29 0.27 0.24 0.22 0.19 0.17 0.16 0.15 0.14 0.14 0.15 0.14 0.14 0.14 0.14 0.14 0.15 0.15 0.15
0.51 0.53 0.55 0.56 0.56 0.58 0.60 0.60 0.58 0.56 0.55 0.54 0.53 0.54 0.50 0.45 0.39 0.35 0.34 0.34 0.34 0.34 0.35 0.34 0.30 0.28 0.25 0.22 0.19 0.17 0.17 0.16 0.15 0.15 0.14 0.14 0.14 0.14 0.14 0.14 0.15 0.15 0.16 0.17
0.49 0.50 0.53 0.54 0.55 0.56 0.56 0.55 0.54 0.54 0.54 0.51 0.50 0.52 0.49 0.44 0.39 0.35 0.34 0.34 0.34 0.33 0.31 0.29 0.28 0.26 0.23 0.20 0.18 0.18 0.16 0.15 0.15 0.14 0.15 0.14 0.14 0.14 0.15 0.15 0.16 0.16 0.16 0.18
0.51 0.51 0.51 0.52 0.54 0.55 0.55 0.54 0.52 0.51 0.51 0.48 0.49 0.56 0.46 0.40 0.37 0.34 0.34 0.33 0.32 0.29 0.28 0.28 0.27 0.24 0.21 0.20 0.19 0.17 0.16 0.15 0.15 0.15 0.15 0.15 0.15 0.15 0.15 0.16 0.16 0.17 0.18 0.20

GFSNGP_prec_pwat_021.txt.gz
Precipitable_Water
0.32 0.35 0.37 0.36 0.37 0.40 0.38 0.39 0.32 0.34 0.38 0.44 0.54 0.59 0.62 0.60 0.59 0.57 0.56 0.57 0.60 0.58 0.59 0.61 0.61 0.58 0.66 0.75 0.83 0.87 0.89 0.97 0.92 0.86 0.87 0.86 0.92 0.90 0.86 0.89 0.88 0.83 0.78 0.72
0.31 0.39 0.41 0.39 0.43 0.44 0.44 0.44 0.43 0.44 0.42 0.58 0.65 0.67 0.65 0.57 0.58 0.56 0.55 0.55 0.57 0.58 0.59 0.64 0.65 0.67 0.77 0.81 0.89 0.97 0.94 0.95 0.81 0.81 0.84 0.88 0.84 0.87 0.92 0.81 0.77 0.77 0.72 0.69
0.31 0.41 0.41 0.36 0.44 0.46 0.48 0.51 0.49 0.41 0.50 0.61 0.60 0.63 0.64 0.58 0.60 0.59 0.58 0.58 0.59 0.60 0.59 0.65 0.69 0.76 0.86 0.85 0.85 0.84 0.86 0.83 0.80 0.83 0.83 0.92 0.83 0.85 0.83 0.77 0.71 0.69 0.70 0.68
0.36 0.39 0.27 0.46 0.57 0.56 0.51 0.52 0.55 0.55 0.56 0.58 0.61 0.69 0.71 0.65 0.57 0.60 0.59 0.59 0.61 0.60 0.61 0.67 0.77 0.82 0.85 0.87 0.85 0.86 0.83 0.83 0.86 0.86 0.90 0.84 0.84 0.85 0.83 0.84 0.79 0.77 0.71 0.68
0.35 0.34 0.38 0.46 0.54 0.52 0.47 0.44 0.55 0.53 0.56 0.61 0.64 0.70 0.68 0.70 0.61 0.59 0.60 0.61 0.64 0.66 0.70 0.74 0.77 0.80 0.82 0.82 0.83 0.86 0.85 0.81 0.83 0.83 0.84 0.89 0.89 0.87 0.83 0.82 0.77 0.66 0.64 0.62
0.38 0.32 0.29 0.45 0.56 0.62 0.59 0.39 0.56 0.56 0.56 0.60 0.62 0.53 0.61 0.74 0.65 0.62 0.62 0.64 0.65 0.69 0.73 0.74 0.74 0.78 0.77 0.80 0.84 0.85 0.84 0.89 0.91 0.90 0.88 0.85 0.81 0.80 0.69 0.63 0.63 0.63 0.59 0.51
0.36 0.35 0.38 0.50 0.57 0.64 0.38 0.38 0.57 0.59 0.59 0.61 0.58 0.65 0.73 0.79 0.77 0.74 0.73 0.69 0.70 0.72 0.73 0.78 0.82 0.83 0.80 0.81 0.80 0.83 0.85 0.87 0.86 0.83 0.80 0.76 0.68 0.62 0.63 0.65 0.57 0.44 0.34 0.30
0.37 0.34 0.29 0.56 0.57 0.45 0.52 0.59 0.59 0.60 0.62 0.65 0.66 0.69 0.71 0.76 0.78 0.79 0.80 0.79 0.81 0.78 0.81 0.85 0.86 0.85 0.83 0.82 0.84 0.85 0.84 0.81 0.76 0.68 0.63 0.62 0.63 0.61 0.51 0.39 0.31 0.29 0.26 0.25
0.40 0.38 0.51 0.58 0.58 0.63 0.63 0.58 0.59 0.60 0.65 0.69 0.67 0.68 0.70 0.68 0.73 0.76 0.78 0.80 0.83 0.81 0.80 0.81 0.80 0.80 0.77 0.75 0.74 0.71 0.63 0.60 0.61 0.61 0.62 0.56 0.43 0.34 0.30 0.29 0.26 0.25 0.25 0.26
0.48 0.49 0.55 0.59 0.63 0.64 0.62 0.59 0.62 0.67 0.68 0.70 0.67 0.68 0.68 0.67 0.66 0.68 0.69 0.70 0.73 0.73 0.72 0.70 0.70 0.67 0.66 0.64 0.61 0.61 0.62 0.60 0.55 0.48 0.39 0.34 0.32 0.30 0.27 0.26 0.26 0.25 0.24 0.22
0.49 0.54 0.58 0.60 0.61 0.60 0.62 0.63 0.64 0.69 0.71 0.71 0.70 0.67 0.69 0.68 0.66 0.66 0.67 0.67 0.66 0.64 0.63 0.64 0.64 0.63 0.65 0.66 0.64 0.59 0.53 0.45 0.37 0.34 0.31 0.29 0.28 0.28 0.28 0.28 0.25 0.23 0.22 0.20
0.44 0.59 0.59 0.58 0.62 0.63 0.62 0.61 0.63 0.67 0.68 0.68 0.65 0.67 0.68 0.68 0.70 0.67 0.66 0.67 0.65 0.64 0.64 0.65 0.64 0.64 0.64 0.61 0.55 0.47 0.38 0.34 0.31 0.29 0.28 0.28 0.28 0.28 0.29 0.27 0.25 0.24 0.21 0.19
0.55 0.62 0.62 0.63 0.62 0.65 0.64 0.64 0.65 0.66 0.65 0.63 0.67 0.69 0.67 0.67 0.69 0.68 0.67 0.66 0.67 0.69 0.67 0.66 0.66 0.65 0.58 0.51 0.42 0.36 0.32 0.29 0.28 0.29 0.29 0.29 0.27 0.24 0.21 0.21 0.21 0.20 0.18 0.17
0.67 0.65 0.60 0.62 0.59 0.65 0.66 0.68 0.66 0.67 0.68 0.68 0.67 0.67 0.68 0.67 0.68 0.67 0.67 0.66 0.70 0.66 0.64 0.64 0.61 0.52 0.44 0.39 0.35 0.31 0.29 0.30 0.29 0.30 0.29 0.26 0.24 0.22 0.20 0.18 0.16 0.14 0.15 0.17
0.69 0.71 0.67 0.66 0.66 0.65 0.65 0.67 0.65 0.66 0.66 0.66 0.68 0.67 0.66 0.66 0.66 0.67 0.68 0.69 0.66 0.63 0.61 0.56 0.46 0.39 0.38 0.35 0.31 0.30 0.30 0.29 0.30 0.29 0.26 0.24 0.22 0.20 0.18 0.16 0.14 0.14 0.15 0.15
0.68 0.69 0.67 0.64 0.63 0.64 0.63 0.65 0.66 0.69 0.66 0.68 0.67 0.66 0.66 0.66 0.66 0.68 0.67 0.65 0.62 0.55 0.48 0.41 0.38 0.36 0.34 0.32 0.31 0.31 0.30 0.31 0.28 0.25 0.24 0.21 0.20 0.18 0.16 0.15 0.14 0.14 0.14 0.14
0.61 0.62 0.65 0.63 0.62 0.62 0.63 0.66 0.67 0.72 0.72 0.74 0.68 0.66 0.65 0.64 0.61 0.60 0.59 0.55 0.50 0.45 0.40 0.37 0.35 0.34 0.32 0.32 0.31 0.30 0.31 0.28 0.26 0.24 0.22 0.20 0.18 0.17 0.15 0.15 0.14 0.13 0.13 0.14
0.67 0.69 0.72 0.72 0.69 0.67 0.66 0.66 0.66 0.71 0.76 0.69 0.66 0.65 0.65 0.61 0.57 0.54 0.51 0.47 0.42 0.38 0.36 0.35 0.33 0.32 0.32 0.31 0.31 0.31 0.28 0.26 0.24 0.22 0.21 0.19 0.17 0.16 0.15 0.14 0.13 0.12 0.13 0.13
0.70 0.69 0.72 0.71 0.72 0.71 0.69 0.68 0.67 0.69 0.70 0.70 0.66 0.62 0.60 0.56 0.53 0.50 0.45 0.39 0.36 0.34 0.33 0.34 0.33 0.32 0.32 0.32 0.31 0.29 0.27 0.25 0.23 0.21 0.19 0.17 0.16 0.15 0.14 0.13 0.12 0.13 0.13 0.13
0.71 0.72 0.71 0.73 0.74 0.74 0.72 0.72 0.68 0.68 0.75 0.68 0.63 0.59 0.55 0.55 0.51 0.45 0.40 0.37 0.35 0.34 0.34 0.34 0.32 0.31 0.32 0.32 0.30 0.27 0.26 0.24 0.21 0.19 0.17 0.16 0.14 0.13 0.12 0.13 0.13 0.13 0.13 0.13
0.70 0.71 0.70 0.73 0.76 0.77 0.77 0.73 0.69 0.72 0.75 0.66 0.60 0.55 0.53 0.52 0.49 0.42 0.37 0.34 0.34 0.35 0.35 0.33 0.33 0.33 0.32 0.30 0.28 0.27 0.25 0.21 0.19 0.17 0.15 0.14 0.13 0.12 0.12 0.13 0.13 0.13 0.13 0.13
0.70 0.66 0.67 0.71 0.75 0.76 0.77 0.75 0.75 0.75 0.68 0.63 0.58 0.55 0.54 0.53 0.46 0.41 0.40 0.36 0.35 0.35 0.34 0.33 0.33 0.33 0.31 0.28 0.27 0.25 0.22 0.20 0.17 0.16 0.14 0.13 0.13 0.13 0.13 0.13 0.13 0.13 0.14 0.14
0.64 0.67 0.67 0.67 0.67 0.69 0.72 0.73 0.73 0.69 0.65 0.60 0.56 0.54 0.54 0.49 0.44 0.41 0.36 0.36 0.36 0.35 0.34 0.33 0.35 0.32 0.29 0.27 0.26 0.23 0.20 0.18 0.17 0.15 0.15 0.14 0.13 0.13 0.13 0.13 0.13 0.14 0.14 0.14
0.53 0.54 0.59 0.65 0.65 0.63 0.62 0.65 0.65 0.65 0.63 0.58 0.55 0.56 0.53 0.49 0.47 0.44 0.40 0.37 0.35 0.34 0.34 0.35 0.34 0.29 0.27 0.27 0.25 0.21 0.19 0.18 0.17 0.16 0.15 0.14 0.14 0.13 0.13 0.13 0.14 0.15 0.15 0.16
0.50 0.52 0.53 0.54 0.55 0.57 0.59 0.60 0.60 0.60 0.58 0.57 0.54 0.55 0.55 0.55 0.48 0.43 0.39 0.36 0.35 0.35 0.35 0.35 0.30 0.28 0.27 0.26 0.23 0.21 0.19 0.18 0.17 0.16 0.15 0.14 0.14 0.14 0.14 0.14 0.15 0.15 0.16 0.17
0.50 0.49 0.50 0.52 0.52 0.54 0.56 0.57 0.56 0.56 0.53 0.53 0.56 0.54 0.57 0.58 0.48 0.42 0.39 0.37 0.36 0.36 0.35 0.32 0.28 0.27 0.26 0.24 0.22 0.21 0.19 0.17 0.16 0.15 0.15 0.15 0.15 0.14 0.14 0.15 0.15 0.16 0.17 0.19
0.49 0.49 0.49 0.50 0.53 0.53 0.52 0.52 0.53 0.53 0.53 0.50 0.50 0.53 0.54 0.58 0.48 0.42 0.38 0.36 0.35 0.35 0.32 0.29 0.28 0.27 0.25 0.24 0.22 0.20 0.18 0.17 0.17 0.16 0.16 0.16 0.16 0.16 0.16 0.17 0.17 0.18 0.20 0.22

GFSNGP_prec_pwat_024.txt.gz
Precipitable_Water
0.33 0.33 0.35 0.34 0.35 0.38 0.36 0.37 0.30 0.33 0.35 0.41 0.49 0.53 0.59 0.66 0.60 0.56 0.57 0.58 0.57 0.57 0.62 0.69 0.69 0.66 0.63 0.61 0.60 0.64 0.65 0.77 0.78 0.80 0.88 0.91 0.95 0.92 0.90 0.88 0.88 0.86 0.89 0.94
0.28 0.35 0.36 0.34 0.40 0.42 0.42 0.40 0.39 0.39 0.38 0.51 0.58 0.63 0.62 0.63 0.57 0.54 0.58 0.58 0.58 0.58 0.60 0.60 0.62 0.64 0.65 0.65 0.65 0.66 0.69 0.74 0.80 0.83 0.90 0.90 0.91 0.87 0.83 0.87 0.88 0.88 0.85 0.76
0.26 0.37 0.39 0.33 0.41 0.44 0.44 0.47 0.45 0.38 0.45 0.55 0.56 0.59 0.62 0.64 0.56 0.54 0.57 0.59 0.59 0.59 0.61 0.65 0.69 0.72 0.71 0.71 0.69 0.68 0.72 0.77 0.81 0.85 0.86 0.89 0.82 0.83 0.82 0.84 0.89 0.82 0.81 0.80
0.33 0.38 0.26 0.44 0.53 0.54 0.49 0.50 0.53 0.51 0.52 0.55 0.58 0.64 0.69 0.70 0.58 0.55 0.57 0.59 0.57 0.58 0.63 0.70 0.75 0.79 0.80 0.80 0.76 0.76 0.81 0.84 0.88 0.88 0.84 0.82 0.84 0.85 0.86 0.84 0.81 0.81 0.81 0.82
0.32 0.33 0.37 0.42 0.50 0.51 0.47 0.44 0.52 0.51 0.54 0.55 0.62 0.65 0.67 0.73 0.68 0.61 0.59 0.63 0.65 0.69 0.75 0.78 0.79 0.81 0.78 0.78 0.79 0.80 0.81 0.81 0.83 0.84 0.82 0.83 0.86 0.85 0.87 0.84 0.86 0.83 0.81 0.79
0.37 0.30 0.28 0.44 0.56 0.62 0.59 0.39 0.54 0.56 0.55 0.55 0.60 0.49 0.59 0.72 0.73 0.70 0.66 0.66 0.68 0.71 0.72 0.73 0.76 0.79 0.78 0.75 0.75 0.74 0.75 0.78 0.82 0.87 0.85 0.86 0.87 0.85 0.84 0.83 0.80 0.71 0.66 0.64
0.35 0.33 0.38 0.49 0.57 0.64 0.38 0.39 0.57 0.58 0.58 0.58 0.57 0.62 0.70 0.74 0.73 0.76 0.74 0.76 0.75 0.77 0.76 0.76 0.78 0.77 0.76 0.77 0.77 0.81 0.83 0.85 0.86 0.86 0.84 0.84 0.82 0.81 0.73 0.67 0.64 0.59 0.48 0.36
0.39 0.32 0.30 0.56 0.58 0.46 0.53 0.60 0.59 0.59 0.60 0.61 0.66 0.68 0.72 0.73 0.73 0.74 0.75 0.77 0.79 0.78 0.78 0.80 0.81 0.80 0.77 0.77 0.80 0.80 0.81 0.82 0.82 0.80 0.77 0.71 0.66 0.63 0.61 0.51 0.36 0.30 0.29 0.27
0.41 0.38 0.50 0.57 0.56 0.62 0.64 0.58 0.59 0.59 0.63 0.66 0.67 0.67 0.70 0.73 0.73 0.74 0.75 0.75 0.77 0.77 0.77 0.77 0.79 0.81 0.78 0.79 0.78 0.76 0.74 0.68 0.64 0.62 0.61 0.59 0.49 0.37 0.31 0.30 0.28 0.26 0.26 0.26
0.49 0.51 0.53 0.58 0.62 0.64 0.64 0.60 0.62 0.64 0.66 0.69 0.68 0.69 0.68 0.71 0.69 0.71 0.74 0.74 0.74 0.73 0.72 0.71 0.72 0.73 0.74 0.71 0.67 0.62 0.60 0.56 0.52 0.45 0.38 0.34 0.31 0.29 0.27 0.27 0.26 0.25 0.23 0.21
0.50 0.54 0.57 0.60 0.62 0.63 0.61 0.64 0.63 0.66 0.70 0.70 0.72 0.68 0.67 0.69 0.68 0.68 0.71 0.71 0.72 0.70 0.68 0.66 0.66 0.63 0.64 0.62 0.58 0.53 0.46 0.41 0.37 0.33 0.30 0.28 0.28 0.28 0.27 0.27 0.24 0.22 0.21 0.20
0.40 0.52 0.56 0.59 0.66 0.66 0.61 0.61 0.63 0.63 0.67 0.71 0.68 0.65 0.66 0.67 0.69 0.68 0.67 0.66 0.65 0.67 0.64 0.62 0.62 0.65 0.62 0.55 0.47 0.41 0.37 0.33 0.30 0.28 0.28 0.29 0.28 0.28 0.29 0.27 0.25 0.24 0.23 0.20
0.53 0.62 0.61 0.62 0.66 0.66 0.61 0.63 0.65 0.64 0.66 0.64 0.66 0.68 0.67 0.65 0.67 0.68 0.66 0.65 0.68 0.67 0.67 0.64 0.64 0.59 0.51 0.42 0.39 0.36 0.31 0.29 0.29 0.29 0.28 0.27 0.26 0.23 0.21 0.22 0.23 0.21 0.19 0.18
0.68 0.65 0.60 0.63 0.61 0.66 0.64 0.65 0.68 0.65 0.66 0.67 0.68 0.67 0.66 0.65 0.67 0.66 0.67 0.66 0.69 0.65 0.66 0.65 0.59 0.48 0.42 0.39 0.35 0.31 0.30 0.30 0.29 0.29 0.28 0.25 0.24 0.22 0.20 0.19 0.17 0.15 0.17 0.18
0.66 0.69 0.68 0.70 0.68 0.66 0.66 0.66 0.63 0.63 0.65 0.67 0.68 0.67 0.66 0.65 0.65 0.66 0.66 0.67 0.68 0.64 0.63 0.55 0.46 0.40 0.38 0.35 0.31 0.30 0.30 0.29 0.30 0.28 0.26 0.24 0.22 0.20 0.19 0.18 0.15 0.15 0.16 0.15
0.61 0.66 0.67 0.66 0.66 0.66 0.64 0.63 0.62 0.62 0.67 0.72 0.69 0.67 0.67 0.66 0.64 0.65 0.67 0.71 0.65 0.60 0.52 0.44 0.39 0.37 0.35 0.32 0.31 0.31 0.30 0.30 0.28 0.26 0.24 0.22 0.21 0.20 0.18 0.16 0.15 0.14 0.13 0.12
0.53 0.51 0.59 0.63 0.64 0.66 0.64 0.64 0.63 0.63 0.69 0.70 0.70 0.73 0.68 0.65 0.62 0.63 0.65 0.62 0.56 0.50 0.45 0.40 0.36 0.35 0.32 0.32 0.32 0.31 0.31 0.29 0.27 0.24 0.23 0.21 0.20 0.18 0.17 0.15 0.13 0.12 0.12 0.13
0.66 0.66 0.65 0.68 0.69 0.68 0.66 0.66 0.65 0.65 0.71 0.76 0.76 0.68 0.65 0.63 0.61 0.59 0.56 0.52 0.48 0.43 0.39 0.37 0.35 0.33 0.32 0.32 0.31 0.30 0.28 0.26 0.25 0.24 0.22 0.20 0.19 0.17 0.15 0.13 0.12 0.11 0.12 0.13
0.69 0.69 0.69 0.69 0.72 0.71 0.69 0.69 0.69 0.68 0.72 0.76 0.69 0.64 0.64 0.62 0.58 0.55 0.52 0.46 0.40 0.37 0.36 0.35 0.34 0.32 0.31 0.31 0.30 0.28 0.26 0.26 0.25 0.22 0.20 0.19 0.17 0.15 0.13 0.12 0.12 0.12 0.12 0.12
0.71 0.72 0.71 0.72 0.73 0.71 0.70 0.71 0.71 0.68 0.70 0.72 0.68 0.63 0.61 0.57 0.56 0.53 0.48 0.40 0.39 0.37 0.35 0.35 0.33 0.32 0.32 0.32 0.30 0.26 0.26 0.25 0.23 0.21 0.19 0.17 0.15 0.14 0.13 0.13 0.13 0.12 0.12 0.13
0.73 0.72 0.72 0.75 0.73 0.74 0.75 0.72 0.70 0.68 0.69 0.73 0.68 0.61 0.59 0.57 0.54 0.50 0.42 0.37 0.38 0.37 0.36 0.35 0.33 0.32 0.32 0.32 0.27 0.25 0.26 0.24 0.21 0.19 0.17 0.16 0.15 0.14 0.13 0.13 0.13 0.13 0.13 0.13
0.66 0.69 0.67 0.70 0.72 0.75 0.77 0.76 0.74 0.72 0.72 0.73 0.66 0.62 0.57 0.54 0.55 0.47 0.43 0.39 0.39 0.38 0.36 0.34 0.34 0.33 0.33 0.30 0.26 0.26 0.25 0.23 0.20 0.19 0.18 0.16 0.15 0.14 0.13 0.13 0.12 0.13 0.13 0.13
0.55 0.62 0.64 0.66 0.68 0.72 0.75 0.77 0.76 0.74 0.72 0.70 0.65 0.62 0.55 0.54 0.51 0.43 0.39 0.42 0.39 0.38 0.36 0.35 0.35 0.35 0.32 0.28 0.26 0.26 0.24 0.22 0.21 0.19 0.18 0.16 0.15 0.14 0.13 0.13 0.13 0.13 0.13 0.14
0.52 0.52 0.54 0.58 0.62 0.63 0.63 0.68 0.73 0.74 0.74 0.69 0.66 0.64 0.55 0.55 0.50 0.47 0.48 0.43 0.39 0.37 0.34 0.35 0.35 0.34 0.28 0.26 0.26 0.25 0.24 0.23 0.20 0.19 0.17 0.16 0.15 0.14 0.14 0.13 0.13 0.14 0.15 0.15
0.51 0.52 0.52 0.51 0.52 0.54 0.58 0.59 0.61 0.63 0.63 0.64 0.64 0.59 0.55 0.58 0.52 0.49 0.47 0.43 0.40 0.36 0.35 0.36 0.34 0.31 0.27 0.27 0.26 0.25 0.24 0.22 0.20 0.19 0.17 0.16 0.16 0.15 0.14 0.14 0.14 0.14 0.15 0.16
0.45 0.47 0.50 0.52 0.51 0.52 0.53 0.54 0.54 0.56 0.56 0.56 0.59 0.58 0.56 0.58 0.60 0.53 0.47 0.42 0.40 0.37 0.36 0.35 0.32 0.28 0.28 0.26 0.26 0.26 0.24 0.21 0.20 0.19 0.18 0.17 0.17 0.16 0.16 0.16 0.16 0.17 0.17 0.19
0.36 0.40 0.43 0.46 0.48 0.50 0.51 0.52 0.52 0.52 0.53 0.53 0.50 0.53 0.56 0.59 0.64 0.58 0.49 0.44 0.39 0.37 0.36 0.34 0.31 0.29 0.27 0.26 0.27 0.25 0.23 0.21 0.21 0.20 0.19 0.19 0.18 0.18 0.18 0.18 0.19 0.20 0.21 0.22

GFSNGP_prec_pwat_027.txt.gz
Precipitable_Water
0.31 0.32 0.32 0.31 0.31 0.34 0.33 0.35 0.31 0.32 0.32 0.38 0.44 0.49 0.54 0.62 0.63 0.57 0.51 0.52 0.54 0.55 0.58 0.59 0.61 0.63 0.71 0.73 0.72 0.71 0.67 0.66 0.65 0.68 0.72 0.80 0.81 0.81 0.81 0.87 0.92 0.98 0.90 0.90
0.27 0.30 0.31 0.30 0.33 0.37 0.39 0.40 0.38 0.38 0.36 0.48 0.53 0.58 0.59 0.62 0.60 0.53 0.51 0.52 0.54 0.55 0.58 0.60 0.66 0.64 0.66 0.68 0.67 0.67 0.59 0.59 0.62 0.62 0.67 0.72 0.75 0.80 0.84 0.83 0.85 0.92 0.88 0.88
0.22 0.32 0.34 0.30 0.37 0.41 0.43 0.44 0.42 0.35 0.43 0.52 0.52 0.54 0.58 0.61 0.63 0.56 0.52 0.54 0.54 0.55 0.59 0.64 0.68 0.72 0.73 0.75 0.70 0.62 0.56 0.55 0.58 0.61 0.66 0.70 0.76 0.79 0.82 0.82 0.86 0.84 0.88 0.81
0.25 0.34 0.24 0.40 0.52 0.52 0.48 0.48 0.49 0.49 0.51 0.54 0.55 0.59 0.64 0.67 0.65 0.62 0.57 0.57 0.60 0.64 0.67 0.74 0.78 0.79 0.79 0.78 0.70 0.67 0.60 0.62 0.66 0.70 0.73 0.80 0.82 0.83 0.82 0.83 0.88 0.85 0.82 0.83
0.26 0.30 0.36 0.41 0.49 0.50 0.47 0.44 0.54 0.50 0.54 0.57 0.59 0.61 0.63 0.68 0.69 0.67 0.66 0.63 0.65 0.68 0.70 0.73 0.76 0.79 0.78 0.75 0.72 0.65 0.67 0.72 0.74 0.80 0.78 0.82 0.81 0.83 0.83 0.83 0.84 0.84 0.84 0.83
0.34 0.28 0.26 0.43 0.57 0.62 0.59 0.40 0.57 0.56 0.54 0.55 0.57 0.47 0.56 0.67 0.68 0.69 0.71 0.74 0.73 0.74 0.75 0.74 0.75 0.79 0.77 0.73 0.72 0.71 0.73 0.77 0.80 0.81 0.79 0.79 0.81 0.78 0.81 0.83 0.84 0.83 0.80 0.79
0.34 0.31 0.35 0.48 0.54 0.64 0.39 0.41 0.58 0.57 0.57 0.56 0.53 0.60 0.68 0.70 0.69 0.71 0.71 0.74 0.76 0.75 0.73 0.74 0.76 0.75 0.74 0.75 0.73 0.75 0.76 0.77 0.78 0.80 0.79 0.79 0.80 0.82 0.82 0.80 0.77 0.72 0.66 0.56
0.36 0.33 0.27 0.54 0.58 0.49 0.56 0.60 0.60 0.58 0.59 0.58 0.62 0.67 0.71 0.72 0.69 0.70 0.70 0.72 0.73 0.72 0.73 0.76 0.78 0.77 0.75 0.74 0.76 0.79 0.79 0.78 0.78 0.78 0.79 0.79 0.77 0.74 0.69 0.61 0.48 0.37 0.32 0.29
0.40 0.39 0.50 0.57 0.58 0.63 0.63 0.61 0.58 0.58 0.60 0.63 0.64 0.66 0.72 0.72 0.71 0.72 0.73 0.72 0.73 0.71 0.70 0.73 0.76 0.77 0.74 0.74 0.76 0.74 0.73 0.71 0.70 0.66 0.61 0.56 0.48 0.38 0.32 0.30 0.28 0.27 0.27 0.26
0.47 0.51 0.54 0.59 0.63 0.65 0.64 0.61 0.62 0.63 0.63 0.66 0.65 0.69 0.70 0.74 0.73 0.72 0.74 0.72 0.73 0.71 0.69 0.68 0.71 0.70 0.70 0.68 0.67 0.62 0.54 0.49 0.45 0.40 0.35 0.32 0.30 0.29 0.28 0.28 0.27 0.26 0.24 0.22
0.47 0.53 0.57 0.60 0.62 0.63 0.64 0.65 0.62 0.64 0.64 0.68 0.70 0.70 0.69 0.69 0.71 0.74 0.72 0.71 0.72 0.70 0.69 0.67 0.68 0.65 0.61 0.56 0.49 0.43 0.40 0.37 0.34 0.31 0.29 0.28 0.29 0.28 0.27 0.26 0.24 0.22 0.21 0.20
0.38 0.51 0.53 0.55 0.64 0.67 0.63 0.63 0.62 0.62 0.61 0.68 0.71 0.68 0.67 0.67 0.70 0.73 0.72 0.72 0.71 0.68 0.65 0.61 0.62 0.60 0.56 0.46 0.41 0.39 0.35 0.31 0.29 0.29 0.29 0.29 0.29 0.29 0.29 0.27 0.26 0.24 0.23 0.21
0.52 0.61 0.60 0.63 0.64 0.65 0.63 0.65 0.64 0.64 0.65 0.64 0.67 0.67 0.67 0.66 0.67 0.69 0.70 0.68 0.67 0.66 0.65 0.62 0.62 0.56 0.44 0.40 0.38 0.34 0.31 0.29 0.30 0.29 0.28 0.27 0.25 0.23 0.21 0.22 0.23 0.22 0.20 0.19
0.64 0.63 0.60 0.61 0.60 0.66 0.66 0.67 0.66 0.65 0.67 0.67 0.67 0.69 0.68 0.66 0.66 0.67 0.65 0.67 0.70 0.66 0.64 0.63 0.57 0.46 0.41 0.38 0.35 0.32 0.30 0.30 0.29 0.29 0.28 0.25 0.23 0.21 0.21 0.19 0.17 0.16 0.16 0.17
0.60 0.63 0.61 0.66 0.67 0.68 0.68 0.67 0.63 0.62 0.63 0.65 0.68 0.68 0.68 0.67 0.66 0.67 0.65 0.67 0.69 0.65 0.65 0.61 0.49 0.42 0.39 0.35 0.33 0.31 0.30 0.30 0.30 0.29 0.26 0.24 0.22 0.21 0.20 0.18 0.16 0.14 0.13 0.13
0.57 0.55 0.57 0.61 0.63 0.65 0.66 0.66 0.63 0.62 0.62 0.64 0.67 0.69 0.70 0.68 0.66 0.65 0.64 0.64 0.68 0.63 0.61 0.52 0.43 0.39 0.36 0.33 0.31 0.30 0.30 0.30 0.29 0.26 0.24 0.23 0.21 0.20 0.18 0.15 0.14 0.13 0.12 0.11
0.48 0.47 0.51 0.53 0.60 0.64 0.66 0.67 0.65 0.64 0.62 0.64 0.69 0.74 0.71 0.69 0.68 0.63 0.64 0.69 0.65 0.59 0.53 0.46 0.40 0.37 0.34 0.32 0.31 0.30 0.30 0.29 0.27 0.25 0.24 0.22 0.20 0.18 0.16 0.14 0.13 0.12 0.12 0.13
0.55 0.61 0.65 0.64 0.61 0.66 0.69 0.70 0.67 0.65 0.62 0.65 0.69 0.71 0.72 0.68 0.64 0.63 0.62 0.63 0.56 0.50 0.47 0.42 0.38 0.35 0.33 0.32 0.31 0.31 0.29 0.27 0.25 0.24 0.23 0.21 0.19 0.17 0.15 0.14 0.13 0.13 0.13 0.13
0.66 0.66 0.67 0.70 0.69 0.69 0.71 0.70 0.69 0.69 0.66 0.68 0.72 0.73 0.72 0.66 0.64 0.63 0.63 0.56 0.49 0.44 0.40 0.39 0.36 0.34 0.33 0.32 0.31 0.30 0.27 0.25 0.25 0.24 0.22 0.21 0.18 0.16 0.15 0.15 0.14 0.14 0.13 0.12
0.65 0.69 0.70 0.72 0.72 0.72 0.69 0.70 0.70 0.68 0.70 0.71 0.74 0.71 0.66 0.64 0.61 0.59 0.56 0.50 0.47 0.42 0.40 0.38 0.36 0.33 0.33 0.33 0.32 0.29 0.26 0.25 0.24 0.23 0.21 0.20 0.18 0.17 0.16 0.15 0.14 0.13 0.13 0.12
0.65 0.70 0.71 0.74 0.75 0.75 0.73 0.71 0.68 0.66 0.66 0.69 0.72 0.69 0.65 0.62 0.57 0.56 0.52 0.46 0.42 0.41 0.39 0.38 0.35 0.33 0.34 0.33 0.31 0.28 0.27 0.25 0.24 0.22 0.21 0.19 0.18 0.16 0.15 0.14 0.14 0.13 0.12 0.13
0.59 0.65 0.67 0.69 0.70 0.72 0.74 0.73 0.72 0.71 0.69 0.70 0.72 0.70 0.63 0.59 0.57 0.54 0.52 0.46 0.43 0.42 0.39 0.37 0.35 0.34 0.34 0.34 0.29 0.27 0.26 0.25 0.24 0.23 0.22 0.20 0.18 0.16 0.15 0.15 0.13 0.13 0.13 0.13
0.53 0.54 0.57 0.61 0.63 0.67 0.73 0.74 0.73 0.72 0.71 0.72 0.72 0.69 0.62 0.60 0.56 0.56 0.46 0.45 0.43 0.43 0.39 0.36 0.35 0.35 0.35 0.32 0.28 0.26 0.25 0.25 0.24 0.24 0.22 0.20 0.18 0.17 0.16 0.15 0.14 0.14 0.13 0.13
0.51 0.52 0.53 0.54 0.55 0.59 0.60 0.67 0.72 0.74 0.73 0.73 0.72 0.70 0.68 0.58 0.56 0.56 0.51 0.47 0.47 0.44 0.39 0.36 0.36 0.36 0.35 0.30 0.27 0.26 0.25 0.25 0.25 0.24 0.22 0.21 0.19 0.18 0.17 0.16 0.14 0.14 0.14 0.15
0.45 0.47 0.49 0.50 0.50 0.51 0.53 0.59 0.60 0.64 0.68 0.70 0.70 0.69 0.69 0.60 0.59 0.56 0.50 0.48 0.47 0.44 0.38 0.37 0.37 0.36 0.33 0.29 0.27 0.26 0.25 0.26 0.25 0.23 0.22 0.20 0.20 0.19 0.18 0.17 0.16 0.15 0.15 0.16
0.33 0.35 0.38 0.41 0.44 0.48 0.50 0.51 0.52 0.56 0.58 0.60 0.64 0.66 0.67 0.61 0.62 0.60 0.56 0.52 0.48 0.44 0.39 0.38 0.38 0.36 0.30 0.28 0.27 0.26 0.27 0.27 0.25 0.23 0.22 0.21 0.21 0.20 0.19 0.18 0.18 0.18 0.18 0.20
0.23 0.26 0.27 0.30 0.35 0.40 0.44 0.47 0.47 0.48 0.52 0.54 0.55 0.59 0.59 0.54 0.58 0.63 0.60 0.55 0.50 0.44 0.40 0.38 0.37 0.33 0.30 0.29 0.28 0.27 0.28 0.26 0.24 0.23 0.23 0.22 0.22 0.22 0.21 0.20 0.21 0.22 0.23 0.24

GFSNGP_prec_pwat_030.txt.gz
Precipitable_Water
0.29 0.31 0.31 0.30 0.29 0.30 0.28 0.30 0.28 0.31 0.33 0.39 0.43 0.46 0.48 0.54 0.58 0.58 0.56 0.51 0.51 0.51 0.54 0.56 0.59 0.62 0.64 0.68 0.69 0.75 0.75 0.75 0.77 0.77 0.78 0.74 0.71 0.69 0.70 0.75 0.79 0.81 0.83 0.85
0.27 0.31 0.30 0.27 0.30 0.33 0.35 0.37 0.38 0.38 0.36 0.46 0.50 0.51 0.53 0.55 0.58 0.58 0.56 0.54 0.54 0.56 0.59 0.59 0.61 0.65 0.67 0.69 0.71 0.74 0.74 0.71 0.72 0.71 0.69 0.66 0.67 0.68 0.74 0.78 0.80 0.82 0.83 0.84
0.22 0.30 0.29 0.25 0.32 0.35 0.38 0.42 0.41 0.34 0.41 0.48 0.48 0.51 0.53 0.58 0.59 0.59 0.59 0.57 0.57 0.60 0.62 0.65 0.68 0.72 0.72 0.75 0.74 0.68 0.68 0.65 0.63 0.60 0.59 0.63 0.65 0.71 0.76 0.77 0.78 0.78 0.84 0.83
0.24 0.27 0.19 0.36 0.49 0.49 0.48 0.48 0.48 0.46 0.47 0.50 0.52 0.57 0.60 0.64 0.59 0.60 0.62 0.63 0.63 0.64 0.67 0.68 0.70 0.74 0.76 0.77 0.72 0.65 0.63 0.61 0.60 0.58 0.59 0.64 0.65 0.69 0.71 0.74 0.79 0.78 0.79 0.79
0.23 0.23 0.31 0.38 0.47 0.48 0.48 0.46 0.53 0.49 0.52 0.54 0.58 0.58 0.60 0.66 0.64 0.61 0.64 0.68 0.70 0.70 0.70 0.71 0.71 0.74 0.75 0.73 0.70 0.65 0.65 0.65 0.65 0.65 0.63 0.66 0.69 0.71 0.72 0.77 0.76 0.77 0.80 0.78
0.29 0.22 0.22 0.41 0.56 0.62 0.61 0.41 0.58 0.57 0.54 0.54 0.55 0.44 0.54 0.67 0.66 0.64 0.67 0.70 0.69 0.70 0.71 0.70 0.72 0.74 0.73 0.72 0.71 0.69 0.70 0.71 0.73 0.74 0.74 0.74 0.75 0.77 0.77 0.77 0.76 0.77 0.78 0.79
0.28 0.25 0.32 0.45 0.55 0.63 0.41 0.43 0.60 0.60 0.56 0.55 0.51 0.56 0.65 0.71 0.68 0.69 0.68 0.69 0.71 0.71 0.71 0.71 0.73 0.73 0.70 0.71 0.71 0.72 0.74 0.75 0.76 0.77 0.76 0.76 0.76 0.77 0.75 0.75 0.76 0.75 0.74 0.71
0.29 0.26 0.26 0.49 0.55 0.48 0.57 0.63 0.64 0.60 0.58 0.56 0.60 0.63 0.67 0.72 0.69 0.70 0.68 0.69 0.70 0.69 0.71 0.73 0.74 0.74 0.71 0.71 0.75 0.77 0.77 0.76 0.76 0.77 0.77 0.76 0.75 0.74 0.73 0.65 0.51 0.41 0.36 0.31
0.33 0.32 0.47 0.56 0.57 0.65 0.67 0.64 0.63 0.59 0.60 0.60 0.61 0.64 0.69 0.71 0.71 0.71 0.70 0.70 0.71 0.69 0.69 0.71 0.72 0.72 0.69 0.69 0.70 0.69 0.68 0.65 0.63 0.59 0.52 0.45 0.38 0.33 0.30 0.29 0.28 0.28 0.28 0.27
0.40 0.45 0.50 0.58 0.63 0.65 0.68 0.65 0.66 0.64 0.63 0.63 0.63 0.66 0.69 0.73 0.72 0.72 0.73 0.71 0.71 0.71 0.69 0.68 0.68 0.66 0.63 0.60 0.56 0.51 0.45 0.40 0.37 0.34 0.30 0.29 0.29 0.29 0.29 0.28 0.27 0.25 0.23 0.21
0.41 0.47 0.53 0.58 0.63 0.65 0.64 0.66 0.65 0.66 0.64 0.64 0.66 0.67 0.70 0.72 0.72 0.73 0.74 0.71 0.71 0.69 0.68 0.67 0.66 0.61 0.58 0.49 0.43 0.40 0.37 0.33 0.31 0.29 0.29 0.29 0.29 0.28 0.26 0.25 0.23 0.21 0.21 0.20
0.36 0.48 0.50 0.53 0.60 0.67 0.64 0.63 0.65 0.64 0.62 0.66 0.65 0.67 0.70 0.69 0.71 0.72 0.72 0.71 0.71 0.69 0.67 0.63 0.62 0.58 0.48 0.41 0.39 0.36 0.33 0.30 0.29 0.29 0.29 0.30 0.29 0.28 0.29 0.27 0.26 0.25 0.23 0.21
0.48 0.57 0.56 0.59 0.65 0.67 0.63 0.63 0.64 0.65 0.65 0.64 0.65 0.66 0.67 0.68 0.69 0.71 0.71 0.71 0.70 0.67 0.65 0.63 0.62 0.56 0.44 0.40 0.37 0.34 0.31 0.30 0.30 0.29 0.29 0.28 0.26 0.23 0.22 0.24 0.24 0.22 0.21 0.19
0.57 0.56 0.55 0.61 0.59 0.64 0.66 0.66 0.67 0.67 0.67 0.66 0.65 0.67 0.68 0.68 0.68 0.68 0.67 0.68 0.67 0.67 0.64 0.63 0.62 0.50 0.42 0.38 0.35 0.32 0.31 0.30 0.29 0.29 0.27 0.25 0.23 0.22 0.21 0.19 0.17 0.15 0.15 0.16
0.55 0.58 0.58 0.58 0.60 0.62 0.66 0.68 0.65 0.65 0.66 0.64 0.64 0.65 0.66 0.65 0.66 0.66 0.66 0.65 0.69 0.66 0.64 0.64 0.59 0.46 0.41 0.36 0.34 0.31 0.30 0.29 0.29 0.28 0.26 0.25 0.23 0.22 0.20 0.18 0.15 0.14 0.13 0.13
0.53 0.54 0.52 0.51 0.52 0.58 0.62 0.62 0.63 0.65 0.66 0.64 0.62 0.64 0.65 0.67 0.67 0.67 0.66 0.65 0.67 0.65 0.65 0.63 0.54 0.45 0.40 0.35 0.32 0.30 0.30 0.30 0.29 0.27 0.25 0.24 0.23 0.21 0.19 0.16 0.14 0.13 0.13 0.13
0.45 0.41 0.47 0.49 0.51 0.53 0.60 0.64 0.65 0.67 0.66 0.64 0.63 0.65 0.67 0.68 0.70 0.67 0.65 0.64 0.68 0.70 0.64 0.60 0.48 0.43 0.37 0.33 0.31 0.31 0.31 0.30 0.28 0.26 0.25 0.24 0.22 0.20 0.18 0.16 0.15 0.14 0.14 0.14
0.53 0.56 0.57 0.59 0.61 0.62 0.58 0.66 0.68 0.70 0.67 0.66 0.65 0.67 0.68 0.66 0.66 0.67 0.64 0.65 0.70 0.64 0.58 0.52 0.46 0.41 0.35 0.33 0.33 0.32 0.31 0.29 0.27 0.25 0.24 0.24 0.22 0.20 0.18 0.17 0.16 0.15 0.14 0.14
0.59 0.60 0.62 0.63 0.66 0.67 0.67 0.68 0.71 0.72 0.69 0.67 0.64 0.65 0.66 0.68 0.70 0.67 0.65 0.64 0.63 0.56 0.51 0.48 0.43 0.37 0.34 0.33 0.33 0.32 0.30 0.28 0.26 0.25 0.24 0.24 0.22 0.20 0.19 0.17 0.16 0.15 0.15 0.14
0.60 0.64 0.66 0.68 0.70 0.70 0.69 0.71 0.71 0.69 0.68 0.66 0.66 0.67 0.69 0.72 0.69 0.65 0.64 0.62 0.62 0.55 0.50 0.46 0.41 0.36 0.35 0.34 0.33 0.32 0.30 0.28 0.26 0.25 0.24 0.24 0.22 0.21 0.19 0.17 0.16 0.15 0.15 0.14
0.59 0.65 0.67 0.69 0.71 0.74 0.74 0.73 0.72 0.68 0.67 0.66 0.63 0.68 0.71 0.70 0.66 0.64 0.60 0.57 0.55 0.51 0.47 0.44 0.39 0.36 0.35 0.34 0.33 0.32 0.29 0.27 0.26 0.24 0.24 0.23 0.22 0.21 0.19 0.18 0.17 0.16 0.15 0.15
0.53 0.56 0.60 0.62 0.65 0.67 0.71 0.71 0.70 0.67 0.65 0.65 0.65 0.69 0.70 0.66 0.64 0.61 0.59 0.56 0.54 0.49 0.45 0.42 0.39 0.37 0.35 0.35 0.33 0.32 0.28 0.27 0.25 0.24 0.25 0.24 0.22 0.20 0.19 0.18 0.17 0.16 0.16 0.15
0.52 0.53 0.54 0.54 0.55 0.57 0.65 0.67 0.68 0.69 0.69 0.70 0.70 0.70 0.69 0.67 0.64 0.58 0.55 0.56 0.51 0.48 0.45 0.42 0.39 0.37 0.35 0.34 0.32 0.30 0.28 0.27 0.24 0.25 0.26 0.24 0.22 0.21 0.19 0.18 0.18 0.17 0.16 0.14
0.46 0.47 0.48 0.50 0.52 0.53 0.52 0.56 0.65 0.68 0.71 0.72 0.72 0.72 0.70 0.66 0.62 0.60 0.61 0.56 0.51 0.50 0.45 0.44 0.40 0.37 0.36 0.34 0.32 0.29 0.28 0.26 0.25 0.26 0.26 0.24 0.23 0.21 0.20 0.20 0.19 0.18 0.17 0.16
0.37 0.38 0.40 0.39 0.39 0.42 0.46 0.51 0.53 0.57 0.64 0.68 0.70 0.72 0.72 0.72 0.67 0.62 0.60 0.56 0.51 0.49 0.47 0.44 0.40 0.38 0.36 0.34 0.31 0.28 0.28 0.26 0.26 0.27 0.26 0.23 0.22 0.22 0.22 0.21 0.20 0.19 0.18 0.18
0.27 0.27 0.28 0.30 0.30 0.33 0.36 0.40 0.45 0.49 0.51 0.54 0.62 0.67 0.70 0.70 0.66 0.63 0.64 0.59 0.54 0.50 0.47 0.44 0.42 0.39 0.37 0.35 0.30 0.28 0.27 0.27 0.28 0.28 0.25 0.23 0.23 0.23 0.23 0.23 0.23 0.21 0.22 0.22
0.19 0.19 0.18 0.17 0.19 0.22 0.28 0.30 0.33 0.39 0.46 0.48 0.48 0.53 0.60 0.65 0.64 0.64 0.66 0.62 0.58 0.53 0.49 0.46 0.43 0.39 0.37 0.33 0.30 0.29 0.29 0.29 0.29 0.26 0.24 0.24 0.25 0.26 0.27 0.27 0.27 0.26 0.27 0.27

GFSNGP_prec_pwat_033.txt.gz
Precipitable_Water
0.28 0.29 0.31 0.30 0.29 0.29 0.26 0.26 0.23 0.26 0.29 0.36 0.44 0.48 0.49 0.53 0.56 0.56 0.56 0.56 0.52 0.52 0.55 0.59 0.60 0.61 0.64 0.67 0.68 0.70 0.67 0.66 0.70 0.76 0.78 0.76 0.73 0.79 0.80 0.77 0.74 0.72 0.74 0.75
0.25 0.30 0.30 0.26 0.30 0.31 0.30 0.32 0.32 0.35 0.36 0.48 0.51 0.51 0.51 0.54 0.56 0.54 0.54 0.57 0.57 0.55 0.58 0.60 0.61 0.64 0.68 0.71 0.73 0.71 0.66 0.65 0.68 0.70 0.73 0.73 0.72 0.74 0.74 0.72 0.73 0.73 0.74 0.75
0.21 0.29 0.28 0.21 0.27 0.30 0.33 0.37 0.37 0.35 0.42 0.48 0.47 0.49 0.51 0.54 0.56 0.53 0.54 0.57 0.58 0.60 0.62 0.64 0.65 0.66 0.67 0.71 0.71 0.63 0.62 0.62 0.60 0.61 0.62 0.64 0.66 0.68 0.70 0.72 0.74 0.75 0.76 0.76
0.24 0.26 0.16 0.30 0.46 0.45 0.42 0.44 0.47 0.47 0.48 0.49 0.50 0.53 0.57 0.61 0.58 0.55 0.55 0.59 0.60 0.62 0.64 0.66 0.67 0.68 0.69 0.71 0.68 0.63 0.60 0.62 0.60 0.58 0.58 0.59 0.61 0.62 0.65 0.70 0.74 0.76 0.79 0.77
0.23 0.22 0.26 0.33 0.43 0.44 0.44 0.46 0.55 0.52 0.52 0.53 0.55 0.56 0.55 0.66 0.63 0.60 0.60 0.61 0.61 0.64 0.64 0.67 0.67 0.68 0.69 0.67 0.69 0.67 0.67 0.66 0.65 0.65 0.65 0.62 0.62 0.64 0.63 0.67 0.69 0.72 0.77 0.77
0.27 0.20 0.18 0.35 0.51 0.60 0.59 0.42 0.60 0.59 0.55 0.53 0.54 0.41 0.49 0.65 0.65 0.64 0.65 0.64 0.63 0.65 0.65 0.67 0.67 0.69 0.66 0.67 0.67 0.65 0.69 0.72 0.72 0.73 0.73 0.72 0.73 0.73 0.72 0.71 0.71 0.74 0.71 0.75
0.27 0.23 0.26 0.39 0.56 0.61 0.40 0.44 0.62 0.62 0.59 0.55 0.50 0.54 0.61 0.67 0.68 0.68 0.67 0.66 0.67 0.67 0.66 0.67 0.71 0.70 0.67 0.68 0.67 0.69 0.70 0.71 0.72 0.73 0.73 0.73 0.73 0.73 0.72 0.71 0.71 0.71 0.71 0.72
0.29 0.24 0.19 0.43 0.49 0.45 0.58 0.64 0.65 0.63 0.61 0.57 0.57 0.61 0.64 0.69 0.69 0.68 0.66 0.67 0.68 0.67 0.67 0.69 0.71 0.70 0.68 0.67 0.69 0.70 0.69 0.68 0.69 0.70 0.70 0.70 0.70 0.71 0.69 0.62 0.48 0.39 0.35 0.33
0.32 0.31 0.42 0.49 0.55 0.62 0.65 0.65 0.66 0.65 0.64 0.62 0.59 0.61 0.66 0.70 0.71 0.69 0.69 0.69 0.69 0.69 0.68 0.68 0.70 0.68 0.62 0.58 0.57 0.54 0.51 0.48 0.47 0.44 0.39 0.34 0.30 0.29 0.29 0.29 0.29 0.27 0.26 0.25
0.38 0.41 0.45 0.52 0.58 0.64 0.66 0.66 0.68 0.69 0.68 0.63 0.60 0.64 0.66 0.72 0.72 0.71 0.72 0.70 0.70 0.70 0.68 0.66 0.65 0.62 0.56 0.50 0.48 0.41 0.36 0.33 0.31 0.29 0.29 0.29 0.30 0.29 0.28 0.26 0.24 0.23 0.22 0.21
0.41 0.46 0.51 0.54 0.58 0.62 0.65 0.67 0.67 0.68 0.67 0.64 0.63 0.62 0.67 0.71 0.73 0.73 0.73 0.72 0.70 0.70 0.69 0.66 0.64 0.61 0.54 0.45 0.39 0.36 0.33 0.30 0.29 0.29 0.29 0.29 0.28 0.26 0.24 0.23 0.22 0.21 0.21 0.20
0.37 0.49 0.49 0.50 0.57 0.63 0.62 0.64 0.67 0.65 0.63 0.65 0.65 0.64 0.67 0.70 0.74 0.74 0.73 0.73 0.70 0.70 0.70 0.66 0.64 0.58 0.48 0.42 0.37 0.34 0.31 0.30 0.30 0.29 0.30 0.30 0.28 0.27 0.29 0.28 0.27 0.24 0.22 0.20
0.48 0.56 0.56 0.56 0.59 0.62 0.62 0.62 0.64 0.64 0.65 0.63 0.65 0.66 0.66 0.67 0.70 0.74 0.74 0.73 0.72 0.72 0.68 0.65 0.63 0.58 0.47 0.42 0.36 0.33 0.30 0.30 0.30 0.29 0.29 0.27 0.26 0.24 0.22 0.24 0.24 0.22 0.20 0.19
0.57 0.56 0.50 0.54 0.54 0.61 0.62 0.63 0.66 0.67 0.65 0.65 0.67 0.66 0.66 0.66 0.68 0.70 0.72 0.74 0.72 0.70 0.65 0.65 0.64 0.59 0.47 0.41 0.36 0.32 0.31 0.31 0.29 0.29 0.27 0.26 0.24 0.23 0.21 0.19 0.17 0.15 0.17 0.17
0.54 0.56 0.54 0.56 0.57 0.56 0.57 0.59 0.61 0.63 0.65 0.65 0.68 0.65 0.64 0.63 0.65 0.67 0.70 0.72 0.69 0.67 0.64 0.64 0.64 0.59 0.48 0.41 0.35 0.32 0.31 0.30 0.30 0.28 0.27 0.25 0.24 0.23 0.21 0.19 0.17 0.16 0.16 0.16
0.51 0.52 0.51 0.49 0.48 0.51 0.52 0.54 0.57 0.59 0.63 0.65 0.67 0.66 0.64 0.64 0.64 0.65 0.66 0.68 0.65 0.65 0.66 0.63 0.64 0.57 0.47 0.41 0.34 0.31 0.31 0.31 0.30 0.28 0.26 0.24 0.24 0.23 0.21 0.19 0.18 0.17 0.16 0.15
0.46 0.44 0.46 0.50 0.50 0.51 0.54 0.54 0.59 0.62 0.63 0.65 0.66 0.66 0.65 0.64 0.64 0.64 0.65 0.68 0.67 0.68 0.68 0.64 0.64 0.56 0.45 0.40 0.33 0.32 0.32 0.31 0.29 0.27 0.26 0.24 0.24 0.23 0.21 0.20 0.19 0.18 0.16 0.17
0.51 0.54 0.56 0.55 0.54 0.56 0.60 0.63 0.60 0.62 0.66 0.68 0.68 0.66 0.64 0.64 0.65 0.64 0.66 0.66 0.66 0.67 0.69 0.68 0.63 0.51 0.44 0.38 0.33 0.33 0.32 0.31 0.29 0.27 0.26 0.25 0.24 0.23 0.22 0.21 0.20 0.18 0.17 0.17
0.56 0.56 0.59 0.59 0.61 0.61 0.61 0.64 0.65 0.67 0.71 0.70 0.67 0.64 0.64 0.66 0.66 0.66 0.65 0.65 0.64 0.68 0.68 0.63 0.56 0.47 0.42 0.36 0.33 0.33 0.32 0.31 0.29 0.27 0.27 0.26 0.24 0.24 0.23 0.22 0.20 0.19 0.18 0.17
0.56 0.60 0.64 0.64 0.67 0.67 0.66 0.70 0.71 0.70 0.70 0.69 0.66 0.64 0.63 0.66 0.66 0.65 0.65 0.63 0.65 0.68 0.64 0.60 0.53 0.45 0.40 0.36 0.34 0.33 0.32 0.31 0.29 0.27 0.26 0.24 0.24 0.25 0.24 0.22 0.20 0.19 0.18 0.17
0.54 0.58 0.62 0.65 0.65 0.68 0.71 0.72 0.70 0.69 0.69 0.68 0.66 0.64 0.63 0.65 0.69 0.70 0.64 0.62 0.65 0.65 0.60 0.55 0.49 0.44 0.39 0.36 0.35 0.33 0.32 0.31 0.28 0.27 0.24 0.24 0.26 0.25 0.23 0.22 0.20 0.19 0.18 0.17
0.52 0.53 0.54 0.57 0.57 0.58 0.65 0.69 0.69 0.66 0.65 0.65 0.64 0.64 0.62 0.66 0.68 0.67 0.68 0.65 0.64 0.64 0.56 0.52 0.46 0.42 0.38 0.38 0.34 0.33 0.32 0.29 0.27 0.26 0.25 0.25 0.27 0.25 0.23 0.21 0.20 0.19 0.18 0.17
0.49 0.49 0.49 0.49 0.49 0.51 0.56 0.58 0.64 0.66 0.66 0.66 0.67 0.67 0.67 0.68 0.69 0.67 0.64 0.63 0.63 0.61 0.56 0.49 0.46 0.43 0.42 0.37 0.34 0.32 0.31 0.29 0.27 0.26 0.26 0.27 0.27 0.25 0.23 0.22 0.21 0.20 0.19 0.18
0.43 0.43 0.42 0.43 0.44 0.43 0.42 0.46 0.51 0.57 0.65 0.69 0.68 0.69 0.68 0.66 0.67 0.70 0.63 0.63 0.63 0.59 0.52 0.50 0.47 0.44 0.43 0.36 0.33 0.32 0.31 0.28 0.27 0.26 0.27 0.29 0.27 0.25 0.23 0.22 0.22 0.21 0.20 0.20
0.37 0.36 0.35 0.33 0.30 0.30 0.33 0.36 0.39 0.44 0.51 0.58 0.64 0.68 0.69 0.70 0.67 0.68 0.65 0.65 0.62 0.58 0.52 0.51 0.48 0.47 0.41 0.36 0.34 0.33 0.30 0.29 0.27 0.28 0.29 0.29 0.27 0.25 0.24 0.24 0.24 0.24 0.24 0.24
0.28 0.26 0.25 0.23 0.21 0.20 0.23 0.26 0.27 0.32 0.37 0.42 0.49 0.58 0.64 0.67 0.67 0.68 0.67 0.65 0.63 0.59 0.54 0.50 0.48 0.46 0.41 0.37 0.35 0.34 0.31 0.29 0.28 0.30 0.31 0.30 0.27 0.26 0.26 0.26 0.27 0.27 0.27 0.28
0.23 0.22 0.19 0.16 0.16 0.15 0.15 0.17 0.19 0.22 0.27 0.31 0.37 0.44 0.50 0.59 0.62 0.63 0.64 0.64 0.64 0.61 0.55 0.52 0.49 0.46 0.43 0.39 0.36 0.33 0.30 0.29 0.30 0.31 0.30 0.29 0.28 0.27 0.28 0.28 0.29 0.30 0.31 0.31

GFSNGP_prec_pwat_036.txt.gz
Precipitable_Water
0.29 0.29 0.31 0.31 0.29 0.29 0.26 0.27 0.21 0.23 0.23 0.29 0.38 0.47 0.50 0.54 0.56 0.56 0.53 0.53 0.55 0.55 0.55 0.58 0.60 0.61 0.62 0.64 0.68 0.70 0.67 0.65 0.63 0.65 0.65 0.66 0.68 0.71 0.72 0.72 0.73 0.74 0.73 0.75
0.25 0.29 0.29 0.26 0.29 0.30 0.30 0.29 0.27 0.28 0.28 0.39 0.49 0.52 0.51 0.52 0.54 0.54 0.51 0.53 0.56 0.57 0.59 0.61 0.61 0.62 0.64 0.65 0.67 0.69 0.59 0.57 0.62 0.62 0.62 0.64 0.65 0.66 0.68 0.71 0.73 0.74 0.75 0.77
0.21 0.27 0.27 0.21 0.25 0.27 0.29 0.32 0.32 0.27 0.36 0.47 0.48 0.50 0.51 0.53 0.56 0.54 0.52 0.54 0.53 0.56 0.57 0.60 0.62 0.63 0.64 0.66 0.68 0.63 0.58 0.58 0.60 0.60 0.59 0.58 0.62 0.62 0.63 0.67 0.71 0.72 0.73 0.74
0.24 0.26 0.16 0.26 0.40 0.39 0.35 0.35 0.38 0.39 0.44 0.49 0.51 0.53 0.56 0.59 0.59 0.56 0.55 0.54 0.55 0.55 0.57 0.60 0.64 0.65 0.67 0.67 0.67 0.65 0.62 0.61 0.60 0.59 0.58 0.59 0.59 0.59 0.61 0.64 0.66 0.68 0.71 0.73
0.22 0.21 0.24 0.29 0.38 0.41 0.41 0.42 0.48 0.48 0.53 0.55 0.55 0.56 0.55 0.63 0.64 0.60 0.59 0.59 0.58 0.58 0.59 0.60 0.61 0.64 0.66 0.67 0.67 0.66 0.65 0.66 0.64 0.64 0.66 0.65 0.63 0.63 0.63 0.63 0.63 0.67 0.72 0.71
0.27 0.20 0.17 0.29 0.44 0.53 0.55 0.38 0.57 0.58 0.57 0.56 0.55 0.42 0.49 0.64 0.66 0.64 0.63 0.63 0.61 0.61 0.62 0.61 0.62 0.65 0.65 0.64 0.64 0.63 0.65 0.66 0.68 0.68 0.68 0.68 0.69 0.71 0.72 0.71 0.68 0.69 0.69 0.70
0.26 0.22 0.25 0.36 0.51 0.58 0.36 0.41 0.61 0.64 0.62 0.58 0.52 0.54 0.60 0.65 0.67 0.67 0.66 0.64 0.66 0.65 0.62 0.63 0.65 0.65 0.63 0.64 0.62 0.64 0.64 0.65 0.65 0.65 0.64 0.66 0.67 0.68 0.69 0.69 0.69 0.68 0.68 0.68
0.29 0.24 0.18 0.39 0.47 0.41 0.54 0.62 0.66 0.67 0.65 0.60 0.60 0.60 0.62 0.65 0.68 0.67 0.66 0.66 0.67 0.66 0.65 0.66 0.65 0.63 0.59 0.57 0.59 0.59 0.58 0.57 0.56 0.55 0.54 0.54 0.53 0.53 0.51 0.47 0.40 0.35 0.32 0.32
0.31 0.29 0.39 0.46 0.47 0.56 0.62 0.63 0.67 0.67 0.69 0.66 0.63 0.61 0.64 0.65 0.69 0.70 0.68 0.68 0.70 0.68 0.67 0.67 0.65 0.63 0.54 0.49 0.49 0.47 0.44 0.41 0.38 0.35 0.32 0.31 0.30 0.30 0.29 0.28 0.27 0.25 0.24 0.23
0.35 0.38 0.41 0.48 0.55 0.58 0.61 0.64 0.67 0.70 0.70 0.70 0.64 0.64 0.64 0.67 0.70 0.71 0.71 0.69 0.70 0.69 0.68 0.66 0.64 0.59 0.55 0.50 0.45 0.37 0.33 0.31 0.30 0.29 0.29 0.30 0.29 0.28 0.26 0.24 0.23 0.22 0.21 0.20
0.37 0.42 0.48 0.50 0.55 0.58 0.60 0.64 0.67 0.69 0.69 0.68 0.67 0.66 0.64 0.66 0.71 0.72 0.72 0.72 0.71 0.69 0.68 0.67 0.65 0.60 0.53 0.46 0.39 0.34 0.31 0.30 0.30 0.29 0.29 0.28 0.27 0.25 0.23 0.23 0.22 0.20 0.19 0.18
0.34 0.46 0.47 0.49 0.56 0.60 0.58 0.58 0.63 0.65 0.65 0.68 0.67 0.66 0.66 0.66 0.71 0.74 0.72 0.73 0.71 0.71 0.69 0.67 0.67 0.64 0.52 0.44 0.39 0.33 0.30 0.30 0.30 0.30 0.30 0.29 0.28 0.28 0.29 0.28 0.26 0.23 0.21 0.20
0.46 0.54 0.55 0.57 0.57 0.58 0.55 0.57 0.61 0.62 0.64 0.64 0.67 0.66 0.67 0.66 0.69 0.73 0.74 0.74 0.73 0.72 0.72 0.68 0.65 0.63 0.54 0.45 0.39 0.33 0.30 0.31 0.31 0.30 0.29 0.28 0.27 0.25 0.24 0.25 0.25 0.23 0.22 0.21
0.55 0.56 0.51 0.54 0.51 0.57 0.57 0.58 0.60 0.61 0.66 0.65 0.65 0.67 0.67 0.66 0.68 0.70 0.73 0.75 0.75 0.74 0.72 0.67 0.64 0.63 0.58 0.47 0.40 0.34 0.31 0.31 0.30 0.30 0.28 0.27 0.26 0.24 0.23 0.21 0.20 0.19 0.20 0.21
0.52 0.55 0.54 0.56 0.55 0.55 0.57 0.55 0.52 0.53 0.61 0.63 0.66 0.66 0.66 0.65 0.65 0.69 0.72 0.75 0.75 0.73 0.70 0.66 0.64 0.64 0.61 0.49 0.41 0.35 0.32 0.31 0.31 0.30 0.28 0.27 0.26 0.24 0.23 0.22 0.21 0.21 0.20 0.20
0.52 0.52 0.52 0.50 0.50 0.51 0.51 0.49 0.49 0.51 0.57 0.60 0.62 0.65 0.67 0.68 0.67 0.67 0.69 0.70 0.69 0.69 0.68 0.66 0.64 0.65 0.62 0.51 0.42 0.36 0.33 0.31 0.31 0.30 0.28 0.27 0.26 0.24 0.23 0.22 0.22 0.22 0.21 0.19
0.45 0.43 0.46 0.48 0.50 0.52 0.53 0.53 0.53 0.52 0.56 0.61 0.62 0.64 0.66 0.66 0.65 0.64 0.66 0.67 0.68 0.70 0.69 0.67 0.66 0.66 0.62 0.53 0.42 0.36 0.33 0.32 0.32 0.29 0.28 0.27 0.27 0.26 0.24 0.23 0.23 0.22 0.21 0.20
0.52 0.53 0.54 0.53 0.52 0.53 0.55 0.57 0.58 0.62 0.57 0.65 0.65 0.66 0.65 0.64 0.63 0.63 0.64 0.65 0.64 0.66 0.68 0.67 0.68 0.66 0.61 0.52 0.42 0.37 0.34 0.32 0.31 0.29 0.29 0.28 0.27 0.26 0.24 0.25 0.25 0.22 0.21 0.20
0.56 0.55 0.56 0.56 0.58 0.59 0.59 0.59 0.59 0.61 0.63 0.64 0.65 0.65 0.65 0.64 0.64 0.64 0.65 0.64 0.62 0.62 0.66 0.70 0.70 0.67 0.59 0.48 0.42 0.36 0.33 0.32 0.31 0.30 0.29 0.29 0.27 0.25 0.25 0.26 0.24 0.22 0.21 0.19
0.56 0.58 0.59 0.61 0.64 0.63 0.63 0.65 0.66 0.68 0.68 0.67 0.69 0.65 0.64 0.64 0.63 0.64 0.65 0.63 0.64 0.66 0.69 0.71 0.72 0.63 0.54 0.45 0.41 0.35 0.33 0.33 0.32 0.30 0.29 0.27 0.25 0.25 0.26 0.26 0.24 0.22 0.20 0.19
0.55 0.56 0.58 0.60 0.60 0.61 0.65 0.68 0.67 0.65 0.67 0.68 0.66 0.65 0.64 0.64 0.63 0.64 0.65 0.63 0.66 0.69 0.72 0.72 0.66 0.60 0.53 0.46 0.40 0.34 0.34 0.34 0.32 0.30 0.28 0.26 0.26 0.26 0.27 0.26 0.24 0.22 0.20 0.19
0.50 0.52 0.51 0.52 0.52 0.52 0.56 0.60 0.63 0.65 0.66 0.65 0.64 0.64 0.63 0.63 0.64 0.63 0.66 0.67 0.71 0.68 0.67 0.65 0.61 0.56 0.50 0.45 0.38 0.34 0.35 0.35 0.32 0.29 0.27 0.25 0.26 0.27 0.27 0.26 0.24 0.23 0.21 0.21
0.48 0.48 0.46 0.45 0.45 0.45 0.46 0.48 0.50 0.55 0.59 0.64 0.65 0.65 0.65 0.65 0.67 0.65 0.64 0.71 0.71 0.69 0.67 0.64 0.59 0.54 0.48 0.43 0.36 0.35 0.37 0.34 0.30 0.28 0.26 0.26 0.27 0.28 0.29 0.28 0.26 0.24 0.23 0.22
0.47 0.45 0.43 0.41 0.40 0.37 0.34 0.35 0.37 0.40 0.45 0.54 0.62 0.67 0.66 0.66 0.66 0.69 0.70 0.70 0.70 0.69 0.67 0.63 0.58 0.52 0.48 0.43 0.40 0.39 0.37 0.32 0.29 0.28 0.27 0.28 0.29 0.30 0.31 0.28 0.27 0.26 0.25 0.25
0.39 0.37 0.35 0.32 0.28 0.25 0.25 0.27 0.28 0.29 0.32 0.37 0.46 0.55 0.62 0.67 0.65 0.67 0.68 0.67 0.66 0.68 0.66 0.61 0.57 0.53 0.50 0.45 0.40 0.38 0.34 0.32 0.29 0.29 0.28 0.29 0.30 0.31 0.31 0.29 0.28 0.28 0.28 0.28
0.32 0.30 0.29 0.28 0.25 0.23 0.20 0.19 0.19 0.21 0.22 0.25 0.30 0.39 0.49 0.56 0.61 0.64 0.65 0.65 0.66 0.66 0.64 0.61 0.60 0.57 0.50 0.45 0.43 0.40 0.36 0.33 0.32 0.31 0.30 0.30 0.32 0.32 0.31 0.30 0.30 0.30 0.30 0.31
0.26 0.25 0.22 0.20 0.18 0.18 0.18 0.17 0.15 0.16 0.19 0.20 0.21 0.26 0.33 0.43 0.50 0.54 0.57 0.61 0.63 0.64 0.63 0.62 0.59 0.53 0.49 0.46 0.43 0.39 0.36 0.35 0.32 0.30 0.33 0.34 0.32 0.33 0.32 0.32 0.32 0.32 0.33 0.33

GFSNGP_prec_pwat_039.txt.gz
Precipitable_Water
0.29 0.30 0.31 0.30 0.29 0.32 0.31 0.33 0.28 0.29 0.25 0.30 0.33 0.37 0.45 0.53 0.57 0.57 0.57 0.55 0.55 0.56 0.57 0.58 0.58 0.59 0.61 0.62 0.63 0.64 0.64 0.66 0.63 0.63 0.65 0.63 0.62 0.62 0.63 0.65 0.66 0.68 0.71 0.72
0.27 0.30 0.28 0.24 0.29 0.31 0.31 0.30 0.29 0.27 0.26 0.33 0.35 0.41 0.49 0.54 0.57 0.56 0.55 0.54 0.55 0.53 0.54 0.56 0.58 0.60 0.62 0.63 0.64 0.65 0.63 0.60 0.59 0.59 0.61 0.59 0.60 0.61 0.62 0.61 0.63 0.65 0.67 0.68
0.22 0.28 0.27 0.20 0.23 0.26 0.28 0.30 0.30 0.25 0.29 0.38 0.40 0.47 0.53 0.56 0.58 0.57 0.56 0.56 0.53 0.53 0.54 0.55 0.58 0.61 0.62 0.63 0.64 0.64 0.63 0.61 0.59 0.59 0.58 0.58 0.60 0.61 0.59 0.58 0.59 0.60 0.63 0.67
0.25 0.26 0.16 0.28 0.36 0.35 0.30 0.31 0.34 0.33 0.36 0.41 0.46 0.53 0.58 0.63 0.59 0.59 0.58 0.56 0.55 0.55 0.55 0.56 0.58 0.60 0.63 0.65 0.64 0.64 0.64 0.63 0.61 0.58 0.58 0.60 0.60 0.61 0.60 0.61 0.61 0.62 0.64 0.67
0.23 0.22 0.24 0.26 0.32 0.35 0.35 0.36 0.40 0.37 0.41 0.47 0.53 0.59 0.58 0.63 0.64 0.63 0.61 0.60 0.58 0.58 0.58 0.58 0.58 0.60 0.60 0.62 0.64 0.64 0.65 0.65 0.65 0.66 0.64 0.65 0.64 0.64 0.66 0.66 0.66 0.66 0.67 0.68
0.26 0.19 0.16 0.30 0.41 0.48 0.50 0.36 0.53 0.48 0.50 0.55 0.58 0.47 0.54 0.63 0.66 0.66 0.64 0.63 0.59 0.60 0.60 0.60 0.59 0.61 0.59 0.58 0.60 0.60 0.63 0.63 0.63 0.62 0.61 0.61 0.62 0.64 0.67 0.67 0.67 0.67 0.66 0.67
0.25 0.21 0.23 0.32 0.46 0.51 0.32 0.38 0.57 0.61 0.61 0.62 0.57 0.59 0.63 0.65 0.65 0.69 0.66 0.64 0.64 0.64 0.61 0.61 0.61 0.61 0.57 0.56 0.54 0.57 0.59 0.59 0.58 0.56 0.56 0.56 0.57 0.58 0.60 0.61 0.60 0.57 0.54 0.49
0.28 0.24 0.18 0.37 0.44 0.38 0.48 0.58 0.62 0.63 0.64 0.63 0.65 0.64 0.63 0.64 0.65 0.69 0.66 0.65 0.66 0.66 0.64 0.64 0.63 0.59 0.53 0.50 0.52 0.53 0.51 0.50 0.49 0.48 0.47 0.46 0.45 0.43 0.40 0.35 0.30 0.28 0.27 0.27
0.31 0.29 0.39 0.42 0.44 0.54 0.58 0.58 0.63 0.66 0.70 0.71 0.67 0.64 0.64 0.65 0.67 0.70 0.70 0.68 0.69 0.68 0.67 0.66 0.64 0.59 0.50 0.48 0.47 0.45 0.42 0.39 0.37 0.34 0.33 0.32 0.30 0.29 0.27 0.26 0.24 0.23 0.23 0.22
0.34 0.36 0.39 0.43 0.50 0.52 0.55 0.57 0.63 0.68 0.70 0.72 0.70 0.69 0.67 0.67 0.68 0.71 0.72 0.70 0.70 0.69 0.67 0.66 0.66 0.60 0.54 0.50 0.45 0.38 0.33 0.31 0.31 0.30 0.30 0.30 0.29 0.27 0.25 0.23 0.22 0.21 0.20 0.19
0.35 0.40 0.45 0.45 0.49 0.55 0.57 0.60 0.61 0.66 0.68 0.68 0.69 0.69 0.69 0.68 0.68 0.71 0.73 0.73 0.72 0.69 0.68 0.67 0.68 0.65 0.57 0.50 0.41 0.35 0.32 0.30 0.31 0.30 0.29 0.28 0.28 0.26 0.24 0.24 0.23 0.21 0.20 0.19
0.31 0.44 0.44 0.45 0.53 0.57 0.56 0.57 0.58 0.58 0.60 0.66 0.67 0.67 0.70 0.68 0.70 0.70 0.72 0.73 0.71 0.70 0.70 0.68 0.67 0.67 0.63 0.50 0.43 0.36 0.32 0.30 0.30 0.30 0.31 0.31 0.30 0.29 0.30 0.28 0.27 0.25 0.23 0.22
0.42 0.51 0.54 0.56 0.58 0.60 0.57 0.56 0.56 0.57 0.58 0.59 0.65 0.65 0.68 0.67 0.70 0.71 0.72 0.74 0.72 0.72 0.72 0.71 0.69 0.68 0.65 0.56 0.46 0.38 0.33 0.32 0.31 0.31 0.31 0.30 0.29 0.28 0.26 0.28 0.27 0.26 0.24 0.24
0.51 0.51 0.48 0.54 0.52 0.57 0.56 0.56 0.57 0.57 0.58 0.58 0.64 0.66 0.66 0.67 0.69 0.70 0.70 0.74 0.75 0.75 0.73 0.72 0.70 0.67 0.65 0.60 0.49 0.41 0.35 0.34 0.32 0.31 0.30 0.29 0.27 0.26 0.25 0.24 0.22 0.23 0.24 0.24
0.48 0.51 0.51 0.55 0.56 0.55 0.55 0.55 0.53 0.53 0.54 0.53 0.62 0.64 0.65 0.65 0.66 0.69 0.71 0.74 0.76 0.75 0.74 0.73 0.70 0.66 0.67 0.63 0.54 0.43 0.37 0.34 0.33 0.31 0.29 0.28 0.27 0.26 0.26 0.25 0.24 0.24 0.24 0.25
0.50 0.51 0.50 0.49 0.51 0.52 0.52 0.52 0.50 0.49 0.49 0.51 0.57 0.60 0.63 0.66 0.67 0.69 0.71 0.71 0.70 0.70 0.73 0.73 0.70 0.67 0.67 0.66 0.58 0.46 0.39 0.35 0.34 0.31 0.30 0.28 0.28 0.27 0.27 0.26 0.25 0.24 0.24 0.24
0.47 0.44 0.46 0.45 0.48 0.50 0.50 0.52 0.54 0.54 0.53 0.52 0.55 0.60 0.61 0.62 0.63 0.65 0.68 0.69 0.69 0.70 0.71 0.71 0.70 0.70 0.69 0.69 0.60 0.50 0.41 0.37 0.35 0.32 0.29 0.29 0.29 0.28 0.27 0.26 0.25 0.25 0.26 0.25
0.53 0.52 0.53 0.53 0.51 0.51 0.52 0.54 0.55 0.55 0.56 0.61 0.57 0.61 0.61 0.61 0.62 0.63 0.65 0.66 0.66 0.66 0.67 0.69 0.69 0.69 0.70 0.70 0.60 0.52 0.42 0.38 0.35 0.31 0.30 0.30 0.29 0.29 0.27 0.26 0.26 0.27 0.26 0.24
0.56 0.57 0.58 0.58 0.57 0.56 0.56 0.57 0.58 0.60 0.59 0.60 0.60 0.58 0.64 0.65 0.63 0.62 0.63 0.63 0.63 0.63 0.65 0.67 0.67 0.68 0.72 0.69 0.60 0.52 0.43 0.39 0.34 0.32 0.32 0.31 0.31 0.29 0.26 0.27 0.27 0.27 0.25 0.22
0.56 0.60 0.59 0.58 0.58 0.59 0.59 0.63 0.65 0.64 0.65 0.64 0.63 0.63 0.63 0.64 0.65 0.63 0.63 0.62 0.64 0.65 0.65 0.64 0.68 0.71 0.72 0.67 0.59 0.49 0.42 0.37 0.33 0.32 0.33 0.32 0.31 0.27 0.26 0.28 0.28 0.27 0.24 0.22
0.56 0.57 0.56 0.55 0.54 0.53 0.54 0.57 0.58 0.60 0.65 0.66 0.63 0.63 0.65 0.66 0.65 0.64 0.62 0.61 0.65 0.67 0.65 0.66 0.72 0.72 0.71 0.65 0.57 0.47 0.41 0.36 0.33 0.33 0.34 0.33 0.29 0.26 0.27 0.27 0.28 0.28 0.25 0.23
0.54 0.52 0.51 0.49 0.48 0.47 0.48 0.48 0.50 0.54 0.57 0.60 0.65 0.63 0.62 0.61 0.63 0.64 0.65 0.63 0.66 0.71 0.71 0.72 0.73 0.72 0.69 0.63 0.56 0.47 0.42 0.35 0.33 0.35 0.35 0.31 0.27 0.26 0.27 0.28 0.30 0.30 0.28 0.26
0.45 0.47 0.45 0.43 0.43 0.43 0.42 0.40 0.38 0.39 0.42 0.47 0.53 0.59 0.62 0.63 0.63 0.62 0.61 0.69 0.69 0.70 0.72 0.71 0.71 0.70 0.66 0.61 0.53 0.46 0.41 0.35 0.34 0.35 0.35 0.29 0.27 0.27 0.28 0.29 0.32 0.32 0.30 0.29
0.51 0.52 0.46 0.44 0.41 0.36 0.32 0.33 0.34 0.32 0.31 0.34 0.40 0.49 0.54 0.57 0.63 0.66 0.68 0.70 0.70 0.70 0.69 0.69 0.69 0.67 0.62 0.58 0.50 0.44 0.39 0.35 0.36 0.39 0.33 0.29 0.27 0.28 0.29 0.31 0.33 0.33 0.31 0.31
0.44 0.41 0.39 0.35 0.32 0.30 0.29 0.27 0.28 0.26 0.25 0.25 0.28 0.33 0.41 0.51 0.54 0.61 0.65 0.66 0.67 0.67 0.67 0.68 0.67 0.66 0.62 0.56 0.51 0.44 0.40 0.39 0.40 0.38 0.33 0.30 0.29 0.30 0.32 0.33 0.34 0.33 0.33 0.33
0.37 0.34 0.32 0.30 0.28 0.27 0.25 0.23 0.20 0.20 0.20 0.19 0.21 0.24 0.27 0.34 0.45 0.52 0.56 0.60 0.62 0.62 0.63 0.65 0.65 0.65 0.62 0.58 0.53 0.46 0.43 0.41 0.41 0.39 0.36 0.33 0.33 0.33 0.35 0.35 0.34 0.34 0.33 0.34
0.29 0.27 0.26 0.24 0.23 0.22 0.20 0.19 0.17 0.16 0.18 0.18 0.18 0.21 0.23 0.25 0.30 0.38 0.45 0.50 0.54 0.56 0.58 0.61 0.62 0.62 0.62 0.59 0.53 0.49 0.45 0.43 0.42 0.39 0.35 0.33 0.32 0.34 0.35 0.35 0.34 0.34 0.35 0.36

GFSNGP_prec_pwat_042.txt.gz
Precipitable_Water
0.31 0.34 0.32 0.30 0.31 0.34 0.32 0.32 0.28 0.30 0.31 0.34 0.36 0.37 0.42 0.47 0.53 0.57 0.57 0.58 0.57 0.56 0.56 0.56 0.57 0.59 0.61 0.62 0.62 0.63 0.63 0.63 0.64 0.65 0.63 0.63 0.64 0.63 0.62 0.62 0.62 0.61 0.61 0.61
0.25 0.30 0.29 0.25 0.28 0.30 0.32 0.33 0.32 0.33 0.32 0.40 0.40 0.39 0.40 0.46 0.53 0.58 0.57 0.58 0.57 0.55 0.54 0.53 0.55 0.57 0.58 0.60 0.61 0.63 0.63 0.62 0.62 0.62 0.61 0.62 0.61 0.60 0.60 0.61 0.61 0.60 0.60 0.60
0.21 0.28 0.27 0.20 0.22 0.23 0.27 0.31 0.31 0.27 0.31 0.36 0.36 0.36 0.38 0.45 0.58 0.59 0.60 0.59 0.55 0.53 0.54 0.53 0.54 0.57 0.57 0.60 0.62 0.62 0.61 0.61 0.61 0.61 0.59 0.59 0.58 0.58 0.58 0.58 0.59 0.58 0.58 0.59
0.23 0.26 0.15 0.24 0.34 0.33 0.27 0.28 0.31 0.32 0.34 0.37 0.37 0.41 0.47 0.58 0.62 0.60 0.62 0.59 0.56 0.55 0.55 0.55 0.57 0.58 0.59 0.61 0.60 0.60 0.61 0.62 0.62 0.61 0.61 0.62 0.63 0.62 0.59 0.60 0.60 0.61 0.61 0.63
0.22 0.22 0.24 0.26 0.31 0.32 0.31 0.31 0.35 0.32 0.35 0.38 0.42 0.46 0.52 0.65 0.66 0.64 0.64 0.62 0.59 0.59 0.58 0.58 0.56 0.58 0.58 0.58 0.59 0.60 0.59 0.60 0.62 0.63 0.62 0.63 0.62 0.62 0.63 0.64 0.62 0.61 0.63 0.63
0.27 0.19 0.16 0.32 0.40 0.42 0.44 0.31 0.50 0.44 0.39 0.41 0.46 0.42 0.54 0.67 0.67 0.69 0.68 0.64 0.61 0.61 0.60 0.57 0.57 0.59 0.56 0.54 0.53 0.53 0.55 0.55 0.56 0.56 0.56 0.55 0.56 0.57 0.59 0.58 0.55 0.56 0.55 0.53
0.25 0.22 0.22 0.33 0.39 0.47 0.29 0.35 0.54 0.52 0.48 0.51 0.53 0.61 0.67 0.69 0.68 0.70 0.69 0.65 0.65 0.63 0.60 0.58 0.59 0.58 0.53 0.51 0.48 0.51 0.52 0.52 0.52 0.53 0.52 0.53 0.52 0.51 0.49 0.43 0.36 0.32 0.31 0.31
0.27 0.23 0.18 0.42 0.40 0.35 0.46 0.56 0.58 0.61 0.63 0.63 0.66 0.68 0.68 0.67 0.68 0.68 0.69 0.67 0.67 0.64 0.63 0.62 0.61 0.57 0.51 0.49 0.50 0.49 0.47 0.46 0.46 0.46 0.45 0.43 0.41 0.36 0.32 0.29 0.26 0.24 0.24 0.25
0.29 0.27 0.38 0.43 0.43 0.53 0.56 0.56 0.61 0.63 0.66 0.68 0.69 0.69 0.70 0.67 0.68 0.69 0.72 0.71 0.70 0.67 0.66 0.65 0.63 0.58 0.50 0.49 0.49 0.44 0.40 0.37 0.36 0.35 0.35 0.35 0.31 0.29 0.27 0.25 0.24 0.22 0.22 0.20
0.32 0.36 0.39 0.42 0.47 0.52 0.55 0.56 0.61 0.65 0.68 0.71 0.70 0.75 0.74 0.71 0.70 0.70 0.73 0.73 0.73 0.70 0.67 0.65 0.66 0.61 0.55 0.51 0.48 0.42 0.34 0.30 0.30 0.30 0.31 0.31 0.30 0.28 0.26 0.25 0.23 0.22 0.20 0.19
0.31 0.36 0.42 0.44 0.46 0.50 0.54 0.57 0.58 0.62 0.64 0.66 0.68 0.68 0.71 0.74 0.72 0.72 0.73 0.76 0.75 0.73 0.70 0.67 0.67 0.66 0.63 0.54 0.48 0.38 0.33 0.32 0.31 0.30 0.29 0.30 0.30 0.30 0.27 0.27 0.26 0.23 0.22 0.22
0.28 0.38 0.39 0.42 0.50 0.53 0.53 0.56 0.58 0.58 0.58 0.62 0.64 0.64 0.67 0.68 0.72 0.73 0.72 0.74 0.74 0.73 0.73 0.71 0.68 0.66 0.67 0.60 0.47 0.40 0.35 0.32 0.32 0.31 0.30 0.31 0.31 0.31 0.32 0.30 0.29 0.27 0.26 0.25
0.40 0.48 0.49 0.52 0.56 0.60 0.57 0.57 0.58 0.57 0.57 0.55 0.58 0.60 0.63 0.65 0.67 0.72 0.73 0.73 0.74 0.74 0.74 0.73 0.70 0.68 0.67 0.64 0.57 0.47 0.38 0.35 0.33 0.33 0.32 0.31 0.30 0.30 0.28 0.29 0.29 0.27 0.26 0.26
0.52 0.51 0.47 0.51 0.50 0.56 0.57 0.57 0.57 0.55 0.56 0.55 0.56 0.57 0.60 0.63 0.67 0.69 0.71 0.73 0.74 0.76 0.75 0.74 0.73 0.70 0.70 0.66 0.62 0.54 0.44 0.38 0.35 0.34 0.32 0.31 0.29 0.28 0.27 0.26 0.25 0.25 0.27 0.27
0.52 0.52 0.50 0.52 0.54 0.54 0.56 0.56 0.53 0.51 0.53 0.53 0.55 0.55 0.57 0.61 0.64 0.67 0.72 0.75 0.74 0.74 0.75 0.75 0.73 0.73 0.71 0.68 0.65 0.59 0.51 0.42 0.38 0.35 0.33 0.31 0.30 0.28 0.28 0.27 0.27 0.26 0.27 0.27
0.54 0.52 0.51 0.49 0.50 0.52 0.53 0.52 0.50 0.51 0.52 0.53 0.51 0.50 0.55 0.61 0.64 0.67 0.70 0.73 0.70 0.69 0.73 0.75 0.75 0.75 0.72 0.68 0.66 0.63 0.57 0.47 0.40 0.35 0.34 0.32 0.30 0.28 0.28 0.28 0.27 0.27 0.27 0.27
0.49 0.47 0.48 0.47 0.48 0.49 0.49 0.51 0.51 0.51 0.52 0.53 0.54 0.54 0.54 0.58 0.59 0.61 0.65 0.69 0.71 0.71 0.72 0.74 0.74 0.74 0.71 0.68 0.69 0.67 0.60 0.51 0.44 0.37 0.35 0.33 0.30 0.29 0.29 0.29 0.27 0.28 0.27 0.29
0.57 0.56 0.56 0.54 0.52 0.51 0.51 0.53 0.53 0.53 0.53 0.54 0.56 0.59 0.55 0.54 0.57 0.59 0.62 0.66 0.66 0.66 0.68 0.71 0.72 0.71 0.68 0.66 0.70 0.68 0.62 0.54 0.46 0.38 0.36 0.33 0.31 0.30 0.32 0.29 0.28 0.28 0.28 0.29
0.59 0.58 0.59 0.58 0.58 0.56 0.55 0.55 0.56 0.57 0.57 0.58 0.56 0.57 0.58 0.56 0.59 0.62 0.64 0.62 0.63 0.60 0.64 0.69 0.70 0.69 0.67 0.67 0.71 0.68 0.62 0.54 0.47 0.40 0.37 0.33 0.31 0.32 0.32 0.30 0.28 0.28 0.29 0.29
0.59 0.61 0.60 0.58 0.57 0.53 0.51 0.53 0.55 0.57 0.61 0.62 0.61 0.60 0.59 0.60 0.61 0.62 0.62 0.61 0.61 0.61 0.65 0.67 0.68 0.67 0.66 0.69 0.72 0.68 0.62 0.55 0.46 0.42 0.37 0.33 0.32 0.33 0.34 0.30 0.29 0.28 0.29 0.30
0.57 0.59 0.57 0.56 0.52 0.50 0.48 0.47 0.47 0.49 0.53 0.56 0.58 0.60 0.60 0.61 0.62 0.63 0.62 0.61 0.63 0.66 0.65 0.66 0.68 0.68 0.65 0.72 0.71 0.67 0.61 0.52 0.44 0.39 0.35 0.32 0.32 0.34 0.33 0.28 0.28 0.28 0.29 0.31
0.56 0.56 0.53 0.49 0.44 0.43 0.44 0.43 0.41 0.38 0.40 0.44 0.48 0.55 0.59 0.60 0.62 0.61 0.62 0.62 0.65 0.66 0.65 0.66 0.67 0.68 0.67 0.71 0.69 0.65 0.58 0.50 0.44 0.39 0.35 0.33 0.34 0.35 0.31 0.27 0.27 0.29 0.31 0.33
0.50 0.47 0.46 0.43 0.41 0.41 0.41 0.40 0.39 0.36 0.34 0.31 0.33 0.39 0.44 0.50 0.55 0.59 0.58 0.63 0.66 0.70 0.69 0.69 0.71 0.70 0.70 0.69 0.67 0.62 0.56 0.51 0.46 0.41 0.36 0.37 0.35 0.34 0.30 0.27 0.28 0.30 0.34 0.36
0.50 0.53 0.56 0.48 0.40 0.37 0.33 0.33 0.33 0.34 0.32 0.30 0.29 0.29 0.32 0.37 0.46 0.54 0.61 0.64 0.66 0.68 0.68 0.68 0.68 0.68 0.68 0.67 0.65 0.62 0.54 0.50 0.45 0.39 0.35 0.36 0.37 0.34 0.30 0.28 0.29 0.34 0.37 0.37
0.51 0.47 0.44 0.38 0.35 0.34 0.32 0.31 0.30 0.28 0.26 0.24 0.24 0.25 0.26 0.30 0.32 0.41 0.49 0.54 0.60 0.63 0.64 0.67 0.67 0.66 0.66 0.65 0.63 0.59 0.53 0.49 0.44 0.39 0.37 0.40 0.39 0.35 0.33 0.33 0.34 0.35 0.37 0.36
0.42 0.37 0.34 0.33 0.31 0.30 0.28 0.28 0.25 0.24 0.21 0.19 0.20 0.22 0.22 0.24 0.27 0.31 0.37 0.44 0.50 0.55 0.56 0.58 0.62 0.63 0.63 0.62 0.61 0.57 0.53 0.50 0.46 0.42 0.40 0.43 0.42 0.37 0.36 0.34 0.34 0.35 0.36 0.35
0.36 0.31 0.28 0.27 0.26 0.24 0.24 0.23 0.21 0.19 0.20 0.19 0.18 0.21 0.21 0.22 0.23 0.26 0.31 0.35 0.39 0.44 0.48 0.53 0.55 0.56 0.56 0.57 0.58 0.58 0.55 0.51 0.48 0.45 0.45 0.44 0.38 0.34 0.32 0.35 0.37 0.37 0.36 0.35

GFSNGP_prec_pwat_045.txt.gz
Precipitable_Water
0.32 0.35 0.36 0.33 0.34 0.40 0.41 0.42 0.36 0.39 0.36 0.38 0.40 0.39 0.39 0.43 0.49 0.52 0.57 0.58 0.60 0.58 0.57 0.57 0.57 0.58 0.60 0.61 0.62 0.63 0.61 0.61 0.63 0.65 0.67 0.65 0.62 0.63 0.63 0.62 0.62 0.61 0.59 0.58
0.25 0.29 0.29 0.26 0.29 0.32 0.35 0.35 0.34 0.35 0.35 0.42 0.42 0.42 0.46 0.48 0.48 0.49 0.56 0.60 0.61 0.59 0.57 0.57 0.57 0.57 0.59 0.60 0.61 0.62 0.61 0.60 0.61 0.62 0.62 0.61 0.61 0.60 0.61 0.62 0.62 0.61 0.59 0.58
0.20 0.28 0.28 0.21 0.24 0.25 0.26 0.31 0.30 0.27 0.32 0.40 0.39 0.40 0.44 0.44 0.45 0.46 0.59 0.62 0.62 0.58 0.57 0.58 0.57 0.58 0.57 0.58 0.60 0.60 0.59 0.58 0.58 0.59 0.58 0.58 0.59 0.60 0.60 0.59 0.59 0.58 0.58 0.59
0.23 0.26 0.14 0.22 0.33 0.32 0.26 0.26 0.31 0.32 0.34 0.40 0.42 0.44 0.44 0.46 0.46 0.54 0.64 0.65 0.63 0.59 0.58 0.58 0.59 0.58 0.58 0.58 0.57 0.58 0.58 0.59 0.59 0.60 0.62 0.63 0.63 0.63 0.61 0.60 0.60 0.61 0.61 0.61
0.20 0.20 0.22 0.26 0.31 0.30 0.29 0.27 0.33 0.30 0.33 0.38 0.41 0.43 0.42 0.49 0.55 0.66 0.67 0.69 0.64 0.62 0.59 0.60 0.58 0.58 0.58 0.56 0.56 0.56 0.56 0.56 0.58 0.59 0.57 0.57 0.57 0.58 0.60 0.60 0.57 0.55 0.55 0.52
0.26 0.18 0.15 0.31 0.40 0.43 0.41 0.27 0.45 0.41 0.35 0.35 0.40 0.31 0.39 0.54 0.68 0.70 0.72 0.71 0.64 0.62 0.61 0.60 0.59 0.58 0.55 0.53 0.52 0.49 0.49 0.50 0.51 0.52 0.52 0.52 0.53 0.54 0.54 0.53 0.49 0.42 0.36 0.34
0.25 0.22 0.22 0.30 0.39 0.43 0.27 0.32 0.53 0.52 0.47 0.42 0.40 0.44 0.57 0.70 0.70 0.71 0.73 0.69 0.66 0.64 0.62 0.61 0.60 0.57 0.53 0.51 0.48 0.49 0.49 0.48 0.48 0.49 0.49 0.50 0.49 0.47 0.40 0.33 0.31 0.29 0.29 0.30
0.28 0.23 0.18 0.40 0.40 0.31 0.43 0.53 0.54 0.54 0.53 0.50 0.52 0.61 0.68 0.69 0.68 0.70 0.70 0.70 0.68 0.65 0.65 0.65 0.63 0.57 0.52 0.48 0.51 0.50 0.47 0.45 0.45 0.45 0.44 0.42 0.37 0.34 0.32 0.29 0.27 0.26 0.25 0.24
0.27 0.26 0.37 0.45 0.42 0.50 0.54 0.54 0.56 0.57 0.62 0.64 0.64 0.67 0.70 0.69 0.70 0.71 0.72 0.74 0.72 0.69 0.68 0.68 0.65 0.60 0.51 0.50 0.49 0.47 0.44 0.41 0.39 0.38 0.37 0.36 0.33 0.32 0.30 0.28 0.26 0.24 0.23 0.21
0.31 0.35 0.38 0.42 0.47 0.51 0.54 0.55 0.61 0.62 0.64 0.67 0.67 0.71 0.73 0.76 0.77 0.73 0.74 0.76 0.76 0.73 0.70 0.68 0.67 0.63 0.57 0.53 0.50 0.45 0.39 0.36 0.32 0.30 0.29 0.30 0.30 0.30 0.29 0.28 0.26 0.25 0.23 0.22
0.31 0.35 0.40 0.43 0.45 0.49 0.51 0.56 0.56 0.59 0.62 0.65 0.67 0.68 0.70 0.73 0.77 0.78 0.75 0.76 0.78 0.76 0.73 0.71 0.70 0.67 0.66 0.61 0.52 0.44 0.37 0.33 0.32 0.31 0.30 0.30 0.30 0.28 0.29 0.30 0.29 0.26 0.25 0.24
0.31 0.40 0.36 0.37 0.45 0.51 0.50 0.53 0.58 0.58 0.58 0.61 0.62 0.62 0.65 0.67 0.71 0.74 0.77 0.78 0.75 0.77 0.75 0.74 0.73 0.70 0.67 0.68 0.59 0.47 0.39 0.35 0.34 0.32 0.31 0.31 0.30 0.30 0.33 0.32 0.31 0.31 0.30 0.27
0.46 0.52 0.48 0.47 0.51 0.54 0.54 0.56 0.58 0.58 0.59 0.57 0.59 0.60 0.60 0.60 0.64 0.67 0.70 0.72 0.74 0.76 0.78 0.76 0.74 0.72 0.71 0.70 0.65 0.56 0.50 0.41 0.36 0.35 0.34 0.34 0.33 0.31 0.29 0.31 0.32 0.31 0.30 0.29
0.61 0.58 0.50 0.50 0.49 0.56 0.56 0.57 0.58 0.58 0.57 0.56 0.56 0.56 0.56 0.57 0.59 0.62 0.65 0.69 0.74 0.75 0.76 0.78 0.76 0.74 0.74 0.71 0.67 0.61 0.56 0.50 0.42 0.38 0.36 0.36 0.34 0.31 0.30 0.28 0.26 0.27 0.29 0.30
0.59 0.61 0.57 0.57 0.57 0.55 0.55 0.55 0.53 0.53 0.55 0.54 0.55 0.54 0.54 0.54 0.55 0.60 0.66 0.70 0.71 0.74 0.75 0.75 0.76 0.75 0.76 0.73 0.68 0.65 0.62 0.56 0.49 0.43 0.39 0.36 0.34 0.31 0.30 0.28 0.27 0.26 0.27 0.30
0.59 0.61 0.59 0.54 0.52 0.53 0.53 0.53 0.53 0.52 0.53 0.53 0.53 0.53 0.53 0.52 0.53 0.60 0.65 0.69 0.68 0.67 0.71 0.73 0.75 0.78 0.77 0.73 0.70 0.66 0.64 0.62 0.55 0.47 0.42 0.38 0.35 0.33 0.31 0.29 0.28 0.27 0.28 0.30
0.54 0.51 0.54 0.53 0.51 0.52 0.52 0.53 0.53 0.53 0.52 0.50 0.51 0.53 0.56 0.52 0.52 0.56 0.60 0.63 0.67 0.70 0.72 0.72 0.74 0.78 0.78 0.76 0.73 0.67 0.64 0.65 0.60 0.52 0.45 0.40 0.36 0.33 0.31 0.30 0.29 0.28 0.31 0.31
0.56 0.57 0.58 0.57 0.55 0.54 0.54 0.55 0.55 0.54 0.52 0.54 0.53 0.52 0.54 0.54 0.50 0.53 0.58 0.60 0.61 0.64 0.67 0.69 0.71 0.73 0.74 0.74 0.70 0.66 0.64 0.65 0.63 0.54 0.49 0.43 0.37 0.35 0.32 0.30 0.29 0.29 0.32 0.31
0.59 0.60 0.61 0.61 0.61 0.58 0.56 0.55 0.56 0.57 0.56 0.57 0.56 0.53 0.54 0.55 0.55 0.54 0.57 0.59 0.60 0.59 0.64 0.68 0.66 0.69 0.69 0.69 0.67 0.65 0.65 0.65 0.62 0.56 0.50 0.44 0.39 0.36 0.33 0.31 0.30 0.32 0.33 0.30
0.61 0.61 0.61 0.59 0.58 0.55 0.51 0.50 0.50 0.51 0.52 0.53 0.54 0.55 0.56 0.58 0.59 0.58 0.58 0.58 0.61 0.63 0.64 0.63 0.64 0.65 0.68 0.69 0.68 0.67 0.67 0.66 0.61 0.57 0.52 0.44 0.41 0.37 0.34 0.31 0.31 0.33 0.32 0.30
0.59 0.60 0.58 0.57 0.53 0.48 0.45 0.44 0.41 0.37 0.39 0.43 0.44 0.47 0.52 0.56 0.58 0.59 0.57 0.58 0.62 0.64 0.64 0.64 0.64 0.65 0.67 0.67 0.68 0.69 0.68 0.65 0.62 0.58 0.51 0.46 0.41 0.36 0.32 0.31 0.31 0.33 0.31 0.29
0.57 0.58 0.57 0.52 0.46 0.42 0.42 0.41 0.39 0.38 0.36 0.34 0.34 0.36 0.38 0.42 0.50 0.54 0.58 0.59 0.60 0.64 0.66 0.67 0.67 0.66 0.66 0.67 0.69 0.68 0.66 0.65 0.62 0.54 0.49 0.43 0.39 0.35 0.32 0.32 0.33 0.32 0.30 0.30
0.52 0.52 0.49 0.44 0.39 0.37 0.38 0.36 0.38 0.38 0.35 0.34 0.31 0.30 0.29 0.33 0.39 0.41 0.45 0.55 0.60 0.62 0.65 0.66 0.66 0.67 0.69 0.69 0.67 0.66 0.64 0.63 0.59 0.54 0.48 0.43 0.40 0.36 0.36 0.37 0.34 0.31 0.30 0.33
0.54 0.53 0.53 0.56 0.50 0.38 0.34 0.36 0.36 0.36 0.35 0.33 0.30 0.27 0.26 0.27 0.29 0.36 0.41 0.47 0.52 0.58 0.62 0.64 0.67 0.67 0.67 0.66 0.65 0.63 0.62 0.61 0.58 0.52 0.49 0.45 0.40 0.37 0.36 0.35 0.34 0.32 0.33 0.37
0.55 0.53 0.50 0.43 0.38 0.38 0.35 0.34 0.33 0.31 0.29 0.27 0.26 0.25 0.25 0.25 0.24 0.27 0.32 0.37 0.41 0.48 0.53 0.58 0.60 0.63 0.65 0.63 0.62 0.61 0.61 0.60 0.57 0.51 0.47 0.43 0.39 0.37 0.40 0.39 0.36 0.37 0.37 0.36
0.46 0.40 0.38 0.35 0.32 0.31 0.30 0.30 0.28 0.27 0.25 0.22 0.22 0.23 0.23 0.23 0.23 0.26 0.28 0.33 0.36 0.38 0.43 0.49 0.53 0.55 0.57 0.58 0.59 0.59 0.59 0.58 0.54 0.51 0.48 0.44 0.41 0.41 0.46 0.42 0.37 0.34 0.36 0.38
0.47 0.43 0.35 0.30 0.29 0.28 0.27 0.27 0.25 0.24 0.24 0.21 0.20 0.21 0.21 0.21 0.21 0.22 0.25 0.27 0.33 0.34 0.37 0.40 0.45 0.50 0.51 0.51 0.52 0.53 0.53 0.53 0.51 0.49 0.46 0.41 0.40 0.42 0.39 0.34 0.31 0.34 0.36 0.36

GFSNGP_prec_pwat_048.txt.gz
Precipitable_Water
0.35 0.36 0.36 0.34 0.37 0.43 0.41 0.42 0.34 0.34 0.33 0.36 0.39 0.41 0.42 0.45 0.46 0.48 0.51 0.56 0.61 0.62 0.64 0.63 0.61 0.59 0.59 0.60 0.62 0.63 0.62 0.63 0.63 0.65 0.67 0.68 0.68 0.65 0.63 0.62 0.60 0.59 0.59 0.59
0.29 0.34 0.34 0.29 0.31 0.33 0.38 0.41 0.40 0.41 0.39 0.49 0.49 0.48 0.47 0.46 0.47 0.46 0.51 0.55 0.63 0.64 0.64 0.61 0.59 0.59 0.60 0.61 0.61 0.63 0.62 0.62 0.64 0.64 0.64 0.64 0.62 0.61 0.59 0.59 0.59 0.60 0.59 0.57
0.19 0.28 0.26 0.20 0.22 0.25 0.28 0.33 0.33 0.30 0.33 0.42 0.40 0.42 0.44 0.45 0.50 0.50 0.52 0.52 0.63 0.66 0.64 0.60 0.59 0.60 0.58 0.59 0.61 0.61 0.61 0.60 0.59 0.59 0.59 0.59 0.58 0.57 0.57 0.57 0.59 0.57 0.58 0.60
0.23 0.25 0.14 0.21 0.31 0.31 0.27 0.28 0.31 0.31 0.33 0.37 0.42 0.42 0.45 0.51 0.54 0.52 0.51 0.52 0.66 0.68 0.64 0.61 0.61 0.61 0.61 0.61 0.60 0.59 0.58 0.58 0.58 0.58 0.59 0.61 0.60 0.60 0.59 0.59 0.58 0.59 0.59 0.58
0.20 0.20 0.20 0.22 0.30 0.30 0.27 0.25 0.32 0.29 0.31 0.35 0.41 0.46 0.44 0.51 0.54 0.51 0.53 0.62 0.71 0.70 0.64 0.63 0.62 0.62 0.61 0.60 0.58 0.56 0.56 0.56 0.57 0.57 0.55 0.55 0.55 0.56 0.57 0.56 0.55 0.53 0.50 0.43
0.25 0.18 0.13 0.26 0.39 0.41 0.40 0.23 0.42 0.41 0.35 0.33 0.37 0.29 0.37 0.50 0.53 0.55 0.61 0.71 0.72 0.69 0.65 0.63 0.63 0.62 0.59 0.56 0.54 0.50 0.49 0.51 0.52 0.53 0.53 0.52 0.52 0.51 0.51 0.50 0.41 0.36 0.33 0.31
0.25 0.23 0.22 0.29 0.35 0.43 0.24 0.28 0.52 0.51 0.47 0.39 0.34 0.37 0.45 0.52 0.56 0.61 0.71 0.74 0.75 0.69 0.65 0.64 0.64 0.62 0.56 0.53 0.50 0.49 0.49 0.49 0.49 0.49 0.49 0.49 0.48 0.45 0.37 0.32 0.31 0.31 0.31 0.31
0.28 0.24 0.17 0.36 0.37 0.28 0.39 0.50 0.52 0.52 0.52 0.49 0.49 0.49 0.52 0.58 0.66 0.70 0.71 0.73 0.73 0.68 0.67 0.68 0.66 0.61 0.55 0.51 0.52 0.50 0.48 0.47 0.46 0.46 0.45 0.42 0.36 0.32 0.31 0.30 0.29 0.29 0.28 0.26
0.28 0.26 0.36 0.42 0.42 0.46 0.50 0.50 0.54 0.56 0.57 0.54 0.53 0.54 0.58 0.65 0.70 0.71 0.72 0.73 0.75 0.70 0.69 0.70 0.69 0.64 0.56 0.54 0.52 0.48 0.46 0.44 0.42 0.42 0.39 0.34 0.31 0.30 0.30 0.29 0.28 0.27 0.26 0.25
0.30 0.32 0.35 0.40 0.46 0.49 0.51 0.52 0.58 0.60 0.62 0.65 0.63 0.68 0.71 0.76 0.78 0.78 0.75 0.74 0.78 0.75 0.72 0.71 0.72 0.67 0.61 0.56 0.53 0.48 0.43 0.41 0.41 0.37 0.35 0.34 0.32 0.29 0.28 0.27 0.27 0.27 0.26 0.26
0.35 0.34 0.38 0.41 0.44 0.47 0.51 0.54 0.57 0.61 0.62 0.64 0.67 0.69 0.72 0.73 0.76 0.79 0.82 0.81 0.80 0.79 0.76 0.73 0.73 0.70 0.67 0.63 0.57 0.49 0.45 0.41 0.36 0.33 0.32 0.31 0.30 0.29 0.28 0.28 0.28 0.26 0.27 0.27
0.37 0.46 0.42 0.39 0.42 0.47 0.49 0.50 0.54 0.56 0.57 0.62 0.63 0.62 0.66 0.67 0.71 0.74 0.77 0.81 0.81 0.78 0.79 0.78 0.77 0.72 0.71 0.69 0.65 0.55 0.46 0.40 0.36 0.35 0.34 0.33 0.32 0.32 0.33 0.32 0.32 0.30 0.30 0.28
0.44 0.54 0.58 0.53 0.51 0.50 0.50 0.53 0.56 0.58 0.59 0.58 0.60 0.61 0.61 0.60 0.63 0.65 0.68 0.71 0.73 0.78 0.82 0.80 0.78 0.76 0.74 0.72 0.69 0.63 0.56 0.50 0.44 0.39 0.36 0.35 0.35 0.33 0.32 0.35 0.36 0.33 0.31 0.30
0.44 0.51 0.52 0.59 0.51 0.54 0.54 0.56 0.58 0.59 0.60 0.59 0.58 0.58 0.56 0.55 0.57 0.58 0.60 0.65 0.68 0.71 0.74 0.77 0.80 0.80 0.80 0.77 0.72 0.67 0.62 0.57 0.52 0.47 0.40 0.38 0.37 0.36 0.35 0.32 0.30 0.29 0.30 0.30
0.33 0.51 0.56 0.62 0.62 0.56 0.57 0.57 0.54 0.53 0.54 0.55 0.58 0.56 0.54 0.52 0.53 0.55 0.59 0.64 0.66 0.66 0.68 0.73 0.76 0.79 0.82 0.80 0.76 0.71 0.67 0.62 0.58 0.53 0.48 0.43 0.40 0.38 0.35 0.32 0.31 0.30 0.29 0.28
0.42 0.51 0.56 0.59 0.62 0.61 0.56 0.55 0.52 0.52 0.55 0.56 0.55 0.53 0.54 0.55 0.53 0.52 0.54 0.59 0.62 0.62 0.66 0.68 0.72 0.78 0.81 0.80 0.77 0.73 0.69 0.64 0.62 0.58 0.54 0.49 0.43 0.39 0.36 0.33 0.32 0.31 0.29 0.27
0.46 0.47 0.54 0.57 0.58 0.57 0.55 0.55 0.55 0.54 0.55 0.54 0.54 0.54 0.53 0.52 0.54 0.53 0.52 0.56 0.62 0.64 0.67 0.69 0.70 0.74 0.75 0.77 0.77 0.76 0.72 0.69 0.68 0.63 0.59 0.54 0.47 0.42 0.39 0.35 0.32 0.31 0.30 0.29
0.57 0.57 0.58 0.58 0.57 0.57 0.58 0.57 0.57 0.56 0.55 0.55 0.55 0.53 0.51 0.50 0.50 0.52 0.51 0.53 0.58 0.60 0.63 0.66 0.69 0.70 0.71 0.73 0.74 0.75 0.73 0.70 0.65 0.63 0.61 0.57 0.49 0.45 0.42 0.36 0.34 0.32 0.30 0.30
0.58 0.58 0.59 0.60 0.61 0.61 0.60 0.58 0.58 0.58 0.57 0.56 0.54 0.52 0.51 0.52 0.52 0.53 0.54 0.51 0.52 0.56 0.60 0.64 0.66 0.67 0.66 0.69 0.70 0.70 0.69 0.68 0.64 0.60 0.62 0.57 0.52 0.49 0.43 0.38 0.36 0.33 0.31 0.29
0.56 0.58 0.58 0.58 0.59 0.58 0.54 0.51 0.50 0.49 0.49 0.48 0.48 0.47 0.49 0.53 0.55 0.56 0.57 0.55 0.56 0.57 0.60 0.63 0.66 0.67 0.67 0.67 0.68 0.68 0.67 0.66 0.62 0.63 0.63 0.59 0.55 0.50 0.44 0.41 0.38 0.33 0.31 0.30
0.55 0.57 0.57 0.55 0.53 0.49 0.46 0.44 0.40 0.37 0.36 0.36 0.35 0.34 0.35 0.40 0.48 0.53 0.53 0.53 0.57 0.60 0.61 0.63 0.63 0.63 0.63 0.64 0.65 0.66 0.67 0.66 0.65 0.63 0.62 0.60 0.57 0.49 0.47 0.44 0.38 0.35 0.31 0.31
0.54 0.55 0.56 0.55 0.48 0.42 0.41 0.39 0.39 0.39 0.38 0.37 0.36 0.34 0.32 0.32 0.35 0.39 0.43 0.45 0.50 0.56 0.59 0.60 0.65 0.68 0.66 0.66 0.66 0.67 0.66 0.64 0.63 0.63 0.61 0.60 0.56 0.51 0.45 0.42 0.37 0.34 0.31 0.32
0.53 0.54 0.54 0.50 0.43 0.38 0.36 0.35 0.38 0.38 0.37 0.35 0.33 0.31 0.29 0.28 0.29 0.28 0.30 0.41 0.47 0.50 0.54 0.58 0.63 0.63 0.66 0.66 0.66 0.65 0.64 0.63 0.62 0.61 0.60 0.59 0.54 0.46 0.42 0.40 0.37 0.36 0.36 0.36
0.51 0.53 0.53 0.55 0.55 0.45 0.36 0.36 0.37 0.37 0.36 0.35 0.33 0.31 0.28 0.24 0.25 0.28 0.30 0.34 0.38 0.42 0.44 0.49 0.55 0.59 0.62 0.65 0.64 0.63 0.62 0.61 0.61 0.60 0.60 0.58 0.50 0.46 0.44 0.40 0.37 0.38 0.37 0.36
0.52 0.52 0.51 0.50 0.44 0.39 0.39 0.39 0.35 0.34 0.33 0.31 0.30 0.30 0.29 0.27 0.23 0.25 0.26 0.29 0.34 0.35 0.38 0.42 0.44 0.51 0.54 0.57 0.60 0.61 0.60 0.60 0.59 0.59 0.58 0.55 0.50 0.46 0.44 0.41 0.37 0.36 0.40 0.40
0.51 0.47 0.40 0.38 0.36 0.35 0.32 0.31 0.30 0.30 0.29 0.27 0.27 0.27 0.26 0.26 0.24 0.24 0.25 0.25 0.28 0.34 0.36 0.38 0.39 0.42 0.47 0.50 0.52 0.55 0.57 0.58 0.58 0.58 0.57 0.52 0.48 0.44 0.40 0.37 0.40 0.40 0.36 0.31
0.51 0.52 0.49 0.42 0.35 0.31 0.30 0.29 0.28 0.27 0.28 0.27 0.26 0.26 0.26 0.25 0.24 0.23 0.23 0.23 0.25 0.28 0.32 0.34 0.38 0.40 0.42 0.45 0.47 0.48 0.50 0.51 0.53 0.53 0.50 0.47 0.44 0.41 0.38 0.37 0.38 0.34 0.30 0.29

GFSNGP_prec_pwat_051.txt.gz
Precipitable_Water
0.37 0.38 0.39 0.37 0.36 0.40 0.39 0.41 0.33 0.37 0.37 0.41 0.43 0.41 0.43 0.45 0.49 0.50 0.49 0.51 0.54 0.58 0.64 0.68 0.69 0.68 0.65 0.63 0.63 0.64 0.64 0.63 0.63 0.64 0.66 0.66 0.67 0.69 0.70 0.67 0.64 0.61 0.59 0.58
0.31 0.36 0.36 0.32 0.34 0.35 0.35 0.38 0.40 0.41 0.37 0.49 0.50 0.48 0.44 0.45 0.47 0.48 0.50 0.51 0.55 0.59 0.65 0.66 0.66 0.63 0.62 0.63 0.62 0.64 0.63 0.62 0.64 0.64 0.65 0.65 0.67 0.67 0.64 0.61 0.60 0.59 0.57 0.55
0.20 0.28 0.28 0.22 0.26 0.27 0.28 0.32 0.32 0.28 0.29 0.44 0.46 0.50 0.49 0.49 0.51 0.50 0.50 0.53 0.55 0.57 0.65 0.69 0.67 0.63 0.62 0.62 0.63 0.62 0.61 0.62 0.62 0.62 0.61 0.63 0.63 0.61 0.57 0.56 0.57 0.56 0.56 0.57
0.23 0.25 0.13 0.20 0.27 0.27 0.26 0.27 0.32 0.32 0.34 0.35 0.39 0.45 0.46 0.49 0.51 0.51 0.53 0.56 0.56 0.57 0.65 0.72 0.69 0.66 0.65 0.64 0.63 0.61 0.60 0.60 0.60 0.60 0.60 0.60 0.58 0.57 0.57 0.57 0.56 0.56 0.57 0.57
0.20 0.20 0.21 0.20 0.26 0.27 0.26 0.24 0.32 0.30 0.33 0.34 0.37 0.42 0.44 0.49 0.50 0.51 0.57 0.61 0.59 0.58 0.69 0.73 0.68 0.66 0.64 0.62 0.61 0.59 0.59 0.59 0.61 0.61 0.58 0.56 0.54 0.55 0.56 0.55 0.54 0.53 0.49 0.38
0.27 0.18 0.13 0.22 0.36 0.40 0.38 0.23 0.45 0.43 0.39 0.38 0.37 0.27 0.32 0.47 0.53 0.56 0.61 0.60 0.58 0.64 0.74 0.71 0.68 0.67 0.63 0.60 0.59 0.56 0.55 0.56 0.56 0.55 0.54 0.53 0.53 0.52 0.52 0.52 0.43 0.35 0.30 0.29
0.25 0.22 0.23 0.29 0.33 0.41 0.24 0.26 0.48 0.50 0.48 0.45 0.36 0.34 0.39 0.48 0.53 0.56 0.56 0.58 0.62 0.73 0.73 0.70 0.69 0.66 0.61 0.59 0.56 0.56 0.55 0.53 0.52 0.53 0.53 0.52 0.51 0.50 0.41 0.32 0.29 0.29 0.29 0.30
0.28 0.24 0.18 0.36 0.37 0.28 0.36 0.44 0.49 0.51 0.50 0.51 0.51 0.47 0.45 0.49 0.51 0.55 0.60 0.62 0.70 0.74 0.73 0.72 0.70 0.66 0.61 0.57 0.58 0.56 0.53 0.50 0.49 0.48 0.48 0.47 0.42 0.34 0.31 0.29 0.28 0.28 0.28 0.27
0.28 0.26 0.36 0.39 0.42 0.47 0.48 0.46 0.50 0.53 0.55 0.52 0.51 0.52 0.52 0.52 0.57 0.61 0.68 0.72 0.74 0.74 0.72 0.72 0.72 0.70 0.62 0.60 0.58 0.55 0.51 0.48 0.47 0.45 0.43 0.38 0.31 0.30 0.28 0.28 0.26 0.26 0.26 0.26
0.30 0.30 0.33 0.38 0.42 0.46 0.50 0.49 0.53 0.58 0.60 0.60 0.56 0.57 0.58 0.62 0.65 0.70 0.74 0.73 0.75 0.74 0.73 0.71 0.74 0.72 0.67 0.63 0.59 0.54 0.50 0.47 0.45 0.42 0.39 0.35 0.33 0.32 0.29 0.28 0.26 0.26 0.26 0.25
0.39 0.41 0.40 0.39 0.42 0.46 0.49 0.53 0.54 0.56 0.60 0.61 0.63 0.65 0.70 0.73 0.76 0.77 0.79 0.82 0.81 0.77 0.77 0.75 0.77 0.74 0.71 0.68 0.63 0.54 0.50 0.47 0.44 0.42 0.40 0.36 0.35 0.31 0.30 0.29 0.29 0.27 0.27 0.27
0.29 0.44 0.46 0.47 0.48 0.50 0.45 0.47 0.52 0.54 0.56 0.61 0.63 0.63 0.68 0.69 0.72 0.74 0.76 0.81 0.81 0.82 0.83 0.83 0.81 0.78 0.75 0.71 0.69 0.62 0.53 0.48 0.44 0.39 0.37 0.35 0.34 0.33 0.34 0.33 0.34 0.33 0.31 0.29
0.26 0.32 0.38 0.45 0.56 0.60 0.50 0.50 0.54 0.55 0.57 0.58 0.61 0.63 0.62 0.61 0.63 0.65 0.67 0.68 0.71 0.75 0.81 0.84 0.82 0.80 0.80 0.76 0.71 0.66 0.60 0.55 0.51 0.44 0.38 0.36 0.36 0.35 0.33 0.36 0.38 0.37 0.35 0.34
0.25 0.26 0.24 0.32 0.45 0.60 0.62 0.58 0.56 0.57 0.58 0.58 0.59 0.60 0.59 0.58 0.58 0.58 0.58 0.62 0.65 0.67 0.69 0.73 0.77 0.80 0.84 0.82 0.77 0.71 0.67 0.61 0.56 0.51 0.47 0.43 0.39 0.38 0.37 0.35 0.34 0.34 0.35 0.36
0.28 0.30 0.29 0.31 0.42 0.58 0.66 0.63 0.55 0.54 0.55 0.55 0.57 0.57 0.58 0.56 0.55 0.55 0.57 0.59 0.62 0.63 0.65 0.67 0.67 0.72 0.81 0.84 0.81 0.79 0.74 0.70 0.65 0.60 0.54 0.51 0.48 0.44 0.41 0.39 0.36 0.33 0.32 0.33
0.40 0.35 0.34 0.36 0.42 0.57 0.62 0.63 0.59 0.55 0.56 0.55 0.54 0.55 0.56 0.57 0.56 0.56 0.56 0.55 0.53 0.54 0.61 0.65 0.66 0.70 0.74 0.76 0.79 0.79 0.77 0.74 0.70 0.64 0.59 0.57 0.53 0.50 0.46 0.42 0.39 0.36 0.33 0.32
0.43 0.43 0.44 0.41 0.46 0.55 0.59 0.62 0.63 0.59 0.56 0.56 0.55 0.57 0.56 0.54 0.53 0.54 0.55 0.55 0.55 0.55 0.60 0.65 0.66 0.71 0.72 0.73 0.73 0.74 0.76 0.75 0.73 0.69 0.62 0.61 0.58 0.53 0.50 0.46 0.41 0.38 0.35 0.34
0.53 0.53 0.52 0.54 0.54 0.57 0.60 0.63 0.63 0.60 0.57 0.58 0.57 0.56 0.54 0.52 0.50 0.50 0.51 0.52 0.51 0.51 0.56 0.63 0.65 0.67 0.68 0.70 0.69 0.69 0.70 0.72 0.72 0.71 0.68 0.68 0.63 0.59 0.55 0.48 0.44 0.41 0.38 0.35
0.55 0.55 0.55 0.56 0.59 0.59 0.60 0.61 0.62 0.62 0.60 0.59 0.57 0.55 0.53 0.52 0.51 0.51 0.53 0.52 0.51 0.48 0.51 0.58 0.61 0.63 0.64 0.65 0.65 0.66 0.67 0.67 0.68 0.69 0.69 0.68 0.66 0.61 0.56 0.51 0.48 0.44 0.40 0.37
0.53 0.55 0.55 0.56 0.57 0.57 0.55 0.54 0.55 0.53 0.53 0.51 0.48 0.46 0.44 0.42 0.45 0.50 0.53 0.53 0.55 0.56 0.58 0.57 0.59 0.60 0.61 0.63 0.66 0.65 0.64 0.65 0.66 0.66 0.65 0.64 0.64 0.62 0.58 0.56 0.50 0.45 0.42 0.40
0.51 0.53 0.53 0.53 0.54 0.53 0.50 0.45 0.41 0.38 0.38 0.38 0.37 0.35 0.35 0.35 0.36 0.37 0.39 0.45 0.53 0.57 0.57 0.58 0.60 0.58 0.59 0.61 0.63 0.64 0.64 0.66 0.65 0.64 0.63 0.63 0.62 0.61 0.60 0.57 0.51 0.47 0.46 0.41
0.50 0.50 0.51 0.53 0.52 0.47 0.45 0.39 0.39 0.39 0.38 0.38 0.37 0.36 0.34 0.31 0.31 0.32 0.36 0.35 0.40 0.44 0.46 0.49 0.52 0.54 0.60 0.62 0.63 0.62 0.62 0.64 0.63 0.63 0.62 0.62 0.61 0.60 0.60 0.57 0.53 0.50 0.42 0.39
0.50 0.51 0.51 0.51 0.51 0.43 0.41 0.36 0.37 0.38 0.37 0.37 0.36 0.35 0.32 0.30 0.29 0.26 0.25 0.32 0.35 0.36 0.40 0.43 0.45 0.49 0.53 0.56 0.58 0.63 0.63 0.62 0.62 0.62 0.62 0.61 0.61 0.60 0.59 0.57 0.51 0.44 0.42 0.39
0.48 0.51 0.51 0.52 0.52 0.51 0.43 0.36 0.36 0.36 0.36 0.37 0.37 0.35 0.32 0.28 0.27 0.29 0.28 0.28 0.29 0.32 0.34 0.38 0.41 0.43 0.45 0.49 0.52 0.55 0.59 0.60 0.61 0.60 0.60 0.60 0.60 0.59 0.58 0.52 0.45 0.43 0.43 0.41
0.50 0.50 0.50 0.47 0.48 0.45 0.43 0.40 0.40 0.37 0.35 0.34 0.34 0.34 0.31 0.30 0.27 0.27 0.27 0.27 0.27 0.29 0.32 0.35 0.37 0.40 0.41 0.42 0.46 0.48 0.51 0.57 0.58 0.59 0.59 0.58 0.58 0.57 0.55 0.49 0.46 0.42 0.38 0.35
0.49 0.49 0.49 0.47 0.40 0.38 0.38 0.36 0.33 0.32 0.32 0.30 0.30 0.31 0.29 0.30 0.29 0.29 0.28 0.27 0.26 0.27 0.29 0.33 0.34 0.35 0.37 0.40 0.44 0.45 0.47 0.50 0.53 0.55 0.57 0.57 0.57 0.56 0.51 0.46 0.43 0.40 0.36 0.38
0.48 0.50 0.49 0.49 0.48 0.39 0.35 0.32 0.32 0.32 0.30 0.29 0.28 0.29 0.28 0.29 0.29 0.29 0.28 0.26 0.26 0.25 0.26 0.29 0.31 0.33 0.35 0.36 0.39 0.44 0.45 0.45 0.48 0.49 0.51 0.51 0.51 0.47 0.43 0.40 0.37 0.35 0.34 0.34

GFSNGP_prec_pwat_054.txt.gz
Precipitable_Water
0.38 0.39 0.40 0.38 0.39 0.41 0.38 0.38 0.31 0.33 0.34 0.41 0.45 0.48 0.49 0.47 0.48 0.49 0.51 0.52 0.52 0.53 0.56 0.62 0.68 0.71 0.71 0.69 0.67 0.66 0.63 0.63 0.63 0.65 0.67 0.68 0.68 0.69 0.69 0.68 0.68 0.66 0.63 0.61
0.34 0.38 0.38 0.34 0.36 0.38 0.38 0.37 0.37 0.37 0.34 0.47 0.49 0.51 0.51 0.48 0.49 0.49 0.50 0.53 0.54 0.54 0.57 0.61 0.66 0.68 0.70 0.67 0.65 0.66 0.65 0.64 0.65 0.66 0.68 0.68 0.67 0.67 0.68 0.67 0.65 0.64 0.60 0.58
0.23 0.31 0.30 0.24 0.29 0.32 0.34 0.37 0.34 0.27 0.27 0.38 0.37 0.41 0.49 0.51 0.49 0.50 0.52 0.53 0.51 0.55 0.58 0.59 0.65 0.70 0.68 0.64 0.65 0.64 0.64 0.65 0.66 0.65 0.64 0.64 0.65 0.65 0.64 0.61 0.61 0.59 0.57 0.55
0.23 0.26 0.15 0.21 0.29 0.28 0.26 0.27 0.32 0.31 0.32 0.35 0.35 0.39 0.42 0.54 0.52 0.52 0.54 0.54 0.56 0.59 0.61 0.62 0.64 0.72 0.70 0.67 0.64 0.62 0.61 0.62 0.63 0.62 0.61 0.62 0.61 0.60 0.59 0.59 0.57 0.56 0.55 0.54
0.21 0.21 0.22 0.22 0.30 0.29 0.26 0.24 0.35 0.34 0.37 0.38 0.39 0.40 0.37 0.47 0.51 0.51 0.55 0.58 0.60 0.65 0.64 0.62 0.64 0.73 0.70 0.67 0.64 0.63 0.62 0.61 0.63 0.62 0.60 0.60 0.60 0.59 0.59 0.57 0.56 0.54 0.51 0.42
0.27 0.20 0.15 0.22 0.33 0.38 0.38 0.23 0.45 0.47 0.44 0.42 0.42 0.29 0.30 0.37 0.48 0.51 0.54 0.57 0.60 0.66 0.65 0.61 0.67 0.72 0.68 0.65 0.63 0.61 0.61 0.59 0.60 0.60 0.58 0.56 0.57 0.57 0.57 0.55 0.52 0.44 0.31 0.29
0.26 0.22 0.23 0.30 0.34 0.37 0.20 0.25 0.42 0.47 0.48 0.46 0.42 0.44 0.46 0.43 0.44 0.51 0.56 0.58 0.63 0.64 0.61 0.62 0.70 0.72 0.66 0.64 0.61 0.62 0.60 0.58 0.57 0.57 0.56 0.57 0.54 0.54 0.52 0.45 0.34 0.29 0.28 0.28
0.28 0.23 0.19 0.37 0.38 0.29 0.36 0.43 0.44 0.48 0.50 0.47 0.49 0.53 0.50 0.45 0.46 0.49 0.54 0.57 0.59 0.58 0.61 0.69 0.75 0.72 0.66 0.62 0.64 0.62 0.59 0.56 0.55 0.55 0.55 0.52 0.50 0.47 0.35 0.31 0.29 0.28 0.28 0.27
0.29 0.26 0.36 0.40 0.40 0.45 0.47 0.43 0.45 0.47 0.54 0.51 0.50 0.50 0.54 0.54 0.52 0.53 0.56 0.60 0.64 0.65 0.67 0.73 0.80 0.74 0.67 0.66 0.65 0.61 0.58 0.54 0.53 0.53 0.50 0.48 0.42 0.32 0.30 0.29 0.27 0.27 0.26 0.26
0.32 0.33 0.36 0.39 0.45 0.48 0.50 0.48 0.51 0.53 0.53 0.57 0.55 0.57 0.55 0.57 0.58 0.58 0.62 0.65 0.69 0.72 0.71 0.71 0.75 0.73 0.72 0.70 0.67 0.61 0.57 0.54 0.51 0.49 0.47 0.44 0.36 0.33 0.30 0.29 0.27 0.27 0.27 0.26
0.33 0.36 0.39 0.42 0.46 0.45 0.43 0.50 0.51 0.55 0.56 0.55 0.58 0.61 0.67 0.69 0.70 0.71 0.73 0.78 0.78 0.78 0.76 0.75 0.79 0.75 0.76 0.73 0.70 0.62 0.58 0.54 0.51 0.48 0.46 0.40 0.37 0.35 0.34 0.33 0.31 0.29 0.29 0.28
0.23 0.33 0.29 0.29 0.37 0.46 0.49 0.50 0.50 0.51 0.54 0.58 0.59 0.59 0.65 0.69 0.73 0.74 0.74 0.78 0.79 0.80 0.81 0.81 0.83 0.82 0.81 0.77 0.72 0.67 0.62 0.56 0.51 0.48 0.46 0.42 0.39 0.37 0.37 0.36 0.34 0.34 0.34 0.32
0.30 0.32 0.29 0.26 0.27 0.29 0.43 0.49 0.55 0.55 0.56 0.56 0.60 0.62 0.63 0.64 0.64 0.65 0.67 0.68 0.68 0.70 0.76 0.80 0.82 0.83 0.86 0.82 0.76 0.70 0.66 0.62 0.56 0.52 0.47 0.41 0.37 0.36 0.34 0.36 0.38 0.38 0.38 0.37
0.41 0.35 0.29 0.29 0.25 0.28 0.29 0.39 0.55 0.61 0.61 0.58 0.58 0.60 0.61 0.60 0.61 0.60 0.59 0.61 0.64 0.64 0.66 0.69 0.72 0.76 0.84 0.85 0.81 0.77 0.72 0.68 0.63 0.59 0.55 0.49 0.45 0.42 0.39 0.37 0.35 0.36 0.40 0.40
0.41 0.43 0.41 0.40 0.36 0.30 0.32 0.34 0.48 0.59 0.61 0.59 0.59 0.57 0.57 0.57 0.57 0.57 0.59 0.59 0.58 0.59 0.60 0.64 0.65 0.68 0.73 0.76 0.78 0.79 0.77 0.75 0.71 0.66 0.61 0.55 0.52 0.51 0.50 0.47 0.43 0.40 0.39 0.37
0.44 0.45 0.44 0.42 0.42 0.41 0.37 0.35 0.49 0.58 0.61 0.62 0.59 0.57 0.55 0.56 0.56 0.57 0.59 0.58 0.54 0.52 0.55 0.57 0.60 0.67 0.71 0.71 0.70 0.72 0.75 0.76 0.76 0.72 0.68 0.62 0.59 0.56 0.53 0.51 0.48 0.46 0.43 0.39
0.41 0.39 0.42 0.42 0.42 0.45 0.41 0.41 0.56 0.59 0.60 0.63 0.61 0.59 0.57 0.55 0.55 0.55 0.55 0.56 0.57 0.56 0.56 0.56 0.58 0.64 0.69 0.70 0.70 0.70 0.70 0.71 0.73 0.72 0.71 0.70 0.64 0.60 0.56 0.55 0.53 0.50 0.46 0.43
0.51 0.50 0.49 0.48 0.48 0.46 0.48 0.52 0.58 0.60 0.60 0.64 0.62 0.58 0.56 0.54 0.52 0.53 0.54 0.54 0.53 0.52 0.52 0.53 0.56 0.60 0.65 0.67 0.68 0.67 0.67 0.66 0.66 0.66 0.67 0.66 0.67 0.66 0.63 0.62 0.56 0.53 0.51 0.47
0.51 0.51 0.52 0.52 0.52 0.54 0.54 0.56 0.57 0.60 0.62 0.62 0.60 0.58 0.58 0.56 0.53 0.52 0.51 0.52 0.51 0.50 0.51 0.52 0.54 0.57 0.60 0.62 0.63 0.63 0.63 0.63 0.63 0.64 0.64 0.64 0.64 0.65 0.65 0.64 0.62 0.58 0.53 0.49
0.50 0.52 0.53 0.52 0.54 0.53 0.53 0.54 0.54 0.53 0.54 0.54 0.52 0.48 0.45 0.45 0.43 0.40 0.42 0.44 0.50 0.53 0.57 0.57 0.56 0.56 0.58 0.60 0.61 0.60 0.60 0.60 0.60 0.62 0.63 0.63 0.63 0.63 0.63 0.63 0.62 0.58 0.55 0.53
0.48 0.50 0.50 0.51 0.51 0.52 0.48 0.43 0.43 0.46 0.42 0.38 0.37 0.36 0.36 0.37 0.38 0.37 0.36 0.35 0.39 0.47 0.55 0.56 0.56 0.57 0.59 0.58 0.56 0.58 0.59 0.60 0.60 0.61 0.61 0.61 0.61 0.62 0.62 0.61 0.61 0.59 0.58 0.52
0.47 0.48 0.49 0.50 0.50 0.48 0.47 0.47 0.48 0.40 0.37 0.37 0.37 0.37 0.35 0.34 0.33 0.32 0.34 0.32 0.36 0.37 0.40 0.41 0.43 0.45 0.47 0.49 0.50 0.52 0.53 0.55 0.60 0.61 0.60 0.60 0.60 0.59 0.60 0.60 0.59 0.59 0.58 0.55
0.42 0.47 0.49 0.49 0.49 0.50 0.48 0.39 0.38 0.36 0.34 0.38 0.40 0.38 0.35 0.33 0.31 0.29 0.26 0.30 0.30 0.31 0.34 0.35 0.37 0.40 0.41 0.41 0.42 0.45 0.48 0.52 0.53 0.58 0.58 0.58 0.59 0.59 0.59 0.58 0.58 0.58 0.57 0.55
0.35 0.43 0.48 0.50 0.50 0.49 0.48 0.50 0.46 0.39 0.37 0.39 0.39 0.39 0.37 0.34 0.31 0.31 0.29 0.29 0.28 0.28 0.29 0.33 0.34 0.36 0.39 0.39 0.38 0.38 0.42 0.45 0.47 0.51 0.56 0.57 0.57 0.57 0.57 0.57 0.57 0.57 0.55 0.48
0.34 0.40 0.46 0.47 0.46 0.46 0.48 0.47 0.43 0.45 0.40 0.35 0.34 0.35 0.36 0.36 0.32 0.31 0.30 0.30 0.29 0.29 0.28 0.30 0.33 0.35 0.34 0.36 0.37 0.38 0.41 0.43 0.46 0.48 0.49 0.53 0.55 0.56 0.56 0.56 0.56 0.54 0.47 0.47
0.29 0.35 0.42 0.47 0.47 0.48 0.44 0.43 0.41 0.36 0.34 0.34 0.33 0.33 0.33 0.32 0.32 0.32 0.31 0.31 0.30 0.29 0.28 0.29 0.31 0.32 0.32 0.33 0.35 0.36 0.38 0.40 0.43 0.46 0.48 0.49 0.51 0.54 0.55 0.55 0.53 0.47 0.44 0.41
0.28 0.33 0.37 0.43 0.47 0.48 0.46 0.38 0.35 0.35 0.37 0.32 0.29 0.30 0.30 0.30 0.30 0.30 0.30 0.30 0.29 0.29 0.28 0.27 0.28 0.28 0.29 0.30 0.33 0.35 0.36 0.39 0.41 0.43 0.46 0.47 0.48 0.49 0.49 0.48 0.43 0.40 0.38 0.35

GFSNGP_prec_pwat_057.txt.gz
Precipitable_Water
0.36 0.36 0.37 0.35 0.35 0.39 0.35 0.36 0.28 0.29 0.32 0.37 0.41 0.45 0.48 0.50 0.50 0.51 0.51 0.51 0.52 0.54 0.56 0.58 0.60 0.64 0.68 0.71 0.72 0.72 0.67 0.65 0.64 0.66 0.68 0.68 0.69 0.70 0.71 0.70 0.68 0.69 0.67 0.65
0.33 0.37 0.36 0.33 0.36 0.38 0.38 0.39 0.38 0.37 0.34 0.40 0.40 0.44 0.43 0.49 0.52 0.50 0.50 0.52 0.54 0.57 0.57 0.56 0.60 0.63 0.67 0.70 0.71 0.70 0.66 0.65 0.67 0.68 0.69 0.68 0.68 0.68 0.69 0.69 0.69 0.70 0.67 0.63
0.26 0.33 0.31 0.25 0.29 0.31 0.34 0.38 0.37 0.30 0.31 0.37 0.35 0.35 0.37 0.43 0.49 0.53 0.51 0.54 0.56 0.57 0.57 0.60 0.63 0.64 0.64 0.69 0.71 0.66 0.65 0.66 0.66 0.67 0.67 0.68 0.70 0.70 0.70 0.71 0.70 0.66 0.62 0.60
0.24 0.25 0.15 0.23 0.30 0.29 0.26 0.27 0.32 0.32 0.34 0.39 0.39 0.41 0.40 0.43 0.43 0.51 0.56 0.56 0.59 0.60 0.60 0.64 0.67 0.66 0.65 0.69 0.70 0.66 0.64 0.64 0.65 0.64 0.64 0.65 0.65 0.66 0.65 0.65 0.62 0.60 0.58 0.58
0.21 0.21 0.23 0.25 0.33 0.32 0.28 0.28 0.39 0.39 0.43 0.45 0.47 0.44 0.38 0.45 0.43 0.45 0.53 0.56 0.59 0.61 0.62 0.66 0.67 0.67 0.65 0.69 0.69 0.66 0.65 0.64 0.64 0.64 0.63 0.63 0.63 0.62 0.62 0.61 0.59 0.57 0.56 0.51
0.26 0.20 0.18 0.26 0.36 0.39 0.37 0.25 0.43 0.44 0.45 0.46 0.47 0.34 0.38 0.47 0.43 0.44 0.51 0.57 0.55 0.60 0.66 0.67 0.69 0.67 0.65 0.66 0.67 0.65 0.65 0.65 0.65 0.64 0.64 0.61 0.61 0.60 0.61 0.61 0.58 0.56 0.46 0.33
0.26 0.23 0.25 0.33 0.38 0.40 0.22 0.27 0.43 0.45 0.47 0.48 0.42 0.43 0.50 0.53 0.49 0.46 0.52 0.55 0.58 0.61 0.62 0.66 0.69 0.67 0.64 0.65 0.65 0.67 0.67 0.65 0.64 0.63 0.61 0.60 0.59 0.59 0.58 0.57 0.52 0.37 0.30 0.29
0.28 0.24 0.20 0.41 0.41 0.33 0.40 0.45 0.44 0.45 0.47 0.49 0.51 0.49 0.51 0.54 0.50 0.47 0.47 0.52 0.57 0.60 0.63 0.65 0.67 0.66 0.63 0.66 0.70 0.69 0.67 0.63 0.61 0.61 0.60 0.59 0.57 0.56 0.56 0.45 0.33 0.29 0.28 0.28
0.28 0.27 0.38 0.44 0.43 0.48 0.48 0.44 0.45 0.47 0.49 0.53 0.53 0.53 0.53 0.53 0.56 0.54 0.53 0.54 0.58 0.59 0.61 0.64 0.65 0.67 0.68 0.72 0.71 0.69 0.64 0.61 0.60 0.59 0.59 0.57 0.54 0.51 0.38 0.33 0.30 0.28 0.28 0.26
0.32 0.33 0.36 0.40 0.44 0.44 0.44 0.43 0.46 0.50 0.52 0.54 0.53 0.55 0.57 0.58 0.58 0.59 0.61 0.60 0.62 0.63 0.64 0.67 0.71 0.70 0.74 0.78 0.74 0.70 0.64 0.60 0.59 0.56 0.55 0.54 0.51 0.42 0.34 0.31 0.29 0.28 0.27 0.26
0.28 0.32 0.31 0.35 0.35 0.36 0.36 0.40 0.42 0.47 0.47 0.52 0.55 0.57 0.58 0.64 0.69 0.68 0.67 0.69 0.71 0.72 0.73 0.74 0.75 0.74 0.77 0.76 0.73 0.68 0.64 0.61 0.58 0.56 0.53 0.50 0.46 0.38 0.36 0.35 0.33 0.30 0.29 0.29
0.24 0.34 0.35 0.33 0.35 0.34 0.28 0.27 0.38 0.45 0.44 0.48 0.54 0.56 0.61 0.62 0.68 0.71 0.72 0.75 0.77 0.78 0.78 0.80 0.80 0.80 0.82 0.82 0.80 0.71 0.66 0.62 0.58 0.55 0.52 0.50 0.43 0.39 0.42 0.41 0.38 0.37 0.35 0.32
0.39 0.42 0.40 0.40 0.39 0.40 0.37 0.35 0.30 0.37 0.42 0.45 0.57 0.58 0.60 0.63 0.65 0.68 0.68 0.68 0.69 0.69 0.71 0.74 0.76 0.78 0.83 0.84 0.83 0.81 0.72 0.66 0.63 0.59 0.54 0.49 0.45 0.40 0.37 0.39 0.40 0.39 0.38 0.38
0.48 0.45 0.39 0.41 0.39 0.44 0.44 0.43 0.40 0.33 0.37 0.48 0.57 0.61 0.60 0.60 0.63 0.63 0.63 0.65 0.65 0.64 0.65 0.66 0.67 0.70 0.78 0.81 0.83 0.81 0.80 0.74 0.69 0.65 0.59 0.57 0.55 0.51 0.46 0.42 0.39 0.39 0.42 0.41
0.45 0.47 0.45 0.46 0.46 0.44 0.45 0.43 0.38 0.35 0.33 0.43 0.57 0.58 0.61 0.59 0.57 0.59 0.61 0.61 0.60 0.60 0.60 0.60 0.61 0.64 0.72 0.74 0.74 0.76 0.78 0.77 0.74 0.72 0.67 0.62 0.59 0.55 0.51 0.49 0.48 0.48 0.47 0.45
0.44 0.45 0.46 0.44 0.44 0.44 0.43 0.41 0.39 0.37 0.38 0.41 0.56 0.58 0.60 0.64 0.61 0.58 0.58 0.59 0.57 0.56 0.56 0.56 0.57 0.61 0.65 0.68 0.68 0.69 0.70 0.71 0.72 0.71 0.70 0.69 0.66 0.62 0.57 0.54 0.53 0.50 0.50 0.48
0.40 0.38 0.41 0.42 0.43 0.44 0.45 0.47 0.45 0.42 0.42 0.47 0.58 0.60 0.60 0.62 0.62 0.57 0.55 0.56 0.56 0.57 0.57 0.57 0.57 0.60 0.62 0.64 0.65 0.67 0.67 0.68 0.69 0.68 0.67 0.66 0.66 0.65 0.64 0.60 0.58 0.56 0.54 0.53
0.45 0.46 0.47 0.46 0.45 0.45 0.47 0.48 0.50 0.50 0.49 0.53 0.59 0.60 0.58 0.59 0.57 0.55 0.54 0.55 0.55 0.54 0.55 0.55 0.56 0.58 0.59 0.61 0.63 0.65 0.65 0.65 0.64 0.63 0.64 0.63 0.63 0.63 0.62 0.64 0.62 0.61 0.60 0.60
0.34 0.41 0.46 0.47 0.49 0.48 0.47 0.48 0.51 0.52 0.55 0.56 0.58 0.57 0.58 0.60 0.59 0.57 0.56 0.52 0.52 0.52 0.52 0.54 0.54 0.55 0.55 0.57 0.60 0.62 0.62 0.61 0.60 0.60 0.60 0.60 0.60 0.61 0.60 0.61 0.61 0.62 0.62 0.59
0.22 0.30 0.39 0.46 0.49 0.49 0.48 0.47 0.48 0.49 0.51 0.50 0.52 0.51 0.48 0.47 0.48 0.48 0.45 0.40 0.43 0.47 0.55 0.56 0.56 0.56 0.56 0.57 0.60 0.61 0.61 0.60 0.59 0.59 0.59 0.59 0.59 0.58 0.59 0.60 0.60 0.60 0.60 0.60
0.19 0.24 0.30 0.38 0.46 0.48 0.49 0.50 0.44 0.40 0.46 0.41 0.37 0.36 0.37 0.38 0.37 0.37 0.37 0.35 0.39 0.42 0.43 0.46 0.52 0.54 0.56 0.58 0.58 0.57 0.56 0.54 0.54 0.54 0.55 0.57 0.58 0.58 0.59 0.59 0.58 0.58 0.58 0.58
0.23 0.23 0.27 0.32 0.39 0.47 0.49 0.49 0.47 0.45 0.41 0.40 0.38 0.35 0.35 0.35 0.34 0.34 0.36 0.33 0.34 0.37 0.37 0.38 0.40 0.43 0.44 0.44 0.43 0.42 0.42 0.43 0.44 0.47 0.51 0.52 0.54 0.56 0.57 0.58 0.57 0.57 0.57 0.57
0.23 0.27 0.28 0.31 0.35 0.43 0.49 0.49 0.45 0.43 0.40 0.42 0.43 0.46 0.42 0.35 0.33 0.30 0.27 0.31 0.32 0.31 0.32 0.33 0.36 0.36 0.39 0.39 0.39 0.38 0.38 0.38 0.39 0.41 0.45 0.46 0.48 0.52 0.55 0.55 0.56 0.56 0.56 0.56
0.23 0.27 0.30 0.33 0.35 0.39 0.42 0.47 0.47 0.47 0.46 0.38 0.39 0.42 0.42 0.40 0.39 0.38 0.33 0.32 0.31 0.31 0.30 0.31 0.32 0.34 0.36 0.36 0.36 0.35 0.35 0.35 0.38 0.40 0.42 0.45 0.47 0.49 0.51 0.53 0.54 0.56 0.56 0.56
0.26 0.26 0.28 0.32 0.33 0.36 0.42 0.46 0.46 0.46 0.43 0.45 0.44 0.39 0.39 0.39 0.37 0.38 0.34 0.32 0.31 0.31 0.30 0.31 0.33 0.34 0.34 0.33 0.33 0.34 0.35 0.36 0.38 0.39 0.40 0.41 0.44 0.47 0.49 0.51 0.52 0.55 0.55 0.55
0.26 0.28 0.29 0.30 0.33 0.37 0.43 0.45 0.43 0.44 0.43 0.36 0.37 0.39 0.36 0.33 0.32 0.32 0.34 0.33 0.33 0.32 0.31 0.31 0.31 0.30 0.30 0.30 0.31 0.33 0.34 0.35 0.37 0.38 0.39 0.40 0.42 0.44 0.46 0.48 0.50 0.52 0.52 0.49
0.18 0.23 0.28 0.31 0.34 0.37 0.42 0.44 0.43 0.42 0.39 0.40 0.38 0.35 0.34 0.32 0.30 0.29 0.29 0.29 0.30 0.31 0.31 0.30 0.29 0.29 0.29 0.29 0.29 0.32 0.34 0.35 0.35 0.36 0.38 0.39 0.41 0.42 0.43 0.45 0.46 0.46 0.43 0.40

GFSNGP_prec_pwat_060.txt.gz
Precipitable_Water
0.33 0.35 0.36 0.34 0.33 0.34 0.31 0.30 0.27 0.30 0.30 0.35 0.41 0.44 0.45 0.45 0.46 0.48 0.50 0.53 0.56 0.53 0.57 0.58 0.58 0.59 0.61 0.64 0.66 0.68 0.68 0.68 0.68 0.68 0.69 0.68 0.68 0.69 0.71 0.70 0.71 0.72 0.72 0.72
0.32 0.35 0.35 0.31 0.34 0.35 0.35 0.35 0.35 0.36 0.33 0.45 0.44 0.44 0.41 0.42 0.43 0.46 0.51 0.53 0.55 0.58 0.58 0.58 0.59 0.61 0.64 0.66 0.68 0.70 0.69 0.69 0.67 0.66 0.67 0.68 0.69 0.70 0.71 0.71 0.70 0.71 0.71 0.69
0.27 0.33 0.31 0.25 0.29 0.32 0.34 0.37 0.36 0.30 0.35 0.43 0.39 0.39 0.39 0.39 0.40 0.40 0.47 0.53 0.56 0.57 0.59 0.61 0.62 0.64 0.63 0.64 0.67 0.68 0.69 0.67 0.65 0.66 0.65 0.66 0.68 0.68 0.69 0.70 0.72 0.71 0.70 0.69
0.28 0.28 0.18 0.25 0.32 0.32 0.29 0.31 0.33 0.34 0.37 0.42 0.45 0.48 0.47 0.48 0.44 0.41 0.40 0.48 0.57 0.59 0.58 0.63 0.66 0.66 0.69 0.67 0.66 0.67 0.69 0.67 0.67 0.66 0.64 0.66 0.66 0.64 0.66 0.71 0.71 0.71 0.69 0.67
0.22 0.21 0.24 0.27 0.32 0.31 0.30 0.32 0.39 0.38 0.41 0.44 0.47 0.46 0.43 0.50 0.49 0.45 0.44 0.45 0.56 0.61 0.65 0.65 0.66 0.68 0.69 0.69 0.66 0.67 0.69 0.68 0.67 0.67 0.66 0.65 0.62 0.62 0.66 0.68 0.67 0.64 0.62 0.60
0.25 0.18 0.16 0.26 0.35 0.40 0.38 0.27 0.42 0.43 0.41 0.43 0.46 0.33 0.37 0.48 0.52 0.50 0.46 0.47 0.52 0.58 0.63 0.63 0.65 0.69 0.69 0.69 0.65 0.66 0.67 0.68 0.70 0.67 0.65 0.64 0.64 0.64 0.64 0.65 0.64 0.64 0.60 0.54
0.27 0.24 0.26 0.34 0.39 0.42 0.25 0.30 0.43 0.44 0.44 0.44 0.41 0.49 0.52 0.49 0.52 0.56 0.53 0.49 0.55 0.56 0.58 0.62 0.65 0.69 0.68 0.69 0.66 0.68 0.68 0.69 0.69 0.67 0.67 0.66 0.65 0.64 0.64 0.63 0.61 0.58 0.51 0.38
0.28 0.24 0.21 0.43 0.43 0.33 0.39 0.43 0.42 0.43 0.44 0.44 0.48 0.53 0.55 0.53 0.53 0.57 0.53 0.51 0.55 0.56 0.58 0.63 0.67 0.68 0.67 0.64 0.69 0.69 0.68 0.67 0.67 0.66 0.67 0.65 0.62 0.61 0.61 0.59 0.56 0.46 0.33 0.32
0.30 0.29 0.39 0.43 0.43 0.48 0.44 0.39 0.40 0.40 0.43 0.46 0.44 0.49 0.55 0.56 0.56 0.57 0.58 0.54 0.57 0.59 0.59 0.63 0.67 0.68 0.63 0.65 0.68 0.66 0.68 0.75 0.69 0.65 0.65 0.65 0.62 0.59 0.56 0.55 0.43 0.34 0.31 0.30
0.32 0.35 0.37 0.37 0.41 0.40 0.42 0.41 0.41 0.40 0.41 0.43 0.41 0.44 0.53 0.57 0.63 0.63 0.62 0.62 0.63 0.61 0.61 0.62 0.67 0.68 0.67 0.69 0.72 0.74 0.71 0.67 0.65 0.62 0.61 0.62 0.60 0.57 0.54 0.42 0.35 0.31 0.30 0.29
0.27 0.29 0.29 0.34 0.36 0.38 0.37 0.36 0.33 0.33 0.35 0.39 0.44 0.44 0.49 0.55 0.61 0.67 0.71 0.69 0.67 0.67 0.66 0.67 0.70 0.71 0.74 0.77 0.74 0.71 0.72 0.70 0.66 0.63 0.61 0.59 0.58 0.56 0.48 0.39 0.35 0.32 0.31 0.31
0.24 0.33 0.33 0.34 0.40 0.43 0.40 0.39 0.41 0.41 0.36 0.33 0.39 0.41 0.48 0.56 0.60 0.65 0.68 0.72 0.73 0.75 0.76 0.78 0.79 0.79 0.80 0.80 0.78 0.77 0.74 0.70 0.66 0.63 0.59 0.58 0.55 0.51 0.47 0.41 0.40 0.38 0.37 0.35
0.39 0.43 0.42 0.43 0.44 0.46 0.42 0.43 0.44 0.42 0.41 0.37 0.35 0.41 0.48 0.54 0.59 0.63 0.67 0.70 0.72 0.73 0.75 0.74 0.74 0.74 0.76 0.79 0.81 0.79 0.76 0.75 0.73 0.64 0.59 0.56 0.53 0.49 0.40 0.41 0.44 0.42 0.40 0.40
0.48 0.46 0.41 0.44 0.41 0.46 0.46 0.46 0.46 0.45 0.43 0.42 0.40 0.38 0.47 0.53 0.58 0.60 0.63 0.67 0.70 0.70 0.69 0.68 0.68 0.68 0.73 0.75 0.75 0.76 0.77 0.77 0.76 0.73 0.63 0.59 0.54 0.50 0.44 0.41 0.39 0.39 0.43 0.43
0.44 0.46 0.44 0.46 0.47 0.47 0.47 0.46 0.44 0.42 0.42 0.40 0.42 0.40 0.44 0.52 0.55 0.57 0.62 0.64 0.64 0.63 0.63 0.64 0.64 0.64 0.69 0.70 0.71 0.71 0.72 0.76 0.77 0.77 0.73 0.68 0.65 0.63 0.63 0.60 0.55 0.51 0.49 0.50
0.38 0.42 0.43 0.42 0.43 0.44 0.45 0.45 0.44 0.44 0.45 0.42 0.41 0.39 0.42 0.51 0.56 0.58 0.61 0.64 0.60 0.57 0.60 0.60 0.61 0.63 0.65 0.66 0.65 0.67 0.69 0.70 0.71 0.71 0.70 0.69 0.68 0.64 0.59 0.57 0.55 0.53 0.52 0.54
0.20 0.20 0.27 0.32 0.38 0.41 0.43 0.46 0.47 0.46 0.46 0.43 0.43 0.42 0.43 0.47 0.57 0.57 0.59 0.62 0.62 0.58 0.57 0.58 0.60 0.62 0.63 0.64 0.63 0.63 0.64 0.66 0.68 0.67 0.66 0.65 0.64 0.63 0.63 0.63 0.63 0.60 0.59 0.59
0.21 0.21 0.24 0.27 0.29 0.34 0.41 0.45 0.47 0.48 0.47 0.48 0.51 0.52 0.49 0.50 0.54 0.56 0.57 0.58 0.59 0.58 0.56 0.57 0.58 0.59 0.61 0.63 0.64 0.64 0.63 0.64 0.65 0.63 0.63 0.61 0.61 0.60 0.59 0.58 0.59 0.58 0.58 0.58
0.23 0.21 0.21 0.24 0.28 0.31 0.34 0.41 0.45 0.47 0.49 0.49 0.50 0.51 0.52 0.53 0.55 0.57 0.58 0.54 0.54 0.53 0.56 0.58 0.58 0.57 0.58 0.59 0.60 0.61 0.60 0.59 0.60 0.60 0.60 0.59 0.58 0.58 0.56 0.56 0.55 0.56 0.56 0.57
0.22 0.24 0.23 0.25 0.29 0.30 0.31 0.36 0.42 0.43 0.44 0.46 0.45 0.47 0.51 0.51 0.50 0.49 0.52 0.49 0.49 0.52 0.54 0.56 0.58 0.56 0.56 0.56 0.58 0.59 0.59 0.59 0.59 0.59 0.59 0.59 0.59 0.57 0.57 0.57 0.57 0.57 0.57 0.57
0.23 0.24 0.25 0.26 0.27 0.30 0.33 0.36 0.38 0.44 0.44 0.42 0.42 0.36 0.36 0.43 0.44 0.40 0.41 0.40 0.42 0.44 0.45 0.46 0.46 0.53 0.58 0.58 0.58 0.57 0.57 0.58 0.58 0.57 0.55 0.54 0.52 0.51 0.52 0.54 0.56 0.56 0.57 0.58
0.24 0.24 0.25 0.28 0.29 0.29 0.33 0.35 0.38 0.39 0.44 0.41 0.41 0.39 0.36 0.34 0.33 0.38 0.38 0.35 0.36 0.37 0.39 0.39 0.39 0.41 0.43 0.44 0.45 0.45 0.46 0.44 0.42 0.42 0.42 0.42 0.43 0.45 0.47 0.47 0.50 0.54 0.55 0.56
0.24 0.24 0.25 0.27 0.29 0.31 0.34 0.35 0.37 0.39 0.42 0.42 0.42 0.44 0.46 0.45 0.40 0.36 0.32 0.35 0.34 0.33 0.32 0.33 0.35 0.37 0.38 0.38 0.40 0.40 0.39 0.39 0.38 0.38 0.37 0.36 0.38 0.41 0.43 0.45 0.47 0.50 0.53 0.53
0.21 0.23 0.25 0.28 0.30 0.31 0.31 0.35 0.37 0.40 0.43 0.45 0.42 0.40 0.46 0.43 0.45 0.44 0.37 0.34 0.32 0.31 0.32 0.33 0.34 0.35 0.36 0.37 0.37 0.36 0.36 0.36 0.35 0.35 0.37 0.38 0.39 0.40 0.41 0.43 0.45 0.49 0.50 0.51
0.17 0.17 0.21 0.27 0.29 0.30 0.33 0.36 0.37 0.39 0.41 0.43 0.44 0.45 0.43 0.45 0.43 0.44 0.43 0.36 0.34 0.32 0.31 0.33 0.33 0.34 0.34 0.33 0.33 0.33 0.33 0.34 0.35 0.36 0.37 0.38 0.38 0.39 0.41 0.43 0.44 0.46 0.48 0.50
0.17 0.16 0.17 0.19 0.24 0.31 0.35 0.37 0.35 0.38 0.40 0.40 0.39 0.42 0.42 0.39 0.37 0.36 0.38 0.41 0.34 0.31 0.30 0.31 0.31 0.32 0.31 0.31 0.30 0.31 0.33 0.34 0.35 0.36 0.37 0.37 0.38 0.39 0.40 0.41 0.43 0.44 0.45 0.47
0.21 0.21 0.20 0.18 0.18 0.22 0.31 0.36 0.36 0.37 0.40 0.40 0.39 0.41 0.38 0.38 0.35 0.33 0.31 0.31 0.34 0.34 0.35 0.34 0.32 0.31 0.31 0.30 0.30 0.29 0.31 0.33 0.35 0.35 0.35 0.36 0.37 0.39 0.40 0.41 0.41 0.42 0.43 0.41

GFSNGP_prec_pwat_063.txt.gz
Precipitable_Water
0.37 0.38 0.38 0.37 0.36 0.38 0.35 0.33 0.29 0.30 0.31 0.36 0.39 0.41 0.43 0.44 0.43 0.43 0.43 0.46 0.51 0.57 0.59 0.60 0.60 0.62 0.64 0.65 0.64 0.64 0.62 0.63 0.64 0.66 0.69 0.69 0.68 0.69 0.70 0.70 0.69 0.70 0.70 0.71
0.33 0.36 0.35 0.32 0.34 0.36 0.36 0.36 0.36 0.34 0.32 0.42 0.45 0.44 0.42 0.42 0.44 0.43 0.42 0.43 0.49 0.55 0.61 0.61 0.62 0.62 0.63 0.62 0.62 0.65 0.65 0.65 0.67 0.68 0.68 0.66 0.66 0.66 0.67 0.69 0.70 0.72 0.72 0.72
0.28 0.33 0.32 0.25 0.30 0.32 0.34 0.36 0.35 0.29 0.35 0.41 0.41 0.42 0.46 0.49 0.49 0.46 0.45 0.45 0.44 0.53 0.58 0.63 0.64 0.65 0.62 0.64 0.67 0.66 0.66 0.66 0.67 0.68 0.66 0.65 0.65 0.64 0.65 0.66 0.69 0.69 0.71 0.72
0.30 0.30 0.20 0.28 0.31 0.30 0.29 0.31 0.33 0.33 0.37 0.42 0.46 0.49 0.49 0.52 0.48 0.45 0.46 0.46 0.45 0.44 0.54 0.60 0.68 0.67 0.68 0.68 0.67 0.65 0.64 0.63 0.65 0.67 0.66 0.65 0.65 0.63 0.64 0.65 0.65 0.68 0.70 0.72
0.26 0.25 0.27 0.30 0.32 0.31 0.30 0.33 0.41 0.39 0.40 0.42 0.46 0.46 0.48 0.55 0.53 0.47 0.49 0.51 0.50 0.49 0.50 0.61 0.66 0.68 0.69 0.67 0.67 0.67 0.66 0.65 0.69 0.68 0.68 0.68 0.65 0.64 0.64 0.63 0.64 0.66 0.70 0.69
0.25 0.20 0.17 0.31 0.36 0.39 0.37 0.27 0.41 0.41 0.39 0.40 0.41 0.32 0.38 0.51 0.53 0.49 0.52 0.55 0.53 0.51 0.51 0.59 0.66 0.70 0.67 0.66 0.66 0.67 0.69 0.68 0.69 0.69 0.67 0.66 0.67 0.65 0.65 0.65 0.65 0.65 0.65 0.66
0.27 0.24 0.26 0.34 0.38 0.40 0.23 0.29 0.43 0.42 0.39 0.39 0.36 0.39 0.43 0.52 0.54 0.54 0.54 0.56 0.57 0.53 0.53 0.56 0.63 0.66 0.66 0.66 0.64 0.70 0.74 0.71 0.70 0.70 0.67 0.67 0.66 0.65 0.65 0.64 0.63 0.62 0.61 0.60
0.27 0.24 0.20 0.40 0.41 0.31 0.39 0.41 0.40 0.39 0.39 0.37 0.39 0.42 0.42 0.44 0.53 0.56 0.55 0.57 0.58 0.55 0.55 0.58 0.62 0.66 0.65 0.63 0.70 0.72 0.72 0.69 0.69 0.69 0.67 0.65 0.65 0.67 0.66 0.64 0.61 0.62 0.59 0.54
0.30 0.29 0.39 0.38 0.39 0.43 0.42 0.41 0.41 0.38 0.38 0.37 0.36 0.38 0.40 0.41 0.47 0.56 0.62 0.59 0.61 0.58 0.57 0.60 0.63 0.65 0.64 0.67 0.70 0.70 0.68 0.66 0.67 0.66 0.67 0.67 0.65 0.64 0.64 0.61 0.58 0.57 0.51 0.35
0.31 0.34 0.36 0.36 0.40 0.39 0.38 0.36 0.38 0.39 0.36 0.35 0.34 0.34 0.33 0.38 0.43 0.56 0.59 0.65 0.63 0.62 0.60 0.59 0.64 0.65 0.66 0.67 0.69 0.67 0.65 0.65 0.66 0.68 0.73 0.72 0.65 0.65 0.63 0.62 0.57 0.53 0.37 0.31
0.30 0.33 0.32 0.32 0.35 0.37 0.38 0.41 0.40 0.40 0.39 0.39 0.40 0.38 0.33 0.35 0.43 0.52 0.60 0.63 0.69 0.67 0.65 0.66 0.69 0.69 0.70 0.71 0.71 0.69 0.70 0.72 0.71 0.71 0.68 0.64 0.66 0.63 0.64 0.62 0.57 0.43 0.34 0.32
0.26 0.34 0.35 0.36 0.41 0.44 0.41 0.41 0.43 0.43 0.42 0.44 0.43 0.41 0.40 0.33 0.39 0.49 0.59 0.63 0.65 0.70 0.72 0.73 0.72 0.73 0.77 0.81 0.78 0.77 0.75 0.74 0.71 0.73 0.75 0.70 0.65 0.64 0.65 0.61 0.51 0.42 0.37 0.35
0.36 0.44 0.45 0.46 0.47 0.48 0.45 0.45 0.46 0.46 0.45 0.43 0.44 0.43 0.42 0.38 0.36 0.47 0.57 0.59 0.62 0.67 0.73 0.75 0.75 0.76 0.78 0.78 0.76 0.75 0.75 0.74 0.74 0.73 0.73 0.68 0.61 0.58 0.56 0.57 0.53 0.44 0.42 0.40
0.45 0.43 0.39 0.42 0.41 0.47 0.47 0.48 0.49 0.49 0.48 0.48 0.46 0.45 0.43 0.42 0.39 0.44 0.53 0.60 0.63 0.65 0.65 0.70 0.70 0.69 0.72 0.72 0.71 0.70 0.71 0.73 0.74 0.74 0.73 0.72 0.66 0.58 0.54 0.47 0.41 0.40 0.43 0.43
0.38 0.40 0.38 0.39 0.40 0.42 0.45 0.45 0.43 0.43 0.46 0.47 0.49 0.47 0.46 0.41 0.40 0.42 0.51 0.58 0.60 0.60 0.62 0.67 0.67 0.66 0.70 0.69 0.67 0.67 0.68 0.69 0.70 0.73 0.73 0.73 0.71 0.66 0.59 0.55 0.50 0.48 0.49 0.51
0.23 0.21 0.21 0.21 0.23 0.26 0.31 0.35 0.37 0.40 0.44 0.47 0.47 0.48 0.46 0.45 0.42 0.41 0.47 0.55 0.55 0.55 0.59 0.62 0.63 0.65 0.68 0.68 0.65 0.64 0.65 0.66 0.68 0.68 0.69 0.71 0.72 0.70 0.67 0.63 0.62 0.63 0.63 0.62
0.15 0.14 0.17 0.16 0.18 0.19 0.22 0.27 0.30 0.32 0.37 0.44 0.47 0.49 0.49 0.48 0.47 0.44 0.44 0.49 0.56 0.57 0.59 0.61 0.62 0.64 0.63 0.65 0.65 0.63 0.62 0.63 0.64 0.65 0.64 0.65 0.65 0.63 0.63 0.62 0.60 0.58 0.56 0.55
0.22 0.23 0.24 0.23 0.21 0.20 0.21 0.24 0.27 0.31 0.32 0.35 0.44 0.49 0.49 0.48 0.47 0.47 0.46 0.47 0.53 0.58 0.58 0.61 0.61 0.61 0.61 0.62 0.63 0.64 0.63 0.62 0.62 0.61 0.63 0.62 0.62 0.62 0.61 0.60 0.59 0.58 0.59 0.58
0.23 0.23 0.24 0.24 0.25 0.25 0.25 0.26 0.27 0.30 0.32 0.33 0.34 0.42 0.48 0.49 0.49 0.50 0.51 0.49 0.52 0.54 0.56 0.61 0.60 0.58 0.59 0.60 0.61 0.63 0.62 0.62 0.61 0.61 0.61 0.61 0.59 0.58 0.56 0.55 0.55 0.55 0.57 0.56
0.23 0.24 0.25 0.25 0.26 0.26 0.27 0.29 0.30 0.31 0.32 0.33 0.34 0.33 0.42 0.42 0.46 0.49 0.50 0.49 0.53 0.55 0.58 0.58 0.57 0.57 0.60 0.59 0.59 0.60 0.60 0.59 0.58 0.58 0.57 0.57 0.57 0.57 0.58 0.59 0.58 0.56 0.55 0.56
0.23 0.24 0.24 0.23 0.23 0.26 0.28 0.30 0.30 0.31 0.33 0.34 0.34 0.32 0.40 0.40 0.37 0.40 0.45 0.42 0.47 0.53 0.53 0.51 0.50 0.50 0.53 0.58 0.60 0.58 0.57 0.57 0.58 0.58 0.58 0.58 0.59 0.59 0.58 0.56 0.52 0.49 0.50 0.49
0.22 0.21 0.21 0.21 0.21 0.22 0.27 0.30 0.32 0.33 0.33 0.32 0.34 0.34 0.37 0.41 0.39 0.34 0.40 0.41 0.41 0.41 0.45 0.45 0.43 0.43 0.43 0.45 0.47 0.49 0.52 0.54 0.55 0.55 0.53 0.51 0.47 0.45 0.44 0.43 0.42 0.43 0.46 0.47
0.19 0.20 0.19 0.17 0.18 0.22 0.27 0.30 0.32 0.35 0.34 0.34 0.34 0.34 0.37 0.42 0.44 0.41 0.34 0.37 0.40 0.36 0.37 0.38 0.38 0.38 0.38 0.40 0.39 0.40 0.42 0.42 0.42 0.40 0.40 0.39 0.39 0.38 0.36 0.36 0.39 0.41 0.42 0.44
0.19 0.18 0.16 0.17 0.18 0.19 0.22 0.30 0.35 0.38 0.38 0.37 0.37 0.39 0.39 0.39 0.42 0.46 0.46 0.43 0.39 0.39 0.36 0.35 0.34 0.35 0.37 0.38 0.38 0.38 0.39 0.39 0.38 0.38 0.37 0.36 0.36 0.38 0.39 0.39 0.40 0.41 0.43 0.44
0.20 0.19 0.17 0.18 0.18 0.17 0.18 0.25 0.34 0.37 0.37 0.36 0.37 0.40 0.42 0.43 0.41 0.43 0.45 0.45 0.39 0.36 0.35 0.34 0.33 0.33 0.34 0.34 0.34 0.35 0.34 0.34 0.35 0.36 0.36 0.36 0.37 0.38 0.38 0.39 0.40 0.41 0.42 0.43
0.19 0.19 0.20 0.23 0.23 0.22 0.20 0.21 0.25 0.34 0.36 0.35 0.36 0.40 0.41 0.42 0.42 0.40 0.41 0.43 0.40 0.32 0.31 0.31 0.33 0.32 0.32 0.32 0.32 0.32 0.32 0.33 0.35 0.35 0.36 0.36 0.37 0.38 0.38 0.39 0.40 0.41 0.41 0.42
0.20 0.23 0.24 0.25 0.28 0.28 0.25 0.22 0.21 0.27 0.35 0.36 0.36 0.40 0.40 0.40 0.40 0.37 0.34 0.34 0.36 0.38 0.33 0.31 0.30 0.31 0.31 0.31 0.30 0.30 0.30 0.31 0.33 0.34 0.34 0.34 0.35 0.36 0.37 0.38 0.39 0.40 0.41 0.41

GFSNGP_prec_pwat_066.txt.gz
Precipitable_Water
0.40 0.41 0.42 0.38 0.39 0.40 0.37 0.37 0.31 0.33 0.33 0.36 0.39 0.42 0.43 0.44 0.44 0.43 0.43 0.43 0.44 0.44 0.49 0.59 0.60 0.60 0.61 0.63 0.63 0.65 0.64 0.65 0.64 0.65 0.66 0.67 0.67 0.69 0.69 0.68 0.68 0.69 0.70 0.71
0.32 0.36 0.35 0.31 0.35 0.37 0.38 0.39 0.36 0.35 0.32 0.43 0.46 0.46 0.45 0.46 0.47 0.46 0.46 0.47 0.48 0.46 0.47 0.55 0.62 0.63 0.64 0.65 0.67 0.68 0.65 0.63 0.65 0.66 0.67 0.66 0.67 0.67 0.65 0.64 0.65 0.66 0.67 0.67
0.27 0.33 0.30 0.24 0.29 0.32 0.35 0.38 0.37 0.31 0.38 0.42 0.42 0.44 0.45 0.46 0.48 0.45 0.45 0.45 0.47 0.49 0.47 0.50 0.60 0.65 0.64 0.67 0.68 0.66 0.65 0.66 0.66 0.67 0.64 0.66 0.68 0.66 0.64 0.63 0.64 0.64 0.65 0.65
0.30 0.30 0.19 0.29 0.33 0.33 0.32 0.35 0.36 0.35 0.38 0.42 0.43 0.44 0.46 0.50 0.50 0.49 0.46 0.45 0.48 0.52 0.51 0.50 0.55 0.63 0.66 0.68 0.67 0.65 0.65 0.65 0.65 0.64 0.62 0.65 0.65 0.65 0.65 0.66 0.65 0.63 0.63 0.64
0.28 0.26 0.29 0.32 0.34 0.31 0.30 0.32 0.39 0.37 0.38 0.40 0.42 0.42 0.48 0.52 0.52 0.53 0.51 0.51 0.51 0.54 0.57 0.53 0.53 0.59 0.64 0.66 0.68 0.67 0.65 0.66 0.67 0.68 0.65 0.66 0.64 0.64 0.65 0.65 0.64 0.64 0.64 0.65
0.26 0.20 0.18 0.30 0.36 0.39 0.38 0.26 0.41 0.40 0.38 0.38 0.39 0.30 0.36 0.45 0.45 0.48 0.55 0.55 0.53 0.55 0.57 0.57 0.54 0.58 0.62 0.64 0.66 0.66 0.68 0.68 0.71 0.71 0.68 0.66 0.66 0.66 0.66 0.65 0.65 0.65 0.63 0.65
0.25 0.22 0.26 0.36 0.38 0.40 0.22 0.26 0.42 0.42 0.41 0.39 0.35 0.37 0.40 0.43 0.43 0.45 0.53 0.56 0.60 0.57 0.56 0.58 0.58 0.59 0.59 0.65 0.65 0.69 0.71 0.71 0.71 0.71 0.69 0.69 0.68 0.68 0.66 0.63 0.63 0.65 0.63 0.64
0.28 0.25 0.20 0.41 0.42 0.31 0.39 0.43 0.43 0.43 0.41 0.38 0.38 0.37 0.36 0.39 0.39 0.39 0.42 0.54 0.60 0.59 0.58 0.62 0.62 0.60 0.57 0.58 0.66 0.71 0.72 0.70 0.70 0.70 0.70 0.68 0.67 0.67 0.64 0.62 0.62 0.65 0.64 0.63
0.31 0.29 0.39 0.40 0.39 0.43 0.41 0.39 0.40 0.39 0.41 0.40 0.37 0.35 0.37 0.36 0.37 0.35 0.38 0.49 0.59 0.61 0.61 0.62 0.63 0.62 0.58 0.63 0.69 0.70 0.69 0.68 0.69 0.69 0.69 0.66 0.64 0.65 0.62 0.64 0.65 0.64 0.60 0.59
0.33 0.36 0.40 0.41 0.41 0.42 0.41 0.38 0.38 0.39 0.39 0.39 0.37 0.39 0.38 0.40 0.41 0.38 0.36 0.45 0.59 0.61 0.63 0.63 0.66 0.66 0.65 0.67 0.69 0.68 0.66 0.66 0.66 0.65 0.65 0.65 0.70 0.71 0.68 0.68 0.65 0.65 0.58 0.55
0.31 0.35 0.36 0.38 0.39 0.40 0.40 0.42 0.41 0.43 0.42 0.41 0.41 0.40 0.40 0.40 0.41 0.42 0.39 0.43 0.59 0.61 0.61 0.66 0.70 0.69 0.70 0.71 0.71 0.68 0.67 0.68 0.67 0.68 0.68 0.66 0.68 0.69 0.69 0.66 0.68 0.64 0.63 0.53
0.26 0.34 0.33 0.34 0.42 0.45 0.43 0.43 0.44 0.44 0.43 0.45 0.44 0.42 0.43 0.42 0.43 0.43 0.43 0.40 0.50 0.61 0.64 0.64 0.70 0.73 0.74 0.74 0.73 0.73 0.75 0.76 0.74 0.74 0.75 0.74 0.70 0.68 0.70 0.70 0.69 0.68 0.62 0.47
0.31 0.37 0.40 0.44 0.46 0.47 0.44 0.45 0.46 0.46 0.46 0.44 0.46 0.47 0.47 0.45 0.46 0.46 0.47 0.43 0.47 0.57 0.61 0.65 0.65 0.73 0.79 0.78 0.77 0.73 0.71 0.71 0.71 0.73 0.74 0.72 0.69 0.68 0.68 0.71 0.69 0.64 0.56 0.45
0.40 0.40 0.36 0.37 0.33 0.35 0.35 0.36 0.38 0.42 0.45 0.46 0.47 0.49 0.48 0.47 0.48 0.47 0.45 0.45 0.46 0.52 0.60 0.63 0.66 0.67 0.73 0.77 0.74 0.72 0.69 0.68 0.67 0.68 0.69 0.72 0.71 0.71 0.70 0.64 0.58 0.59 0.59 0.51
0.32 0.31 0.27 0.24 0.21 0.20 0.22 0.22 0.20 0.22 0.27 0.31 0.39 0.43 0.46 0.46 0.46 0.46 0.46 0.45 0.46 0.47 0.53 0.58 0.61 0.65 0.69 0.71 0.71 0.68 0.67 0.67 0.67 0.67 0.67 0.68 0.70 0.70 0.70 0.65 0.59 0.52 0.48 0.46
0.22 0.19 0.18 0.17 0.18 0.19 0.20 0.20 0.19 0.20 0.22 0.24 0.25 0.29 0.34 0.41 0.46 0.49 0.51 0.51 0.46 0.43 0.45 0.52 0.57 0.61 0.65 0.68 0.70 0.67 0.66 0.66 0.65 0.64 0.64 0.65 0.67 0.68 0.68 0.67 0.65 0.62 0.57 0.54
0.15 0.14 0.17 0.18 0.20 0.21 0.21 0.23 0.23 0.24 0.24 0.25 0.26 0.28 0.28 0.29 0.34 0.41 0.48 0.51 0.51 0.50 0.51 0.48 0.53 0.61 0.61 0.61 0.67 0.67 0.65 0.64 0.64 0.62 0.61 0.62 0.62 0.63 0.65 0.66 0.66 0.66 0.65 0.64
0.21 0.22 0.22 0.22 0.22 0.22 0.22 0.23 0.24 0.24 0.25 0.28 0.30 0.29 0.28 0.27 0.28 0.31 0.39 0.48 0.50 0.50 0.49 0.49 0.53 0.57 0.61 0.61 0.64 0.64 0.65 0.64 0.63 0.60 0.61 0.60 0.60 0.61 0.61 0.61 0.61 0.60 0.60 0.60
0.21 0.21 0.22 0.23 0.24 0.24 0.23 0.23 0.24 0.25 0.27 0.28 0.28 0.28 0.30 0.31 0.30 0.32 0.32 0.37 0.46 0.48 0.49 0.52 0.50 0.52 0.57 0.58 0.62 0.62 0.62 0.64 0.63 0.60 0.60 0.61 0.60 0.60 0.59 0.59 0.58 0.58 0.57 0.55
0.23 0.24 0.25 0.25 0.25 0.23 0.21 0.22 0.24 0.25 0.27 0.28 0.29 0.29 0.29 0.31 0.32 0.32 0.31 0.30 0.42 0.49 0.52 0.52 0.52 0.52 0.56 0.59 0.61 0.59 0.61 0.62 0.61 0.60 0.59 0.59 0.59 0.58 0.58 0.58 0.56 0.55 0.56 0.57
0.22 0.21 0.20 0.20 0.18 0.18 0.18 0.20 0.22 0.24 0.27 0.30 0.30 0.29 0.30 0.32 0.33 0.33 0.30 0.28 0.38 0.50 0.48 0.50 0.51 0.53 0.55 0.56 0.56 0.57 0.59 0.60 0.60 0.58 0.57 0.56 0.56 0.56 0.56 0.56 0.57 0.57 0.57 0.54
0.18 0.17 0.17 0.18 0.16 0.15 0.16 0.17 0.20 0.25 0.28 0.31 0.34 0.34 0.32 0.32 0.34 0.36 0.37 0.35 0.36 0.44 0.43 0.42 0.46 0.51 0.52 0.52 0.51 0.50 0.54 0.58 0.58 0.58 0.57 0.57 0.57 0.56 0.56 0.54 0.50 0.48 0.46 0.43
0.17 0.17 0.18 0.17 0.16 0.15 0.17 0.18 0.19 0.22 0.27 0.34 0.35 0.35 0.34 0.34 0.36 0.34 0.32 0.39 0.42 0.39 0.42 0.40 0.40 0.45 0.46 0.43 0.42 0.42 0.42 0.44 0.46 0.47 0.49 0.50 0.48 0.45 0.41 0.40 0.40 0.39 0.38 0.39
0.15 0.17 0.18 0.18 0.19 0.19 0.18 0.21 0.20 0.20 0.24 0.34 0.37 0.38 0.36 0.34 0.36 0.39 0.40 0.41 0.43 0.43 0.41 0.42 0.39 0.39 0.43 0.43 0.39 0.38 0.39 0.40 0.41 0.42 0.41 0.41 0.41 0.40 0.39 0.38 0.39 0.40 0.40 0.41
0.16 0.18 0.19 0.18 0.19 0.21 0.23 0.25 0.26 0.23 0.22 0.28 0.35 0.38 0.38 0.38 0.36 0.38 0.39 0.40 0.42 0.42 0.39 0.40 0.37 0.36 0.35 0.36 0.40 0.40 0.39 0.39 0.39 0.39 0.39 0.38 0.37 0.38 0.39 0.39 0.39 0.39 0.40 0.40
0.16 0.16 0.18 0.19 0.22 0.24 0.27 0.29 0.28 0.27 0.25 0.23 0.30 0.36 0.37 0.38 0.38 0.39 0.39 0.40 0.40 0.41 0.36 0.36 0.35 0.33 0.33 0.33 0.33 0.33 0.34 0.36 0.37 0.37 0.37 0.36 0.36 0.37 0.37 0.38 0.39 0.39 0.40 0.40
0.18 0.18 0.18 0.18 0.21 0.26 0.29 0.30 0.26 0.25 0.27 0.26 0.25 0.32 0.36 0.37 0.38 0.38 0.38 0.35 0.36 0.38 0.36 0.33 0.32 0.30 0.30 0.30 0.30 0.30 0.32 0.32 0.33 0.34 0.35 0.35 0.35 0.35 0.35 0.36 0.38 0.39 0.40 0.40

GFSNGP_prec_pwat_069.txt.gz
Precipitable_Water
0.40 0.40 0.41 0.38 0.36 0.39 0.36 0.35 0.29 0.31 0.34 0.39 0.43 0.45 0.48 0.51 0.52 0.50 0.48 0.48 0.47 0.47 0.47 0.52 0.51 0.58 0.62 0.61 0.62 0.63 0.62 0.62 0.63 0.67 0.69 0.68 0.68 0.69 0.69 0.68 0.68 0.66 0.66 0.66
0.34 0.38 0.38 0.34 0.36 0.38 0.40 0.40 0.39 0.38 0.36 0.45 0.49 0.52 0.50 0.49 0.49 0.48 0.48 0.47 0.47 0.47 0.49 0.51 0.53 0.54 0.61 0.63 0.65 0.68 0.67 0.67 0.68 0.68 0.67 0.67 0.67 0.67 0.67 0.67 0.66 0.65 0.64 0.64
0.26 0.33 0.31 0.26 0.30 0.34 0.37 0.41 0.41 0.34 0.40 0.46 0.45 0.46 0.47 0.48 0.50 0.49 0.49 0.48 0.48 0.48 0.49 0.52 0.52 0.55 0.59 0.64 0.68 0.67 0.67 0.68 0.67 0.67 0.66 0.68 0.67 0.65 0.64 0.64 0.65 0.64 0.64 0.63
0.29 0.30 0.20 0.29 0.35 0.35 0.35 0.39 0.41 0.41 0.43 0.46 0.47 0.49 0.51 0.49 0.46 0.48 0.51 0.50 0.49 0.50 0.50 0.53 0.57 0.56 0.59 0.64 0.66 0.66 0.66 0.66 0.67 0.68 0.67 0.66 0.64 0.64 0.64 0.63 0.63 0.64 0.64 0.65
0.25 0.24 0.28 0.31 0.34 0.32 0.31 0.32 0.40 0.38 0.39 0.40 0.40 0.41 0.43 0.48 0.49 0.46 0.46 0.48 0.54 0.57 0.55 0.53 0.56 0.59 0.60 0.60 0.64 0.65 0.64 0.66 0.68 0.69 0.68 0.68 0.66 0.65 0.65 0.65 0.65 0.64 0.63 0.62
0.28 0.21 0.17 0.29 0.37 0.41 0.40 0.25 0.41 0.41 0.39 0.38 0.39 0.30 0.37 0.48 0.48 0.44 0.44 0.43 0.47 0.56 0.59 0.55 0.56 0.61 0.62 0.60 0.60 0.62 0.66 0.68 0.71 0.72 0.70 0.69 0.70 0.67 0.67 0.67 0.66 0.66 0.64 0.64
0.25 0.22 0.26 0.37 0.41 0.42 0.23 0.25 0.41 0.42 0.42 0.41 0.37 0.38 0.40 0.41 0.41 0.42 0.42 0.40 0.43 0.52 0.56 0.59 0.59 0.60 0.59 0.59 0.59 0.66 0.71 0.71 0.72 0.73 0.72 0.71 0.71 0.69 0.67 0.66 0.65 0.64 0.63 0.62
0.26 0.23 0.21 0.42 0.41 0.32 0.38 0.43 0.44 0.44 0.44 0.42 0.42 0.42 0.42 0.42 0.40 0.40 0.40 0.40 0.38 0.45 0.54 0.61 0.63 0.61 0.61 0.62 0.67 0.68 0.69 0.70 0.71 0.73 0.73 0.73 0.71 0.68 0.67 0.64 0.61 0.62 0.61 0.62
0.29 0.29 0.39 0.43 0.41 0.45 0.45 0.42 0.42 0.41 0.42 0.41 0.39 0.38 0.40 0.41 0.42 0.41 0.42 0.43 0.41 0.42 0.53 0.60 0.64 0.64 0.61 0.63 0.66 0.66 0.67 0.67 0.70 0.72 0.73 0.72 0.68 0.66 0.64 0.63 0.64 0.65 0.62 0.62
0.33 0.38 0.41 0.42 0.44 0.45 0.44 0.41 0.40 0.40 0.39 0.40 0.38 0.39 0.39 0.39 0.40 0.41 0.42 0.44 0.44 0.41 0.51 0.59 0.62 0.67 0.67 0.68 0.69 0.68 0.66 0.67 0.68 0.68 0.68 0.69 0.68 0.66 0.64 0.65 0.65 0.65 0.65 0.64
0.32 0.36 0.38 0.39 0.40 0.40 0.39 0.42 0.42 0.44 0.43 0.42 0.42 0.42 0.42 0.42 0.43 0.43 0.44 0.45 0.47 0.42 0.47 0.60 0.64 0.64 0.70 0.72 0.73 0.70 0.69 0.69 0.69 0.69 0.69 0.68 0.67 0.67 0.67 0.68 0.68 0.68 0.67 0.66
0.25 0.34 0.33 0.33 0.39 0.42 0.39 0.39 0.41 0.40 0.41 0.44 0.44 0.43 0.44 0.44 0.46 0.47 0.47 0.47 0.46 0.45 0.46 0.56 0.63 0.65 0.67 0.73 0.74 0.72 0.70 0.68 0.70 0.75 0.75 0.74 0.73 0.72 0.76 0.76 0.71 0.70 0.69 0.67
0.29 0.34 0.35 0.37 0.38 0.38 0.33 0.33 0.33 0.32 0.32 0.31 0.34 0.37 0.40 0.42 0.46 0.48 0.48 0.48 0.47 0.46 0.46 0.51 0.58 0.61 0.71 0.67 0.74 0.74 0.72 0.73 0.72 0.71 0.70 0.68 0.69 0.70 0.67 0.72 0.73 0.72 0.72 0.70
0.36 0.34 0.31 0.33 0.27 0.28 0.27 0.25 0.25 0.24 0.23 0.23 0.24 0.27 0.29 0.31 0.35 0.41 0.45 0.49 0.51 0.48 0.45 0.46 0.51 0.58 0.65 0.73 0.68 0.69 0.71 0.73 0.71 0.68 0.67 0.66 0.66 0.67 0.69 0.67 0.66 0.68 0.72 0.66
0.32 0.30 0.28 0.27 0.24 0.22 0.22 0.20 0.19 0.19 0.20 0.21 0.23 0.23 0.24 0.24 0.25 0.27 0.33 0.41 0.48 0.51 0.52 0.49 0.46 0.49 0.60 0.65 0.65 0.66 0.66 0.67 0.70 0.68 0.68 0.67 0.65 0.65 0.66 0.67 0.67 0.67 0.66 0.65
0.26 0.24 0.22 0.19 0.17 0.18 0.19 0.20 0.20 0.20 0.22 0.23 0.24 0.25 0.26 0.28 0.27 0.28 0.29 0.32 0.32 0.36 0.45 0.50 0.50 0.51 0.54 0.57 0.61 0.62 0.62 0.65 0.68 0.67 0.65 0.65 0.64 0.63 0.64 0.66 0.66 0.65 0.62 0.58
0.20 0.17 0.18 0.16 0.16 0.18 0.19 0.21 0.22 0.23 0.23 0.24 0.25 0.26 0.26 0.27 0.28 0.29 0.30 0.30 0.31 0.33 0.37 0.41 0.47 0.54 0.54 0.54 0.54 0.57 0.60 0.61 0.63 0.65 0.63 0.63 0.63 0.61 0.61 0.63 0.64 0.65 0.67 0.68
0.22 0.22 0.22 0.21 0.20 0.21 0.23 0.23 0.23 0.22 0.21 0.23 0.24 0.25 0.26 0.26 0.26 0.28 0.30 0.32 0.32 0.30 0.34 0.39 0.43 0.48 0.52 0.52 0.55 0.54 0.56 0.59 0.59 0.61 0.62 0.61 0.61 0.62 0.61 0.60 0.61 0.62 0.64 0.65
0.22 0.22 0.23 0.23 0.23 0.22 0.21 0.19 0.17 0.18 0.20 0.23 0.25 0.25 0.26 0.27 0.29 0.30 0.31 0.31 0.31 0.28 0.31 0.39 0.41 0.43 0.47 0.51 0.52 0.53 0.54 0.56 0.56 0.59 0.60 0.60 0.61 0.60 0.60 0.60 0.60 0.60 0.61 0.60
0.23 0.22 0.20 0.19 0.19 0.18 0.15 0.15 0.15 0.15 0.16 0.20 0.24 0.25 0.27 0.30 0.31 0.31 0.31 0.30 0.32 0.32 0.36 0.38 0.40 0.40 0.43 0.50 0.53 0.51 0.51 0.55 0.54 0.57 0.58 0.57 0.59 0.59 0.59 0.59 0.60 0.60 0.60 0.58
0.16 0.15 0.15 0.15 0.15 0.16 0.16 0.16 0.16 0.16 0.17 0.20 0.22 0.24 0.28 0.32 0.33 0.33 0.30 0.29 0.33 0.37 0.36 0.36 0.37 0.36 0.41 0.49 0.52 0.51 0.52 0.52 0.54 0.56 0.57 0.56 0.57 0.58 0.58 0.58 0.58 0.57 0.57 0.57
0.14 0.13 0.14 0.15 0.16 0.16 0.16 0.17 0.18 0.18 0.20 0.21 0.21 0.27 0.31 0.32 0.33 0.34 0.35 0.32 0.35 0.38 0.37 0.34 0.35 0.34 0.38 0.49 0.51 0.50 0.51 0.54 0.54 0.55 0.56 0.55 0.56 0.56 0.56 0.55 0.55 0.55 0.56 0.56
0.13 0.14 0.15 0.16 0.17 0.16 0.18 0.19 0.21 0.23 0.24 0.25 0.24 0.26 0.31 0.34 0.35 0.32 0.30 0.36 0.37 0.38 0.38 0.36 0.37 0.38 0.39 0.46 0.47 0.46 0.45 0.47 0.48 0.52 0.54 0.55 0.56 0.56 0.56 0.55 0.54 0.51 0.47 0.44
0.15 0.16 0.15 0.16 0.19 0.18 0.17 0.21 0.24 0.26 0.28 0.27 0.28 0.27 0.31 0.32 0.34 0.36 0.37 0.38 0.38 0.38 0.38 0.38 0.39 0.40 0.40 0.42 0.45 0.43 0.45 0.43 0.42 0.44 0.46 0.47 0.47 0.47 0.47 0.45 0.42 0.41 0.40 0.40
0.17 0.17 0.16 0.16 0.16 0.17 0.19 0.22 0.25 0.27 0.25 0.25 0.27 0.29 0.29 0.34 0.35 0.36 0.37 0.36 0.37 0.37 0.37 0.38 0.40 0.40 0.39 0.38 0.42 0.43 0.40 0.41 0.41 0.39 0.40 0.41 0.41 0.40 0.41 0.41 0.41 0.41 0.41 0.41
0.17 0.17 0.18 0.20 0.20 0.20 0.21 0.22 0.24 0.27 0.26 0.23 0.26 0.28 0.28 0.31 0.36 0.37 0.36 0.36 0.36 0.36 0.36 0.37 0.37 0.37 0.34 0.33 0.35 0.38 0.39 0.37 0.38 0.38 0.37 0.38 0.40 0.40 0.40 0.40 0.39 0.40 0.40 0.41
0.19 0.22 0.22 0.22 0.23 0.23 0.22 0.22 0.22 0.23 0.26 0.24 0.24 0.27 0.29 0.28 0.33 0.36 0.36 0.35 0.34 0.35 0.36 0.34 0.35 0.34 0.32 0.29 0.29 0.31 0.32 0.32 0.37 0.39 0.39 0.39 0.37 0.37 0.36 0.36 0.37 0.39 0.39 0.40

GFSNGP_prec_pwat_072.txt.gz
Precipitable_Water
0.36 0.37 0.36 0.34 0.34 0.36 0.33 0.34 0.29 0.32 0.33 0.39 0.44 0.47 0.50 0.52 0.53 0.53 0.53 0.52 0.52 0.49 0.48 0.48 0.49 0.52 0.53 0.57 0.61 0.64 0.62 0.61 0.61 0.63 0.65 0.65 0.66 0.68 0.69 0.69 0.70 0.70 0.69 0.67
0.33 0.36 0.35 0.33 0.35 0.36 0.38 0.39 0.37 0.37 0.36 0.46 0.51 0.53 0.52 0.53 0.55 0.54 0.54 0.54 0.53 0.52 0.50 0.49 0.50 0.52 0.55 0.57 0.63 0.65 0.63 0.63 0.66 0.67 0.68 0.68 0.69 0.68 0.68 0.69 0.68 0.67 0.66 0.64
0.26 0.33 0.31 0.26 0.30 0.32 0.36 0.41 0.41 0.34 0.42 0.51 0.49 0.51 0.52 0.52 0.52 0.50 0.50 0.50 0.49 0.50 0.51 0.52 0.52 0.53 0.53 0.53 0.62 0.65 0.65 0.66 0.68 0.69 0.69 0.70 0.69 0.68 0.68 0.65 0.66 0.65 0.64 0.63
0.26 0.28 0.18 0.29 0.36 0.36 0.35 0.39 0.41 0.43 0.47 0.50 0.49 0.52 0.52 0.51 0.47 0.45 0.45 0.44 0.44 0.45 0.49 0.55 0.56 0.54 0.55 0.58 0.57 0.62 0.64 0.66 0.67 0.67 0.67 0.67 0.68 0.68 0.66 0.65 0.63 0.62 0.62 0.62
0.24 0.23 0.28 0.31 0.33 0.32 0.32 0.34 0.42 0.41 0.43 0.45 0.46 0.50 0.46 0.48 0.47 0.46 0.46 0.45 0.43 0.43 0.44 0.52 0.57 0.56 0.54 0.57 0.59 0.58 0.63 0.66 0.67 0.67 0.66 0.67 0.67 0.66 0.67 0.66 0.64 0.63 0.65 0.64
0.28 0.21 0.18 0.28 0.36 0.42 0.40 0.24 0.39 0.39 0.39 0.39 0.40 0.31 0.36 0.46 0.48 0.48 0.49 0.48 0.44 0.44 0.43 0.46 0.54 0.59 0.55 0.55 0.60 0.61 0.61 0.67 0.70 0.70 0.69 0.68 0.70 0.69 0.70 0.70 0.67 0.67 0.65 0.66
0.23 0.20 0.22 0.32 0.37 0.39 0.21 0.22 0.37 0.40 0.40 0.39 0.36 0.38 0.42 0.45 0.46 0.46 0.45 0.43 0.43 0.43 0.39 0.43 0.54 0.56 0.55 0.57 0.59 0.64 0.66 0.68 0.70 0.71 0.70 0.72 0.73 0.72 0.71 0.70 0.68 0.66 0.65 0.64
0.24 0.20 0.16 0.36 0.37 0.28 0.34 0.40 0.42 0.42 0.42 0.41 0.42 0.43 0.44 0.44 0.43 0.43 0.43 0.43 0.43 0.41 0.40 0.41 0.51 0.55 0.53 0.56 0.63 0.67 0.68 0.68 0.69 0.71 0.72 0.72 0.72 0.73 0.72 0.70 0.66 0.65 0.62 0.62
0.26 0.25 0.35 0.39 0.38 0.42 0.43 0.41 0.41 0.41 0.41 0.40 0.38 0.37 0.38 0.38 0.39 0.39 0.41 0.42 0.45 0.43 0.42 0.42 0.50 0.58 0.55 0.59 0.64 0.66 0.68 0.67 0.68 0.68 0.70 0.72 0.71 0.71 0.69 0.68 0.65 0.62 0.61 0.63
0.31 0.34 0.36 0.40 0.44 0.45 0.44 0.42 0.42 0.41 0.39 0.39 0.37 0.39 0.40 0.40 0.41 0.42 0.44 0.44 0.44 0.44 0.43 0.42 0.50 0.60 0.63 0.65 0.67 0.66 0.65 0.66 0.68 0.69 0.70 0.72 0.72 0.72 0.68 0.65 0.63 0.61 0.62 0.62
0.31 0.36 0.39 0.40 0.42 0.42 0.41 0.39 0.38 0.40 0.39 0.39 0.39 0.38 0.40 0.41 0.43 0.45 0.46 0.48 0.49 0.47 0.45 0.45 0.48 0.58 0.64 0.66 0.68 0.67 0.68 0.68 0.69 0.70 0.69 0.69 0.70 0.67 0.67 0.68 0.66 0.64 0.65 0.65
0.27 0.35 0.34 0.35 0.40 0.41 0.36 0.32 0.33 0.33 0.31 0.32 0.33 0.31 0.33 0.33 0.36 0.37 0.40 0.45 0.48 0.50 0.48 0.47 0.47 0.52 0.60 0.67 0.67 0.66 0.67 0.68 0.68 0.68 0.69 0.69 0.69 0.73 0.77 0.76 0.76 0.76 0.75 0.73
0.31 0.36 0.35 0.37 0.38 0.35 0.29 0.29 0.29 0.28 0.28 0.25 0.26 0.25 0.25 0.25 0.28 0.31 0.33 0.34 0.37 0.44 0.50 0.51 0.47 0.47 0.57 0.61 0.67 0.65 0.67 0.68 0.71 0.71 0.71 0.70 0.70 0.67 0.65 0.70 0.74 0.74 0.74 0.72
0.35 0.34 0.31 0.33 0.28 0.30 0.29 0.28 0.27 0.25 0.24 0.23 0.23 0.24 0.24 0.23 0.25 0.25 0.25 0.27 0.31 0.34 0.40 0.48 0.52 0.50 0.52 0.60 0.64 0.65 0.67 0.68 0.69 0.68 0.70 0.70 0.68 0.66 0.64 0.62 0.63 0.65 0.72 0.72
0.31 0.30 0.28 0.28 0.27 0.25 0.25 0.23 0.20 0.19 0.20 0.21 0.23 0.24 0.25 0.24 0.24 0.25 0.27 0.28 0.28 0.29 0.32 0.36 0.42 0.49 0.55 0.53 0.55 0.59 0.61 0.65 0.67 0.65 0.65 0.68 0.68 0.65 0.65 0.62 0.61 0.64 0.67 0.69
0.27 0.26 0.25 0.23 0.21 0.21 0.22 0.21 0.19 0.18 0.19 0.20 0.21 0.23 0.26 0.27 0.28 0.29 0.29 0.29 0.27 0.26 0.29 0.30 0.33 0.39 0.47 0.52 0.53 0.54 0.58 0.59 0.61 0.61 0.62 0.60 0.62 0.63 0.62 0.62 0.61 0.63 0.63 0.65
0.21 0.19 0.20 0.19 0.19 0.20 0.20 0.22 0.22 0.21 0.19 0.18 0.19 0.20 0.21 0.21 0.22 0.23 0.25 0.29 0.30 0.30 0.31 0.31 0.31 0.37 0.41 0.45 0.47 0.50 0.52 0.56 0.58 0.59 0.58 0.58 0.60 0.61 0.61 0.61 0.60 0.60 0.64 0.66
0.23 0.22 0.22 0.22 0.21 0.20 0.19 0.19 0.18 0.15 0.13 0.14 0.14 0.15 0.17 0.19 0.20 0.22 0.25 0.28 0.28 0.29 0.31 0.32 0.32 0.37 0.39 0.42 0.43 0.44 0.46 0.50 0.53 0.55 0.56 0.56 0.57 0.60 0.60 0.59 0.60 0.60 0.62 0.65
0.23 0.22 0.22 0.20 0.18 0.17 0.15 0.15 0.14 0.13 0.14 0.15 0.16 0.16 0.19 0.22 0.23 0.26 0.29 0.28 0.27 0.27 0.29 0.33 0.35 0.36 0.37 0.40 0.42 0.43 0.43 0.43 0.47 0.53 0.54 0.55 0.56 0.57 0.58 0.58 0.59 0.60 0.61 0.61
0.19 0.18 0.17 0.15 0.15 0.15 0.14 0.16 0.16 0.15 0.16 0.17 0.17 0.18 0.18 0.21 0.27 0.28 0.31 0.29 0.30 0.31 0.33 0.34 0.36 0.34 0.37 0.39 0.41 0.42 0.43 0.42 0.44 0.48 0.52 0.54 0.56 0.55 0.58 0.57 0.59 0.59 0.59 0.60
0.14 0.13 0.12 0.12 0.13 0.14 0.16 0.18 0.18 0.17 0.18 0.20 0.21 0.21 0.23 0.24 0.27 0.30 0.30 0.29 0.32 0.35 0.35 0.35 0.35 0.34 0.35 0.36 0.38 0.41 0.41 0.42 0.43 0.45 0.48 0.51 0.55 0.55 0.55 0.56 0.57 0.58 0.59 0.59
0.12 0.12 0.13 0.13 0.13 0.13 0.16 0.19 0.19 0.19 0.22 0.24 0.23 0.24 0.25 0.25 0.27 0.29 0.34 0.32 0.35 0.37 0.36 0.35 0.35 0.35 0.35 0.37 0.36 0.37 0.39 0.41 0.43 0.46 0.48 0.51 0.53 0.53 0.54 0.56 0.55 0.56 0.58 0.58
0.14 0.14 0.15 0.15 0.15 0.15 0.16 0.16 0.19 0.21 0.24 0.27 0.24 0.23 0.24 0.26 0.28 0.27 0.28 0.35 0.36 0.36 0.36 0.35 0.36 0.37 0.37 0.38 0.34 0.35 0.38 0.40 0.42 0.45 0.49 0.50 0.52 0.54 0.55 0.55 0.55 0.55 0.55 0.55
0.15 0.16 0.16 0.17 0.18 0.16 0.16 0.17 0.19 0.20 0.23 0.28 0.29 0.26 0.25 0.26 0.27 0.31 0.33 0.36 0.36 0.35 0.35 0.36 0.36 0.37 0.37 0.36 0.34 0.36 0.38 0.39 0.41 0.47 0.49 0.51 0.52 0.53 0.53 0.54 0.54 0.54 0.54 0.54
0.16 0.17 0.17 0.18 0.18 0.20 0.22 0.23 0.21 0.20 0.21 0.23 0.29 0.28 0.26 0.29 0.29 0.29 0.32 0.36 0.35 0.35 0.34 0.35 0.35 0.36 0.35 0.36 0.36 0.36 0.38 0.40 0.44 0.42 0.43 0.44 0.48 0.49 0.50 0.51 0.51 0.48 0.43 0.40
0.17 0.17 0.19 0.20 0.22 0.24 0.24 0.23 0.22 0.23 0.23 0.22 0.25 0.26 0.26 0.28 0.30 0.30 0.32 0.35 0.35 0.34 0.33 0.34 0.34 0.35 0.35 0.34 0.34 0.36 0.39 0.40 0.42 0.43 0.43 0.43 0.42 0.41 0.41 0.41 0.40 0.40 0.41 0.43
0.18 0.20 0.21 0.22 0.24 0.25 0.25 0.25 0.25 0.24 0.26 0.26 0.24 0.25 0.25 0.28 0.28 0.29 0.31 0.35 0.34 0.34 0.33 0.33 0.34 0.34 0.34 0.32 0.32 0.33 0.36 0.35 0.38 0.39 0.38 0.38 0.39 0.39 0.38 0.40 0.42 0.42 0.41 0.41

GFSNGP_prec_pwat_075.txt.gz
Precipitable_Water
0.33 0.35 0.34 0.33 0.33 0.34 0.31 0.33 0.28 0.31 0.30 0.38 0.41 0.43 0.47 0.51 0.52 0.53 0.52 0.52 0.52 0.52 0.53 0.52 0.51 0.51 0.51 0.54 0.57 0.59 0.60 0.61 0.62 0.64 0.64 0.64 0.64 0.65 0.66 0.66 0.67 0.67 0.67 0.67
0.29 0.33 0.33 0.30 0.33 0.34 0.35 0.35 0.34 0.34 0.32 0.44 0.49 0.52 0.51 0.53 0.54 0.52 0.53 0.53 0.53 0.53 0.53 0.52 0.53 0.53 0.52 0.52 0.55 0.59 0.60 0.62 0.65 0.66 0.65 0.64 0.64 0.64 0.65 0.66 0.67 0.68 0.68 0.67
0.24 0.31 0.29 0.23 0.29 0.31 0.32 0.36 0.36 0.30 0.37 0.45 0.44 0.47 0.49 0.50 0.51 0.51 0.52 0.52 0.51 0.50 0.48 0.49 0.51 0.55 0.54 0.54 0.56 0.58 0.59 0.62 0.65 0.66 0.65 0.66 0.68 0.68 0.67 0.66 0.68 0.67 0.65 0.65
0.24 0.26 0.16 0.26 0.33 0.33 0.33 0.35 0.38 0.40 0.44 0.47 0.49 0.52 0.52 0.53 0.52 0.51 0.51 0.50 0.50 0.49 0.48 0.45 0.46 0.51 0.55 0.58 0.56 0.57 0.58 0.60 0.63 0.65 0.66 0.68 0.68 0.68 0.67 0.67 0.66 0.63 0.63 0.63
0.22 0.21 0.23 0.27 0.31 0.32 0.30 0.31 0.40 0.39 0.41 0.44 0.47 0.49 0.48 0.53 0.53 0.52 0.52 0.53 0.53 0.53 0.51 0.48 0.46 0.49 0.52 0.53 0.55 0.54 0.57 0.59 0.62 0.65 0.65 0.66 0.65 0.65 0.66 0.67 0.64 0.63 0.63 0.62
0.27 0.20 0.16 0.26 0.35 0.40 0.39 0.24 0.39 0.40 0.40 0.41 0.43 0.34 0.39 0.48 0.49 0.48 0.48 0.48 0.47 0.48 0.47 0.45 0.44 0.44 0.47 0.50 0.51 0.53 0.57 0.62 0.64 0.66 0.66 0.66 0.67 0.66 0.68 0.69 0.66 0.67 0.66 0.66
0.24 0.20 0.21 0.30 0.35 0.38 0.20 0.21 0.35 0.38 0.40 0.40 0.37 0.40 0.44 0.47 0.47 0.49 0.50 0.49 0.50 0.49 0.46 0.46 0.46 0.43 0.43 0.47 0.50 0.54 0.60 0.65 0.66 0.67 0.67 0.69 0.69 0.68 0.68 0.69 0.69 0.68 0.66 0.67
0.23 0.19 0.15 0.35 0.34 0.26 0.32 0.38 0.39 0.40 0.41 0.39 0.41 0.42 0.43 0.44 0.44 0.44 0.44 0.44 0.45 0.44 0.44 0.47 0.48 0.44 0.42 0.46 0.54 0.57 0.60 0.63 0.66 0.68 0.68 0.68 0.69 0.68 0.67 0.68 0.68 0.67 0.66 0.65
0.25 0.23 0.34 0.38 0.37 0.41 0.41 0.39 0.40 0.40 0.41 0.40 0.37 0.36 0.37 0.36 0.38 0.39 0.40 0.42 0.45 0.45 0.45 0.46 0.48 0.48 0.45 0.52 0.57 0.58 0.59 0.60 0.64 0.68 0.69 0.69 0.68 0.66 0.66 0.67 0.67 0.66 0.65 0.63
0.29 0.32 0.35 0.38 0.41 0.43 0.44 0.42 0.43 0.43 0.40 0.37 0.33 0.34 0.34 0.34 0.34 0.36 0.38 0.40 0.43 0.45 0.45 0.46 0.49 0.48 0.48 0.54 0.62 0.61 0.61 0.61 0.62 0.64 0.66 0.68 0.68 0.67 0.67 0.67 0.66 0.66 0.64 0.62
0.29 0.33 0.36 0.39 0.41 0.42 0.42 0.41 0.38 0.37 0.34 0.32 0.31 0.29 0.29 0.29 0.30 0.32 0.33 0.35 0.37 0.37 0.40 0.46 0.51 0.50 0.50 0.53 0.58 0.60 0.62 0.65 0.65 0.66 0.66 0.67 0.69 0.70 0.69 0.71 0.70 0.65 0.63 0.63
0.25 0.33 0.33 0.34 0.39 0.41 0.37 0.33 0.31 0.30 0.28 0.28 0.27 0.26 0.27 0.25 0.25 0.25 0.26 0.29 0.29 0.30 0.31 0.34 0.41 0.52 0.53 0.53 0.57 0.58 0.59 0.63 0.67 0.66 0.67 0.68 0.67 0.68 0.74 0.73 0.73 0.75 0.74 0.72
0.33 0.37 0.35 0.36 0.38 0.38 0.32 0.29 0.29 0.28 0.28 0.26 0.26 0.26 0.24 0.23 0.24 0.24 0.24 0.24 0.24 0.24 0.26 0.28 0.32 0.37 0.51 0.57 0.54 0.56 0.58 0.62 0.64 0.69 0.69 0.67 0.68 0.67 0.64 0.71 0.74 0.73 0.72 0.71
0.34 0.32 0.29 0.32 0.28 0.32 0.29 0.29 0.28 0.27 0.25 0.24 0.23 0.22 0.22 0.21 0.22 0.22 0.22 0.24 0.26 0.25 0.25 0.27 0.27 0.29 0.36 0.46 0.56 0.53 0.57 0.59 0.64 0.63 0.68 0.68 0.69 0.69 0.68 0.66 0.64 0.65 0.69 0.68
0.30 0.30 0.28 0.28 0.27 0.25 0.25 0.23 0.21 0.20 0.21 0.21 0.21 0.20 0.21 0.20 0.20 0.20 0.23 0.25 0.27 0.27 0.27 0.27 0.26 0.27 0.31 0.35 0.41 0.53 0.53 0.56 0.60 0.62 0.66 0.66 0.66 0.65 0.66 0.66 0.66 0.64 0.64 0.65
0.28 0.26 0.25 0.22 0.21 0.21 0.20 0.20 0.19 0.19 0.21 0.20 0.18 0.17 0.17 0.18 0.19 0.20 0.22 0.22 0.21 0.21 0.25 0.28 0.28 0.30 0.31 0.31 0.35 0.40 0.51 0.55 0.55 0.58 0.59 0.61 0.64 0.62 0.60 0.60 0.61 0.62 0.62 0.62
0.21 0.18 0.19 0.18 0.18 0.19 0.20 0.21 0.20 0.18 0.17 0.15 0.13 0.13 0.14 0.15 0.16 0.17 0.19 0.22 0.23 0.24 0.26 0.28 0.28 0.32 0.34 0.33 0.34 0.36 0.39 0.46 0.54 0.54 0.56 0.56 0.56 0.57 0.57 0.59 0.57 0.59 0.61 0.65
0.22 0.21 0.21 0.21 0.20 0.18 0.16 0.15 0.15 0.15 0.14 0.14 0.14 0.15 0.16 0.16 0.16 0.17 0.20 0.24 0.26 0.26 0.29 0.30 0.31 0.31 0.32 0.37 0.35 0.35 0.37 0.38 0.42 0.48 0.53 0.54 0.55 0.56 0.57 0.57 0.57 0.58 0.60 0.63
0.22 0.21 0.21 0.19 0.17 0.15 0.14 0.14 0.15 0.15 0.16 0.16 0.16 0.16 0.19 0.20 0.21 0.22 0.23 0.23 0.25 0.25 0.29 0.32 0.32 0.33 0.33 0.35 0.37 0.37 0.36 0.37 0.38 0.40 0.45 0.48 0.51 0.53 0.53 0.55 0.55 0.58 0.59 0.59
0.20 0.18 0.16 0.13 0.13 0.13 0.13 0.13 0.14 0.15 0.17 0.18 0.18 0.20 0.21 0.21 0.22 0.22 0.23 0.23 0.26 0.30 0.34 0.34 0.34 0.34 0.35 0.34 0.34 0.36 0.36 0.37 0.37 0.38 0.40 0.43 0.44 0.48 0.51 0.53 0.55 0.56 0.57 0.58
0.14 0.13 0.12 0.13 0.13 0.14 0.14 0.14 0.14 0.14 0.16 0.19 0.19 0.22 0.23 0.22 0.23 0.23 0.23 0.23 0.28 0.33 0.36 0.36 0.36 0.35 0.35 0.34 0.33 0.34 0.36 0.36 0.36 0.37 0.39 0.41 0.42 0.45 0.48 0.51 0.54 0.55 0.56 0.57
0.12 0.12 0.13 0.13 0.14 0.14 0.15 0.16 0.16 0.16 0.17 0.18 0.20 0.24 0.25 0.22 0.23 0.23 0.26 0.27 0.29 0.33 0.35 0.35 0.35 0.35 0.34 0.34 0.34 0.35 0.35 0.34 0.35 0.38 0.39 0.41 0.42 0.43 0.44 0.48 0.52 0.55 0.56 0.57
0.12 0.13 0.14 0.14 0.14 0.16 0.17 0.19 0.19 0.21 0.22 0.22 0.21 0.22 0.26 0.27 0.24 0.22 0.21 0.28 0.31 0.33 0.35 0.35 0.35 0.35 0.35 0.35 0.34 0.33 0.33 0.33 0.34 0.37 0.39 0.41 0.42 0.44 0.45 0.47 0.50 0.53 0.55 0.55
0.13 0.13 0.14 0.17 0.18 0.18 0.17 0.19 0.22 0.23 0.25 0.25 0.24 0.25 0.24 0.27 0.26 0.26 0.27 0.30 0.30 0.32 0.34 0.35 0.34 0.35 0.35 0.34 0.33 0.33 0.33 0.34 0.36 0.37 0.39 0.41 0.42 0.44 0.46 0.47 0.49 0.51 0.53 0.55
0.14 0.15 0.16 0.17 0.18 0.18 0.20 0.23 0.24 0.24 0.25 0.26 0.26 0.27 0.28 0.30 0.27 0.25 0.27 0.29 0.31 0.32 0.33 0.34 0.34 0.34 0.34 0.33 0.33 0.33 0.33 0.34 0.35 0.36 0.37 0.38 0.41 0.43 0.45 0.46 0.48 0.51 0.52 0.54
0.15 0.15 0.17 0.20 0.22 0.24 0.24 0.25 0.24 0.25 0.26 0.26 0.26 0.27 0.28 0.29 0.27 0.26 0.27 0.29 0.31 0.32 0.33 0.33 0.32 0.32 0.32 0.32 0.33 0.33 0.33 0.33 0.34 0.35 0.36 0.38 0.41 0.44 0.45 0.46 0.48 0.50 0.51 0.52
0.16 0.20 0.22 0.23 0.24 0.24 0.25 0.25 0.25 0.25 0.27 0.27 0.26 0.28 0.28 0.27 0.25 0.24 0.26 0.28 0.30 0.33 0.33 0.33 0.33 0.32 0.32 0.32 0.32 0.32 0.32 0.32 0.34 0.35 0.37 0.39 0.42 0.42 0.43 0.44 0.45 0.45 0.45 0.43

GFSNGP_prec_pwat_078.txt.gz
Precipitable_Water
0.31 0.32 0.32 0.30 0.29 0.30 0.27 0.27 0.22 0.25 0.26 0.32 0.37 0.40 0.45 0.47 0.49 0.48 0.50 0.51 0.51 0.51 0.52 0.53 0.54 0.56 0.55 0.53 0.52 0.53 0.55 0.56 0.56 0.60 0.63 0.65 0.65 0.66 0.67 0.67 0.67 0.68 0.67 0.67
0.26 0.30 0.30 0.27 0.30 0.30 0.31 0.30 0.29 0.29 0.28 0.40 0.42 0.47 0.46 0.48 0.49 0.49 0.49 0.50 0.51 0.51 0.51 0.50 0.50 0.51 0.54 0.55 0.55 0.54 0.53 0.55 0.60 0.62 0.64 0.64 0.66 0.67 0.67 0.66 0.66 0.66 0.64 0.63
0.21 0.28 0.26 0.21 0.27 0.30 0.31 0.34 0.33 0.27 0.34 0.42 0.41 0.43 0.46 0.48 0.50 0.49 0.50 0.52 0.52 0.52 0.52 0.52 0.51 0.49 0.47 0.50 0.55 0.56 0.55 0.57 0.61 0.64 0.64 0.66 0.67 0.67 0.67 0.66 0.66 0.66 0.65 0.66
0.22 0.25 0.15 0.26 0.33 0.32 0.32 0.34 0.36 0.37 0.40 0.44 0.46 0.50 0.50 0.51 0.50 0.50 0.51 0.52 0.54 0.55 0.55 0.56 0.56 0.54 0.51 0.50 0.52 0.54 0.54 0.56 0.60 0.65 0.65 0.66 0.67 0.67 0.68 0.68 0.67 0.67 0.66 0.65
0.19 0.19 0.22 0.25 0.29 0.29 0.28 0.28 0.38 0.38 0.40 0.42 0.46 0.49 0.48 0.52 0.53 0.53 0.53 0.53 0.52 0.52 0.52 0.52 0.51 0.51 0.49 0.47 0.47 0.51 0.52 0.54 0.58 0.62 0.65 0.66 0.65 0.66 0.67 0.68 0.67 0.66 0.66 0.64
0.25 0.18 0.15 0.25 0.34 0.39 0.37 0.22 0.37 0.40 0.40 0.40 0.43 0.33 0.39 0.48 0.50 0.49 0.49 0.49 0.48 0.50 0.50 0.51 0.52 0.53 0.50 0.47 0.46 0.47 0.50 0.54 0.58 0.62 0.65 0.65 0.66 0.66 0.68 0.68 0.66 0.66 0.66 0.65
0.21 0.19 0.22 0.29 0.34 0.37 0.19 0.20 0.34 0.36 0.37 0.37 0.35 0.38 0.43 0.46 0.45 0.47 0.47 0.47 0.48 0.49 0.48 0.49 0.50 0.50 0.47 0.47 0.46 0.51 0.53 0.57 0.60 0.63 0.67 0.70 0.70 0.69 0.68 0.67 0.66 0.65 0.65 0.66
0.21 0.17 0.13 0.33 0.32 0.24 0.29 0.35 0.37 0.39 0.40 0.39 0.40 0.41 0.41 0.41 0.41 0.40 0.39 0.40 0.42 0.41 0.43 0.47 0.49 0.49 0.47 0.46 0.50 0.53 0.54 0.55 0.58 0.62 0.66 0.70 0.70 0.70 0.69 0.67 0.65 0.64 0.64 0.64
0.23 0.21 0.32 0.35 0.34 0.38 0.39 0.37 0.39 0.39 0.41 0.41 0.39 0.38 0.37 0.35 0.34 0.34 0.34 0.34 0.36 0.35 0.36 0.39 0.44 0.50 0.46 0.49 0.50 0.52 0.55 0.55 0.58 0.61 0.65 0.68 0.68 0.68 0.67 0.66 0.64 0.63 0.63 0.62
0.27 0.30 0.33 0.36 0.40 0.41 0.42 0.41 0.43 0.43 0.41 0.39 0.34 0.32 0.30 0.30 0.30 0.30 0.30 0.31 0.33 0.33 0.32 0.31 0.34 0.36 0.44 0.52 0.53 0.51 0.52 0.57 0.60 0.61 0.62 0.66 0.68 0.69 0.68 0.65 0.64 0.64 0.62 0.62
0.27 0.32 0.35 0.36 0.39 0.41 0.42 0.41 0.39 0.38 0.36 0.32 0.29 0.26 0.26 0.26 0.26 0.27 0.28 0.28 0.28 0.26 0.26 0.27 0.30 0.32 0.35 0.40 0.49 0.53 0.53 0.56 0.58 0.60 0.64 0.65 0.66 0.66 0.67 0.70 0.69 0.65 0.65 0.65
0.23 0.32 0.32 0.33 0.39 0.41 0.37 0.34 0.33 0.32 0.29 0.29 0.27 0.25 0.25 0.24 0.25 0.25 0.24 0.24 0.23 0.23 0.23 0.23 0.25 0.26 0.29 0.34 0.39 0.42 0.48 0.53 0.58 0.60 0.62 0.63 0.65 0.66 0.71 0.71 0.72 0.72 0.71 0.69
0.31 0.36 0.35 0.36 0.36 0.37 0.34 0.31 0.30 0.29 0.27 0.25 0.25 0.24 0.23 0.21 0.22 0.22 0.23 0.22 0.22 0.21 0.22 0.23 0.24 0.24 0.26 0.28 0.30 0.32 0.37 0.46 0.54 0.58 0.61 0.60 0.60 0.63 0.62 0.69 0.72 0.72 0.72 0.71
0.35 0.33 0.28 0.30 0.28 0.33 0.30 0.28 0.26 0.24 0.23 0.22 0.21 0.22 0.21 0.20 0.21 0.20 0.20 0.21 0.22 0.22 0.22 0.23 0.24 0.24 0.27 0.28 0.28 0.28 0.30 0.37 0.46 0.55 0.57 0.61 0.61 0.63 0.66 0.63 0.63 0.66 0.72 0.73
0.29 0.29 0.27 0.28 0.27 0.24 0.23 0.21 0.19 0.18 0.19 0.20 0.22 0.20 0.18 0.16 0.14 0.13 0.14 0.16 0.19 0.19 0.19 0.20 0.20 0.21 0.27 0.29 0.29 0.28 0.28 0.31 0.38 0.47 0.57 0.59 0.60 0.61 0.64 0.65 0.64 0.65 0.68 0.70
0.30 0.27 0.25 0.23 0.21 0.19 0.19 0.19 0.18 0.18 0.19 0.17 0.15 0.13 0.12 0.12 0.13 0.14 0.15 0.17 0.17 0.17 0.20 0.23 0.23 0.25 0.28 0.28 0.27 0.28 0.30 0.32 0.34 0.38 0.47 0.56 0.56 0.57 0.59 0.62 0.62 0.63 0.63 0.65
0.23 0.20 0.20 0.18 0.17 0.18 0.18 0.19 0.17 0.14 0.13 0.13 0.14 0.14 0.13 0.13 0.14 0.15 0.17 0.20 0.22 0.22 0.23 0.25 0.24 0.28 0.30 0.30 0.29 0.28 0.29 0.31 0.33 0.36 0.39 0.48 0.54 0.53 0.55 0.58 0.59 0.59 0.60 0.63
0.23 0.21 0.20 0.20 0.19 0.17 0.15 0.13 0.12 0.12 0.12 0.14 0.15 0.15 0.14 0.14 0.16 0.19 0.20 0.21 0.22 0.22 0.24 0.26 0.28 0.29 0.32 0.32 0.32 0.32 0.30 0.29 0.32 0.34 0.36 0.40 0.47 0.54 0.53 0.53 0.55 0.58 0.60 0.60
0.22 0.20 0.20 0.19 0.17 0.14 0.12 0.12 0.13 0.14 0.14 0.14 0.14 0.15 0.16 0.17 0.20 0.22 0.22 0.22 0.22 0.21 0.22 0.27 0.30 0.32 0.33 0.34 0.34 0.34 0.32 0.30 0.31 0.34 0.36 0.37 0.39 0.47 0.53 0.53 0.53 0.55 0.56 0.57
0.20 0.20 0.17 0.14 0.13 0.12 0.12 0.14 0.15 0.15 0.15 0.15 0.15 0.15 0.16 0.18 0.23 0.25 0.23 0.22 0.24 0.25 0.26 0.28 0.30 0.32 0.34 0.35 0.35 0.34 0.32 0.30 0.30 0.33 0.35 0.35 0.37 0.37 0.43 0.51 0.52 0.53 0.53 0.55
0.18 0.15 0.13 0.12 0.12 0.13 0.15 0.16 0.16 0.16 0.17 0.18 0.18 0.19 0.20 0.21 0.24 0.28 0.24 0.22 0.25 0.27 0.28 0.30 0.30 0.32 0.35 0.34 0.35 0.33 0.32 0.31 0.31 0.33 0.33 0.34 0.35 0.36 0.38 0.43 0.47 0.50 0.51 0.53
0.14 0.12 0.11 0.12 0.13 0.14 0.16 0.17 0.19 0.19 0.20 0.20 0.21 0.22 0.23 0.23 0.23 0.25 0.28 0.27 0.27 0.28 0.28 0.30 0.31 0.34 0.35 0.35 0.34 0.33 0.32 0.31 0.30 0.32 0.33 0.33 0.35 0.36 0.38 0.40 0.43 0.47 0.50 0.52
0.13 0.12 0.12 0.13 0.14 0.15 0.17 0.18 0.20 0.21 0.22 0.23 0.23 0.24 0.25 0.26 0.26 0.24 0.21 0.29 0.29 0.29 0.28 0.30 0.33 0.34 0.34 0.34 0.33 0.32 0.31 0.30 0.30 0.32 0.35 0.36 0.36 0.37 0.39 0.40 0.42 0.45 0.46 0.49
0.11 0.12 0.12 0.14 0.16 0.16 0.16 0.19 0.23 0.25 0.25 0.26 0.27 0.28 0.28 0.26 0.26 0.29 0.30 0.30 0.29 0.28 0.28 0.32 0.33 0.34 0.34 0.33 0.32 0.31 0.31 0.31 0.31 0.32 0.36 0.38 0.37 0.38 0.39 0.40 0.41 0.44 0.46 0.47
0.13 0.14 0.15 0.16 0.17 0.19 0.22 0.23 0.24 0.24 0.24 0.25 0.26 0.28 0.29 0.30 0.28 0.29 0.30 0.28 0.27 0.26 0.29 0.32 0.33 0.33 0.32 0.31 0.31 0.31 0.31 0.31 0.31 0.32 0.34 0.36 0.36 0.37 0.38 0.40 0.41 0.43 0.45 0.47
0.14 0.15 0.18 0.20 0.20 0.20 0.21 0.22 0.21 0.22 0.23 0.23 0.24 0.26 0.27 0.30 0.31 0.29 0.28 0.27 0.25 0.27 0.29 0.32 0.33 0.32 0.32 0.31 0.31 0.31 0.31 0.31 0.31 0.31 0.33 0.35 0.36 0.36 0.37 0.38 0.40 0.44 0.46 0.47
0.17 0.18 0.18 0.18 0.20 0.20 0.20 0.20 0.20 0.19 0.21 0.21 0.21 0.24 0.26 0.27 0.28 0.28 0.26 0.24 0.24 0.27 0.30 0.33 0.33 0.32 0.32 0.31 0.31 0.31 0.31 0.31 0.31 0.31 0.32 0.34 0.35 0.35 0.35 0.37 0.41 0.44 0.46 0.47

GFSNGP_prec_pwat_081.txt.gz
Precipitable_Water
0.30 0.32 0.32 0.31 0.30 0.30 0.26 0.27 0.22 0.23 0.24 0.32 0.38 0.41 0.45 0.48 0.50 0.49 0.49 0.50 0.52 0.52 0.53 0.54 0.54 0.54 0.54 0.55 0.58 0.59 0.55 0.52 0.53 0.59 0.60 0.61 0.63 0.63 0.64 0.64 0.65 0.66 0.65 0.67
0.26 0.30 0.30 0.27 0.30 0.31 0.31 0.30 0.29 0.29 0.28 0.40 0.44 0.48 0.48 0.49 0.48 0.48 0.49 0.51 0.53 0.54 0.55 0.55 0.54 0.53 0.53 0.52 0.51 0.53 0.54 0.54 0.55 0.56 0.61 0.62 0.63 0.64 0.65 0.65 0.65 0.66 0.64 0.64
0.20 0.26 0.25 0.20 0.26 0.29 0.31 0.34 0.32 0.25 0.33 0.41 0.40 0.44 0.46 0.47 0.49 0.49 0.51 0.53 0.54 0.54 0.55 0.56 0.56 0.56 0.55 0.55 0.54 0.50 0.50 0.53 0.54 0.56 0.58 0.64 0.65 0.65 0.64 0.64 0.65 0.66 0.65 0.65
0.19 0.22 0.13 0.24 0.32 0.31 0.29 0.33 0.37 0.36 0.38 0.42 0.44 0.47 0.48 0.50 0.49 0.50 0.52 0.53 0.54 0.54 0.54 0.54 0.55 0.55 0.55 0.54 0.52 0.50 0.49 0.50 0.54 0.56 0.57 0.62 0.67 0.68 0.68 0.68 0.68 0.68 0.68 0.68
0.17 0.16 0.20 0.24 0.28 0.27 0.25 0.25 0.35 0.35 0.38 0.41 0.45 0.46 0.46 0.51 0.53 0.53 0.53 0.54 0.53 0.52 0.52 0.53 0.52 0.53 0.53 0.53 0.53 0.52 0.51 0.51 0.52 0.55 0.57 0.59 0.64 0.67 0.69 0.69 0.69 0.68 0.70 0.69
0.21 0.15 0.12 0.23 0.32 0.37 0.34 0.20 0.34 0.37 0.36 0.38 0.42 0.33 0.38 0.47 0.48 0.47 0.48 0.48 0.47 0.48 0.48 0.48 0.49 0.50 0.49 0.48 0.49 0.48 0.51 0.53 0.56 0.56 0.58 0.59 0.62 0.68 0.71 0.71 0.71 0.70 0.70 0.70
0.19 0.17 0.20 0.28 0.31 0.34 0.16 0.18 0.32 0.33 0.34 0.34 0.31 0.34 0.39 0.43 0.42 0.43 0.42 0.42 0.42 0.41 0.39 0.42 0.43 0.43 0.43 0.44 0.44 0.48 0.51 0.53 0.56 0.57 0.58 0.62 0.64 0.68 0.71 0.71 0.71 0.70 0.69 0.69
0.18 0.14 0.11 0.31 0.31 0.22 0.27 0.33 0.34 0.36 0.37 0.35 0.37 0.38 0.39 0.39 0.38 0.36 0.35 0.33 0.34 0.32 0.32 0.34 0.34 0.34 0.32 0.34 0.43 0.49 0.50 0.51 0.54 0.58 0.60 0.62 0.63 0.67 0.70 0.71 0.70 0.69 0.68 0.69
0.21 0.19 0.29 0.34 0.33 0.36 0.37 0.35 0.36 0.37 0.38 0.39 0.37 0.36 0.35 0.32 0.30 0.28 0.28 0.28 0.28 0.27 0.27 0.28 0.30 0.30 0.28 0.30 0.33 0.39 0.44 0.50 0.52 0.58 0.61 0.64 0.64 0.65 0.67 0.70 0.69 0.68 0.67 0.66
0.25 0.27 0.30 0.34 0.37 0.38 0.39 0.38 0.39 0.40 0.39 0.38 0.33 0.32 0.29 0.28 0.27 0.26 0.26 0.25 0.27 0.27 0.28 0.26 0.28 0.28 0.27 0.29 0.31 0.32 0.34 0.40 0.49 0.55 0.59 0.63 0.65 0.67 0.65 0.66 0.66 0.66 0.65 0.65
0.26 0.30 0.32 0.35 0.37 0.38 0.39 0.39 0.38 0.37 0.35 0.33 0.31 0.28 0.27 0.25 0.24 0.24 0.24 0.26 0.29 0.28 0.26 0.25 0.26 0.26 0.26 0.27 0.28 0.27 0.28 0.31 0.38 0.46 0.57 0.60 0.62 0.64 0.65 0.69 0.69 0.66 0.67 0.67
0.22 0.31 0.31 0.32 0.37 0.39 0.36 0.34 0.33 0.32 0.29 0.29 0.27 0.24 0.23 0.22 0.23 0.23 0.23 0.25 0.24 0.24 0.24 0.24 0.25 0.24 0.25 0.27 0.27 0.25 0.24 0.25 0.27 0.34 0.44 0.55 0.61 0.60 0.69 0.69 0.70 0.71 0.71 0.69
0.30 0.35 0.34 0.35 0.36 0.37 0.33 0.32 0.31 0.28 0.26 0.23 0.23 0.22 0.21 0.19 0.20 0.22 0.22 0.20 0.18 0.17 0.18 0.19 0.19 0.18 0.20 0.23 0.25 0.26 0.26 0.25 0.25 0.27 0.32 0.41 0.53 0.58 0.57 0.67 0.68 0.70 0.71 0.71
0.35 0.34 0.29 0.31 0.28 0.33 0.31 0.27 0.25 0.23 0.21 0.20 0.20 0.21 0.21 0.20 0.17 0.13 0.12 0.13 0.14 0.14 0.15 0.17 0.18 0.18 0.22 0.23 0.23 0.23 0.24 0.26 0.27 0.27 0.29 0.34 0.42 0.52 0.57 0.59 0.58 0.60 0.70 0.70
0.31 0.31 0.28 0.29 0.28 0.25 0.24 0.21 0.18 0.17 0.18 0.19 0.20 0.19 0.16 0.12 0.11 0.11 0.13 0.14 0.15 0.16 0.18 0.19 0.19 0.20 0.24 0.24 0.24 0.24 0.25 0.25 0.25 0.27 0.30 0.32 0.37 0.45 0.53 0.57 0.59 0.60 0.64 0.67
0.31 0.30 0.27 0.24 0.22 0.20 0.19 0.18 0.18 0.17 0.16 0.14 0.13 0.13 0.13 0.14 0.14 0.13 0.14 0.16 0.17 0.17 0.20 0.21 0.21 0.23 0.25 0.26 0.26 0.26 0.27 0.28 0.28 0.26 0.27 0.30 0.33 0.38 0.46 0.54 0.55 0.57 0.60 0.62
0.27 0.24 0.22 0.20 0.18 0.18 0.18 0.19 0.16 0.13 0.12 0.11 0.12 0.13 0.13 0.13 0.14 0.14 0.14 0.18 0.21 0.21 0.22 0.23 0.22 0.26 0.27 0.28 0.28 0.28 0.29 0.29 0.29 0.28 0.26 0.27 0.32 0.34 0.40 0.48 0.53 0.53 0.58 0.63
0.27 0.23 0.21 0.20 0.18 0.18 0.15 0.13 0.12 0.12 0.12 0.13 0.14 0.14 0.13 0.13 0.12 0.14 0.16 0.19 0.22 0.22 0.24 0.25 0.26 0.27 0.28 0.29 0.29 0.30 0.30 0.31 0.31 0.29 0.28 0.28 0.30 0.34 0.37 0.42 0.49 0.53 0.56 0.60
0.23 0.21 0.20 0.19 0.17 0.14 0.12 0.11 0.12 0.13 0.14 0.15 0.15 0.15 0.16 0.16 0.17 0.18 0.19 0.20 0.23 0.23 0.24 0.27 0.28 0.29 0.29 0.29 0.30 0.31 0.32 0.32 0.31 0.30 0.30 0.29 0.30 0.33 0.36 0.38 0.45 0.51 0.54 0.56
0.22 0.20 0.19 0.16 0.14 0.13 0.12 0.13 0.14 0.14 0.16 0.17 0.18 0.18 0.19 0.19 0.20 0.21 0.23 0.22 0.25 0.28 0.28 0.28 0.30 0.29 0.29 0.29 0.31 0.33 0.32 0.32 0.31 0.31 0.30 0.30 0.30 0.31 0.35 0.37 0.41 0.48 0.52 0.53
0.19 0.17 0.15 0.13 0.12 0.13 0.13 0.14 0.15 0.15 0.17 0.19 0.20 0.21 0.22 0.23 0.24 0.24 0.24 0.23 0.26 0.29 0.33 0.33 0.31 0.30 0.29 0.30 0.32 0.33 0.32 0.31 0.31 0.31 0.30 0.29 0.29 0.30 0.33 0.36 0.38 0.43 0.49 0.53
0.16 0.13 0.12 0.12 0.12 0.12 0.14 0.15 0.17 0.18 0.20 0.21 0.23 0.24 0.24 0.24 0.25 0.25 0.27 0.27 0.28 0.29 0.31 0.31 0.31 0.30 0.30 0.32 0.34 0.33 0.32 0.32 0.31 0.30 0.29 0.29 0.29 0.30 0.33 0.36 0.38 0.41 0.44 0.49
0.13 0.12 0.12 0.12 0.13 0.14 0.16 0.18 0.21 0.22 0.22 0.23 0.23 0.24 0.24 0.25 0.26 0.24 0.23 0.28 0.30 0.31 0.32 0.31 0.30 0.29 0.32 0.33 0.33 0.32 0.31 0.30 0.30 0.30 0.30 0.30 0.30 0.32 0.35 0.37 0.39 0.41 0.42 0.46
0.12 0.13 0.13 0.15 0.17 0.17 0.17 0.19 0.20 0.21 0.21 0.22 0.23 0.24 0.24 0.23 0.24 0.27 0.29 0.30 0.30 0.31 0.30 0.28 0.28 0.31 0.33 0.32 0.31 0.30 0.30 0.30 0.30 0.30 0.30 0.31 0.32 0.34 0.36 0.38 0.39 0.41 0.43 0.45
0.13 0.14 0.16 0.17 0.15 0.17 0.18 0.18 0.18 0.19 0.20 0.20 0.21 0.22 0.23 0.24 0.24 0.25 0.28 0.29 0.29 0.28 0.26 0.27 0.30 0.33 0.32 0.31 0.30 0.30 0.29 0.30 0.30 0.30 0.30 0.30 0.31 0.34 0.36 0.37 0.39 0.40 0.41 0.43
0.15 0.16 0.16 0.17 0.17 0.18 0.18 0.18 0.17 0.18 0.17 0.17 0.18 0.20 0.22 0.25 0.25 0.26 0.27 0.28 0.26 0.25 0.25 0.29 0.32 0.32 0.31 0.31 0.30 0.30 0.29 0.30 0.30 0.29 0.30 0.30 0.32 0.34 0.35 0.36 0.38 0.39 0.40 0.41
0.16 0.17 0.16 0.17 0.17 0.17 0.18 0.17 0.16 0.16 0.17 0.17 0.18 0.21 0.23 0.24 0.25 0.25 0.26 0.25 0.24 0.26 0.29 0.32 0.32 0.32 0.31 0.30 0.30 0.30 0.30 0.30 0.30 0.30 0.30 0.30 0.32 0.34 0.34 0.35 0.36 0.38 0.39 0.40

GFSNGP_prec_pwat_084.txt.gz
Precipitable_Water
0.30 0.31 0.33 0.31 0.30 0.30 0.26 0.26 0.21 0.24 0.26 0.34 0.39 0.42 0.46 0.49 0.48 0.47 0.47 0.48 0.50 0.50 0.52 0.54 0.55 0.56 0.56 0.56 0.55 0.54 0.53 0.54 0.55 0.56 0.58 0.63 0.63 0.63 0.65 0.65 0.66 0.68 0.69 0.71
0.26 0.28 0.29 0.26 0.30 0.30 0.29 0.28 0.27 0.27 0.27 0.38 0.42 0.46 0.46 0.46 0.46 0.45 0.46 0.49 0.51 0.52 0.54 0.55 0.56 0.56 0.57 0.57 0.57 0.57 0.53 0.51 0.54 0.56 0.57 0.59 0.64 0.66 0.66 0.65 0.66 0.66 0.66 0.66
0.20 0.25 0.24 0.20 0.25 0.27 0.29 0.32 0.30 0.24 0.31 0.38 0.38 0.42 0.43 0.44 0.45 0.45 0.48 0.50 0.52 0.53 0.54 0.54 0.55 0.55 0.54 0.55 0.56 0.54 0.53 0.53 0.53 0.54 0.56 0.59 0.62 0.67 0.68 0.68 0.68 0.67 0.67 0.68
0.18 0.21 0.13 0.23 0.30 0.31 0.28 0.32 0.35 0.35 0.36 0.39 0.40 0.43 0.44 0.46 0.46 0.47 0.48 0.49 0.51 0.52 0.53 0.54 0.54 0.54 0.55 0.55 0.54 0.53 0.53 0.53 0.54 0.53 0.53 0.56 0.60 0.62 0.68 0.71 0.70 0.70 0.70 0.70
0.16 0.15 0.18 0.22 0.26 0.27 0.25 0.24 0.34 0.33 0.36 0.40 0.42 0.43 0.42 0.47 0.49 0.49 0.50 0.49 0.48 0.49 0.48 0.48 0.48 0.49 0.48 0.48 0.49 0.49 0.49 0.51 0.54 0.55 0.54 0.55 0.56 0.60 0.64 0.69 0.71 0.72 0.73 0.72
0.19 0.14 0.12 0.22 0.30 0.35 0.33 0.18 0.32 0.35 0.35 0.36 0.39 0.31 0.37 0.46 0.47 0.46 0.46 0.45 0.44 0.44 0.43 0.42 0.42 0.40 0.40 0.40 0.41 0.43 0.45 0.47 0.50 0.53 0.53 0.54 0.57 0.59 0.63 0.67 0.71 0.74 0.73 0.75
0.17 0.14 0.19 0.28 0.31 0.33 0.15 0.17 0.31 0.33 0.33 0.33 0.31 0.33 0.38 0.41 0.41 0.42 0.41 0.39 0.39 0.38 0.34 0.34 0.33 0.33 0.30 0.30 0.31 0.35 0.40 0.45 0.48 0.51 0.52 0.54 0.55 0.59 0.61 0.64 0.68 0.70 0.71 0.73
0.17 0.14 0.11 0.30 0.30 0.21 0.27 0.31 0.33 0.34 0.35 0.34 0.36 0.37 0.38 0.38 0.36 0.34 0.33 0.31 0.30 0.28 0.27 0.30 0.29 0.30 0.28 0.28 0.31 0.33 0.34 0.36 0.40 0.47 0.52 0.54 0.56 0.57 0.60 0.62 0.64 0.67 0.69 0.71
0.20 0.19 0.28 0.33 0.32 0.35 0.36 0.33 0.34 0.35 0.37 0.37 0.36 0.35 0.36 0.33 0.31 0.30 0.28 0.27 0.27 0.26 0.25 0.28 0.29 0.29 0.26 0.27 0.28 0.28 0.28 0.28 0.30 0.35 0.42 0.52 0.56 0.57 0.57 0.60 0.61 0.65 0.66 0.68
0.23 0.26 0.29 0.32 0.35 0.37 0.37 0.36 0.38 0.39 0.38 0.37 0.33 0.33 0.30 0.29 0.26 0.25 0.24 0.23 0.24 0.25 0.29 0.28 0.28 0.28 0.27 0.28 0.28 0.27 0.25 0.25 0.26 0.27 0.31 0.40 0.50 0.59 0.59 0.59 0.58 0.62 0.66 0.67
0.24 0.28 0.30 0.33 0.35 0.36 0.37 0.38 0.37 0.37 0.36 0.33 0.31 0.28 0.26 0.24 0.23 0.22 0.23 0.25 0.25 0.25 0.23 0.21 0.23 0.23 0.24 0.24 0.25 0.24 0.24 0.24 0.24 0.24 0.25 0.28 0.37 0.47 0.59 0.62 0.63 0.61 0.63 0.68
0.21 0.29 0.29 0.30 0.34 0.37 0.36 0.35 0.35 0.32 0.30 0.29 0.27 0.23 0.22 0.20 0.21 0.21 0.21 0.22 0.21 0.19 0.18 0.18 0.19 0.19 0.20 0.22 0.22 0.22 0.21 0.22 0.24 0.25 0.26 0.25 0.26 0.33 0.48 0.60 0.65 0.67 0.68 0.67
0.29 0.33 0.33 0.35 0.37 0.38 0.34 0.32 0.32 0.29 0.26 0.22 0.20 0.20 0.20 0.20 0.21 0.20 0.17 0.14 0.13 0.12 0.13 0.14 0.15 0.16 0.18 0.20 0.21 0.20 0.19 0.20 0.21 0.23 0.23 0.25 0.25 0.26 0.29 0.44 0.59 0.64 0.68 0.70
0.35 0.35 0.31 0.34 0.30 0.34 0.33 0.30 0.26 0.23 0.21 0.19 0.19 0.21 0.20 0.17 0.14 0.13 0.12 0.12 0.13 0.13 0.13 0.14 0.16 0.17 0.21 0.23 0.23 0.23 0.23 0.23 0.23 0.24 0.24 0.24 0.25 0.27 0.29 0.32 0.39 0.50 0.64 0.67
0.32 0.34 0.30 0.31 0.31 0.28 0.26 0.23 0.19 0.18 0.18 0.18 0.18 0.15 0.13 0.12 0.11 0.12 0.13 0.14 0.15 0.14 0.14 0.17 0.19 0.19 0.23 0.24 0.24 0.24 0.24 0.23 0.24 0.25 0.27 0.26 0.26 0.25 0.28 0.31 0.36 0.42 0.55 0.62
0.30 0.30 0.29 0.27 0.25 0.23 0.20 0.18 0.17 0.17 0.16 0.13 0.11 0.11 0.12 0.13 0.13 0.13 0.14 0.15 0.15 0.14 0.16 0.19 0.20 0.22 0.25 0.26 0.25 0.25 0.25 0.26 0.26 0.26 0.26 0.28 0.26 0.25 0.25 0.28 0.32 0.38 0.45 0.54
0.28 0.26 0.26 0.23 0.21 0.18 0.18 0.19 0.17 0.13 0.12 0.11 0.12 0.13 0.14 0.14 0.15 0.15 0.16 0.17 0.17 0.17 0.19 0.21 0.23 0.25 0.27 0.29 0.28 0.27 0.26 0.26 0.27 0.28 0.28 0.29 0.27 0.26 0.26 0.27 0.29 0.34 0.42 0.52
0.31 0.27 0.23 0.21 0.19 0.18 0.17 0.15 0.13 0.13 0.11 0.13 0.14 0.15 0.15 0.16 0.16 0.18 0.20 0.21 0.21 0.20 0.21 0.23 0.28 0.28 0.29 0.31 0.30 0.28 0.27 0.27 0.27 0.27 0.29 0.30 0.29 0.29 0.28 0.28 0.28 0.32 0.39 0.47
0.27 0.23 0.22 0.20 0.19 0.17 0.14 0.12 0.12 0.13 0.13 0.14 0.15 0.16 0.18 0.19 0.20 0.21 0.23 0.23 0.23 0.22 0.23 0.27 0.30 0.30 0.31 0.32 0.32 0.30 0.29 0.28 0.28 0.29 0.30 0.30 0.29 0.29 0.29 0.29 0.29 0.31 0.37 0.43
0.24 0.23 0.21 0.18 0.17 0.14 0.13 0.13 0.13 0.13 0.15 0.16 0.18 0.18 0.19 0.21 0.22 0.23 0.24 0.23 0.25 0.26 0.28 0.29 0.30 0.32 0.34 0.35 0.33 0.31 0.29 0.29 0.29 0.30 0.30 0.30 0.30 0.30 0.31 0.30 0.28 0.30 0.36 0.42
0.22 0.20 0.17 0.14 0.12 0.13 0.13 0.14 0.15 0.15 0.17 0.20 0.20 0.20 0.21 0.23 0.24 0.24 0.23 0.22 0.25 0.28 0.30 0.31 0.31 0.32 0.32 0.32 0.32 0.30 0.29 0.30 0.30 0.30 0.30 0.30 0.30 0.30 0.30 0.29 0.29 0.31 0.36 0.40
0.19 0.16 0.13 0.13 0.12 0.13 0.15 0.17 0.19 0.19 0.20 0.20 0.20 0.20 0.20 0.20 0.21 0.22 0.24 0.23 0.26 0.29 0.30 0.31 0.32 0.33 0.33 0.32 0.30 0.31 0.31 0.31 0.30 0.30 0.30 0.30 0.29 0.29 0.29 0.29 0.29 0.32 0.37 0.39
0.14 0.13 0.14 0.14 0.14 0.16 0.17 0.18 0.18 0.18 0.18 0.18 0.18 0.18 0.18 0.19 0.21 0.20 0.19 0.24 0.27 0.29 0.30 0.30 0.31 0.30 0.29 0.29 0.31 0.32 0.30 0.29 0.29 0.29 0.29 0.30 0.30 0.30 0.30 0.30 0.31 0.34 0.38 0.39
0.14 0.14 0.14 0.17 0.17 0.16 0.16 0.17 0.18 0.18 0.18 0.18 0.18 0.19 0.19 0.18 0.20 0.23 0.24 0.26 0.27 0.28 0.28 0.28 0.27 0.27 0.29 0.32 0.32 0.30 0.30 0.29 0.29 0.29 0.29 0.30 0.30 0.30 0.31 0.32 0.33 0.37 0.40 0.41
0.14 0.16 0.17 0.16 0.16 0.16 0.17 0.17 0.17 0.16 0.16 0.16 0.17 0.18 0.20 0.22 0.21 0.23 0.25 0.26 0.27 0.26 0.24 0.26 0.28 0.31 0.32 0.31 0.30 0.30 0.29 0.29 0.29 0.29 0.29 0.29 0.29 0.30 0.31 0.32 0.34 0.38 0.40 0.42
0.17 0.16 0.17 0.17 0.17 0.17 0.17 0.17 0.15 0.16 0.16 0.16 0.17 0.19 0.21 0.22 0.23 0.24 0.25 0.24 0.24 0.25 0.28 0.29 0.31 0.31 0.31 0.30 0.30 0.30 0.29 0.29 0.29 0.29 0.28 0.28 0.29 0.30 0.31 0.32 0.36 0.38 0.40 0.43
0.17 0.17 0.17 0.17 0.17 0.18 0.17 0.16 0.16 0.15 0.16 0.17 0.17 0.20 0.20 0.21 0.22 0.22 0.23 0.24 0.26 0.27 0.29 0.31 0.31 0.31 0.30 0.30 0.29 0.29 0.29 0.29 0.29 0.28 0.28 0.28 0.29 0.30 0.31 0.34 0.36 0.38 0.40 0.41

GFSNGP_prec_pwat_087.txt.gz
Precipitable_Water
0.29 0.31 0.32 0.30 0.29 0.28 0.25 0.25 0.20 0.24 0.26 0.33 0.39 0.42 0.45 0.47 0.47 0.47 0.48 0.51 0.52 0.53 0.54 0.55 0.55 0.56 0.58 0.59 0.59 0.59 0.57 0.56 0.55 0.56 0.58 0.59 0.63 0.67 0.69 0.68 0.68 0.70 0.72 0.75
0.24 0.27 0.28 0.24 0.27 0.28 0.28 0.28 0.25 0.26 0.26 0.37 0.41 0.44 0.43 0.44 0.45 0.45 0.46 0.48 0.50 0.52 0.52 0.53 0.53 0.54 0.55 0.56 0.56 0.58 0.57 0.55 0.57 0.56 0.55 0.55 0.57 0.60 0.65 0.67 0.69 0.69 0.67 0.68
0.18 0.24 0.23 0.20 0.23 0.25 0.28 0.30 0.29 0.24 0.29 0.36 0.36 0.39 0.42 0.42 0.43 0.44 0.46 0.47 0.48 0.49 0.51 0.52 0.52 0.53 0.53 0.54 0.55 0.55 0.54 0.56 0.57 0.57 0.55 0.55 0.56 0.58 0.60 0.65 0.69 0.69 0.69 0.69
0.18 0.20 0.13 0.21 0.29 0.29 0.26 0.30 0.32 0.33 0.34 0.36 0.38 0.42 0.42 0.43 0.43 0.43 0.45 0.47 0.49 0.49 0.50 0.50 0.50 0.51 0.50 0.49 0.49 0.48 0.47 0.48 0.50 0.52 0.53 0.55 0.56 0.57 0.58 0.61 0.65 0.68 0.69 0.70
0.16 0.15 0.18 0.20 0.24 0.25 0.23 0.23 0.31 0.31 0.33 0.37 0.39 0.40 0.38 0.43 0.45 0.46 0.46 0.47 0.46 0.47 0.46 0.44 0.43 0.41 0.38 0.37 0.38 0.38 0.39 0.41 0.44 0.47 0.47 0.50 0.51 0.54 0.57 0.58 0.60 0.64 0.69 0.71
0.20 0.15 0.12 0.21 0.28 0.33 0.30 0.17 0.28 0.31 0.32 0.33 0.36 0.27 0.33 0.42 0.44 0.43 0.43 0.42 0.40 0.39 0.38 0.36 0.37 0.34 0.32 0.31 0.30 0.30 0.32 0.33 0.38 0.41 0.44 0.47 0.50 0.51 0.54 0.57 0.58 0.62 0.65 0.71
0.18 0.16 0.19 0.27 0.30 0.32 0.15 0.20 0.28 0.30 0.31 0.31 0.29 0.31 0.36 0.39 0.38 0.39 0.37 0.36 0.35 0.33 0.31 0.31 0.33 0.29 0.28 0.28 0.27 0.30 0.31 0.31 0.32 0.34 0.38 0.42 0.47 0.51 0.54 0.55 0.57 0.58 0.60 0.67
0.17 0.14 0.12 0.29 0.27 0.20 0.26 0.29 0.31 0.31 0.32 0.32 0.34 0.35 0.36 0.36 0.35 0.34 0.32 0.31 0.31 0.28 0.27 0.28 0.29 0.27 0.26 0.25 0.28 0.28 0.28 0.28 0.28 0.29 0.30 0.33 0.38 0.43 0.51 0.55 0.55 0.55 0.57 0.60
0.19 0.20 0.26 0.30 0.30 0.33 0.33 0.31 0.32 0.33 0.35 0.35 0.34 0.34 0.35 0.33 0.31 0.30 0.29 0.27 0.26 0.24 0.25 0.27 0.28 0.26 0.24 0.24 0.26 0.26 0.26 0.26 0.27 0.27 0.26 0.28 0.29 0.34 0.39 0.48 0.55 0.55 0.55 0.57
0.23 0.26 0.26 0.29 0.33 0.35 0.35 0.34 0.36 0.37 0.36 0.36 0.34 0.33 0.31 0.29 0.27 0.25 0.23 0.22 0.23 0.23 0.22 0.21 0.22 0.22 0.22 0.22 0.23 0.22 0.21 0.22 0.23 0.23 0.25 0.25 0.26 0.28 0.31 0.38 0.44 0.54 0.56 0.56
0.24 0.27 0.29 0.30 0.33 0.35 0.36 0.37 0.37 0.38 0.36 0.34 0.33 0.30 0.27 0.24 0.22 0.21 0.21 0.21 0.21 0.20 0.20 0.19 0.19 0.19 0.20 0.20 0.21 0.19 0.19 0.19 0.20 0.21 0.22 0.23 0.26 0.26 0.26 0.29 0.39 0.44 0.55 0.60
0.20 0.30 0.28 0.29 0.34 0.37 0.35 0.35 0.36 0.34 0.32 0.31 0.28 0.24 0.22 0.20 0.20 0.20 0.20 0.19 0.18 0.16 0.14 0.13 0.14 0.14 0.15 0.18 0.19 0.18 0.18 0.19 0.19 0.20 0.20 0.20 0.21 0.23 0.28 0.29 0.30 0.40 0.50 0.60
0.27 0.32 0.32 0.34 0.36 0.38 0.36 0.35 0.34 0.31 0.29 0.24 0.22 0.20 0.19 0.19 0.19 0.18 0.16 0.14 0.13 0.12 0.13 0.13 0.14 0.14 0.16 0.19 0.21 0.21 0.20 0.21 0.22 0.22 0.22 0.21 0.21 0.20 0.19 0.22 0.29 0.30 0.39 0.50
0.34 0.33 0.30 0.33 0.31 0.35 0.34 0.32 0.31 0.26 0.23 0.20 0.19 0.20 0.19 0.16 0.14 0.13 0.12 0.13 0.14 0.14 0.14 0.14 0.15 0.15 0.18 0.21 0.22 0.22 0.23 0.24 0.23 0.23 0.24 0.24 0.24 0.23 0.22 0.21 0.20 0.23 0.30 0.40
0.31 0.34 0.31 0.33 0.33 0.32 0.30 0.26 0.22 0.19 0.18 0.18 0.18 0.16 0.14 0.12 0.11 0.12 0.13 0.15 0.15 0.16 0.16 0.16 0.16 0.17 0.21 0.23 0.23 0.23 0.24 0.25 0.26 0.25 0.25 0.25 0.25 0.26 0.25 0.23 0.23 0.22 0.26 0.31
0.31 0.31 0.30 0.28 0.28 0.26 0.24 0.21 0.18 0.17 0.17 0.16 0.13 0.12 0.12 0.13 0.13 0.14 0.16 0.17 0.17 0.17 0.19 0.19 0.19 0.19 0.22 0.25 0.25 0.26 0.27 0.27 0.27 0.27 0.27 0.26 0.26 0.26 0.25 0.25 0.24 0.24 0.24 0.27
0.28 0.27 0.28 0.27 0.26 0.22 0.20 0.19 0.18 0.16 0.14 0.12 0.12 0.13 0.14 0.14 0.15 0.16 0.18 0.20 0.21 0.21 0.22 0.23 0.23 0.24 0.25 0.26 0.27 0.28 0.29 0.29 0.29 0.28 0.27 0.26 0.26 0.27 0.27 0.26 0.26 0.25 0.25 0.27
0.32 0.32 0.30 0.26 0.22 0.19 0.19 0.18 0.16 0.14 0.13 0.14 0.15 0.15 0.15 0.16 0.17 0.19 0.21 0.23 0.23 0.23 0.25 0.26 0.27 0.28 0.29 0.30 0.31 0.32 0.31 0.31 0.31 0.29 0.27 0.27 0.27 0.28 0.27 0.27 0.27 0.27 0.27 0.28
0.34 0.30 0.26 0.24 0.22 0.19 0.17 0.14 0.13 0.14 0.14 0.15 0.16 0.16 0.19 0.20 0.21 0.22 0.23 0.23 0.22 0.22 0.24 0.27 0.28 0.29 0.30 0.31 0.33 0.33 0.32 0.32 0.32 0.30 0.28 0.28 0.28 0.28 0.27 0.28 0.28 0.29 0.29 0.28
0.31 0.27 0.24 0.22 0.20 0.17 0.14 0.13 0.14 0.14 0.16 0.18 0.19 0.19 0.18 0.20 0.20 0.20 0.21 0.20 0.22 0.24 0.27 0.28 0.29 0.30 0.31 0.32 0.34 0.33 0.32 0.31 0.30 0.29 0.28 0.28 0.28 0.28 0.29 0.29 0.30 0.31 0.29 0.28
0.27 0.24 0.21 0.19 0.15 0.14 0.14 0.15 0.16 0.17 0.18 0.19 0.18 0.17 0.17 0.17 0.19 0.20 0.19 0.19 0.22 0.25 0.27 0.28 0.29 0.30 0.32 0.33 0.33 0.32 0.31 0.30 0.29 0.29 0.29 0.28 0.29 0.29 0.28 0.29 0.29 0.29 0.29 0.29
0.26 0.21 0.18 0.15 0.14 0.14 0.16 0.18 0.18 0.18 0.17 0.17 0.17 0.17 0.16 0.17 0.18 0.19 0.21 0.21 0.24 0.26 0.27 0.28 0.30 0.30 0.31 0.31 0.31 0.29 0.28 0.29 0.31 0.30 0.29 0.28 0.28 0.28 0.28 0.29 0.29 0.29 0.30 0.30
0.22 0.18 0.16 0.15 0.15 0.16 0.17 0.18 0.18 0.17 0.16 0.16 0.16 0.16 0.16 0.17 0.19 0.18 0.18 0.23 0.25 0.26 0.27 0.27 0.27 0.27 0.27 0.28 0.28 0.30 0.31 0.30 0.29 0.28 0.28 0.28 0.28 0.28 0.29 0.30 0.30 0.31 0.31 0.31
0.18 0.17 0.16 0.18 0.18 0.17 0.16 0.17 0.17 0.17 0.17 0.17 0.17 0.17 0.17 0.17 0.19 0.22 0.23 0.24 0.24 0.24 0.25 0.25 0.27 0.29 0.31 0.32 0.32 0.31 0.30 0.29 0.29 0.28 0.28 0.29 0.29 0.29 0.29 0.30 0.30 0.31 0.32 0.33
0.18 0.17 0.19 0.18 0.17 0.16 0.17 0.17 0.17 0.16 0.16 0.16 0.17 0.18 0.19 0.21 0.20 0.21 0.22 0.24 0.25 0.26 0.27 0.29 0.30 0.31 0.31 0.31 0.30 0.30 0.29 0.29 0.29 0.29 0.28 0.28 0.28 0.28 0.29 0.29 0.30 0.31 0.33 0.34
0.19 0.19 0.19 0.18 0.17 0.17 0.17 0.17 0.15 0.16 0.16 0.16 0.16 0.17 0.19 0.21 0.22 0.23 0.24 0.25 0.25 0.27 0.28 0.30 0.31 0.31 0.31 0.30 0.30 0.29 0.29 0.29 0.28 0.28 0.28 0.28 0.28 0.27 0.28 0.29 0.30 0.32 0.34 0.37
0.20 0.20 0.19 0.17 0.17 0.18 0.18 0.17 0.15 0.15 0.16 0.16 0.15 0.18 0.20 0.21 0.21 0.22 0.23 0.23 0.24 0.27 0.29 0.30 0.31 0.31 0.30 0.30 0.29 0.29 0.29 0.28 0.28 0.28 0.27 0.27 0.27 0.28 0.28 0.30 0.31 0.34 0.37 0.38

GFSNGP_prec_pwat_090.txt.gz
Precipitable_Water
0.29 0.30 0.31 0.27 0.27 0.27 0.23 0.25 0.21 0.28 0.29 0.35 0.39 0.41 0.43 0.45 0.47 0.48 0.49 0.52 0.53 0.54 0.56 0.58 0.58 0.59 0.59 0.59 0.59 0.59 0.58 0.57 0.57 0.57 0.57 0.57 0.58 0.60 0.64 0.67 0.67 0.70 0.71 0.75
0.23 0.26 0.27 0.22 0.24 0.26 0.26 0.27 0.27 0.30 0.30 0.41 0.43 0.45 0.43 0.43 0.44 0.44 0.46 0.48 0.50 0.52 0.53 0.53 0.54 0.54 0.55 0.55 0.55 0.56 0.55 0.54 0.55 0.55 0.55 0.55 0.55 0.56 0.58 0.62 0.65 0.68 0.68 0.71
0.16 0.22 0.22 0.19 0.21 0.24 0.26 0.28 0.29 0.25 0.32 0.39 0.40 0.41 0.42 0.42 0.43 0.44 0.45 0.47 0.48 0.49 0.49 0.50 0.51 0.52 0.51 0.50 0.52 0.50 0.49 0.48 0.49 0.50 0.50 0.52 0.54 0.55 0.55 0.57 0.62 0.63 0.66 0.69
0.15 0.19 0.13 0.21 0.27 0.28 0.25 0.28 0.32 0.33 0.34 0.37 0.39 0.44 0.45 0.46 0.44 0.44 0.46 0.46 0.47 0.47 0.48 0.48 0.48 0.47 0.43 0.41 0.41 0.38 0.37 0.38 0.39 0.40 0.42 0.45 0.47 0.49 0.52 0.55 0.57 0.60 0.63 0.67
0.14 0.15 0.19 0.22 0.25 0.25 0.23 0.24 0.30 0.30 0.33 0.37 0.40 0.42 0.39 0.45 0.47 0.47 0.48 0.49 0.48 0.48 0.45 0.41 0.39 0.38 0.35 0.33 0.34 0.31 0.32 0.32 0.32 0.34 0.33 0.35 0.38 0.43 0.48 0.51 0.53 0.56 0.61 0.63
0.19 0.14 0.11 0.23 0.28 0.32 0.29 0.16 0.30 0.31 0.30 0.31 0.33 0.24 0.30 0.42 0.43 0.42 0.41 0.41 0.39 0.37 0.36 0.35 0.35 0.36 0.31 0.29 0.28 0.27 0.29 0.28 0.29 0.29 0.30 0.31 0.33 0.36 0.41 0.46 0.49 0.53 0.56 0.61
0.17 0.15 0.18 0.27 0.28 0.30 0.13 0.19 0.29 0.30 0.29 0.30 0.27 0.30 0.35 0.38 0.38 0.38 0.36 0.35 0.34 0.33 0.31 0.30 0.30 0.29 0.25 0.24 0.22 0.24 0.25 0.25 0.25 0.26 0.27 0.28 0.28 0.31 0.33 0.38 0.43 0.50 0.53 0.56
0.16 0.13 0.11 0.28 0.25 0.17 0.26 0.29 0.29 0.30 0.31 0.30 0.32 0.34 0.35 0.36 0.34 0.33 0.32 0.31 0.30 0.27 0.25 0.26 0.27 0.26 0.23 0.21 0.23 0.23 0.23 0.22 0.23 0.25 0.27 0.27 0.27 0.28 0.30 0.32 0.33 0.38 0.44 0.53
0.19 0.19 0.28 0.28 0.28 0.32 0.32 0.29 0.30 0.31 0.33 0.33 0.33 0.33 0.34 0.33 0.32 0.30 0.28 0.25 0.24 0.23 0.22 0.22 0.22 0.22 0.19 0.20 0.21 0.22 0.21 0.20 0.20 0.21 0.22 0.23 0.24 0.25 0.27 0.29 0.28 0.30 0.36 0.43
0.21 0.24 0.26 0.28 0.31 0.33 0.34 0.32 0.34 0.35 0.35 0.35 0.32 0.32 0.31 0.30 0.27 0.24 0.22 0.21 0.21 0.20 0.18 0.18 0.19 0.19 0.18 0.18 0.19 0.18 0.16 0.16 0.17 0.17 0.18 0.21 0.23 0.24 0.25 0.26 0.26 0.26 0.29 0.33
0.22 0.25 0.27 0.29 0.31 0.32 0.33 0.35 0.35 0.36 0.35 0.34 0.32 0.30 0.27 0.24 0.22 0.20 0.19 0.19 0.19 0.17 0.16 0.14 0.14 0.13 0.13 0.14 0.16 0.16 0.17 0.17 0.17 0.18 0.18 0.19 0.19 0.20 0.21 0.25 0.28 0.27 0.29 0.30
0.19 0.27 0.27 0.28 0.32 0.34 0.32 0.33 0.35 0.34 0.32 0.32 0.29 0.25 0.22 0.19 0.19 0.18 0.18 0.18 0.15 0.13 0.12 0.12 0.12 0.12 0.13 0.14 0.15 0.16 0.17 0.19 0.20 0.21 0.21 0.21 0.20 0.19 0.23 0.24 0.24 0.26 0.28 0.32
0.27 0.32 0.32 0.33 0.34 0.35 0.34 0.35 0.35 0.32 0.30 0.27 0.23 0.20 0.19 0.17 0.17 0.16 0.15 0.13 0.12 0.12 0.13 0.13 0.13 0.14 0.15 0.16 0.17 0.18 0.19 0.21 0.22 0.23 0.23 0.22 0.22 0.22 0.20 0.22 0.26 0.24 0.25 0.25
0.34 0.34 0.30 0.33 0.31 0.36 0.35 0.34 0.33 0.30 0.26 0.22 0.20 0.19 0.18 0.16 0.14 0.13 0.12 0.13 0.14 0.14 0.15 0.16 0.17 0.17 0.19 0.21 0.20 0.20 0.22 0.24 0.24 0.25 0.24 0.23 0.23 0.23 0.22 0.22 0.21 0.20 0.24 0.26
0.34 0.36 0.34 0.36 0.36 0.34 0.34 0.31 0.26 0.22 0.20 0.19 0.19 0.16 0.14 0.13 0.13 0.13 0.14 0.15 0.16 0.17 0.18 0.19 0.19 0.20 0.22 0.23 0.23 0.24 0.24 0.25 0.26 0.28 0.27 0.26 0.26 0.26 0.26 0.25 0.23 0.23 0.23 0.24
0.32 0.33 0.33 0.32 0.32 0.31 0.29 0.26 0.21 0.19 0.19 0.17 0.15 0.14 0.14 0.14 0.14 0.15 0.17 0.18 0.18 0.19 0.21 0.22 0.22 0.24 0.25 0.26 0.26 0.27 0.27 0.28 0.30 0.30 0.29 0.28 0.28 0.27 0.26 0.26 0.25 0.23 0.23 0.24
0.27 0.27 0.29 0.30 0.31 0.30 0.26 0.23 0.20 0.19 0.17 0.15 0.14 0.15 0.15 0.16 0.17 0.17 0.19 0.21 0.22 0.22 0.23 0.23 0.23 0.26 0.28 0.29 0.28 0.28 0.29 0.30 0.32 0.31 0.30 0.30 0.30 0.28 0.28 0.27 0.26 0.24 0.24 0.26
0.32 0.32 0.34 0.34 0.31 0.27 0.23 0.22 0.20 0.16 0.14 0.14 0.15 0.17 0.18 0.18 0.17 0.18 0.19 0.20 0.20 0.20 0.22 0.23 0.26 0.28 0.28 0.28 0.29 0.31 0.31 0.31 0.32 0.31 0.31 0.30 0.30 0.30 0.29 0.28 0.27 0.25 0.25 0.27
0.31 0.31 0.33 0.32 0.29 0.25 0.22 0.18 0.16 0.15 0.15 0.17 0.18 0.17 0.17 0.17 0.17 0.16 0.17 0.17 0.18 0.18 0.20 0.25 0.26 0.27 0.27 0.29 0.31 0.32 0.31 0.31 0.31 0.30 0.30 0.31 0.30 0.29 0.28 0.27 0.27 0.26 0.27 0.28
0.31 0.32 0.32 0.29 0.27 0.22 0.17 0.16 0.16 0.17 0.18 0.18 0.17 0.16 0.15 0.15 0.16 0.16 0.17 0.16 0.18 0.20 0.23 0.25 0.26 0.27 0.29 0.30 0.31 0.32 0.31 0.31 0.29 0.29 0.30 0.29 0.29 0.28 0.28 0.28 0.28 0.28 0.28 0.28
0.30 0.29 0.28 0.26 0.22 0.19 0.17 0.17 0.18 0.18 0.18 0.17 0.16 0.15 0.15 0.15 0.16 0.17 0.16 0.16 0.19 0.23 0.25 0.25 0.26 0.27 0.28 0.29 0.30 0.29 0.29 0.28 0.28 0.27 0.27 0.28 0.28 0.27 0.27 0.27 0.28 0.27 0.27 0.27
0.27 0.26 0.25 0.22 0.18 0.17 0.18 0.19 0.20 0.19 0.18 0.17 0.16 0.16 0.15 0.15 0.16 0.17 0.19 0.19 0.22 0.24 0.25 0.26 0.26 0.27 0.28 0.29 0.29 0.29 0.29 0.29 0.29 0.30 0.29 0.28 0.27 0.27 0.27 0.27 0.27 0.28 0.29 0.29
0.26 0.25 0.22 0.19 0.17 0.18 0.19 0.20 0.20 0.19 0.17 0.17 0.16 0.16 0.15 0.16 0.17 0.17 0.17 0.22 0.24 0.25 0.26 0.27 0.28 0.30 0.31 0.32 0.31 0.30 0.30 0.30 0.29 0.28 0.28 0.28 0.27 0.27 0.27 0.27 0.28 0.29 0.30 0.31
0.24 0.22 0.21 0.20 0.20 0.19 0.18 0.19 0.19 0.19 0.18 0.17 0.17 0.17 0.16 0.16 0.18 0.21 0.22 0.22 0.23 0.24 0.26 0.28 0.30 0.30 0.31 0.30 0.30 0.29 0.29 0.28 0.28 0.28 0.28 0.28 0.28 0.27 0.27 0.28 0.28 0.29 0.30 0.31
0.22 0.23 0.21 0.20 0.19 0.18 0.18 0.19 0.19 0.18 0.17 0.17 0.17 0.17 0.17 0.19 0.19 0.20 0.21 0.21 0.22 0.24 0.27 0.29 0.30 0.30 0.30 0.30 0.29 0.29 0.28 0.28 0.28 0.28 0.27 0.27 0.27 0.27 0.27 0.27 0.28 0.28 0.29 0.30
0.25 0.22 0.22 0.21 0.20 0.19 0.19 0.19 0.18 0.17 0.17 0.16 0.16 0.16 0.18 0.19 0.20 0.20 0.21 0.22 0.22 0.23 0.27 0.29 0.30 0.30 0.31 0.30 0.29 0.29 0.28 0.28 0.27 0.27 0.27 0.26 0.26 0.26 0.26 0.27 0.27 0.28 0.29 0.30
0.26 0.23 0.21 0.20 0.20 0.19 0.19 0.19 0.18 0.16 0.17 0.17 0.16 0.17 0.18 0.18 0.19 0.19 0.20 0.20 0.22 0.22 0.25 0.29 0.30 0.30 0.31 0.30 0.29 0.29 0.28 0.28 0.27 0.27 0.26 0.26 0.26 0.26 0.26 0.27 0.28 0.30 0.31 0.32

GFSNGP_prec_pwat_093.txt.gz
Precipitable_Water
0.26 0.27 0.28 0.25 0.26 0.26 0.23 0.24 0.20 0.26 0.29 0.34 0.39 0.41 0.45 0.49 0.50 0.51 0.52 0.53 0.54 0.55 0.57 0.59 0.60 0.60 0.60 0.59 0.59 0.59 0.57 0.57 0.56 0.57 0.57 0.57 0.56 0.55 0.56 0.58 0.61 0.66 0.67 0.70
0.21 0.24 0.24 0.22 0.23 0.25 0.26 0.26 0.26 0.27 0.26 0.39 0.43 0.43 0.41 0.42 0.43 0.44 0.46 0.48 0.50 0.51 0.51 0.52 0.51 0.52 0.52 0.51 0.52 0.53 0.50 0.50 0.51 0.50 0.51 0.51 0.52 0.53 0.54 0.54 0.56 0.57 0.59 0.62
0.13 0.20 0.19 0.18 0.20 0.23 0.26 0.30 0.30 0.23 0.29 0.37 0.37 0.38 0.39 0.40 0.41 0.42 0.43 0.45 0.46 0.47 0.47 0.47 0.47 0.48 0.45 0.43 0.44 0.42 0.40 0.40 0.39 0.39 0.38 0.40 0.43 0.44 0.46 0.48 0.51 0.53 0.56 0.58
0.13 0.18 0.10 0.20 0.26 0.27 0.25 0.29 0.33 0.33 0.34 0.37 0.37 0.39 0.41 0.43 0.41 0.41 0.43 0.44 0.45 0.45 0.44 0.43 0.42 0.40 0.38 0.35 0.34 0.32 0.32 0.31 0.30 0.29 0.29 0.31 0.34 0.35 0.37 0.41 0.44 0.47 0.49 0.54
0.14 0.13 0.18 0.23 0.25 0.24 0.23 0.23 0.31 0.31 0.35 0.38 0.40 0.41 0.39 0.43 0.43 0.43 0.44 0.44 0.42 0.41 0.38 0.36 0.34 0.36 0.34 0.30 0.29 0.27 0.25 0.25 0.25 0.25 0.24 0.24 0.24 0.26 0.29 0.32 0.36 0.40 0.46 0.48
0.18 0.12 0.09 0.22 0.27 0.31 0.28 0.15 0.30 0.30 0.31 0.32 0.34 0.24 0.31 0.41 0.43 0.42 0.41 0.40 0.37 0.36 0.34 0.33 0.32 0.31 0.28 0.25 0.23 0.21 0.22 0.22 0.23 0.23 0.22 0.22 0.23 0.22 0.24 0.27 0.29 0.31 0.37 0.45
0.16 0.15 0.16 0.27 0.29 0.31 0.14 0.18 0.29 0.30 0.30 0.30 0.27 0.31 0.35 0.38 0.37 0.39 0.37 0.35 0.35 0.32 0.29 0.27 0.27 0.25 0.22 0.22 0.21 0.23 0.24 0.24 0.23 0.23 0.23 0.24 0.26 0.26 0.26 0.25 0.28 0.28 0.30 0.37
0.17 0.14 0.10 0.28 0.26 0.18 0.25 0.28 0.30 0.30 0.31 0.31 0.33 0.34 0.35 0.36 0.36 0.34 0.32 0.31 0.29 0.26 0.24 0.24 0.24 0.23 0.20 0.19 0.20 0.20 0.20 0.20 0.20 0.20 0.21 0.22 0.22 0.22 0.24 0.25 0.25 0.26 0.26 0.28
0.19 0.16 0.27 0.30 0.26 0.30 0.31 0.28 0.30 0.31 0.33 0.34 0.33 0.33 0.34 0.34 0.33 0.31 0.28 0.25 0.24 0.22 0.21 0.21 0.21 0.21 0.19 0.18 0.18 0.18 0.18 0.16 0.15 0.15 0.16 0.18 0.18 0.19 0.20 0.22 0.22 0.23 0.25 0.25
0.20 0.21 0.24 0.28 0.31 0.32 0.33 0.32 0.35 0.36 0.36 0.36 0.34 0.34 0.33 0.31 0.28 0.25 0.22 0.20 0.21 0.20 0.18 0.16 0.16 0.16 0.15 0.14 0.15 0.15 0.14 0.15 0.16 0.16 0.16 0.18 0.19 0.21 0.20 0.20 0.19 0.20 0.21 0.22
0.22 0.24 0.27 0.29 0.31 0.33 0.34 0.35 0.35 0.36 0.36 0.35 0.34 0.32 0.29 0.26 0.22 0.20 0.20 0.20 0.19 0.17 0.15 0.13 0.14 0.14 0.14 0.15 0.15 0.14 0.15 0.15 0.17 0.19 0.20 0.20 0.22 0.22 0.22 0.23 0.24 0.22 0.21 0.21
0.19 0.26 0.26 0.28 0.34 0.37 0.34 0.34 0.35 0.35 0.34 0.35 0.31 0.27 0.24 0.21 0.20 0.19 0.17 0.16 0.15 0.14 0.14 0.14 0.15 0.15 0.16 0.17 0.18 0.18 0.18 0.18 0.18 0.20 0.22 0.23 0.23 0.22 0.25 0.25 0.26 0.27 0.27 0.25
0.26 0.32 0.34 0.35 0.37 0.38 0.35 0.36 0.37 0.35 0.33 0.30 0.27 0.23 0.20 0.19 0.17 0.15 0.14 0.14 0.14 0.15 0.16 0.17 0.17 0.17 0.19 0.20 0.21 0.20 0.20 0.20 0.21 0.23 0.24 0.24 0.24 0.22 0.19 0.21 0.25 0.25 0.27 0.27
0.36 0.35 0.32 0.35 0.34 0.38 0.38 0.38 0.37 0.35 0.30 0.26 0.23 0.22 0.19 0.16 0.15 0.15 0.15 0.16 0.17 0.17 0.18 0.18 0.18 0.19 0.21 0.22 0.22 0.22 0.22 0.23 0.25 0.27 0.26 0.27 0.26 0.25 0.24 0.22 0.20 0.21 0.25 0.26
0.36 0.37 0.37 0.38 0.39 0.38 0.37 0.35 0.31 0.28 0.26 0.23 0.22 0.18 0.16 0.15 0.15 0.16 0.18 0.19 0.19 0.18 0.18 0.19 0.19 0.19 0.22 0.23 0.24 0.24 0.24 0.25 0.26 0.28 0.28 0.28 0.29 0.28 0.27 0.26 0.25 0.24 0.25 0.26
0.33 0.35 0.35 0.34 0.34 0.34 0.32 0.32 0.30 0.26 0.24 0.21 0.17 0.16 0.16 0.17 0.18 0.19 0.19 0.19 0.17 0.16 0.18 0.18 0.18 0.21 0.23 0.25 0.25 0.25 0.25 0.26 0.28 0.29 0.29 0.31 0.31 0.29 0.28 0.28 0.27 0.27 0.25 0.25
0.28 0.26 0.28 0.29 0.30 0.30 0.31 0.32 0.29 0.25 0.21 0.17 0.16 0.17 0.19 0.20 0.18 0.17 0.17 0.17 0.17 0.17 0.18 0.19 0.20 0.23 0.25 0.26 0.25 0.26 0.27 0.28 0.29 0.30 0.30 0.31 0.30 0.29 0.29 0.29 0.29 0.28 0.27 0.28
0.33 0.32 0.32 0.31 0.30 0.31 0.31 0.29 0.26 0.21 0.17 0.17 0.19 0.19 0.19 0.18 0.16 0.16 0.16 0.17 0.17 0.17 0.19 0.21 0.23 0.25 0.25 0.26 0.27 0.28 0.28 0.29 0.29 0.29 0.29 0.30 0.30 0.29 0.29 0.29 0.29 0.28 0.28 0.28
0.34 0.32 0.32 0.31 0.31 0.30 0.28 0.25 0.20 0.19 0.19 0.20 0.19 0.18 0.18 0.18 0.17 0.16 0.17 0.16 0.16 0.16 0.18 0.22 0.24 0.25 0.25 0.27 0.27 0.28 0.28 0.28 0.28 0.29 0.29 0.29 0.28 0.29 0.29 0.29 0.28 0.28 0.28 0.27
0.30 0.30 0.31 0.30 0.30 0.27 0.23 0.20 0.19 0.20 0.20 0.19 0.19 0.18 0.17 0.17 0.17 0.16 0.17 0.17 0.18 0.20 0.22 0.24 0.25 0.25 0.26 0.27 0.28 0.28 0.28 0.27 0.26 0.26 0.27 0.28 0.27 0.27 0.28 0.28 0.28 0.27 0.28 0.28
0.29 0.29 0.29 0.27 0.26 0.23 0.20 0.20 0.21 0.20 0.20 0.20 0.18 0.17 0.17 0.17 0.17 0.17 0.17 0.16 0.19 0.21 0.22 0.23 0.25 0.26 0.27 0.29 0.30 0.30 0.29 0.29 0.28 0.28 0.28 0.28 0.28 0.28 0.27 0.27 0.26 0.27 0.26 0.27
0.28 0.26 0.26 0.25 0.21 0.19 0.20 0.22 0.22 0.21 0.20 0.19 0.19 0.19 0.18 0.17 0.17 0.18 0.19 0.18 0.20 0.22 0.22 0.23 0.26 0.28 0.29 0.30 0.29 0.28 0.28 0.28 0.28 0.28 0.27 0.27 0.27 0.26 0.26 0.26 0.26 0.26 0.27 0.27
0.27 0.26 0.25 0.21 0.19 0.20 0.24 0.23 0.22 0.21 0.20 0.19 0.19 0.18 0.18 0.17 0.17 0.16 0.15 0.20 0.22 0.22 0.22 0.24 0.28 0.29 0.29 0.30 0.29 0.28 0.28 0.27 0.27 0.27 0.27 0.27 0.27 0.26 0.26 0.26 0.26 0.26 0.27 0.28
0.27 0.25 0.22 0.21 0.23 0.25 0.22 0.22 0.22 0.21 0.20 0.20 0.20 0.19 0.18 0.16 0.18 0.20 0.20 0.21 0.21 0.22 0.22 0.24 0.29 0.29 0.30 0.29 0.29 0.28 0.27 0.27 0.27 0.27 0.27 0.26 0.26 0.26 0.26 0.26 0.26 0.27 0.27 0.28
0.27 0.22 0.20 0.23 0.25 0.25 0.23 0.22 0.21 0.20 0.19 0.19 0.20 0.19 0.19 0.19 0.18 0.18 0.19 0.19 0.20 0.20 0.21 0.23 0.28 0.29 0.29 0.29 0.29 0.28 0.27 0.27 0.26 0.26 0.26 0.25 0.25 0.25 0.25 0.25 0.26 0.26 0.27 0.28
0.23 0.19 0.22 0.26 0.27 0.25 0.23 0.22 0.20 0.20 0.19 0.18 0.19 0.19 0.20 0.20 0.19 0.19 0.19 0.19 0.19 0.19 0.19 0.22 0.25 0.29 0.29 0.29 0.29 0.28 0.27 0.27 0.26 0.26 0.26 0.25 0.25 0.25 0.25 0.25 0.26 0.26 0.27 0.28
0.21 0.21 0.26 0.27 0.27 0.24 0.23 0.21 0.21 0.19 0.19 0.19 0.18 0.19 0.20 0.18 0.18 0.18 0.18 0.17 0.18 0.18 0.18 0.20 0.24 0.27 0.29 0.29 0.28 0.28 0.28 0.27 0.27 0.26 0.26 0.25 0.25 0.25 0.26 0.27 0.27 0.28 0.29 0.29

GFSNGP_prec_pwat_096.txt.gz
Precipitable_Water
0.24 0.25 0.25 0.24 0.21 0.24 0.22 0.24 0.20 0.25 0.27 0.34 0.39 0.42 0.46 0.50 0.51 0.51 0.51 0.53 0.54 0.55 0.57 0.58 0.57 0.58 0.57 0.57 0.57 0.57 0.54 0.53 0.51 0.52 0.53 0.53 0.53 0.54 0.56 0.56 0.57 0.59 0.60 0.62
0.18 0.22 0.22 0.21 0.22 0.23 0.24 0.25 0.25 0.26 0.25 0.38 0.41 0.42 0.40 0.41 0.43 0.43 0.45 0.46 0.47 0.48 0.48 0.47 0.48 0.48 0.47 0.45 0.45 0.45 0.42 0.41 0.40 0.38 0.38 0.38 0.40 0.42 0.43 0.45 0.49 0.51 0.53 0.55
0.11 0.19 0.19 0.15 0.18 0.22 0.23 0.27 0.27 0.21 0.28 0.35 0.34 0.35 0.37 0.39 0.40 0.41 0.42 0.44 0.45 0.45 0.44 0.44 0.43 0.44 0.40 0.38 0.37 0.34 0.32 0.31 0.30 0.28 0.27 0.27 0.28 0.29 0.30 0.32 0.35 0.37 0.43 0.47
0.13 0.16 0.08 0.21 0.26 0.25 0.24 0.27 0.30 0.30 0.33 0.35 0.36 0.38 0.40 0.42 0.42 0.42 0.42 0.42 0.43 0.42 0.40 0.38 0.36 0.35 0.34 0.33 0.30 0.27 0.25 0.25 0.24 0.23 0.22 0.22 0.22 0.22 0.23 0.25 0.26 0.28 0.29 0.34
0.13 0.12 0.14 0.19 0.24 0.22 0.21 0.20 0.28 0.28 0.32 0.34 0.37 0.38 0.36 0.42 0.42 0.41 0.42 0.42 0.39 0.38 0.35 0.33 0.32 0.32 0.29 0.26 0.24 0.23 0.21 0.21 0.22 0.21 0.20 0.19 0.19 0.20 0.21 0.21 0.22 0.23 0.28 0.28
0.17 0.12 0.08 0.19 0.26 0.29 0.28 0.14 0.27 0.29 0.28 0.30 0.32 0.22 0.27 0.38 0.40 0.40 0.39 0.38 0.35 0.33 0.32 0.30 0.28 0.27 0.24 0.22 0.21 0.20 0.20 0.20 0.21 0.20 0.20 0.19 0.19 0.20 0.22 0.22 0.22 0.24 0.26 0.27
0.16 0.15 0.15 0.24 0.29 0.30 0.14 0.14 0.29 0.30 0.29 0.29 0.25 0.29 0.34 0.37 0.38 0.38 0.37 0.35 0.34 0.33 0.30 0.27 0.26 0.24 0.21 0.20 0.18 0.20 0.21 0.20 0.20 0.21 0.22 0.21 0.21 0.22 0.22 0.22 0.22 0.22 0.22 0.24
0.17 0.15 0.10 0.29 0.27 0.18 0.21 0.28 0.28 0.29 0.30 0.30 0.33 0.34 0.35 0.36 0.36 0.36 0.33 0.32 0.30 0.25 0.22 0.22 0.21 0.19 0.17 0.15 0.17 0.16 0.15 0.14 0.14 0.15 0.16 0.17 0.17 0.16 0.17 0.18 0.18 0.18 0.19 0.20
0.18 0.16 0.25 0.30 0.27 0.30 0.30 0.27 0.29 0.30 0.32 0.34 0.33 0.34 0.35 0.35 0.35 0.32 0.30 0.26 0.24 0.21 0.20 0.20 0.20 0.18 0.16 0.15 0.17 0.15 0.15 0.15 0.14 0.13 0.13 0.15 0.17 0.17 0.17 0.19 0.18 0.17 0.17 0.17
0.22 0.21 0.23 0.27 0.31 0.33 0.34 0.32 0.34 0.35 0.35 0.36 0.34 0.35 0.35 0.34 0.32 0.28 0.25 0.22 0.21 0.20 0.18 0.17 0.17 0.16 0.16 0.17 0.17 0.17 0.16 0.16 0.16 0.16 0.16 0.17 0.19 0.21 0.21 0.20 0.20 0.19 0.19 0.18
0.23 0.26 0.28 0.29 0.30 0.34 0.35 0.37 0.37 0.38 0.37 0.37 0.36 0.35 0.34 0.30 0.25 0.22 0.21 0.20 0.19 0.17 0.16 0.16 0.17 0.17 0.18 0.18 0.18 0.18 0.18 0.17 0.17 0.18 0.18 0.18 0.19 0.22 0.25 0.26 0.27 0.23 0.22 0.23
0.20 0.27 0.28 0.28 0.34 0.37 0.37 0.38 0.38 0.36 0.36 0.37 0.36 0.33 0.30 0.25 0.23 0.21 0.18 0.17 0.16 0.17 0.17 0.18 0.19 0.19 0.19 0.20 0.20 0.19 0.18 0.18 0.19 0.19 0.20 0.22 0.22 0.24 0.28 0.29 0.28 0.28 0.27 0.26
0.28 0.33 0.33 0.34 0.38 0.40 0.39 0.40 0.41 0.40 0.39 0.36 0.34 0.30 0.27 0.24 0.21 0.18 0.17 0.17 0.19 0.20 0.20 0.20 0.20 0.19 0.20 0.21 0.20 0.20 0.19 0.20 0.21 0.22 0.22 0.23 0.25 0.26 0.24 0.26 0.29 0.28 0.28 0.28
0.35 0.36 0.34 0.36 0.34 0.40 0.41 0.41 0.42 0.40 0.37 0.32 0.31 0.30 0.26 0.20 0.17 0.17 0.18 0.20 0.22 0.22 0.20 0.20 0.19 0.18 0.20 0.21 0.21 0.22 0.22 0.23 0.23 0.24 0.25 0.25 0.26 0.27 0.27 0.26 0.25 0.25 0.29 0.29
0.32 0.35 0.36 0.39 0.40 0.40 0.41 0.40 0.35 0.30 0.30 0.31 0.31 0.26 0.21 0.17 0.17 0.19 0.21 0.22 0.21 0.20 0.19 0.18 0.18 0.19 0.22 0.23 0.23 0.23 0.23 0.24 0.26 0.26 0.27 0.28 0.29 0.29 0.29 0.28 0.27 0.27 0.27 0.28
0.33 0.34 0.35 0.36 0.36 0.38 0.36 0.33 0.28 0.28 0.31 0.30 0.25 0.20 0.19 0.21 0.21 0.21 0.20 0.20 0.18 0.18 0.19 0.19 0.19 0.21 0.23 0.24 0.23 0.23 0.24 0.26 0.26 0.27 0.27 0.28 0.29 0.29 0.30 0.29 0.28 0.27 0.27 0.28
0.31 0.29 0.30 0.30 0.31 0.31 0.30 0.29 0.28 0.29 0.28 0.22 0.20 0.21 0.22 0.21 0.20 0.19 0.19 0.20 0.20 0.20 0.20 0.20 0.20 0.22 0.24 0.24 0.23 0.25 0.25 0.25 0.26 0.26 0.26 0.28 0.29 0.28 0.29 0.28 0.27 0.27 0.28 0.29
0.38 0.37 0.34 0.32 0.31 0.30 0.29 0.29 0.28 0.25 0.20 0.19 0.22 0.23 0.21 0.19 0.18 0.18 0.19 0.20 0.20 0.20 0.20 0.21 0.22 0.23 0.23 0.24 0.25 0.26 0.25 0.26 0.26 0.25 0.26 0.26 0.27 0.29 0.28 0.27 0.27 0.27 0.28 0.29
0.39 0.37 0.36 0.35 0.33 0.30 0.28 0.25 0.23 0.19 0.18 0.21 0.22 0.21 0.21 0.20 0.19 0.19 0.20 0.20 0.19 0.18 0.18 0.21 0.21 0.22 0.23 0.25 0.27 0.27 0.27 0.27 0.27 0.27 0.28 0.28 0.27 0.27 0.27 0.27 0.27 0.27 0.28 0.27
0.35 0.35 0.34 0.32 0.30 0.27 0.24 0.21 0.18 0.18 0.21 0.22 0.24 0.22 0.19 0.19 0.20 0.19 0.20 0.19 0.20 0.20 0.22 0.22 0.21 0.22 0.25 0.27 0.28 0.29 0.28 0.27 0.26 0.27 0.27 0.27 0.27 0.27 0.28 0.28 0.28 0.27 0.26 0.26
0.31 0.31 0.30 0.29 0.26 0.24 0.20 0.17 0.18 0.19 0.24 0.27 0.23 0.20 0.20 0.20 0.20 0.19 0.18 0.18 0.20 0.21 0.22 0.22 0.22 0.22 0.27 0.29 0.30 0.27 0.27 0.26 0.26 0.26 0.26 0.26 0.26 0.26 0.26 0.26 0.26 0.26 0.26 0.26
0.29 0.29 0.28 0.26 0.24 0.20 0.18 0.19 0.22 0.27 0.27 0.25 0.22 0.21 0.20 0.19 0.19 0.19 0.20 0.19 0.20 0.21 0.21 0.21 0.21 0.23 0.28 0.30 0.29 0.27 0.27 0.26 0.26 0.26 0.26 0.26 0.25 0.25 0.25 0.26 0.25 0.25 0.25 0.26
0.29 0.29 0.27 0.25 0.22 0.18 0.19 0.24 0.27 0.27 0.26 0.23 0.21 0.20 0.19 0.20 0.19 0.17 0.16 0.20 0.21 0.20 0.21 0.20 0.21 0.23 0.27 0.29 0.28 0.27 0.27 0.26 0.26 0.25 0.25 0.25 0.25 0.24 0.25 0.25 0.25 0.25 0.25 0.25
0.27 0.27 0.27 0.26 0.21 0.18 0.21 0.29 0.28 0.27 0.26 0.23 0.22 0.21 0.20 0.19 0.20 0.20 0.20 0.20 0.20 0.20 0.20 0.19 0.20 0.23 0.27 0.28 0.28 0.27 0.27 0.27 0.26 0.26 0.26 0.25 0.25 0.24 0.24 0.24 0.24 0.25 0.26 0.26
0.28 0.27 0.26 0.23 0.19 0.19 0.27 0.30 0.27 0.26 0.24 0.22 0.22 0.22 0.22 0.22 0.20 0.19 0.20 0.19 0.19 0.18 0.18 0.18 0.19 0.22 0.26 0.28 0.28 0.27 0.27 0.27 0.26 0.26 0.25 0.25 0.24 0.24 0.24 0.24 0.24 0.25 0.26 0.26
0.27 0.27 0.26 0.21 0.18 0.22 0.28 0.29 0.24 0.24 0.23 0.21 0.22 0.22 0.22 0.22 0.21 0.20 0.19 0.19 0.18 0.18 0.17 0.17 0.18 0.20 0.25 0.27 0.28 0.27 0.27 0.27 0.26 0.26 0.27 0.26 0.26 0.25 0.25 0.25 0.25 0.26 0.26 0.27
0.27 0.27 0.22 0.18 0.20 0.27 0.31 0.29 0.24 0.22 0.24 0.23 0.21 0.21 0.22 0.21 0.20 0.19 0.19 0.18 0.18 0.17 0.17 0.17 0.18 0.20 0.24 0.26 0.27 0.28 0.27 0.27 0.27 0.28 0.28 0.28 0.27 0.27 0.27 0.27 0.27 0.27 0.27 0.28

GFSNGP_prec_pwat_099.txt.gz
Precipitable_Water
0.20 0.22 0.22 0.21 0.21 0.21 0.21 0.23 0.19 0.23 0.25 0.32 0.38 0.42 0.47 0.50 0.51 0.50 0.50 0.52 0.54 0.56 0.57 0.56 0.57 0.57 0.56 0.56 0.56 0.53 0.51 0.48 0.45 0.43 0.42 0.41 0.40 0.41 0.43 0.43 0.46 0.49 0.53 0.57
0.14 0.19 0.21 0.17 0.20 0.21 0.23 0.23 0.24 0.25 0.23 0.36 0.40 0.41 0.40 0.41 0.42 0.42 0.44 0.46 0.47 0.48 0.48 0.46 0.46 0.46 0.44 0.43 0.41 0.40 0.36 0.34 0.33 0.31 0.29 0.29 0.29 0.30 0.30 0.31 0.32 0.34 0.35 0.38
0.10 0.19 0.18 0.13 0.16 0.19 0.21 0.25 0.24 0.18 0.26 0.33 0.33 0.35 0.36 0.38 0.40 0.40 0.42 0.44 0.45 0.45 0.44 0.43 0.41 0.39 0.36 0.34 0.33 0.31 0.28 0.28 0.27 0.26 0.24 0.23 0.23 0.22 0.22 0.23 0.24 0.24 0.25 0.28
0.14 0.15 0.07 0.18 0.24 0.24 0.21 0.24 0.27 0.27 0.30 0.33 0.35 0.37 0.39 0.42 0.41 0.42 0.42 0.42 0.43 0.42 0.39 0.36 0.35 0.34 0.33 0.31 0.27 0.24 0.22 0.21 0.21 0.20 0.19 0.19 0.19 0.19 0.19 0.21 0.21 0.22 0.22 0.25
0.14 0.13 0.13 0.15 0.20 0.21 0.20 0.18 0.27 0.27 0.30 0.33 0.36 0.36 0.36 0.41 0.43 0.42 0.42 0.43 0.41 0.39 0.36 0.34 0.32 0.30 0.27 0.25 0.23 0.21 0.20 0.19 0.19 0.19 0.18 0.19 0.18 0.18 0.19 0.20 0.20 0.20 0.22 0.22
0.17 0.12 0.08 0.15 0.26 0.29 0.26 0.12 0.25 0.29 0.29 0.29 0.32 0.22 0.28 0.38 0.40 0.40 0.41 0.39 0.35 0.34 0.33 0.30 0.27 0.26 0.23 0.20 0.20 0.18 0.18 0.17 0.17 0.17 0.17 0.16 0.16 0.16 0.17 0.18 0.18 0.19 0.19 0.21
0.16 0.16 0.15 0.22 0.28 0.30 0.12 0.12 0.28 0.28 0.28 0.29 0.25 0.29 0.34 0.36 0.37 0.38 0.37 0.34 0.34 0.32 0.28 0.25 0.24 0.22 0.18 0.17 0.15 0.15 0.14 0.13 0.13 0.14 0.14 0.15 0.15 0.15 0.16 0.17 0.17 0.17 0.19 0.19
0.18 0.15 0.10 0.27 0.28 0.18 0.20 0.26 0.26 0.28 0.29 0.29 0.32 0.34 0.35 0.35 0.35 0.35 0.34 0.33 0.32 0.27 0.23 0.22 0.21 0.18 0.16 0.14 0.16 0.17 0.16 0.16 0.15 0.15 0.15 0.15 0.16 0.16 0.16 0.17 0.18 0.17 0.17 0.17
0.18 0.16 0.24 0.29 0.27 0.30 0.31 0.29 0.29 0.29 0.31 0.32 0.31 0.32 0.34 0.35 0.35 0.34 0.33 0.30 0.26 0.22 0.20 0.20 0.19 0.17 0.15 0.16 0.18 0.18 0.17 0.17 0.18 0.18 0.18 0.17 0.16 0.16 0.16 0.17 0.18 0.19 0.20 0.19
0.22 0.21 0.23 0.26 0.31 0.33 0.34 0.32 0.34 0.35 0.35 0.36 0.33 0.35 0.35 0.35 0.34 0.33 0.29 0.25 0.23 0.20 0.17 0.15 0.16 0.18 0.20 0.22 0.23 0.21 0.19 0.19 0.19 0.18 0.18 0.18 0.18 0.18 0.18 0.18 0.20 0.21 0.21 0.21
0.24 0.25 0.28 0.30 0.31 0.33 0.35 0.37 0.38 0.40 0.40 0.38 0.37 0.36 0.36 0.35 0.33 0.29 0.26 0.23 0.20 0.17 0.16 0.17 0.20 0.21 0.22 0.23 0.24 0.21 0.20 0.19 0.18 0.18 0.18 0.19 0.19 0.20 0.21 0.23 0.26 0.25 0.25 0.25
0.20 0.27 0.28 0.27 0.31 0.34 0.35 0.36 0.39 0.39 0.38 0.39 0.39 0.37 0.37 0.33 0.30 0.28 0.25 0.21 0.18 0.18 0.19 0.20 0.21 0.22 0.23 0.24 0.23 0.21 0.20 0.19 0.19 0.20 0.20 0.21 0.21 0.21 0.24 0.28 0.30 0.30 0.30 0.30
0.28 0.33 0.34 0.34 0.36 0.37 0.35 0.38 0.40 0.40 0.39 0.38 0.38 0.36 0.31 0.30 0.30 0.27 0.21 0.20 0.20 0.21 0.21 0.21 0.21 0.21 0.23 0.24 0.24 0.22 0.21 0.20 0.21 0.21 0.21 0.21 0.22 0.22 0.22 0.25 0.29 0.29 0.29 0.31
0.39 0.36 0.32 0.34 0.33 0.39 0.40 0.40 0.41 0.40 0.40 0.38 0.33 0.30 0.29 0.28 0.24 0.20 0.20 0.23 0.23 0.22 0.21 0.21 0.21 0.22 0.25 0.25 0.24 0.22 0.21 0.21 0.22 0.23 0.23 0.23 0.24 0.24 0.25 0.24 0.24 0.25 0.30 0.31
0.36 0.39 0.37 0.37 0.38 0.38 0.41 0.40 0.37 0.36 0.35 0.30 0.28 0.28 0.27 0.20 0.17 0.20 0.24 0.24 0.22 0.21 0.20 0.22 0.23 0.23 0.24 0.24 0.24 0.23 0.22 0.22 0.24 0.24 0.25 0.25 0.25 0.25 0.26 0.26 0.26 0.27 0.29 0.30
0.30 0.36 0.37 0.37 0.38 0.39 0.39 0.38 0.35 0.31 0.27 0.26 0.26 0.24 0.19 0.18 0.20 0.22 0.24 0.23 0.21 0.19 0.21 0.23 0.23 0.23 0.24 0.24 0.23 0.22 0.23 0.24 0.24 0.24 0.25 0.24 0.24 0.24 0.25 0.26 0.26 0.27 0.26 0.26
0.29 0.30 0.34 0.35 0.35 0.37 0.37 0.36 0.32 0.28 0.26 0.25 0.22 0.17 0.17 0.19 0.19 0.20 0.25 0.24 0.22 0.22 0.22 0.23 0.22 0.24 0.24 0.24 0.22 0.23 0.25 0.26 0.26 0.26 0.25 0.26 0.26 0.25 0.26 0.26 0.26 0.26 0.26 0.28
0.34 0.36 0.41 0.38 0.36 0.35 0.35 0.34 0.31 0.28 0.25 0.21 0.16 0.16 0.18 0.18 0.20 0.26 0.23 0.21 0.23 0.22 0.23 0.23 0.24 0.25 0.24 0.22 0.23 0.26 0.27 0.26 0.26 0.25 0.25 0.25 0.25 0.27 0.27 0.27 0.27 0.26 0.27 0.28
0.35 0.36 0.37 0.38 0.38 0.37 0.36 0.32 0.29 0.26 0.21 0.17 0.17 0.18 0.21 0.25 0.25 0.23 0.22 0.21 0.19 0.20 0.21 0.23 0.24 0.24 0.22 0.22 0.25 0.28 0.28 0.26 0.26 0.25 0.25 0.25 0.25 0.26 0.26 0.27 0.27 0.27 0.28 0.27
0.33 0.33 0.34 0.36 0.37 0.34 0.30 0.27 0.23 0.18 0.17 0.18 0.20 0.23 0.25 0.24 0.24 0.22 0.22 0.19 0.21 0.21 0.23 0.23 0.23 0.22 0.22 0.22 0.26 0.29 0.28 0.26 0.25 0.25 0.25 0.25 0.24 0.25 0.25 0.25 0.26 0.26 0.26 0.26
0.30 0.30 0.30 0.30 0.29 0.28 0.25 0.22 0.17 0.15 0.18 0.22 0.26 0.27 0.25 0.25 0.23 0.22 0.20 0.19 0.21 0.22 0.23 0.23 0.22 0.21 0.21 0.23 0.28 0.29 0.27 0.26 0.25 0.25 0.24 0.24 0.24 0.24 0.24 0.24 0.25 0.25 0.25 0.25
0.28 0.28 0.27 0.26 0.26 0.24 0.22 0.17 0.17 0.19 0.23 0.30 0.28 0.25 0.23 0.22 0.22 0.21 0.21 0.20 0.22 0.23 0.22 0.22 0.21 0.21 0.22 0.24 0.28 0.27 0.27 0.26 0.25 0.25 0.24 0.24 0.24 0.23 0.23 0.23 0.23 0.24 0.25 0.25
0.28 0.27 0.26 0.26 0.24 0.22 0.19 0.17 0.19 0.23 0.28 0.29 0.27 0.24 0.23 0.22 0.21 0.20 0.18 0.21 0.22 0.22 0.22 0.21 0.20 0.20 0.21 0.24 0.26 0.27 0.26 0.25 0.25 0.25 0.25 0.25 0.24 0.23 0.23 0.23 0.23 0.24 0.24 0.24
0.28 0.28 0.28 0.27 0.25 0.22 0.17 0.16 0.21 0.26 0.29 0.29 0.27 0.25 0.22 0.22 0.23 0.24 0.22 0.22 0.21 0.21 0.21 0.20 0.19 0.19 0.20 0.23 0.26 0.26 0.26 0.25 0.26 0.26 0.27 0.26 0.26 0.25 0.24 0.23 0.23 0.24 0.24 0.25
0.28 0.29 0.29 0.26 0.24 0.22 0.18 0.17 0.22 0.25 0.26 0.28 0.27 0.24 0.23 0.24 0.23 0.22 0.22 0.21 0.20 0.20 0.20 0.19 0.18 0.17 0.18 0.21 0.24 0.26 0.26 0.26 0.26 0.27 0.27 0.27 0.26 0.25 0.25 0.25 0.24 0.24 0.25 0.25
0.29 0.28 0.28 0.27 0.25 0.22 0.18 0.18 0.20 0.24 0.27 0.27 0.25 0.24 0.24 0.25 0.24 0.23 0.23 0.21 0.20 0.20 0.19 0.18 0.17 0.17 0.18 0.21 0.24 0.25 0.26 0.26 0.26 0.27 0.28 0.27 0.27 0.26 0.26 0.25 0.25 0.25 0.26 0.26
0.31 0.31 0.30 0.28 0.27 0.23 0.18 0.19 0.23 0.24 0.26 0.25 0.25 0.26 0.25 0.24 0.23 0.22 0.21 0.20 0.19 0.19 0.19 0.18 0.17 0.16 0.18 0.21 0.24 0.26 0.27 0.27 0.27 0.27 0.28 0.29 0.29 0.28 0.27 0.28 0.28 0.28 0.29 0.29

GFSNGP_prec_pwat_102.txt.gz
Precipitable_Water
0.20 0.19 0.19 0.17 0.17 0.21 0.20 0.22 0.17 0.19 0.21 0.27 0.33 0.36 0.41 0.46 0.45 0.44 0.45 0.49 0.52 0.53 0.53 0.54 0.56 0.57 0.57 0.55 0.56 0.55 0.52 0.48 0.43 0.42 0.40 0.37 0.36 0.34 0.34 0.34 0.34 0.35 0.36 0.38
0.14 0.18 0.19 0.15 0.18 0.18 0.20 0.22 0.22 0.23 0.21 0.32 0.36 0.38 0.37 0.38 0.39 0.40 0.41 0.43 0.45 0.47 0.46 0.44 0.42 0.41 0.40 0.37 0.35 0.33 0.29 0.27 0.27 0.26 0.25 0.24 0.23 0.22 0.22 0.22 0.24 0.23 0.23 0.24
0.11 0.17 0.17 0.11 0.14 0.15 0.18 0.23 0.23 0.18 0.24 0.33 0.32 0.34 0.36 0.36 0.38 0.39 0.41 0.42 0.42 0.43 0.42 0.39 0.36 0.35 0.33 0.32 0.30 0.27 0.24 0.23 0.22 0.21 0.20 0.19 0.20 0.19 0.18 0.18 0.19 0.18 0.19 0.20
0.14 0.16 0.07 0.14 0.23 0.22 0.20 0.23 0.26 0.26 0.29 0.32 0.34 0.38 0.39 0.41 0.39 0.39 0.41 0.41 0.41 0.42 0.39 0.35 0.34 0.33 0.32 0.29 0.25 0.22 0.20 0.18 0.18 0.17 0.16 0.16 0.16 0.15 0.14 0.15 0.15 0.16 0.16 0.18
0.14 0.13 0.13 0.14 0.19 0.20 0.19 0.16 0.23 0.24 0.29 0.33 0.36 0.37 0.36 0.41 0.41 0.40 0.41 0.42 0.42 0.40 0.36 0.34 0.33 0.31 0.27 0.22 0.21 0.19 0.17 0.16 0.14 0.14 0.14 0.14 0.13 0.14 0.15 0.15 0.16 0.16 0.16 0.16
0.18 0.13 0.08 0.13 0.24 0.29 0.27 0.12 0.21 0.27 0.29 0.30 0.32 0.22 0.26 0.36 0.39 0.39 0.41 0.41 0.38 0.37 0.35 0.32 0.29 0.26 0.22 0.20 0.18 0.16 0.15 0.15 0.16 0.17 0.16 0.15 0.16 0.16 0.16 0.17 0.16 0.17 0.17 0.18
0.18 0.17 0.15 0.21 0.27 0.30 0.14 0.12 0.25 0.28 0.29 0.29 0.26 0.29 0.34 0.37 0.37 0.40 0.40 0.38 0.37 0.35 0.31 0.28 0.26 0.23 0.19 0.17 0.15 0.16 0.17 0.17 0.17 0.18 0.18 0.18 0.17 0.17 0.17 0.17 0.17 0.17 0.18 0.20
0.19 0.16 0.11 0.25 0.26 0.18 0.20 0.24 0.27 0.28 0.30 0.30 0.32 0.34 0.36 0.37 0.37 0.38 0.36 0.35 0.35 0.32 0.28 0.26 0.24 0.21 0.16 0.14 0.17 0.18 0.19 0.19 0.19 0.20 0.21 0.21 0.21 0.20 0.20 0.20 0.19 0.19 0.19 0.20
0.18 0.16 0.24 0.29 0.28 0.31 0.31 0.29 0.30 0.30 0.32 0.34 0.34 0.34 0.36 0.36 0.37 0.37 0.36 0.35 0.34 0.29 0.25 0.23 0.20 0.17 0.15 0.17 0.19 0.20 0.20 0.20 0.21 0.22 0.22 0.22 0.22 0.21 0.20 0.20 0.19 0.19 0.20 0.22
0.21 0.21 0.24 0.27 0.30 0.33 0.35 0.35 0.36 0.36 0.35 0.35 0.33 0.36 0.37 0.38 0.38 0.37 0.36 0.34 0.31 0.28 0.23 0.18 0.18 0.19 0.21 0.21 0.22 0.21 0.20 0.21 0.23 0.23 0.24 0.24 0.24 0.23 0.22 0.21 0.21 0.21 0.22 0.23
0.24 0.26 0.26 0.27 0.31 0.34 0.36 0.38 0.38 0.40 0.40 0.39 0.39 0.38 0.38 0.37 0.36 0.36 0.33 0.31 0.30 0.25 0.19 0.19 0.22 0.23 0.24 0.24 0.24 0.23 0.24 0.25 0.25 0.24 0.24 0.24 0.23 0.23 0.23 0.23 0.25 0.24 0.26 0.27
0.22 0.27 0.28 0.30 0.32 0.35 0.34 0.35 0.37 0.39 0.40 0.42 0.42 0.39 0.38 0.37 0.36 0.31 0.29 0.29 0.24 0.20 0.20 0.21 0.23 0.24 0.24 0.25 0.26 0.26 0.25 0.25 0.24 0.25 0.24 0.24 0.24 0.22 0.24 0.25 0.26 0.27 0.28 0.29
0.30 0.35 0.34 0.34 0.36 0.38 0.34 0.35 0.38 0.40 0.41 0.40 0.40 0.40 0.39 0.35 0.30 0.29 0.27 0.21 0.18 0.19 0.21 0.22 0.24 0.25 0.26 0.26 0.26 0.25 0.25 0.25 0.25 0.24 0.24 0.24 0.23 0.22 0.20 0.22 0.26 0.26 0.27 0.29
0.35 0.34 0.30 0.33 0.31 0.37 0.40 0.40 0.40 0.40 0.41 0.39 0.37 0.37 0.34 0.28 0.27 0.24 0.18 0.17 0.20 0.19 0.21 0.23 0.25 0.24 0.25 0.26 0.24 0.25 0.24 0.25 0.25 0.24 0.25 0.24 0.23 0.24 0.23 0.21 0.20 0.22 0.26 0.28
0.31 0.31 0.30 0.35 0.37 0.37 0.40 0.40 0.39 0.40 0.40 0.39 0.38 0.33 0.27 0.25 0.21 0.16 0.16 0.18 0.17 0.20 0.22 0.23 0.24 0.24 0.25 0.25 0.25 0.24 0.23 0.24 0.25 0.25 0.25 0.25 0.25 0.24 0.23 0.23 0.23 0.24 0.26 0.27
0.29 0.26 0.27 0.28 0.33 0.35 0.37 0.38 0.38 0.39 0.39 0.38 0.34 0.29 0.27 0.23 0.16 0.16 0.18 0.18 0.20 0.22 0.22 0.23 0.23 0.24 0.25 0.26 0.25 0.23 0.23 0.25 0.27 0.26 0.25 0.24 0.24 0.23 0.23 0.24 0.24 0.24 0.26 0.26
0.23 0.23 0.26 0.28 0.31 0.33 0.35 0.37 0.38 0.37 0.37 0.33 0.29 0.27 0.22 0.15 0.16 0.18 0.20 0.23 0.25 0.23 0.23 0.23 0.22 0.24 0.26 0.26 0.24 0.23 0.23 0.25 0.27 0.26 0.25 0.25 0.25 0.24 0.24 0.24 0.24 0.25 0.26 0.28
0.30 0.31 0.31 0.33 0.32 0.32 0.33 0.35 0.36 0.35 0.30 0.28 0.27 0.22 0.16 0.16 0.18 0.20 0.25 0.27 0.24 0.22 0.23 0.23 0.24 0.25 0.25 0.25 0.24 0.24 0.23 0.27 0.26 0.25 0.25 0.24 0.24 0.25 0.25 0.24 0.25 0.25 0.25 0.27
0.31 0.30 0.33 0.34 0.33 0.33 0.33 0.34 0.34 0.30 0.27 0.23 0.18 0.13 0.15 0.20 0.23 0.28 0.26 0.22 0.21 0.20 0.21 0.24 0.24 0.25 0.24 0.23 0.24 0.24 0.26 0.27 0.26 0.25 0.25 0.25 0.25 0.25 0.24 0.24 0.24 0.24 0.24 0.25
0.32 0.32 0.33 0.33 0.35 0.34 0.33 0.31 0.28 0.25 0.22 0.18 0.15 0.17 0.22 0.27 0.27 0.24 0.23 0.21 0.21 0.21 0.24 0.24 0.24 0.23 0.23 0.22 0.23 0.24 0.27 0.26 0.25 0.25 0.25 0.25 0.25 0.24 0.24 0.23 0.23 0.23 0.23 0.24
0.29 0.30 0.30 0.30 0.31 0.32 0.29 0.27 0.23 0.20 0.16 0.15 0.17 0.21 0.24 0.27 0.28 0.23 0.20 0.19 0.22 0.25 0.23 0.25 0.24 0.23 0.22 0.22 0.22 0.24 0.26 0.25 0.25 0.25 0.25 0.25 0.25 0.24 0.24 0.24 0.23 0.22 0.22 0.23
0.29 0.29 0.28 0.28 0.27 0.26 0.26 0.24 0.21 0.16 0.15 0.16 0.21 0.24 0.27 0.25 0.25 0.23 0.23 0.22 0.24 0.23 0.24 0.23 0.23 0.22 0.22 0.21 0.21 0.22 0.24 0.25 0.25 0.25 0.26 0.26 0.25 0.24 0.24 0.24 0.23 0.22 0.23 0.23
0.30 0.29 0.28 0.27 0.27 0.27 0.26 0.24 0.20 0.16 0.16 0.20 0.22 0.24 0.25 0.25 0.24 0.22 0.20 0.23 0.22 0.24 0.24 0.23 0.22 0.22 0.22 0.20 0.18 0.21 0.24 0.24 0.25 0.26 0.26 0.26 0.25 0.24 0.24 0.23 0.23 0.23 0.23 0.23
0.30 0.31 0.30 0.29 0.28 0.27 0.25 0.24 0.21 0.17 0.18 0.22 0.24 0.24 0.25 0.24 0.24 0.25 0.25 0.24 0.24 0.23 0.22 0.22 0.22 0.22 0.20 0.17 0.17 0.19 0.23 0.25 0.25 0.26 0.27 0.26 0.26 0.26 0.25 0.24 0.24 0.24 0.24 0.24
0.32 0.32 0.32 0.31 0.29 0.28 0.27 0.26 0.22 0.18 0.18 0.21 0.24 0.25 0.27 0.25 0.25 0.26 0.25 0.23 0.23 0.22 0.21 0.21 0.22 0.20 0.18 0.17 0.17 0.20 0.23 0.25 0.26 0.27 0.27 0.27 0.28 0.28 0.28 0.28 0.27 0.26 0.25 0.25
0.34 0.32 0.32 0.33 0.32 0.32 0.30 0.28 0.24 0.19 0.18 0.20 0.23 0.25 0.24 0.26 0.27 0.26 0.25 0.23 0.23 0.22 0.21 0.21 0.20 0.19 0.18 0.17 0.18 0.20 0.24 0.26 0.26 0.27 0.27 0.28 0.29 0.29 0.30 0.31 0.30 0.30 0.29 0.29
0.36 0.34 0.33 0.34 0.34 0.33 0.32 0.29 0.27 0.20 0.20 0.23 0.23 0.24 0.25 0.27 0.26 0.26 0.24 0.23 0.22 0.21 0.21 0.21 0.20 0.19 0.18 0.17 0.18 0.20 0.24 0.26 0.27 0.27 0.27 0.28 0.29 0.31 0.31 0.32 0.33 0.33 0.33 0.33

GFSNGP_prec_pwat_105.txt.gz
Precipitable_Water
0.21 0.21 0.21 0.18 0.17 0.19 0.18 0.20 0.16 0.16 0.18 0.25 0.30 0.34 0.37 0.41 0.43 0.41 0.41 0.42 0.45 0.47 0.47 0.49 0.52 0.55 0.55 0.52 0.52 0.53 0.51 0.47 0.43 0.38 0.36 0.34 0.32 0.30 0.31 0.28 0.28 0.27 0.28 0.27
0.17 0.19 0.19 0.15 0.18 0.19 0.19 0.20 0.20 0.20 0.18 0.29 0.34 0.36 0.37 0.37 0.38 0.37 0.39 0.41 0.42 0.42 0.42 0.39 0.37 0.36 0.36 0.34 0.34 0.32 0.28 0.25 0.24 0.24 0.22 0.21 0.20 0.19 0.18 0.16 0.16 0.16 0.16 0.16
0.13 0.18 0.17 0.11 0.14 0.16 0.17 0.20 0.19 0.16 0.21 0.30 0.31 0.33 0.35 0.36 0.37 0.38 0.39 0.41 0.41 0.42 0.42 0.39 0.35 0.35 0.32 0.31 0.29 0.25 0.22 0.20 0.18 0.17 0.15 0.14 0.14 0.13 0.12 0.13 0.14 0.14 0.14 0.15
0.15 0.15 0.07 0.12 0.21 0.22 0.19 0.21 0.25 0.25 0.27 0.32 0.34 0.37 0.39 0.41 0.39 0.39 0.40 0.41 0.42 0.42 0.41 0.37 0.35 0.34 0.32 0.29 0.25 0.21 0.19 0.16 0.14 0.12 0.12 0.13 0.14 0.14 0.15 0.16 0.15 0.16 0.16 0.17
0.14 0.13 0.13 0.14 0.19 0.19 0.18 0.16 0.23 0.21 0.25 0.31 0.36 0.37 0.36 0.41 0.42 0.40 0.41 0.42 0.43 0.43 0.40 0.36 0.34 0.33 0.30 0.24 0.21 0.18 0.15 0.13 0.14 0.15 0.15 0.16 0.16 0.16 0.17 0.17 0.17 0.17 0.18 0.18
0.19 0.14 0.09 0.13 0.23 0.28 0.26 0.13 0.22 0.24 0.25 0.28 0.32 0.22 0.26 0.38 0.41 0.41 0.42 0.42 0.42 0.41 0.38 0.36 0.35 0.32 0.25 0.21 0.18 0.14 0.14 0.16 0.17 0.18 0.18 0.17 0.18 0.18 0.19 0.20 0.20 0.21 0.20 0.21
0.18 0.17 0.17 0.23 0.28 0.31 0.14 0.13 0.23 0.26 0.27 0.28 0.24 0.28 0.33 0.37 0.37 0.39 0.40 0.41 0.41 0.39 0.37 0.36 0.33 0.27 0.22 0.18 0.15 0.17 0.19 0.20 0.20 0.20 0.20 0.20 0.20 0.21 0.22 0.22 0.22 0.21 0.21 0.22
0.20 0.17 0.11 0.25 0.26 0.19 0.25 0.29 0.30 0.31 0.32 0.30 0.33 0.35 0.36 0.37 0.37 0.39 0.39 0.39 0.39 0.37 0.35 0.33 0.30 0.26 0.19 0.17 0.19 0.21 0.21 0.20 0.20 0.21 0.21 0.22 0.22 0.23 0.23 0.24 0.24 0.24 0.24 0.24
0.20 0.17 0.25 0.29 0.27 0.29 0.30 0.28 0.30 0.32 0.35 0.36 0.36 0.36 0.38 0.38 0.39 0.40 0.40 0.39 0.39 0.37 0.33 0.31 0.29 0.24 0.21 0.23 0.24 0.25 0.26 0.25 0.25 0.25 0.26 0.26 0.25 0.25 0.24 0.25 0.24 0.24 0.24 0.25
0.23 0.25 0.28 0.30 0.32 0.33 0.35 0.33 0.32 0.34 0.36 0.37 0.35 0.38 0.39 0.40 0.41 0.40 0.39 0.38 0.38 0.33 0.29 0.27 0.24 0.23 0.24 0.23 0.23 0.25 0.25 0.25 0.25 0.25 0.25 0.25 0.26 0.26 0.26 0.25 0.25 0.25 0.25 0.25
0.24 0.29 0.31 0.31 0.31 0.33 0.35 0.37 0.37 0.37 0.35 0.35 0.37 0.37 0.38 0.39 0.39 0.39 0.39 0.38 0.33 0.28 0.25 0.21 0.22 0.22 0.22 0.22 0.25 0.25 0.24 0.24 0.25 0.25 0.24 0.25 0.26 0.26 0.27 0.28 0.29 0.28 0.28 0.28
0.22 0.30 0.30 0.27 0.33 0.36 0.35 0.36 0.39 0.37 0.36 0.39 0.39 0.38 0.38 0.37 0.37 0.36 0.35 0.31 0.28 0.25 0.20 0.21 0.20 0.19 0.21 0.26 0.27 0.24 0.22 0.22 0.23 0.24 0.25 0.26 0.26 0.26 0.29 0.29 0.29 0.28 0.29 0.29
0.30 0.35 0.33 0.33 0.35 0.36 0.35 0.36 0.39 0.40 0.40 0.39 0.42 0.43 0.42 0.39 0.36 0.34 0.28 0.25 0.22 0.17 0.18 0.17 0.17 0.19 0.24 0.26 0.24 0.23 0.23 0.22 0.23 0.23 0.25 0.27 0.27 0.26 0.25 0.26 0.27 0.27 0.27 0.27
0.37 0.34 0.30 0.32 0.29 0.30 0.34 0.38 0.41 0.42 0.42 0.42 0.41 0.41 0.40 0.38 0.37 0.31 0.27 0.23 0.18 0.17 0.16 0.18 0.20 0.22 0.24 0.25 0.25 0.25 0.24 0.24 0.23 0.25 0.28 0.28 0.27 0.26 0.25 0.23 0.22 0.22 0.24 0.26
0.33 0.35 0.31 0.31 0.29 0.26 0.28 0.35 0.35 0.36 0.39 0.40 0.41 0.41 0.39 0.37 0.31 0.27 0.23 0.17 0.17 0.17 0.20 0.22 0.24 0.25 0.27 0.25 0.24 0.24 0.23 0.22 0.24 0.26 0.29 0.28 0.26 0.25 0.24 0.23 0.22 0.22 0.23 0.24
0.27 0.28 0.27 0.24 0.24 0.26 0.29 0.32 0.34 0.35 0.38 0.39 0.39 0.38 0.35 0.30 0.26 0.21 0.16 0.17 0.16 0.18 0.26 0.26 0.24 0.24 0.24 0.24 0.24 0.23 0.23 0.24 0.25 0.28 0.28 0.25 0.25 0.25 0.24 0.23 0.23 0.22 0.22 0.22
0.23 0.21 0.24 0.26 0.26 0.29 0.31 0.34 0.36 0.36 0.37 0.37 0.36 0.34 0.29 0.25 0.19 0.14 0.16 0.18 0.24 0.28 0.25 0.23 0.22 0.24 0.24 0.26 0.24 0.23 0.23 0.24 0.26 0.27 0.25 0.25 0.25 0.25 0.25 0.25 0.23 0.22 0.22 0.24
0.26 0.29 0.29 0.29 0.31 0.31 0.31 0.33 0.34 0.36 0.35 0.35 0.32 0.28 0.24 0.18 0.13 0.17 0.24 0.27 0.25 0.24 0.23 0.23 0.23 0.25 0.26 0.25 0.24 0.23 0.23 0.23 0.25 0.26 0.25 0.25 0.25 0.25 0.25 0.24 0.23 0.23 0.22 0.23
0.31 0.31 0.31 0.33 0.34 0.33 0.33 0.34 0.35 0.36 0.35 0.31 0.26 0.22 0.17 0.14 0.18 0.24 0.24 0.25 0.23 0.20 0.21 0.23 0.25 0.24 0.24 0.25 0.23 0.23 0.22 0.22 0.24 0.25 0.25 0.25 0.25 0.26 0.24 0.23 0.23 0.23 0.23 0.22
0.31 0.32 0.33 0.33 0.34 0.34 0.33 0.35 0.35 0.33 0.29 0.27 0.23 0.18 0.14 0.17 0.22 0.26 0.25 0.23 0.23 0.23 0.24 0.24 0.23 0.23 0.23 0.21 0.22 0.23 0.22 0.22 0.23 0.25 0.25 0.25 0.25 0.24 0.24 0.24 0.23 0.22 0.22 0.22
0.30 0.32 0.32 0.32 0.33 0.34 0.35 0.34 0.32 0.28 0.27 0.23 0.18 0.15 0.16 0.20 0.24 0.25 0.23 0.21 0.24 0.24 0.23 0.23 0.24 0.24 0.22 0.22 0.24 0.23 0.20 0.20 0.23 0.24 0.24 0.25 0.25 0.26 0.26 0.25 0.23 0.22 0.22 0.22
0.30 0.31 0.32 0.34 0.34 0.33 0.34 0.32 0.31 0.28 0.25 0.20 0.17 0.18 0.20 0.22 0.22 0.24 0.24 0.23 0.24 0.25 0.24 0.24 0.24 0.23 0.22 0.24 0.22 0.20 0.18 0.20 0.23 0.25 0.25 0.25 0.25 0.26 0.27 0.27 0.25 0.23 0.22 0.23
0.31 0.32 0.33 0.33 0.33 0.33 0.33 0.32 0.30 0.28 0.24 0.20 0.18 0.19 0.21 0.22 0.23 0.22 0.21 0.25 0.26 0.26 0.24 0.24 0.25 0.23 0.23 0.22 0.20 0.17 0.17 0.19 0.22 0.25 0.26 0.26 0.26 0.28 0.28 0.28 0.28 0.26 0.24 0.23
0.33 0.34 0.34 0.34 0.34 0.33 0.32 0.33 0.31 0.30 0.27 0.22 0.19 0.20 0.21 0.22 0.22 0.24 0.24 0.25 0.26 0.25 0.24 0.25 0.24 0.23 0.23 0.20 0.18 0.17 0.17 0.19 0.23 0.25 0.26 0.26 0.27 0.29 0.29 0.29 0.29 0.29 0.27 0.27
0.40 0.39 0.37 0.35 0.33 0.33 0.35 0.36 0.34 0.32 0.29 0.26 0.21 0.21 0.23 0.24 0.23 0.23 0.24 0.25 0.26 0.25 0.23 0.24 0.23 0.22 0.21 0.19 0.18 0.17 0.17 0.20 0.24 0.26 0.26 0.25 0.27 0.29 0.30 0.30 0.31 0.31 0.30 0.29
0.45 0.43 0.41 0.39 0.37 0.35 0.36 0.37 0.35 0.34 0.31 0.28 0.23 0.22 0.24 0.26 0.25 0.24 0.26 0.27 0.27 0.24 0.23 0.23 0.22 0.22 0.20 0.19 0.18 0.17 0.18 0.20 0.25 0.26 0.26 0.26 0.27 0.29 0.30 0.31 0.32 0.33 0.33 0.33
0.49 0.49 0.46 0.42 0.39 0.38 0.37 0.38 0.36 0.34 0.33 0.31 0.26 0.22 0.24 0.25 0.25 0.25 0.27 0.27 0.25 0.22 0.23 0.23 0.22 0.21 0.19 0.18 0.18 0.17 0.18 0.22 0.26 0.27 0.27 0.26 0.27 0.28 0.31 0.32 0.33 0.35 0.35 0.35

GFSNGP_prec_pwat_108.txt.gz
Precipitable_Water
0.19 0.20 0.21 0.19 0.19 0.20 0.19 0.17 0.15 0.14 0.16 0.20 0.27 0.33 0.36 0.39 0.41 0.42 0.42 0.42 0.43 0.44 0.43 0.43 0.42 0.43 0.45 0.45 0.45 0.47 0.47 0.45 0.41 0.38 0.34 0.33 0.30 0.28 0.24 0.23 0.24 0.24 0.22 0.21
0.17 0.20 0.20 0.17 0.19 0.19 0.19 0.19 0.19 0.19 0.16 0.26 0.30 0.34 0.37 0.38 0.40 0.39 0.39 0.40 0.42 0.43 0.42 0.40 0.37 0.35 0.33 0.32 0.32 0.30 0.26 0.25 0.24 0.21 0.21 0.20 0.16 0.16 0.16 0.17 0.18 0.18 0.18 0.18
0.15 0.20 0.19 0.12 0.15 0.17 0.18 0.20 0.19 0.16 0.19 0.27 0.29 0.32 0.35 0.38 0.40 0.39 0.39 0.41 0.42 0.42 0.42 0.42 0.38 0.36 0.33 0.32 0.30 0.26 0.22 0.19 0.17 0.14 0.13 0.13 0.14 0.15 0.15 0.16 0.16 0.16 0.16 0.16
0.18 0.19 0.09 0.13 0.21 0.21 0.20 0.21 0.24 0.23 0.25 0.28 0.31 0.35 0.38 0.40 0.39 0.40 0.40 0.41 0.43 0.43 0.43 0.43 0.40 0.36 0.35 0.33 0.28 0.23 0.20 0.17 0.14 0.14 0.14 0.16 0.16 0.16 0.17 0.17 0.18 0.18 0.18 0.19
0.16 0.14 0.14 0.15 0.21 0.21 0.20 0.17 0.24 0.23 0.25 0.28 0.32 0.33 0.32 0.39 0.41 0.41 0.41 0.43 0.44 0.45 0.45 0.43 0.38 0.37 0.35 0.31 0.26 0.22 0.18 0.15 0.16 0.17 0.17 0.17 0.17 0.18 0.19 0.19 0.19 0.20 0.21 0.21
0.20 0.15 0.11 0.14 0.22 0.28 0.27 0.15 0.22 0.23 0.24 0.24 0.29 0.22 0.26 0.36 0.39 0.40 0.42 0.43 0.43 0.44 0.43 0.40 0.38 0.37 0.34 0.29 0.24 0.19 0.17 0.18 0.19 0.19 0.19 0.18 0.19 0.20 0.23 0.24 0.23 0.24 0.24 0.25
0.20 0.19 0.19 0.24 0.27 0.30 0.14 0.14 0.24 0.27 0.29 0.30 0.27 0.30 0.35 0.38 0.38 0.41 0.42 0.43 0.44 0.43 0.40 0.39 0.39 0.37 0.31 0.27 0.21 0.19 0.21 0.21 0.21 0.21 0.23 0.26 0.27 0.28 0.28 0.27 0.26 0.25 0.25 0.26
0.21 0.18 0.14 0.26 0.27 0.20 0.24 0.29 0.31 0.31 0.30 0.31 0.34 0.35 0.37 0.39 0.39 0.40 0.40 0.41 0.42 0.41 0.40 0.40 0.39 0.33 0.28 0.22 0.22 0.24 0.24 0.23 0.24 0.26 0.29 0.28 0.27 0.27 0.27 0.26 0.24 0.24 0.24 0.24
0.20 0.18 0.25 0.28 0.27 0.33 0.34 0.32 0.33 0.34 0.35 0.35 0.34 0.34 0.37 0.38 0.40 0.41 0.41 0.41 0.42 0.40 0.39 0.38 0.35 0.30 0.23 0.22 0.25 0.23 0.22 0.22 0.25 0.27 0.27 0.28 0.26 0.24 0.23 0.24 0.24 0.24 0.25 0.25
0.22 0.23 0.25 0.28 0.33 0.34 0.35 0.33 0.34 0.35 0.35 0.36 0.34 0.37 0.38 0.41 0.42 0.41 0.41 0.40 0.39 0.37 0.35 0.31 0.28 0.23 0.21 0.24 0.24 0.23 0.24 0.25 0.27 0.26 0.26 0.25 0.25 0.25 0.25 0.25 0.25 0.26 0.26 0.25
0.23 0.26 0.29 0.31 0.33 0.32 0.32 0.34 0.34 0.37 0.37 0.36 0.37 0.36 0.38 0.41 0.43 0.43 0.42 0.41 0.40 0.37 0.31 0.26 0.21 0.18 0.20 0.19 0.20 0.21 0.23 0.23 0.24 0.24 0.23 0.22 0.24 0.25 0.26 0.28 0.28 0.27 0.26 0.26
0.18 0.27 0.27 0.30 0.32 0.33 0.32 0.32 0.32 0.34 0.34 0.38 0.38 0.36 0.39 0.40 0.42 0.41 0.40 0.39 0.37 0.32 0.27 0.21 0.19 0.19 0.19 0.21 0.24 0.23 0.23 0.24 0.24 0.24 0.23 0.24 0.24 0.26 0.29 0.29 0.28 0.28 0.29 0.28
0.26 0.31 0.32 0.32 0.34 0.36 0.33 0.33 0.30 0.33 0.35 0.35 0.38 0.39 0.40 0.40 0.41 0.40 0.38 0.37 0.32 0.27 0.22 0.18 0.17 0.17 0.20 0.24 0.26 0.26 0.26 0.25 0.23 0.23 0.22 0.23 0.25 0.26 0.24 0.25 0.27 0.28 0.28 0.28
0.35 0.35 0.30 0.32 0.30 0.34 0.33 0.31 0.29 0.30 0.37 0.38 0.39 0.40 0.40 0.39 0.40 0.39 0.37 0.33 0.29 0.21 0.16 0.16 0.16 0.19 0.25 0.28 0.27 0.25 0.25 0.23 0.23 0.22 0.23 0.26 0.27 0.27 0.25 0.24 0.23 0.24 0.26 0.27
0.34 0.35 0.32 0.33 0.33 0.32 0.32 0.27 0.25 0.28 0.33 0.35 0.37 0.38 0.39 0.38 0.38 0.36 0.32 0.28 0.21 0.16 0.16 0.17 0.23 0.25 0.27 0.26 0.25 0.24 0.23 0.23 0.23 0.25 0.25 0.26 0.27 0.25 0.25 0.25 0.24 0.24 0.25 0.25
0.32 0.31 0.30 0.29 0.29 0.28 0.29 0.29 0.28 0.32 0.33 0.34 0.35 0.36 0.37 0.37 0.35 0.31 0.28 0.19 0.14 0.16 0.23 0.24 0.23 0.24 0.25 0.25 0.26 0.25 0.23 0.24 0.24 0.24 0.24 0.25 0.25 0.25 0.25 0.25 0.25 0.25 0.23 0.23
0.30 0.27 0.27 0.26 0.28 0.30 0.32 0.34 0.34 0.35 0.35 0.36 0.37 0.38 0.37 0.34 0.30 0.26 0.18 0.16 0.22 0.24 0.23 0.23 0.23 0.23 0.23 0.26 0.25 0.24 0.24 0.22 0.22 0.22 0.22 0.25 0.25 0.24 0.26 0.26 0.26 0.25 0.23 0.23
0.36 0.33 0.32 0.33 0.32 0.33 0.34 0.35 0.37 0.37 0.37 0.38 0.38 0.37 0.34 0.29 0.24 0.18 0.16 0.22 0.24 0.24 0.24 0.23 0.23 0.24 0.25 0.24 0.24 0.25 0.22 0.22 0.22 0.21 0.22 0.24 0.25 0.26 0.27 0.26 0.26 0.25 0.23 0.22
0.35 0.32 0.35 0.36 0.37 0.36 0.36 0.36 0.38 0.40 0.39 0.39 0.37 0.33 0.29 0.26 0.21 0.17 0.20 0.23 0.24 0.23 0.23 0.24 0.24 0.24 0.24 0.25 0.25 0.23 0.23 0.23 0.21 0.19 0.22 0.25 0.25 0.27 0.26 0.26 0.27 0.26 0.24 0.22
0.36 0.35 0.35 0.37 0.38 0.36 0.36 0.39 0.40 0.39 0.39 0.38 0.34 0.30 0.26 0.22 0.18 0.19 0.22 0.23 0.24 0.24 0.25 0.24 0.25 0.25 0.24 0.25 0.24 0.23 0.24 0.21 0.18 0.18 0.22 0.25 0.25 0.25 0.26 0.28 0.28 0.27 0.24 0.22
0.35 0.34 0.34 0.34 0.35 0.36 0.38 0.40 0.40 0.39 0.38 0.35 0.31 0.27 0.23 0.19 0.19 0.22 0.22 0.21 0.24 0.25 0.25 0.25 0.25 0.23 0.24 0.25 0.25 0.24 0.22 0.19 0.17 0.18 0.22 0.24 0.25 0.25 0.27 0.28 0.29 0.28 0.26 0.25
0.36 0.35 0.34 0.34 0.34 0.35 0.38 0.40 0.40 0.39 0.36 0.34 0.31 0.27 0.21 0.19 0.21 0.22 0.23 0.22 0.24 0.24 0.25 0.25 0.25 0.24 0.26 0.26 0.24 0.23 0.20 0.17 0.16 0.18 0.22 0.25 0.25 0.25 0.27 0.28 0.29 0.29 0.28 0.27
0.37 0.37 0.35 0.34 0.33 0.34 0.36 0.37 0.38 0.38 0.36 0.34 0.31 0.26 0.22 0.21 0.22 0.21 0.21 0.24 0.24 0.25 0.25 0.26 0.25 0.25 0.26 0.24 0.22 0.20 0.18 0.17 0.16 0.18 0.23 0.25 0.25 0.26 0.27 0.29 0.31 0.31 0.30 0.28
0.40 0.38 0.38 0.37 0.37 0.39 0.35 0.35 0.37 0.38 0.38 0.37 0.34 0.30 0.26 0.22 0.22 0.24 0.25 0.25 0.25 0.26 0.27 0.27 0.26 0.25 0.25 0.23 0.21 0.19 0.18 0.17 0.17 0.19 0.24 0.26 0.25 0.26 0.28 0.30 0.32 0.32 0.31 0.30
0.43 0.43 0.43 0.43 0.43 0.46 0.43 0.40 0.38 0.36 0.38 0.38 0.37 0.34 0.31 0.26 0.23 0.24 0.26 0.26 0.26 0.27 0.27 0.27 0.24 0.23 0.23 0.22 0.20 0.18 0.18 0.17 0.17 0.21 0.25 0.25 0.25 0.26 0.28 0.31 0.33 0.33 0.33 0.32
0.43 0.44 0.43 0.44 0.47 0.52 0.51 0.46 0.40 0.37 0.38 0.38 0.38 0.36 0.34 0.30 0.26 0.25 0.27 0.27 0.26 0.27 0.28 0.26 0.22 0.22 0.23 0.21 0.20 0.18 0.18 0.17 0.18 0.22 0.26 0.26 0.25 0.26 0.27 0.31 0.33 0.34 0.34 0.34
0.53 0.55 0.55 0.55 0.50 0.54 0.55 0.50 0.44 0.39 0.40 0.40 0.39 0.38 0.35 0.33 0.28 0.25 0.26 0.26 0.26 0.27 0.27 0.25 0.22 0.22 0.22 0.21 0.20 0.18 0.18 0.17 0.19 0.23 0.27 0.27 0.25 0.25 0.27 0.31 0.34 0.36 0.36 0.36

GFSNGP_prec_pwat_111.txt.gz
Precipitable_Water
0.21 0.21 0.20 0.19 0.20 0.22 0.20 0.22 0.18 0.15 0.16 0.18 0.23 0.27 0.32 0.38 0.40 0.40 0.41 0.43 0.44 0.44 0.44 0.43 0.41 0.39 0.36 0.34 0.34 0.34 0.33 0.34 0.34 0.34 0.32 0.27 0.23 0.21 0.21 0.21 0.22 0.22 0.21 0.24
0.17 0.19 0.20 0.17 0.20 0.21 0.21 0.21 0.21 0.21 0.18 0.27 0.26 0.28 0.30 0.33 0.39 0.38 0.40 0.42 0.42 0.43 0.44 0.43 0.42 0.40 0.37 0.34 0.33 0.31 0.27 0.23 0.21 0.18 0.15 0.14 0.14 0.16 0.16 0.16 0.17 0.17 0.17 0.19
0.15 0.20 0.20 0.14 0.15 0.17 0.18 0.19 0.20 0.16 0.20 0.26 0.26 0.29 0.32 0.35 0.40 0.39 0.42 0.44 0.42 0.43 0.44 0.44 0.43 0.42 0.37 0.35 0.34 0.31 0.26 0.22 0.19 0.15 0.14 0.15 0.16 0.16 0.16 0.16 0.17 0.17 0.17 0.18
0.17 0.19 0.11 0.17 0.21 0.19 0.18 0.19 0.23 0.24 0.24 0.26 0.28 0.32 0.36 0.39 0.40 0.41 0.44 0.45 0.45 0.46 0.47 0.47 0.46 0.44 0.41 0.39 0.35 0.31 0.26 0.23 0.18 0.16 0.17 0.18 0.17 0.17 0.17 0.18 0.18 0.19 0.20 0.20
0.19 0.17 0.17 0.18 0.19 0.19 0.18 0.16 0.22 0.21 0.23 0.24 0.27 0.31 0.29 0.36 0.40 0.42 0.46 0.47 0.47 0.49 0.49 0.48 0.45 0.43 0.41 0.38 0.36 0.32 0.27 0.22 0.19 0.20 0.19 0.18 0.18 0.19 0.20 0.21 0.23 0.25 0.27 0.28
0.22 0.16 0.12 0.16 0.22 0.27 0.26 0.14 0.22 0.21 0.22 0.25 0.27 0.19 0.27 0.40 0.41 0.40 0.44 0.45 0.46 0.48 0.49 0.47 0.45 0.44 0.40 0.37 0.35 0.30 0.27 0.22 0.23 0.23 0.21 0.21 0.22 0.23 0.26 0.29 0.30 0.31 0.30 0.30
0.22 0.19 0.19 0.24 0.27 0.30 0.14 0.16 0.25 0.28 0.30 0.30 0.28 0.29 0.34 0.33 0.35 0.39 0.40 0.41 0.43 0.44 0.42 0.42 0.43 0.41 0.38 0.37 0.31 0.29 0.24 0.25 0.24 0.24 0.24 0.25 0.26 0.28 0.30 0.31 0.30 0.30 0.28 0.28
0.22 0.20 0.15 0.28 0.28 0.18 0.22 0.27 0.29 0.31 0.32 0.31 0.32 0.34 0.35 0.37 0.37 0.39 0.40 0.41 0.41 0.40 0.38 0.39 0.39 0.37 0.34 0.29 0.27 0.21 0.22 0.22 0.21 0.23 0.24 0.25 0.27 0.28 0.29 0.28 0.27 0.27 0.26 0.26
0.22 0.20 0.27 0.30 0.24 0.30 0.32 0.29 0.31 0.32 0.33 0.33 0.32 0.33 0.36 0.37 0.39 0.41 0.42 0.42 0.42 0.41 0.40 0.40 0.39 0.36 0.30 0.26 0.20 0.19 0.18 0.17 0.18 0.21 0.22 0.23 0.25 0.25 0.26 0.27 0.27 0.26 0.26 0.26
0.23 0.23 0.25 0.27 0.30 0.31 0.34 0.33 0.33 0.33 0.33 0.34 0.33 0.35 0.35 0.37 0.39 0.40 0.42 0.41 0.41 0.41 0.39 0.37 0.37 0.33 0.27 0.21 0.19 0.17 0.16 0.18 0.20 0.21 0.23 0.25 0.24 0.24 0.24 0.25 0.25 0.25 0.25 0.25
0.25 0.25 0.28 0.28 0.30 0.32 0.34 0.34 0.33 0.34 0.33 0.32 0.34 0.34 0.36 0.38 0.39 0.41 0.41 0.41 0.42 0.40 0.38 0.37 0.35 0.28 0.22 0.18 0.17 0.16 0.18 0.20 0.23 0.24 0.23 0.24 0.24 0.24 0.26 0.28 0.29 0.28 0.28 0.28
0.22 0.28 0.28 0.28 0.33 0.35 0.32 0.32 0.34 0.34 0.32 0.30 0.33 0.33 0.37 0.38 0.40 0.41 0.41 0.41 0.41 0.40 0.38 0.35 0.29 0.22 0.18 0.18 0.18 0.20 0.23 0.25 0.26 0.25 0.24 0.23 0.23 0.24 0.29 0.31 0.31 0.30 0.30 0.29
0.29 0.34 0.33 0.35 0.38 0.37 0.34 0.36 0.36 0.34 0.32 0.28 0.33 0.37 0.39 0.38 0.41 0.41 0.41 0.41 0.40 0.39 0.36 0.30 0.21 0.16 0.17 0.21 0.25 0.25 0.24 0.24 0.24 0.24 0.23 0.24 0.25 0.24 0.24 0.27 0.28 0.29 0.29 0.29
0.38 0.38 0.34 0.38 0.35 0.38 0.37 0.36 0.36 0.35 0.33 0.29 0.35 0.39 0.40 0.39 0.40 0.40 0.40 0.41 0.40 0.35 0.29 0.21 0.16 0.18 0.24 0.25 0.24 0.24 0.23 0.24 0.26 0.24 0.25 0.24 0.23 0.23 0.26 0.24 0.23 0.25 0.28 0.29
0.38 0.39 0.38 0.40 0.39 0.37 0.37 0.36 0.32 0.29 0.30 0.31 0.38 0.38 0.39 0.38 0.39 0.40 0.40 0.40 0.35 0.30 0.19 0.16 0.22 0.23 0.24 0.24 0.23 0.23 0.24 0.24 0.23 0.24 0.23 0.23 0.23 0.25 0.26 0.25 0.25 0.25 0.27 0.28
0.40 0.39 0.37 0.34 0.34 0.34 0.33 0.32 0.32 0.31 0.33 0.36 0.36 0.37 0.38 0.40 0.40 0.39 0.39 0.34 0.28 0.18 0.17 0.24 0.23 0.23 0.24 0.24 0.24 0.24 0.23 0.22 0.24 0.22 0.23 0.23 0.22 0.24 0.25 0.25 0.25 0.26 0.26 0.27
0.39 0.34 0.33 0.32 0.32 0.32 0.34 0.36 0.37 0.37 0.38 0.38 0.38 0.39 0.39 0.39 0.38 0.37 0.33 0.29 0.21 0.18 0.24 0.25 0.23 0.25 0.25 0.24 0.23 0.23 0.23 0.23 0.22 0.22 0.22 0.21 0.20 0.23 0.25 0.25 0.26 0.26 0.27 0.29
0.44 0.41 0.38 0.35 0.34 0.35 0.35 0.38 0.39 0.40 0.40 0.42 0.42 0.41 0.40 0.38 0.36 0.32 0.29 0.23 0.19 0.22 0.26 0.25 0.24 0.25 0.24 0.24 0.24 0.23 0.23 0.22 0.22 0.22 0.21 0.19 0.19 0.24 0.26 0.25 0.26 0.27 0.28 0.29
0.42 0.39 0.38 0.39 0.39 0.38 0.38 0.39 0.39 0.41 0.43 0.44 0.43 0.42 0.41 0.39 0.34 0.30 0.26 0.20 0.20 0.22 0.25 0.26 0.25 0.24 0.25 0.25 0.24 0.23 0.24 0.22 0.22 0.22 0.19 0.18 0.20 0.25 0.25 0.26 0.27 0.28 0.29 0.28
0.37 0.38 0.38 0.38 0.40 0.40 0.39 0.39 0.40 0.40 0.42 0.44 0.44 0.42 0.40 0.37 0.33 0.28 0.23 0.20 0.22 0.24 0.26 0.26 0.25 0.24 0.25 0.25 0.24 0.24 0.24 0.23 0.21 0.19 0.17 0.17 0.21 0.24 0.25 0.26 0.28 0.29 0.30 0.29
0.35 0.36 0.35 0.36 0.38 0.41 0.41 0.40 0.39 0.38 0.40 0.42 0.42 0.40 0.39 0.36 0.32 0.26 0.22 0.21 0.24 0.25 0.25 0.25 0.25 0.25 0.25 0.26 0.25 0.24 0.24 0.22 0.20 0.18 0.16 0.17 0.21 0.25 0.24 0.25 0.28 0.30 0.30 0.29
0.33 0.32 0.33 0.36 0.37 0.37 0.40 0.39 0.38 0.39 0.39 0.40 0.40 0.38 0.37 0.35 0.30 0.25 0.25 0.24 0.25 0.26 0.26 0.25 0.26 0.26 0.26 0.27 0.26 0.24 0.23 0.21 0.19 0.18 0.16 0.17 0.22 0.24 0.24 0.25 0.28 0.31 0.31 0.30
0.35 0.38 0.41 0.42 0.42 0.39 0.38 0.40 0.38 0.38 0.41 0.41 0.38 0.37 0.37 0.36 0.30 0.26 0.23 0.26 0.26 0.26 0.27 0.26 0.27 0.28 0.28 0.27 0.25 0.23 0.21 0.20 0.19 0.17 0.17 0.18 0.24 0.25 0.24 0.26 0.29 0.32 0.32 0.31
0.38 0.40 0.42 0.44 0.44 0.43 0.41 0.42 0.44 0.46 0.49 0.46 0.42 0.40 0.40 0.38 0.33 0.32 0.29 0.28 0.27 0.27 0.28 0.28 0.28 0.29 0.29 0.25 0.24 0.22 0.21 0.20 0.19 0.18 0.17 0.20 0.25 0.26 0.25 0.26 0.29 0.32 0.33 0.33
0.38 0.38 0.40 0.42 0.41 0.40 0.44 0.46 0.47 0.50 0.52 0.48 0.44 0.42 0.41 0.43 0.38 0.35 0.32 0.30 0.28 0.28 0.29 0.29 0.29 0.29 0.28 0.24 0.22 0.22 0.21 0.20 0.20 0.18 0.18 0.21 0.25 0.26 0.25 0.26 0.30 0.33 0.34 0.34
0.45 0.46 0.43 0.42 0.42 0.44 0.47 0.49 0.49 0.54 0.57 0.51 0.46 0.44 0.42 0.43 0.42 0.39 0.36 0.33 0.29 0.29 0.29 0.28 0.28 0.29 0.26 0.24 0.22 0.22 0.21 0.21 0.20 0.19 0.18 0.22 0.26 0.26 0.25 0.26 0.30 0.33 0.35 0.35
0.47 0.47 0.46 0.44 0.43 0.48 0.53 0.58 0.59 0.59 0.58 0.58 0.50 0.47 0.45 0.45 0.44 0.40 0.38 0.35 0.31 0.29 0.28 0.28 0.27 0.28 0.26 0.24 0.22 0.22 0.21 0.21 0.20 0.19 0.19 0.23 0.26 0.27 0.25 0.26 0.30 0.34 0.35 0.36

GFSNGP_prec_pwat_114.txt.gz
Precipitable_Water
0.20 0.21 0.21 0.19 0.18 0.19 0.19 0.20 0.18 0.14 0.17 0.18 0.23 0.25 0.29 0.34 0.38 0.38 0.40 0.42 0.44 0.46 0.47 0.45 0.44 0.43 0.41 0.37 0.36 0.35 0.32 0.29 0.25 0.22 0.19 0.17 0.16 0.16 0.19 0.23 0.22 0.20 0.21 0.23
0.17 0.18 0.19 0.17 0.17 0.19 0.19 0.19 0.21 0.21 0.17 0.25 0.28 0.30 0.30 0.29 0.33 0.37 0.39 0.43 0.46 0.48 0.48 0.47 0.46 0.45 0.44 0.41 0.37 0.36 0.33 0.29 0.25 0.21 0.17 0.14 0.15 0.16 0.16 0.15 0.16 0.16 0.16 0.17
0.14 0.21 0.20 0.13 0.15 0.16 0.18 0.20 0.19 0.15 0.17 0.25 0.25 0.27 0.29 0.32 0.34 0.37 0.40 0.42 0.45 0.47 0.47 0.48 0.48 0.47 0.45 0.44 0.41 0.37 0.35 0.31 0.26 0.21 0.16 0.17 0.18 0.17 0.16 0.16 0.17 0.17 0.18 0.18
0.18 0.20 0.11 0.18 0.21 0.20 0.18 0.20 0.21 0.20 0.22 0.24 0.23 0.25 0.27 0.31 0.32 0.35 0.40 0.44 0.47 0.47 0.47 0.48 0.49 0.48 0.48 0.46 0.42 0.39 0.36 0.32 0.29 0.23 0.21 0.21 0.19 0.18 0.18 0.19 0.19 0.19 0.21 0.23
0.19 0.19 0.19 0.18 0.20 0.18 0.16 0.15 0.19 0.20 0.21 0.23 0.24 0.25 0.25 0.35 0.35 0.36 0.38 0.42 0.45 0.45 0.45 0.46 0.45 0.44 0.43 0.41 0.38 0.36 0.35 0.31 0.28 0.24 0.24 0.23 0.22 0.21 0.21 0.22 0.23 0.23 0.25 0.26
0.23 0.18 0.12 0.18 0.23 0.26 0.25 0.13 0.22 0.23 0.23 0.23 0.27 0.20 0.24 0.36 0.38 0.37 0.38 0.40 0.41 0.43 0.44 0.43 0.42 0.42 0.40 0.37 0.35 0.33 0.30 0.26 0.20 0.20 0.19 0.19 0.20 0.22 0.26 0.28 0.28 0.30 0.30 0.32
0.22 0.21 0.21 0.25 0.28 0.30 0.16 0.14 0.26 0.25 0.26 0.27 0.26 0.29 0.33 0.37 0.36 0.38 0.39 0.39 0.43 0.44 0.43 0.43 0.41 0.41 0.38 0.36 0.34 0.33 0.29 0.21 0.19 0.18 0.17 0.18 0.19 0.21 0.22 0.23 0.25 0.27 0.29 0.31
0.25 0.22 0.16 0.31 0.29 0.21 0.22 0.25 0.27 0.28 0.29 0.30 0.32 0.32 0.33 0.34 0.38 0.39 0.40 0.41 0.43 0.42 0.42 0.42 0.42 0.41 0.38 0.36 0.36 0.31 0.25 0.19 0.17 0.17 0.18 0.18 0.18 0.20 0.21 0.22 0.23 0.24 0.26 0.26
0.24 0.20 0.29 0.33 0.29 0.32 0.31 0.29 0.30 0.32 0.33 0.33 0.32 0.32 0.33 0.33 0.38 0.39 0.41 0.41 0.44 0.43 0.42 0.43 0.43 0.41 0.37 0.36 0.33 0.27 0.20 0.17 0.17 0.18 0.19 0.21 0.22 0.23 0.23 0.23 0.24 0.24 0.25 0.26
0.25 0.25 0.28 0.32 0.35 0.35 0.36 0.34 0.34 0.35 0.35 0.34 0.31 0.33 0.32 0.34 0.37 0.39 0.41 0.40 0.42 0.42 0.41 0.41 0.42 0.40 0.38 0.35 0.29 0.21 0.16 0.16 0.18 0.22 0.24 0.24 0.23 0.23 0.23 0.23 0.24 0.26 0.26 0.26
0.30 0.30 0.32 0.31 0.32 0.33 0.34 0.37 0.37 0.38 0.36 0.35 0.35 0.33 0.31 0.32 0.35 0.39 0.41 0.41 0.42 0.41 0.41 0.41 0.41 0.40 0.37 0.30 0.21 0.16 0.17 0.21 0.23 0.23 0.23 0.22 0.23 0.23 0.25 0.27 0.27 0.27 0.27 0.28
0.29 0.32 0.33 0.33 0.36 0.38 0.35 0.36 0.38 0.37 0.37 0.38 0.37 0.33 0.32 0.34 0.38 0.41 0.41 0.41 0.41 0.42 0.42 0.41 0.41 0.38 0.31 0.21 0.19 0.22 0.22 0.21 0.22 0.21 0.22 0.24 0.22 0.22 0.25 0.26 0.28 0.31 0.30 0.30
0.36 0.39 0.40 0.40 0.40 0.41 0.38 0.39 0.40 0.39 0.39 0.36 0.36 0.36 0.33 0.37 0.41 0.43 0.42 0.42 0.42 0.42 0.42 0.42 0.39 0.31 0.21 0.23 0.24 0.22 0.21 0.20 0.21 0.22 0.21 0.20 0.21 0.21 0.20 0.24 0.28 0.28 0.28 0.29
0.44 0.42 0.38 0.38 0.38 0.41 0.43 0.42 0.42 0.40 0.38 0.37 0.36 0.35 0.35 0.40 0.43 0.42 0.41 0.43 0.43 0.43 0.42 0.38 0.30 0.20 0.24 0.26 0.24 0.22 0.21 0.22 0.22 0.21 0.21 0.22 0.21 0.21 0.22 0.20 0.21 0.23 0.27 0.28
0.44 0.44 0.41 0.44 0.43 0.42 0.43 0.39 0.36 0.35 0.36 0.34 0.35 0.35 0.39 0.40 0.41 0.41 0.43 0.43 0.42 0.41 0.37 0.30 0.20 0.23 0.27 0.26 0.24 0.23 0.21 0.22 0.22 0.22 0.22 0.21 0.22 0.22 0.20 0.19 0.23 0.23 0.25 0.28
0.48 0.46 0.42 0.41 0.41 0.39 0.37 0.36 0.33 0.33 0.36 0.36 0.36 0.39 0.40 0.41 0.42 0.43 0.43 0.43 0.40 0.36 0.31 0.22 0.21 0.26 0.27 0.26 0.24 0.23 0.23 0.23 0.23 0.22 0.21 0.21 0.21 0.19 0.18 0.20 0.23 0.24 0.26 0.27
0.39 0.38 0.39 0.38 0.35 0.33 0.33 0.34 0.35 0.38 0.39 0.39 0.41 0.42 0.41 0.42 0.43 0.43 0.43 0.42 0.38 0.32 0.25 0.20 0.24 0.28 0.27 0.27 0.25 0.24 0.23 0.22 0.22 0.22 0.21 0.21 0.20 0.18 0.18 0.22 0.25 0.25 0.26 0.29
0.40 0.41 0.41 0.40 0.36 0.34 0.32 0.37 0.40 0.41 0.40 0.42 0.43 0.42 0.42 0.42 0.43 0.43 0.43 0.40 0.34 0.29 0.22 0.23 0.27 0.28 0.27 0.27 0.26 0.25 0.24 0.22 0.23 0.21 0.21 0.20 0.19 0.18 0.19 0.23 0.25 0.25 0.26 0.29
0.38 0.39 0.40 0.41 0.41 0.36 0.37 0.38 0.40 0.42 0.43 0.43 0.43 0.42 0.43 0.43 0.43 0.43 0.43 0.37 0.32 0.24 0.21 0.25 0.28 0.28 0.27 0.27 0.28 0.26 0.24 0.23 0.23 0.22 0.21 0.20 0.18 0.17 0.19 0.24 0.24 0.25 0.28 0.30
0.41 0.44 0.44 0.42 0.40 0.37 0.37 0.39 0.41 0.41 0.43 0.43 0.43 0.41 0.40 0.41 0.43 0.42 0.40 0.36 0.31 0.25 0.25 0.27 0.27 0.27 0.27 0.27 0.29 0.27 0.25 0.24 0.22 0.22 0.21 0.19 0.17 0.17 0.20 0.25 0.24 0.25 0.28 0.30
0.37 0.38 0.38 0.37 0.35 0.36 0.37 0.41 0.44 0.41 0.41 0.43 0.41 0.40 0.41 0.42 0.43 0.41 0.37 0.36 0.30 0.27 0.28 0.28 0.27 0.27 0.27 0.28 0.29 0.28 0.26 0.23 0.23 0.22 0.20 0.18 0.17 0.17 0.22 0.24 0.24 0.26 0.29 0.30
0.42 0.41 0.39 0.35 0.36 0.39 0.42 0.45 0.47 0.47 0.44 0.40 0.43 0.42 0.42 0.46 0.44 0.38 0.37 0.37 0.31 0.29 0.29 0.28 0.27 0.28 0.28 0.29 0.30 0.29 0.26 0.23 0.23 0.21 0.19 0.18 0.17 0.17 0.23 0.24 0.23 0.26 0.30 0.31
0.48 0.48 0.43 0.35 0.35 0.39 0.41 0.42 0.43 0.45 0.45 0.43 0.42 0.48 0.51 0.50 0.46 0.39 0.35 0.38 0.35 0.32 0.30 0.29 0.28 0.29 0.30 0.30 0.31 0.29 0.25 0.23 0.22 0.21 0.19 0.18 0.17 0.19 0.24 0.25 0.24 0.27 0.31 0.32
0.46 0.46 0.49 0.43 0.36 0.36 0.35 0.38 0.42 0.44 0.45 0.46 0.49 0.53 0.54 0.49 0.44 0.44 0.42 0.41 0.38 0.35 0.33 0.31 0.30 0.30 0.31 0.30 0.30 0.29 0.25 0.23 0.22 0.21 0.20 0.19 0.18 0.20 0.25 0.25 0.24 0.27 0.31 0.33
0.41 0.43 0.43 0.43 0.39 0.33 0.36 0.40 0.41 0.43 0.43 0.45 0.49 0.54 0.56 0.56 0.47 0.46 0.45 0.43 0.43 0.39 0.36 0.34 0.32 0.32 0.31 0.30 0.30 0.28 0.25 0.23 0.22 0.21 0.20 0.19 0.18 0.21 0.26 0.26 0.24 0.27 0.32 0.34
0.40 0.42 0.41 0.42 0.39 0.41 0.43 0.45 0.45 0.42 0.43 0.45 0.49 0.54 0.59 0.60 0.53 0.49 0.46 0.44 0.44 0.42 0.38 0.36 0.33 0.32 0.31 0.29 0.29 0.28 0.25 0.23 0.22 0.22 0.20 0.19 0.19 0.22 0.26 0.26 0.24 0.27 0.32 0.34
0.38 0.42 0.42 0.43 0.44 0.45 0.45 0.45 0.45 0.43 0.43 0.46 0.53 0.62 0.62 0.60 0.57 0.51 0.48 0.46 0.46 0.43 0.41 0.38 0.34 0.31 0.29 0.29 0.28 0.28 0.26 0.23 0.22 0.21 0.21 0.20 0.20 0.22 0.26 0.26 0.25 0.27 0.32 0.34

GFSNGP_prec_pwat_117.txt.gz
Precipitable_Water
0.18 0.19 0.19 0.18 0.17 0.18 0.17 0.17 0.15 0.12 0.15 0.15 0.22 0.24 0.27 0.30 0.33 0.34 0.35 0.41 0.43 0.45 0.47 0.49 0.48 0.46 0.46 0.44 0.42 0.40 0.38 0.36 0.33 0.28 0.24 0.19 0.16 0.17 0.16 0.15 0.15 0.15 0.15 0.16
0.17 0.19 0.20 0.17 0.19 0.19 0.19 0.19 0.19 0.18 0.15 0.20 0.25 0.27 0.26 0.28 0.30 0.31 0.34 0.38 0.43 0.46 0.47 0.47 0.47 0.46 0.46 0.45 0.43 0.41 0.38 0.36 0.36 0.32 0.29 0.23 0.23 0.22 0.20 0.19 0.19 0.18 0.18 0.18
0.14 0.20 0.18 0.12 0.14 0.16 0.17 0.19 0.18 0.15 0.15 0.21 0.21 0.24 0.25 0.25 0.26 0.28 0.32 0.38 0.42 0.44 0.45 0.47 0.47 0.46 0.45 0.45 0.43 0.40 0.37 0.35 0.33 0.29 0.23 0.22 0.24 0.23 0.23 0.24 0.24 0.23 0.22 0.22
0.18 0.19 0.10 0.15 0.23 0.22 0.19 0.19 0.21 0.20 0.20 0.22 0.24 0.26 0.26 0.27 0.29 0.32 0.35 0.39 0.42 0.45 0.46 0.48 0.48 0.47 0.47 0.46 0.44 0.40 0.37 0.35 0.32 0.27 0.20 0.19 0.18 0.18 0.19 0.20 0.21 0.23 0.25 0.26
0.17 0.18 0.18 0.18 0.20 0.19 0.17 0.15 0.19 0.20 0.22 0.24 0.26 0.27 0.24 0.29 0.36 0.37 0.38 0.40 0.42 0.47 0.48 0.47 0.45 0.46 0.45 0.44 0.43 0.39 0.36 0.35 0.31 0.25 0.20 0.18 0.17 0.17 0.17 0.18 0.19 0.20 0.22 0.24
0.23 0.18 0.12 0.18 0.25 0.29 0.25 0.15 0.21 0.21 0.22 0.24 0.27 0.19 0.20 0.30 0.36 0.36 0.38 0.38 0.39 0.43 0.46 0.46 0.46 0.47 0.46 0.44 0.42 0.38 0.37 0.35 0.30 0.23 0.20 0.17 0.17 0.17 0.18 0.19 0.19 0.21 0.23 0.25
0.23 0.21 0.22 0.26 0.30 0.33 0.18 0.17 0.25 0.25 0.25 0.26 0.24 0.26 0.31 0.37 0.37 0.39 0.38 0.40 0.43 0.43 0.43 0.45 0.46 0.46 0.44 0.43 0.40 0.40 0.38 0.34 0.27 0.22 0.18 0.18 0.17 0.18 0.21 0.22 0.22 0.22 0.23 0.25
0.27 0.23 0.17 0.33 0.32 0.24 0.26 0.29 0.30 0.30 0.29 0.28 0.31 0.34 0.35 0.36 0.36 0.38 0.38 0.41 0.42 0.42 0.43 0.44 0.45 0.44 0.42 0.42 0.42 0.40 0.37 0.31 0.23 0.18 0.17 0.19 0.20 0.22 0.22 0.22 0.21 0.22 0.22 0.24
0.26 0.24 0.29 0.34 0.31 0.35 0.35 0.33 0.33 0.33 0.34 0.35 0.35 0.35 0.35 0.35 0.35 0.36 0.39 0.41 0.43 0.42 0.41 0.43 0.44 0.44 0.42 0.42 0.42 0.39 0.33 0.24 0.18 0.18 0.21 0.22 0.22 0.21 0.20 0.22 0.21 0.21 0.23 0.24
0.37 0.38 0.37 0.37 0.37 0.38 0.39 0.37 0.39 0.39 0.38 0.38 0.36 0.37 0.36 0.36 0.35 0.35 0.38 0.40 0.44 0.42 0.41 0.42 0.43 0.44 0.43 0.42 0.41 0.35 0.25 0.18 0.21 0.22 0.22 0.22 0.21 0.21 0.21 0.21 0.21 0.22 0.22 0.24
0.39 0.44 0.42 0.41 0.37 0.35 0.38 0.38 0.37 0.40 0.40 0.39 0.40 0.38 0.38 0.37 0.36 0.35 0.38 0.41 0.44 0.43 0.42 0.42 0.44 0.44 0.43 0.42 0.37 0.27 0.21 0.23 0.22 0.21 0.21 0.20 0.21 0.21 0.21 0.23 0.24 0.23 0.25 0.27
0.35 0.42 0.39 0.39 0.41 0.41 0.39 0.37 0.38 0.39 0.39 0.41 0.41 0.39 0.40 0.37 0.36 0.36 0.39 0.42 0.44 0.44 0.43 0.44 0.44 0.43 0.43 0.40 0.29 0.23 0.23 0.23 0.22 0.21 0.21 0.21 0.20 0.20 0.23 0.23 0.24 0.25 0.26 0.26
0.42 0.45 0.43 0.40 0.40 0.41 0.40 0.40 0.43 0.42 0.42 0.41 0.41 0.40 0.39 0.37 0.38 0.38 0.43 0.44 0.44 0.44 0.44 0.44 0.43 0.43 0.41 0.31 0.26 0.26 0.24 0.23 0.23 0.22 0.21 0.20 0.20 0.19 0.17 0.20 0.22 0.21 0.24 0.27
0.47 0.47 0.43 0.47 0.43 0.44 0.42 0.42 0.44 0.44 0.43 0.40 0.39 0.39 0.40 0.38 0.37 0.39 0.43 0.45 0.46 0.45 0.45 0.44 0.43 0.42 0.33 0.26 0.28 0.27 0.25 0.25 0.24 0.22 0.21 0.20 0.21 0.19 0.20 0.18 0.16 0.16 0.24 0.26
0.43 0.43 0.42 0.45 0.48 0.48 0.44 0.43 0.41 0.39 0.37 0.36 0.38 0.37 0.37 0.36 0.37 0.43 0.46 0.46 0.46 0.47 0.47 0.45 0.42 0.35 0.27 0.26 0.29 0.26 0.26 0.25 0.25 0.23 0.21 0.21 0.22 0.20 0.20 0.18 0.16 0.18 0.24 0.26
0.41 0.40 0.40 0.40 0.41 0.44 0.44 0.41 0.38 0.35 0.34 0.33 0.34 0.37 0.39 0.41 0.43 0.45 0.46 0.46 0.45 0.47 0.47 0.45 0.36 0.30 0.23 0.28 0.29 0.27 0.27 0.27 0.27 0.24 0.22 0.22 0.21 0.20 0.19 0.17 0.16 0.19 0.24 0.24
0.35 0.34 0.36 0.37 0.40 0.41 0.39 0.38 0.35 0.33 0.33 0.36 0.38 0.42 0.43 0.43 0.44 0.44 0.45 0.46 0.46 0.47 0.47 0.41 0.34 0.25 0.25 0.29 0.29 0.28 0.27 0.27 0.27 0.25 0.23 0.22 0.21 0.20 0.19 0.17 0.17 0.21 0.24 0.26
0.36 0.36 0.36 0.35 0.36 0.38 0.37 0.36 0.34 0.35 0.35 0.39 0.41 0.42 0.42 0.43 0.44 0.45 0.45 0.44 0.44 0.44 0.44 0.39 0.30 0.26 0.27 0.30 0.30 0.28 0.28 0.28 0.27 0.25 0.23 0.22 0.21 0.21 0.19 0.17 0.17 0.22 0.24 0.26
0.32 0.31 0.32 0.35 0.38 0.39 0.39 0.36 0.33 0.35 0.38 0.42 0.43 0.42 0.45 0.46 0.46 0.45 0.45 0.42 0.42 0.39 0.40 0.39 0.29 0.27 0.27 0.29 0.29 0.29 0.29 0.28 0.28 0.26 0.24 0.23 0.22 0.20 0.18 0.17 0.18 0.23 0.24 0.26
0.34 0.35 0.39 0.45 0.48 0.46 0.43 0.42 0.39 0.41 0.45 0.47 0.51 0.48 0.42 0.46 0.49 0.45 0.44 0.42 0.43 0.42 0.39 0.37 0.30 0.28 0.29 0.29 0.30 0.30 0.30 0.29 0.28 0.26 0.23 0.23 0.21 0.19 0.18 0.17 0.20 0.24 0.23 0.26
0.45 0.46 0.46 0.45 0.45 0.43 0.40 0.38 0.40 0.42 0.44 0.47 0.48 0.49 0.48 0.45 0.48 0.47 0.43 0.44 0.46 0.43 0.37 0.36 0.33 0.30 0.30 0.30 0.30 0.30 0.30 0.30 0.29 0.26 0.23 0.22 0.20 0.19 0.18 0.17 0.21 0.24 0.23 0.27
0.41 0.43 0.45 0.46 0.45 0.46 0.47 0.42 0.38 0.38 0.40 0.41 0.41 0.43 0.46 0.47 0.47 0.51 0.54 0.53 0.51 0.45 0.38 0.37 0.35 0.32 0.30 0.30 0.30 0.30 0.30 0.30 0.30 0.27 0.24 0.22 0.20 0.18 0.17 0.18 0.22 0.24 0.23 0.28
0.31 0.35 0.36 0.39 0.42 0.42 0.44 0.46 0.45 0.42 0.38 0.37 0.37 0.40 0.41 0.46 0.51 0.53 0.54 0.54 0.49 0.45 0.40 0.39 0.38 0.35 0.32 0.32 0.30 0.30 0.30 0.31 0.30 0.27 0.24 0.22 0.20 0.19 0.18 0.18 0.23 0.25 0.23 0.28
0.30 0.30 0.30 0.30 0.33 0.35 0.37 0.39 0.43 0.45 0.41 0.39 0.39 0.40 0.41 0.43 0.47 0.55 0.59 0.59 0.49 0.46 0.44 0.41 0.42 0.37 0.35 0.34 0.32 0.31 0.31 0.31 0.30 0.28 0.24 0.22 0.21 0.20 0.19 0.20 0.24 0.25 0.24 0.29
0.29 0.31 0.32 0.32 0.29 0.28 0.32 0.39 0.39 0.38 0.37 0.38 0.42 0.46 0.46 0.47 0.47 0.51 0.55 0.58 0.53 0.49 0.47 0.46 0.45 0.40 0.38 0.35 0.33 0.32 0.31 0.31 0.30 0.27 0.24 0.22 0.21 0.20 0.19 0.20 0.24 0.25 0.24 0.29
0.32 0.33 0.33 0.33 0.32 0.31 0.31 0.36 0.37 0.40 0.42 0.42 0.42 0.43 0.45 0.46 0.48 0.51 0.55 0.60 0.55 0.51 0.49 0.46 0.48 0.43 0.40 0.37 0.34 0.32 0.30 0.30 0.29 0.27 0.24 0.23 0.21 0.20 0.20 0.21 0.25 0.25 0.24 0.28
0.34 0.35 0.35 0.35 0.35 0.34 0.35 0.38 0.38 0.40 0.44 0.44 0.42 0.42 0.45 0.47 0.50 0.53 0.58 0.59 0.57 0.52 0.51 0.47 0.48 0.44 0.42 0.37 0.34 0.32 0.30 0.30 0.29 0.27 0.24 0.22 0.21 0.21 0.21 0.21 0.25 0.26 0.25 0.27